<?xml version="1.0" encoding="UTF-8"?>
<gpx version="1.1" creator="https://www.www-youtrack-es.amenigma.com" xsi:schemaLocation="http://www.topografix.com/GPX/1/1 http://www.topografix.com/GPX/1/1/gpx.xsd http://www.garmin.com/xmlschemas/GpxExtensions/v3 http://www.garmin.com/xmlschemas/GpxExtensionsv3.xsd http://www.garmin.com/xmlschemas/TrackPointExtension/v1 http://www.garmin.com/xmlschemas/TrackPointExtensionv1.xsd" xmlns:gpxtpx="http://www.garmin.com/xmlschemas/TrackPointExtension/v1" xmlns:gpxx="http://www.garmin.com/xmlschemas/GpxExtensions/v3" xmlns:xsi="http://www.w3.org/2001/XMLSchema-instance">
  <metadata>
    <link href="https://www.www-youtrack-es.amenigma.com">
      <text>YouTrack.es</text>
    </link>
    <time>2026-09-01T07:51:30Z</time>
  </metadata>
  <trk>
    <src>https://www.www-youtrack-es.amenigma.com</src>
    <link href="https://www.www-youtrack-es.amenigma.com/ruta/37584-bello-horizonte">
      <text>YouTrack.es</text>
    </link>
    <trkseg>
      <trkpt lat="3.378890762105584" lon="-76.50968793779612">
        <ele>0</ele>
        <time>2022-10-23T10:15:47.000Z</time>
      </trkpt>
      <trkpt lat="3.3788983058184385" lon="-76.50973135605454">
        <ele>1025</ele>
        <time>2022-10-23T10:15:49.000Z</time>
      </trkpt>
      <trkpt lat="3.378924373537302" lon="-76.50979262776673">
        <ele>1052.2</ele>
        <time>2022-10-23T10:15:51.000Z</time>
      </trkpt>
      <trkpt lat="3.378996290266514" lon="-76.50993570685387">
        <ele>1044.2</ele>
        <time>2022-10-23T10:15:55.000Z</time>
      </trkpt>
      <trkpt lat="3.3790299016982317" lon="-76.5099844057113">
        <ele>1045</ele>
        <time>2022-10-23T10:15:57.000Z</time>
      </trkpt>
      <trkpt lat="3.379073403775692" lon="-76.51014684699476">
        <ele>1045</ele>
        <time>2022-10-23T10:16:01.000Z</time>
      </trkpt>
      <trkpt lat="3.379066362977028" lon="-76.51027517393231">
        <ele>1044.8</ele>
        <time>2022-10-23T10:16:04.000Z</time>
      </trkpt>
      <trkpt lat="3.379008360207081" lon="-76.51033418253064">
        <ele>1044.8</ele>
        <time>2022-10-23T10:16:06.000Z</time>
      </trkpt>
      <trkpt lat="3.3789268881082535" lon="-76.51036318391562">
        <ele>1044.8</ele>
        <time>2022-10-23T10:16:08.000Z</time>
      </trkpt>
      <trkpt lat="3.3785090502351522" lon="-76.5104159899056">
        <ele>1044.8</ele>
        <time>2022-10-23T10:16:18.000Z</time>
      </trkpt>
      <trkpt lat="3.378447862342" lon="-76.51043518446386">
        <ele>1044.8</ele>
        <time>2022-10-23T10:16:22.000Z</time>
      </trkpt>
      <trkpt lat="3.378432272002101" lon="-76.51044985279441">
        <ele>1044.8</ele>
        <time>2022-10-23T10:16:25.000Z</time>
      </trkpt>
      <trkpt lat="3.378433110192418" lon="-76.51048664934933">
        <ele>1044.8</ele>
        <time>2022-10-23T10:16:33.000Z</time>
      </trkpt>
      <trkpt lat="3.378431601449847" lon="-76.5105346776545">
        <ele>1044.8</ele>
        <time>2022-10-23T10:16:36.000Z</time>
      </trkpt>
      <trkpt lat="3.3784282486885786" lon="-76.51061338372529">
        <ele>1044.8</ele>
        <time>2022-10-23T10:16:39.000Z</time>
      </trkpt>
      <trkpt lat="3.378412574529648" lon="-76.51075168512762">
        <ele>1044.8</ele>
        <time>2022-10-23T10:16:44.000Z</time>
      </trkpt>
      <trkpt lat="3.3784810546785593" lon="-76.51104295626283">
        <ele>1045</ele>
        <time>2022-10-23T10:16:51.000Z</time>
      </trkpt>
      <trkpt lat="3.3786447532474995" lon="-76.51179992593825">
        <ele>1045.4</ele>
        <time>2022-10-23T10:17:04.000Z</time>
      </trkpt>
      <trkpt lat="3.3787613455206156" lon="-76.51260517537594">
        <ele>1046.6</ele>
        <time>2022-10-23T10:17:16.000Z</time>
      </trkpt>
      <trkpt lat="3.378894617781043" lon="-76.51338569819927">
        <ele>1048</ele>
        <time>2022-10-23T10:17:28.000Z</time>
      </trkpt>
      <trkpt lat="3.3790488447993994" lon="-76.51415490545332">
        <ele>1047.6</ele>
        <time>2022-10-23T10:17:41.000Z</time>
      </trkpt>
      <trkpt lat="3.379008360207081" lon="-76.5142024308443">
        <ele>1047.4</ele>
        <time>2022-10-23T10:17:43.000Z</time>
      </trkpt>
      <trkpt lat="3.3789248764514923" lon="-76.51421785354614">
        <ele>1047.6</ele>
        <time>2022-10-23T10:17:45.000Z</time>
      </trkpt>
      <trkpt lat="3.378160111606121" lon="-76.51424249634147">
        <ele>1048.2</ele>
        <time>2022-10-23T10:17:58.000Z</time>
      </trkpt>
      <trkpt lat="3.3773665968328714" lon="-76.51425188407302">
        <ele>1048.2</ele>
        <time>2022-10-23T10:18:10.000Z</time>
      </trkpt>
      <trkpt lat="3.3765652868896723" lon="-76.51426596567035">
        <ele>1048.6</ele>
        <time>2022-10-23T10:18:22.000Z</time>
      </trkpt>
      <trkpt lat="3.3757117576897144" lon="-76.51427468284965">
        <ele>1048.8</ele>
        <time>2022-10-23T10:18:34.000Z</time>
      </trkpt>
      <trkpt lat="3.3748762495815754" lon="-76.51428398676217">
        <ele>1047.8</ele>
        <time>2022-10-23T10:18:45.000Z</time>
      </trkpt>
      <trkpt lat="3.374045602977276" lon="-76.51428465731442">
        <ele>1047.4</ele>
        <time>2022-10-23T10:18:55.000Z</time>
      </trkpt>
      <trkpt lat="3.373228535056114" lon="-76.51428490877151">
        <ele>1047.6</ele>
        <time>2022-10-23T10:19:05.000Z</time>
      </trkpt>
      <trkpt lat="3.3724208548665047" lon="-76.51428599841893">
        <ele>1047.8</ele>
        <time>2022-10-23T10:19:15.000Z</time>
      </trkpt>
      <trkpt lat="3.371611414477229" lon="-76.51428943499923">
        <ele>1048.2</ele>
        <time>2022-10-23T10:19:25.000Z</time>
      </trkpt>
      <trkpt lat="3.370831059291959" lon="-76.51429245248437">
        <ele>1048.6</ele>
        <time>2022-10-23T10:19:35.000Z</time>
      </trkpt>
      <trkpt lat="3.3700515422970057" lon="-76.51429764926434">
        <ele>1048</ele>
        <time>2022-10-23T10:19:45.000Z</time>
      </trkpt>
      <trkpt lat="3.369250735267997" lon="-76.51430066674948">
        <ele>1047.8</ele>
        <time>2022-10-23T10:19:55.000Z</time>
      </trkpt>
      <trkpt lat="3.3688953425735235" lon="-76.51428817771375">
        <ele>1048.2</ele>
        <time>2022-10-23T10:20:00.000Z</time>
      </trkpt>
      <trkpt lat="3.3685063384473324" lon="-76.51433100923896">
        <ele>1047.8</ele>
        <time>2022-10-23T10:20:06.000Z</time>
      </trkpt>
      <trkpt lat="3.368468787521124" lon="-76.51443838141859">
        <ele>1048</ele>
        <time>2022-10-23T10:20:08.000Z</time>
      </trkpt>
      <trkpt lat="3.3684777561575174" lon="-76.51487088762224">
        <ele>1048.4</ele>
        <time>2022-10-23T10:20:15.000Z</time>
      </trkpt>
      <trkpt lat="3.368505584076047" lon="-76.51564713567495">
        <ele>1049.2</ele>
        <time>2022-10-23T10:20:26.000Z</time>
      </trkpt>
      <trkpt lat="3.368504075333476" lon="-76.51643947698176">
        <ele>1049.8</ele>
        <time>2022-10-23T10:20:38.000Z</time>
      </trkpt>
      <trkpt lat="3.368498543277383" lon="-76.51703786104918">
        <ele>1049.6</ele>
        <time>2022-10-23T10:20:53.000Z</time>
      </trkpt>
      <trkpt lat="3.3684983756393194" lon="-76.51706233620644">
        <ele>1049.6</ele>
        <time>2022-10-23T10:20:55.000Z</time>
      </trkpt>
      <trkpt lat="3.3684933464974165" lon="-76.5170696284622">
        <ele>1049.6</ele>
        <time>2022-10-23T10:20:59.000Z</time>
      </trkpt>
      <trkpt lat="3.368507092818618" lon="-76.51709720492363">
        <ele>1049.4</ele>
        <time>2022-10-23T10:23:04.000Z</time>
      </trkpt>
      <trkpt lat="3.3685172349214554" lon="-76.51708739809692">
        <ele>1049.2</ele>
        <time>2022-10-23T10:25:24.000Z</time>
      </trkpt>
      <trkpt lat="3.368504410609603" lon="-76.51708848774433">
        <ele>1049</ele>
        <time>2022-10-23T10:25:56.000Z</time>
      </trkpt>
      <trkpt lat="3.368531232699752" lon="-76.51709217578173">
        <ele>1048.4</ele>
        <time>2022-10-23T10:29:15.000Z</time>
      </trkpt>
      <trkpt lat="3.3685060869902372" lon="-76.51709536090493">
        <ele>1048.2</ele>
        <time>2022-10-23T10:30:57.000Z</time>
      </trkpt>
      <trkpt lat="3.3685030695050955" lon="-76.51710349135101">
        <ele>1048.2</ele>
        <time>2022-10-23T10:31:10.000Z</time>
      </trkpt>
      <trkpt lat="3.3684880658984184" lon="-76.51716970838606">
        <ele>1048.2</ele>
        <time>2022-10-23T10:31:14.000Z</time>
      </trkpt>
      <trkpt lat="3.36847105063498" lon="-76.51758033782244">
        <ele>1048</ele>
        <time>2022-10-23T10:31:25.000Z</time>
      </trkpt>
      <trkpt lat="3.3684747386723757" lon="-76.51832934468985">
        <ele>1048.4</ele>
        <time>2022-10-23T10:31:40.000Z</time>
      </trkpt>
      <trkpt lat="3.3684759121388197" lon="-76.51912520639598">
        <ele>1049</ele>
        <time>2022-10-23T10:31:54.000Z</time>
      </trkpt>
      <trkpt lat="3.3684408757835627" lon="-76.51993188075721">
        <ele>1049.8</ele>
        <time>2022-10-23T10:32:08.000Z</time>
      </trkpt>
      <trkpt lat="3.3683925960212946" lon="-76.52056043967605">
        <ele>1050.4</ele>
        <time>2022-10-23T10:32:20.000Z</time>
      </trkpt>
      <trkpt lat="3.3681656140834093" lon="-76.5209979750216">
        <ele>1050.4</ele>
        <time>2022-10-23T10:32:29.000Z</time>
      </trkpt>
      <trkpt lat="3.36793159134686" lon="-76.52174714952707">
        <ele>1051</ele>
        <time>2022-10-23T10:32:43.000Z</time>
      </trkpt>
      <trkpt lat="3.367673847824335" lon="-76.52250839397311">
        <ele>1052.4</ele>
        <time>2022-10-23T10:32:57.000Z</time>
      </trkpt>
      <trkpt lat="3.3675427548587322" lon="-76.5229473542422">
        <ele>1052.6</ele>
        <time>2022-10-23T10:33:05.000Z</time>
      </trkpt>
      <trkpt lat="3.3675383124500513" lon="-76.52311650104821">
        <ele>1052.6</ele>
        <time>2022-10-23T10:33:07.000Z</time>
      </trkpt>
      <trkpt lat="3.3675912860780954" lon="-76.52327986434102">
        <ele>1052.8</ele>
        <time>2022-10-23T10:33:10.000Z</time>
      </trkpt>
      <trkpt lat="3.3675318583846092" lon="-76.52382167056203">
        <ele>1052.8</ele>
        <time>2022-10-23T10:33:19.000Z</time>
      </trkpt>
      <trkpt lat="3.3672707621008158" lon="-76.5245639719069">
        <ele>1053.2</ele>
        <time>2022-10-23T10:33:34.000Z</time>
      </trkpt>
      <trkpt lat="3.367136400192976" lon="-76.5249868389219">
        <ele>1053.4</ele>
        <time>2022-10-23T10:33:44.000Z</time>
      </trkpt>
      <trkpt lat="3.36686784401536" lon="-76.52574514970183">
        <ele>1053.8</ele>
        <time>2022-10-23T10:33:58.000Z</time>
      </trkpt>
      <trkpt lat="3.3665878884494305" lon="-76.526490887627">
        <ele>1054.8</ele>
        <time>2022-10-23T10:34:12.000Z</time>
      </trkpt>
      <trkpt lat="3.366333581507206" lon="-76.5272046905011">
        <ele>1055.8</ele>
        <time>2022-10-23T10:34:26.000Z</time>
      </trkpt>
      <trkpt lat="3.366598282009363" lon="-76.52784967795014">
        <ele>1056.4</ele>
        <time>2022-10-23T10:34:40.000Z</time>
      </trkpt>
      <trkpt lat="3.367038080468774" lon="-76.52850137092173">
        <ele>1056.8</ele>
        <time>2022-10-23T10:34:54.000Z</time>
      </trkpt>
      <trkpt lat="3.3673397451639175" lon="-76.52920285239816">
        <ele>1057.4</ele>
        <time>2022-10-23T10:35:10.000Z</time>
      </trkpt>
      <trkpt lat="3.367506545037031" lon="-76.52970434166491">
        <ele>1058</ele>
        <time>2022-10-23T10:35:23.000Z</time>
      </trkpt>
      <trkpt lat="3.3677877578884363" lon="-76.53036198578775">
        <ele>1059</ele>
        <time>2022-10-23T10:35:36.000Z</time>
      </trkpt>
      <trkpt lat="3.368086237460375" lon="-76.53093446977437">
        <ele>1059.6</ele>
        <time>2022-10-23T10:35:49.000Z</time>
      </trkpt>
      <trkpt lat="3.3684162329882383" lon="-76.53162044472992">
        <ele>1060.2</ele>
        <time>2022-10-23T10:36:03.000Z</time>
      </trkpt>
      <trkpt lat="3.368503740057349" lon="-76.53169345110655">
        <ele>1060.4</ele>
        <time>2022-10-23T10:36:06.000Z</time>
      </trkpt>
      <trkpt lat="3.3685873076319695" lon="-76.53189235366881">
        <ele>1060.6</ele>
        <time>2022-10-23T10:36:11.000Z</time>
      </trkpt>
      <trkpt lat="3.368746815249324" lon="-76.53214917518198">
        <ele>1060.2</ele>
        <time>2022-10-23T10:36:16.000Z</time>
      </trkpt>
      <trkpt lat="3.369074882939458" lon="-76.53282886371017">
        <ele>1061.4</ele>
        <time>2022-10-23T10:36:28.000Z</time>
      </trkpt>
      <trkpt lat="3.369441758841276" lon="-76.53352648951113">
        <ele>1062.4</ele>
        <time>2022-10-23T10:36:41.000Z</time>
      </trkpt>
      <trkpt lat="3.3698147535324097" lon="-76.53425043448806">
        <ele>1063.4</ele>
        <time>2022-10-23T10:36:55.000Z</time>
      </trkpt>
      <trkpt lat="3.370017847046256" lon="-76.53468738310039">
        <ele>1063.8</ele>
        <time>2022-10-23T10:37:03.000Z</time>
      </trkpt>
      <trkpt lat="3.3704138919711113" lon="-76.53540235944092">
        <ele>1064.6</ele>
        <time>2022-10-23T10:37:17.000Z</time>
      </trkpt>
      <trkpt lat="3.370780600234866" lon="-76.53612144291401">
        <ele>1065.6</ele>
        <time>2022-10-23T10:37:31.000Z</time>
      </trkpt>
      <trkpt lat="3.3709318097680807" lon="-76.53649795800447">
        <ele>1066.2</ele>
        <time>2022-10-23T10:37:39.000Z</time>
      </trkpt>
      <trkpt lat="3.371034236624837" lon="-76.53662234544754">
        <ele>1066.4</ele>
        <time>2022-10-23T10:37:42.000Z</time>
      </trkpt>
      <trkpt lat="3.3712160401046276" lon="-76.53704320080578">
        <ele>1066.8</ele>
        <time>2022-10-23T10:37:51.000Z</time>
      </trkpt>
      <trkpt lat="3.371412595734" lon="-76.53738568536937">
        <ele>1067.4</ele>
        <time>2022-10-23T10:37:59.000Z</time>
      </trkpt>
      <trkpt lat="3.371799336746335" lon="-76.53809865005314">
        <ele>1068.2</ele>
        <time>2022-10-23T10:38:14.000Z</time>
      </trkpt>
      <trkpt lat="3.371848538517952" lon="-76.53825715184212">
        <ele>1068.2</ele>
        <time>2022-10-23T10:38:17.000Z</time>
      </trkpt>
      <trkpt lat="3.3718472812324762" lon="-76.53835320845246">
        <ele>1068.2</ele>
        <time>2022-10-23T10:38:19.000Z</time>
      </trkpt>
      <trkpt lat="3.371918611228466" lon="-76.53840886428952">
        <ele>1068.2</ele>
        <time>2022-10-23T10:38:21.000Z</time>
      </trkpt>
      <trkpt lat="3.3720120694488287" lon="-76.53851497918367">
        <ele>1068</ele>
        <time>2022-10-23T10:38:24.000Z</time>
      </trkpt>
      <trkpt lat="3.3721555676311255" lon="-76.53893700800836">
        <ele>1069.2</ele>
        <time>2022-10-23T10:38:34.000Z</time>
      </trkpt>
      <trkpt lat="3.3722533006221056" lon="-76.53909400105476">
        <ele>1069.6</ele>
        <time>2022-10-23T10:38:38.000Z</time>
      </trkpt>
      <trkpt lat="3.372466368600726" lon="-76.53952214866877">
        <ele>1070.6</ele>
        <time>2022-10-23T10:38:48.000Z</time>
      </trkpt>
      <trkpt lat="3.3728443924337626" lon="-76.54019596986473">
        <ele>1072.4</ele>
        <time>2022-10-23T10:39:04.000Z</time>
      </trkpt>
      <trkpt lat="3.3731925766915083" lon="-76.54085420072079">
        <ele>1074.2</ele>
        <time>2022-10-23T10:39:18.000Z</time>
      </trkpt>
      <trkpt lat="3.3735669124871492" lon="-76.54139399528503">
        <ele>1075</ele>
        <time>2022-10-23T10:39:30.000Z</time>
      </trkpt>
      <trkpt lat="3.3741593454033136" lon="-76.54187134467065">
        <ele>1074.8</ele>
        <time>2022-10-23T10:39:45.000Z</time>
      </trkpt>
      <trkpt lat="3.3742498699575663" lon="-76.54187737964094">
        <ele>1074.2</ele>
        <time>2022-10-23T10:39:47.000Z</time>
      </trkpt>
      <trkpt lat="3.374338299036026" lon="-76.54190118424594">
        <ele>1073.8</ele>
        <time>2022-10-23T10:39:49.000Z</time>
      </trkpt>
      <trkpt lat="3.3750008046627045" lon="-76.54217896051705">
        <ele>1074</ele>
        <time>2022-10-23T10:40:04.000Z</time>
      </trkpt>
      <trkpt lat="3.375705387443304" lon="-76.54233746230602">
        <ele>1073.6</ele>
        <time>2022-10-23T10:40:16.000Z</time>
      </trkpt>
      <trkpt lat="3.3758332952857018" lon="-76.54238448478281">
        <ele>1073.4</ele>
        <time>2022-10-23T10:40:19.000Z</time>
      </trkpt>
      <trkpt lat="3.376566879451275" lon="-76.54249336570501">
        <ele>1071.8</ele>
        <time>2022-10-23T10:40:33.000Z</time>
      </trkpt>
      <trkpt lat="3.3772728871554136" lon="-76.5426561422646">
        <ele>1070.4</ele>
        <time>2022-10-23T10:40:46.000Z</time>
      </trkpt>
      <trkpt lat="3.3777797408401966" lon="-76.54282595962286">
        <ele>1069</ele>
        <time>2022-10-23T10:40:54.000Z</time>
      </trkpt>
      <trkpt lat="3.378464039415121" lon="-76.54299116693437">
        <ele>1067.2</ele>
        <time>2022-10-23T10:41:05.000Z</time>
      </trkpt>
      <trkpt lat="3.378651374951005" lon="-76.54302041977644">
        <ele>1067.2</ele>
        <time>2022-10-23T10:41:08.000Z</time>
      </trkpt>
      <trkpt lat="3.3793738950043917" lon="-76.5432209149003">
        <ele>1066.8</ele>
        <time>2022-10-23T10:41:20.000Z</time>
      </trkpt>
      <trkpt lat="3.3801078144460917" lon="-76.54341369867325">
        <ele>1066</ele>
        <time>2022-10-23T10:41:32.000Z</time>
      </trkpt>
      <trkpt lat="3.3807683922350407" lon="-76.54358619824052">
        <ele>1065.6</ele>
        <time>2022-10-23T10:41:43.000Z</time>
      </trkpt>
      <trkpt lat="3.38156433776021" lon="-76.54372919350863">
        <ele>1065.2</ele>
        <time>2022-10-23T10:41:57.000Z</time>
      </trkpt>
      <trkpt lat="3.3821852691471577" lon="-76.54387386515737">
        <ele>1065.2</ele>
        <time>2022-10-23T10:42:07.000Z</time>
      </trkpt>
      <trkpt lat="3.382924385368824" lon="-76.54401484876871">
        <ele>1064.8</ele>
        <time>2022-10-23T10:42:20.000Z</time>
      </trkpt>
      <trkpt lat="3.3833198435604572" lon="-76.54413940384984">
        <ele>1064.2</ele>
        <time>2022-10-23T10:42:27.000Z</time>
      </trkpt>
      <trkpt lat="3.383367620408535" lon="-76.54420151375234">
        <ele>1064</ele>
        <time>2022-10-23T10:42:29.000Z</time>
      </trkpt>
      <trkpt lat="3.383432747796178" lon="-76.54422850348055">
        <ele>1064.2</ele>
        <time>2022-10-23T10:42:31.000Z</time>
      </trkpt>
      <trkpt lat="3.3840048126876354" lon="-76.54432439245284">
        <ele>1063.6</ele>
        <time>2022-10-23T10:42:43.000Z</time>
      </trkpt>
      <trkpt lat="3.3842595387250185" lon="-76.54435146600008">
        <ele>1062.8</ele>
        <time>2022-10-23T10:42:49.000Z</time>
      </trkpt>
      <trkpt lat="3.3843143563717604" lon="-76.54438817873597">
        <ele>1063</ele>
        <time>2022-10-23T10:42:51.000Z</time>
      </trkpt>
      <trkpt lat="3.3844180405139923" lon="-76.54446395114064">
        <ele>1063.2</ele>
        <time>2022-10-23T10:42:56.000Z</time>
      </trkpt>
      <trkpt lat="3.3845142647624016" lon="-76.54447367414832">
        <ele>1063</ele>
        <time>2022-10-23T10:42:59.000Z</time>
      </trkpt>
      <trkpt lat="3.385294284671545" lon="-76.54458817094564">
        <ele>1062.8</ele>
        <time>2022-10-23T10:43:15.000Z</time>
      </trkpt>
      <trkpt lat="3.3858925849199295" lon="-76.5446506999433">
        <ele>1062.6</ele>
        <time>2022-10-23T10:43:34.000Z</time>
      </trkpt>
      <trkpt lat="3.385918401181698" lon="-76.54464835301042">
        <ele>1062.6</ele>
        <time>2022-10-23T10:43:43.000Z</time>
      </trkpt>
      <trkpt lat="3.385967770591378" lon="-76.54462119564414">
        <ele>1062.4</ele>
        <time>2022-10-23T10:43:46.000Z</time>
      </trkpt>
      <trkpt lat="3.386433804407716" lon="-76.54456486925483">
        <ele>1061.6</ele>
        <time>2022-10-23T10:43:55.000Z</time>
      </trkpt>
      <trkpt lat="3.3872037660330534" lon="-76.54466520063579">
        <ele>1060.8</ele>
        <time>2022-10-23T10:44:06.000Z</time>
      </trkpt>
      <trkpt lat="3.3880512602627277" lon="-76.54478288255632">
        <ele>1060</ele>
        <time>2022-10-23T10:44:18.000Z</time>
      </trkpt>
      <trkpt lat="3.388859275728464" lon="-76.54491900466383">
        <ele>1059.6</ele>
        <time>2022-10-23T10:44:30.000Z</time>
      </trkpt>
      <trkpt lat="3.389688916504383" lon="-76.54508999548852">
        <ele>1059.2</ele>
        <time>2022-10-23T10:44:42.000Z</time>
      </trkpt>
      <trkpt lat="3.390522077679634" lon="-76.54516568407416">
        <ele>1058.8</ele>
        <time>2022-10-23T10:44:54.000Z</time>
      </trkpt>
      <trkpt lat="3.3913058694452047" lon="-76.54511195607483">
        <ele>1061.2</ele>
        <time>2022-10-23T10:45:06.000Z</time>
      </trkpt>
      <trkpt lat="3.3919904194772243" lon="-76.5454041492194">
        <ele>1061.4</ele>
        <time>2022-10-23T10:45:18.000Z</time>
      </trkpt>
      <trkpt lat="3.392763901501894" lon="-76.5456349030137">
        <ele>1057.2</ele>
        <time>2022-10-23T10:45:28.000Z</time>
      </trkpt>
      <trkpt lat="3.39355674572289" lon="-76.54562534764409">
        <ele>1055.4</ele>
        <time>2022-10-23T10:45:38.000Z</time>
      </trkpt>
      <trkpt lat="3.394314805045724" lon="-76.54574638232589">
        <ele>1054</ele>
        <time>2022-10-23T10:45:48.000Z</time>
      </trkpt>
      <trkpt lat="3.3950282726436853" lon="-76.54586263932288">
        <ele>1053.8</ele>
        <time>2022-10-23T10:45:58.000Z</time>
      </trkpt>
      <trkpt lat="3.395865624770522" lon="-76.54601141810417">
        <ele>1052.8</ele>
        <time>2022-10-23T10:46:10.000Z</time>
      </trkpt>
      <trkpt lat="3.3964568842202425" lon="-76.54607344418764">
        <ele>1051.8</ele>
        <time>2022-10-23T10:46:18.000Z</time>
      </trkpt>
      <trkpt lat="3.397224247455597" lon="-76.54618551023304">
        <ele>1051.4</ele>
        <time>2022-10-23T10:46:28.000Z</time>
      </trkpt>
      <trkpt lat="3.397956322878599" lon="-76.54619514942169">
        <ele>1051.2</ele>
        <time>2022-10-23T10:46:38.000Z</time>
      </trkpt>
      <trkpt lat="3.39872058480978" lon="-76.54620135203004">
        <ele>1051</ele>
        <time>2022-10-23T10:46:48.000Z</time>
      </trkpt>
      <trkpt lat="3.399468418210745" lon="-76.54620386660099">
        <ele>1050.6</ele>
        <time>2022-10-23T10:46:58.000Z</time>
      </trkpt>
      <trkpt lat="3.4002035949379206" lon="-76.54620596207678">
        <ele>1050.2</ele>
        <time>2022-10-23T10:47:08.000Z</time>
      </trkpt>
      <trkpt lat="3.40101957321167" lon="-76.54622985050082">
        <ele>1050.8</ele>
        <time>2022-10-23T10:47:20.000Z</time>
      </trkpt>
      <trkpt lat="3.4018145967274904" lon="-76.54628441669047">
        <ele>1051</ele>
        <time>2022-10-23T10:47:31.000Z</time>
      </trkpt>
      <trkpt lat="3.402614565566182" lon="-76.5463846642524">
        <ele>1051</ele>
        <time>2022-10-23T10:47:43.000Z</time>
      </trkpt>
      <trkpt lat="3.403368853032589" lon="-76.54649798758328">
        <ele>1051.2</ele>
        <time>2022-10-23T10:47:54.000Z</time>
      </trkpt>
      <trkpt lat="3.4041933808475733" lon="-76.54660888016224">
        <ele>1051.8</ele>
        <time>2022-10-23T10:48:06.000Z</time>
      </trkpt>
      <trkpt lat="3.4049848839640617" lon="-76.54671734198928">
        <ele>1053</ele>
        <time>2022-10-23T10:48:18.000Z</time>
      </trkpt>
      <trkpt lat="3.405774375423789" lon="-76.54687584377825">
        <ele>1053.4</ele>
        <time>2022-10-23T10:48:30.000Z</time>
      </trkpt>
      <trkpt lat="3.4065673872828484" lon="-76.54695086181164">
        <ele>1054.4</ele>
        <time>2022-10-23T10:48:42.000Z</time>
      </trkpt>
      <trkpt lat="3.407365260645747" lon="-76.54704239219427">
        <ele>1054.6</ele>
        <time>2022-10-23T10:48:54.000Z</time>
      </trkpt>
      <trkpt lat="3.4081306122243404" lon="-76.54712185263634">
        <ele>1055.8</ele>
        <time>2022-10-23T10:49:06.000Z</time>
      </trkpt>
      <trkpt lat="3.4087758511304855" lon="-76.54719536192715">
        <ele>1056.4</ele>
        <time>2022-10-23T10:49:22.000Z</time>
      </trkpt>
      <trkpt lat="3.4091764222830534" lon="-76.54725596308708">
        <ele>1056.6</ele>
        <time>2022-10-23T10:49:31.000Z</time>
      </trkpt>
      <trkpt lat="3.4099918138235807" lon="-76.54739242047071">
        <ele>1056.4</ele>
        <time>2022-10-23T10:49:44.000Z</time>
      </trkpt>
      <trkpt lat="3.4107670560479164" lon="-76.54752418398857">
        <ele>1056.6</ele>
        <time>2022-10-23T10:49:56.000Z</time>
      </trkpt>
      <trkpt lat="3.4115127939730883" lon="-76.54763214290142">
        <ele>1056.2</ele>
        <time>2022-10-23T10:50:08.000Z</time>
      </trkpt>
      <trkpt lat="3.4122960828244686" lon="-76.54775887727737">
        <ele>1055.8</ele>
        <time>2022-10-23T10:50:23.000Z</time>
      </trkpt>
      <trkpt lat="3.413031091913581" lon="-76.54787966050208">
        <ele>1056</ele>
        <time>2022-10-23T10:50:35.000Z</time>
      </trkpt>
      <trkpt lat="3.413772387430072" lon="-76.54800664633512">
        <ele>1056</ele>
        <time>2022-10-23T10:50:47.000Z</time>
      </trkpt>
      <trkpt lat="3.414561292156577" lon="-76.54812147840858">
        <ele>1056</ele>
        <time>2022-10-23T10:50:59.000Z</time>
      </trkpt>
      <trkpt lat="3.415359752252698" lon="-76.54815844260156">
        <ele>1056.4</ele>
        <time>2022-10-23T10:51:11.000Z</time>
      </trkpt>
      <trkpt lat="3.4162593819200993" lon="-76.54817621223629">
        <ele>1056.2</ele>
        <time>2022-10-23T10:51:23.000Z</time>
      </trkpt>
      <trkpt lat="3.417071755975485" lon="-76.54818241484463">
        <ele>1056.4</ele>
        <time>2022-10-23T10:51:35.000Z</time>
      </trkpt>
      <trkpt lat="3.4178875666111708" lon="-76.54819691553712">
        <ele>1056.6</ele>
        <time>2022-10-23T10:51:47.000Z</time>
      </trkpt>
      <trkpt lat="3.418695917353034" lon="-76.54821284115314">
        <ele>1057</ele>
        <time>2022-10-23T10:51:59.000Z</time>
      </trkpt>
      <trkpt lat="3.4194963052868843" lon="-76.5482254140079">
        <ele>1057.4</ele>
        <time>2022-10-23T10:52:11.000Z</time>
      </trkpt>
      <trkpt lat="3.4202823601663113" lon="-76.54806146398187">
        <ele>1058</ele>
        <time>2022-10-23T10:52:23.000Z</time>
      </trkpt>
      <trkpt lat="3.421021057292819" lon="-76.54778201133013">
        <ele>1057.6</ele>
        <time>2022-10-23T10:52:35.000Z</time>
      </trkpt>
      <trkpt lat="3.4217657893896103" lon="-76.54749786481261">
        <ele>1057.2</ele>
        <time>2022-10-23T10:52:47.000Z</time>
      </trkpt>
      <trkpt lat="3.4224780835211277" lon="-76.54723551124334">
        <ele>1056.8</ele>
        <time>2022-10-23T10:53:03.000Z</time>
      </trkpt>
      <trkpt lat="3.423216277733445" lon="-76.54696016572416">
        <ele>1056.4</ele>
        <time>2022-10-23T10:53:16.000Z</time>
      </trkpt>
      <trkpt lat="3.4239465929567814" lon="-76.54669395647943">
        <ele>1055.8</ele>
        <time>2022-10-23T10:53:29.000Z</time>
      </trkpt>
      <trkpt lat="3.4246743097901344" lon="-76.54644551686943">
        <ele>1055.2</ele>
        <time>2022-10-23T10:53:46.000Z</time>
      </trkpt>
      <trkpt lat="3.4254394099116325" lon="-76.5462088957429">
        <ele>1054.8</ele>
        <time>2022-10-23T10:53:58.000Z</time>
      </trkpt>
      <trkpt lat="3.4262165799736977" lon="-76.54593388549984">
        <ele>1054.4</ele>
        <time>2022-10-23T10:54:10.000Z</time>
      </trkpt>
      <trkpt lat="3.4269873797893524" lon="-76.5456401836127">
        <ele>1055</ele>
        <time>2022-10-23T10:54:22.000Z</time>
      </trkpt>
      <trkpt lat="3.427721383050084" lon="-76.5453021414578">
        <ele>1055</ele>
        <time>2022-10-23T10:54:34.000Z</time>
      </trkpt>
      <trkpt lat="3.4284464176744223" lon="-76.54492990113795">
        <ele>1054.6</ele>
        <time>2022-10-23T10:54:46.000Z</time>
      </trkpt>
      <trkpt lat="3.4291323088109493" lon="-76.54458188451827">
        <ele>1054</ele>
        <time>2022-10-23T10:54:57.000Z</time>
      </trkpt>
      <trkpt lat="3.4298390708863735" lon="-76.54419799335301">
        <ele>1054.6</ele>
        <time>2022-10-23T10:55:09.000Z</time>
      </trkpt>
      <trkpt lat="3.430544910952449" lon="-76.54383698478341">
        <ele>1055.4</ele>
        <time>2022-10-23T10:55:22.000Z</time>
      </trkpt>
      <trkpt lat="3.431150084361434" lon="-76.54340514913201">
        <ele>1055.6</ele>
        <time>2022-10-23T10:55:36.000Z</time>
      </trkpt>
      <trkpt lat="3.431320572271943" lon="-76.543262405321">
        <ele>1056</ele>
        <time>2022-10-23T10:55:47.000Z</time>
      </trkpt>
      <trkpt lat="3.431329121813178" lon="-76.54325745999813">
        <ele>1056</ele>
        <time>2022-10-23T10:56:03.000Z</time>
      </trkpt>
      <trkpt lat="3.4313268586993217" lon="-76.54326014220715">
        <ele>1056</ele>
        <time>2022-10-23T10:56:06.000Z</time>
      </trkpt>
      <trkpt lat="3.4313250984996557" lon="-76.54324765317142">
        <ele>1056</ele>
        <time>2022-10-23T10:56:19.000Z</time>
      </trkpt>
      <trkpt lat="3.4313204046338797" lon="-76.54324119910598">
        <ele>1055.8</ele>
        <time>2022-10-23T10:56:21.000Z</time>
      </trkpt>
      <trkpt lat="3.431311435997486" lon="-76.54322317801416">
        <ele>1055.8</ele>
        <time>2022-10-23T10:56:24.000Z</time>
      </trkpt>
      <trkpt lat="3.4313112683594227" lon="-76.54321295209229">
        <ele>1056</ele>
        <time>2022-10-23T10:56:27.000Z</time>
      </trkpt>
      <trkpt lat="3.4314229153096676" lon="-76.54332468286157">
        <ele>1053</ele>
        <time>2022-10-23T11:17:41.000Z</time>
      </trkpt>
      <trkpt lat="3.4314421098679304" lon="-76.54332719743252">
        <ele>1052.8</ele>
        <time>2022-10-23T11:17:44.000Z</time>
      </trkpt>
      <trkpt lat="3.4318291023373604" lon="-76.54309585690498">
        <ele>1052.4</ele>
        <time>2022-10-23T11:17:56.000Z</time>
      </trkpt>
      <trkpt lat="3.4324978943914175" lon="-76.54272118583322">
        <ele>1052</ele>
        <time>2022-10-23T11:18:14.000Z</time>
      </trkpt>
      <trkpt lat="3.4331427980214357" lon="-76.54225951060653">
        <ele>1051.4</ele>
        <time>2022-10-23T11:18:33.000Z</time>
      </trkpt>
      <trkpt lat="3.4337353985756636" lon="-76.54178115539253">
        <ele>1051</ele>
        <time>2022-10-23T11:18:51.000Z</time>
      </trkpt>
      <trkpt lat="3.434327580034733" lon="-76.54130984097719">
        <ele>1051</ele>
        <time>2022-10-23T11:19:12.000Z</time>
      </trkpt>
      <trkpt lat="3.4349408000707626" lon="-76.54083869419992">
        <ele>1051.2</ele>
        <time>2022-10-23T11:19:26.000Z</time>
      </trkpt>
      <trkpt lat="3.4355308022350073" lon="-76.54037869535387">
        <ele>1051.6</ele>
        <time>2022-10-23T11:19:38.000Z</time>
      </trkpt>
      <trkpt lat="3.4361548349261284" lon="-76.53988349251449">
        <ele>1054.2</ele>
        <time>2022-10-23T11:19:51.000Z</time>
      </trkpt>
      <trkpt lat="3.4367605950683355" lon="-76.53940396383405">
        <ele>1056.2</ele>
        <time>2022-10-23T11:20:05.000Z</time>
      </trkpt>
      <trkpt lat="3.437175415456295" lon="-76.53872544877231">
        <ele>1053.6</ele>
        <time>2022-10-23T11:20:17.000Z</time>
      </trkpt>
      <trkpt lat="3.4372977912425995" lon="-76.53862645849586">
        <ele>1053.4</ele>
        <time>2022-10-23T11:20:19.000Z</time>
      </trkpt>
      <trkpt lat="3.437709929421544" lon="-76.53845840133727">
        <ele>1055.6</ele>
        <time>2022-10-23T11:20:26.000Z</time>
      </trkpt>
      <trkpt lat="3.4383420925587416" lon="-76.53798138722777">
        <ele>1057.6</ele>
        <time>2022-10-23T11:20:43.000Z</time>
      </trkpt>
      <trkpt lat="3.4389092959463596" lon="-76.5375033672899">
        <ele>1059.6</ele>
        <time>2022-10-23T11:20:58.000Z</time>
      </trkpt>
      <trkpt lat="3.439520839601755" lon="-76.53699735179543">
        <ele>1061.6</ele>
        <time>2022-10-23T11:21:15.000Z</time>
      </trkpt>
      <trkpt lat="3.4400997776538134" lon="-76.5365278813988">
        <ele>1062.4</ele>
        <time>2022-10-23T11:21:31.000Z</time>
      </trkpt>
      <trkpt lat="3.44084526412189" lon="-76.53630869463086">
        <ele>1065</ele>
        <time>2022-10-23T11:21:51.000Z</time>
      </trkpt>
      <trkpt lat="3.441650429740548" lon="-76.5363754145801">
        <ele>1064.8</ele>
        <time>2022-10-23T11:22:05.000Z</time>
      </trkpt>
      <trkpt lat="3.4423834271728992" lon="-76.53653534129262">
        <ele>1067.2</ele>
        <time>2022-10-23T11:22:21.000Z</time>
      </trkpt>
      <trkpt lat="3.4431617707014084" lon="-76.5365881472826">
        <ele>1067.4</ele>
        <time>2022-10-23T11:22:39.000Z</time>
      </trkpt>
      <trkpt lat="3.4439271222800016" lon="-76.53659091331065">
        <ele>1066.6</ele>
        <time>2022-10-23T11:22:52.000Z</time>
      </trkpt>
      <trkpt lat="3.4447311144322157" lon="-76.53653886169195">
        <ele>1066.2</ele>
        <time>2022-10-23T11:23:04.000Z</time>
      </trkpt>
      <trkpt lat="3.445509122684598" lon="-76.53642796911299">
        <ele>1067.8</ele>
        <time>2022-10-23T11:23:18.000Z</time>
      </trkpt>
      <trkpt lat="3.4459547884762287" lon="-76.53637851588428">
        <ele>1070</ele>
        <time>2022-10-23T11:23:27.000Z</time>
      </trkpt>
      <trkpt lat="3.446681583300233" lon="-76.53643140569329">
        <ele>1074.4</ele>
        <time>2022-10-23T11:23:44.000Z</time>
      </trkpt>
      <trkpt lat="3.447399912402034" lon="-76.5366399474442">
        <ele>1078.2</ele>
        <time>2022-10-23T11:24:06.000Z</time>
      </trkpt>
      <trkpt lat="3.448026878759265" lon="-76.536834994331">
        <ele>1081.8</ele>
        <time>2022-10-23T11:24:36.000Z</time>
      </trkpt>
      <trkpt lat="3.4480568021535873" lon="-76.5368437115103">
        <ele>1082</ele>
        <time>2022-10-23T11:24:40.000Z</time>
      </trkpt>
      <trkpt lat="3.448123438283801" lon="-76.53687983751297">
        <ele>1082.6</ele>
        <time>2022-10-23T11:24:48.000Z</time>
      </trkpt>
      <trkpt lat="3.448332818225026" lon="-76.53695544227958">
        <ele>1083.4</ele>
        <time>2022-10-23T11:24:59.000Z</time>
      </trkpt>
      <trkpt lat="3.4487326350063086" lon="-76.53707245364785">
        <ele>1084.8</ele>
        <time>2022-10-23T11:25:13.000Z</time>
      </trkpt>
      <trkpt lat="3.449441911652684" lon="-76.5373255033046">
        <ele>1085.4</ele>
        <time>2022-10-23T11:25:31.000Z</time>
      </trkpt>
      <trkpt lat="3.449841309338808" lon="-76.53746363706887">
        <ele>1086</ele>
        <time>2022-10-23T11:25:43.000Z</time>
      </trkpt>
      <trkpt lat="3.4499024134129286" lon="-76.5374949015677">
        <ele>1085.8</ele>
        <time>2022-10-23T11:26:08.000Z</time>
      </trkpt>
      <trkpt lat="3.4499195963144302" lon="-76.53751116245985">
        <ele>1085.8</ele>
        <time>2022-10-23T11:26:10.000Z</time>
      </trkpt>
      <trkpt lat="3.4499598294496536" lon="-76.53753865510225">
        <ele>1085.8</ele>
        <time>2022-10-23T11:26:13.000Z</time>
      </trkpt>
      <trkpt lat="3.450381774455309" lon="-76.53768517076969">
        <ele>1083.2</ele>
        <time>2022-10-23T11:26:26.000Z</time>
      </trkpt>
      <trkpt lat="3.450529631227255" lon="-76.53771115466952">
        <ele>1081.8</ele>
        <time>2022-10-23T11:26:29.000Z</time>
      </trkpt>
      <trkpt lat="3.4507468063384295" lon="-76.53763135895133">
        <ele>1080</ele>
        <time>2022-10-23T11:26:33.000Z</time>
      </trkpt>
      <trkpt lat="3.4510524105280638" lon="-76.5372768882662">
        <ele>1077.8</ele>
        <time>2022-10-23T11:26:41.000Z</time>
      </trkpt>
      <trkpt lat="3.4512201324105263" lon="-76.53714671730995">
        <ele>1077</ele>
        <time>2022-10-23T11:26:46.000Z</time>
      </trkpt>
      <trkpt lat="3.451488269492984" lon="-76.5367779135704">
        <ele>1076.6</ele>
        <time>2022-10-23T11:26:55.000Z</time>
      </trkpt>
      <trkpt lat="3.451802423223853" lon="-76.53632537461817">
        <ele>1076.4</ele>
        <time>2022-10-23T11:27:05.000Z</time>
      </trkpt>
      <trkpt lat="3.4522369410842657" lon="-76.53575439937413">
        <ele>1076</ele>
        <time>2022-10-23T11:27:21.000Z</time>
      </trkpt>
      <trkpt lat="3.4523315727710724" lon="-76.53554820455611">
        <ele>1075.6</ele>
        <time>2022-10-23T11:27:31.000Z</time>
      </trkpt>
      <trkpt lat="3.4523359313607216" lon="-76.53549145907164">
        <ele>1075.4</ele>
        <time>2022-10-23T11:27:33.000Z</time>
      </trkpt>
      <trkpt lat="3.4523789305239916" lon="-76.53540093451738">
        <ele>1075.2</ele>
        <time>2022-10-23T11:27:36.000Z</time>
      </trkpt>
      <trkpt lat="3.45241941511631" lon="-76.53521049767733">
        <ele>1074.8</ele>
        <time>2022-10-23T11:27:40.000Z</time>
      </trkpt>
      <trkpt lat="3.4524517692625523" lon="-76.53512089513242">
        <ele>1074.4</ele>
        <time>2022-10-23T11:27:42.000Z</time>
      </trkpt>
      <trkpt lat="3.452474568039179" lon="-76.53508300893009">
        <ele>1074.2</ele>
        <time>2022-10-23T11:27:44.000Z</time>
      </trkpt>
      <trkpt lat="3.4525803476572037" lon="-76.53494965285063">
        <ele>1074.2</ele>
        <time>2022-10-23T11:27:47.000Z</time>
      </trkpt>
      <trkpt lat="3.452618569135666" lon="-76.53487865813076">
        <ele>1073.8</ele>
        <time>2022-10-23T11:27:49.000Z</time>
      </trkpt>
      <trkpt lat="3.452746896073222" lon="-76.53464966453612">
        <ele>1073.6</ele>
        <time>2022-10-23T11:27:54.000Z</time>
      </trkpt>
      <trkpt lat="3.4530727844685316" lon="-76.53395388275385">
        <ele>1073</ele>
        <time>2022-10-23T11:28:08.000Z</time>
      </trkpt>
      <trkpt lat="3.4533292707055807" lon="-76.53338743373752">
        <ele>1073.4</ele>
        <time>2022-10-23T11:28:19.000Z</time>
      </trkpt>
      <trkpt lat="3.4536850824952126" lon="-76.53271495364606">
        <ele>1073.8</ele>
        <time>2022-10-23T11:28:33.000Z</time>
      </trkpt>
      <trkpt lat="3.454102920368314" lon="-76.53230315074325">
        <ele>1072.2</ele>
        <time>2022-10-23T11:28:47.000Z</time>
      </trkpt>
      <trkpt lat="3.4541303291916847" lon="-76.53226937167346">
        <ele>1072</ele>
        <time>2022-10-23T11:28:49.000Z</time>
      </trkpt>
      <trkpt lat="3.454155893996358" lon="-76.532246991992">
        <ele>1071.8</ele>
        <time>2022-10-23T11:28:51.000Z</time>
      </trkpt>
      <trkpt lat="3.45417357981205" lon="-76.53221413493156">
        <ele>1071.6</ele>
        <time>2022-10-23T11:28:54.000Z</time>
      </trkpt>
      <trkpt lat="3.4541963785886765" lon="-76.53219351544976">
        <ele>1071.6</ele>
        <time>2022-10-23T11:28:57.000Z</time>
      </trkpt>
      <trkpt lat="3.4542428981512785" lon="-76.53218069113791">
        <ele>1071.4</ele>
        <time>2022-10-23T11:29:02.000Z</time>
      </trkpt>
      <trkpt lat="3.4542632661759853" lon="-76.53216845355928">
        <ele>1071.4</ele>
        <time>2022-10-23T11:29:05.000Z</time>
      </trkpt>
      <trkpt lat="3.454274581745267" lon="-76.53215018101037">
        <ele>1071.2</ele>
        <time>2022-10-23T11:29:08.000Z</time>
      </trkpt>
      <trkpt lat="3.4542620927095413" lon="-76.53213417157531">
        <ele>1071.2</ele>
        <time>2022-10-23T11:29:28.000Z</time>
      </trkpt>
      <trkpt lat="3.454243568703532" lon="-76.53210701420903">
        <ele>1071.2</ele>
        <time>2022-10-23T11:29:31.000Z</time>
      </trkpt>
      <trkpt lat="3.454248094931245" lon="-76.53204146772623">
        <ele>1071.2</ele>
        <time>2022-10-23T11:29:34.000Z</time>
      </trkpt>
      <trkpt lat="3.4546045772731304" lon="-76.53185144998133">
        <ele>1070.6</ele>
        <time>2022-10-23T11:29:44.000Z</time>
      </trkpt>
      <trkpt lat="3.4550253488123417" lon="-76.5315561555326">
        <ele>1069.2</ele>
        <time>2022-10-23T11:29:53.000Z</time>
      </trkpt>
      <trkpt lat="3.4556513093411922" lon="-76.53109288774431">
        <ele>1070.6</ele>
        <time>2022-10-23T11:30:06.000Z</time>
      </trkpt>
      <trkpt lat="3.4561469312757254" lon="-76.53049416840076">
        <ele>1070.8</ele>
        <time>2022-10-23T11:30:20.000Z</time>
      </trkpt>
      <trkpt lat="3.4563504438847303" lon="-76.52973770163953">
        <ele>1068.6</ele>
        <time>2022-10-23T11:30:32.000Z</time>
      </trkpt>
      <trkpt lat="3.4566578082740307" lon="-76.52897519990802">
        <ele>1064.4</ele>
        <time>2022-10-23T11:30:41.000Z</time>
      </trkpt>
      <trkpt lat="3.457047399133444" lon="-76.52823398821056">
        <ele>1063.4</ele>
        <time>2022-10-23T11:30:51.000Z</time>
      </trkpt>
      <trkpt lat="3.4574353974312544" lon="-76.52754038572311">
        <ele>1062.6</ele>
        <time>2022-10-23T11:31:02.000Z</time>
      </trkpt>
      <trkpt lat="3.4578371420502663" lon="-76.52683898806572">
        <ele>1061.8</ele>
        <time>2022-10-23T11:31:14.000Z</time>
      </trkpt>
      <trkpt lat="3.4581813868135214" lon="-76.52615251019597">
        <ele>1061.4</ele>
        <time>2022-10-23T11:31:26.000Z</time>
      </trkpt>
      <trkpt lat="3.4582270681858063" lon="-76.52608084492385">
        <ele>1061</ele>
        <time>2022-10-23T11:31:36.000Z</time>
      </trkpt>
      <trkpt lat="3.4582326002418995" lon="-76.5260648354888">
        <ele>1061</ele>
        <time>2022-10-23T11:31:38.000Z</time>
      </trkpt>
      <trkpt lat="3.458270402625203" lon="-76.52598218992352">
        <ele>1061.2</ele>
        <time>2022-10-23T11:31:44.000Z</time>
      </trkpt>
      <trkpt lat="3.4586189221590757" lon="-76.52533167041838">
        <ele>1060.6</ele>
        <time>2022-10-23T11:32:04.000Z</time>
      </trkpt>
      <trkpt lat="3.458971381187439" lon="-76.52463287115097">
        <ele>1059.6</ele>
        <time>2022-10-23T11:32:20.000Z</time>
      </trkpt>
      <trkpt lat="3.459318308159709" lon="-76.52391244657338">
        <ele>1058.6</ele>
        <time>2022-10-23T11:32:37.000Z</time>
      </trkpt>
      <trkpt lat="3.4596333000808954" lon="-76.52322999201715">
        <ele>1057.6</ele>
        <time>2022-10-23T11:32:53.000Z</time>
      </trkpt>
      <trkpt lat="3.4599269181489944" lon="-76.52255265042186">
        <ele>1057.4</ele>
        <time>2022-10-23T11:33:06.000Z</time>
      </trkpt>
      <trkpt lat="3.4602932911366224" lon="-76.5218061581254">
        <ele>1056.2</ele>
        <time>2022-10-23T11:33:18.000Z</time>
      </trkpt>
      <trkpt lat="3.4606514498591423" lon="-76.52110350318253">
        <ele>1051.8</ele>
        <time>2022-10-23T11:33:27.000Z</time>
      </trkpt>
      <trkpt lat="3.4610030706971884" lon="-76.520422892645">
        <ele>1050.6</ele>
        <time>2022-10-23T11:33:35.000Z</time>
      </trkpt>
      <trkpt lat="3.46136131323874" lon="-76.51966483332217">
        <ele>1052.8</ele>
        <time>2022-10-23T11:33:45.000Z</time>
      </trkpt>
      <trkpt lat="3.4617316257208586" lon="-76.5189809538424">
        <ele>1053</ele>
        <time>2022-10-23T11:33:55.000Z</time>
      </trkpt>
      <trkpt lat="3.462136136367917" lon="-76.5182536561042">
        <ele>1052.4</ele>
        <time>2022-10-23T11:34:06.000Z</time>
      </trkpt>
      <trkpt lat="3.4626314230263233" lon="-76.517523676157">
        <ele>1051.4</ele>
        <time>2022-10-23T11:34:16.000Z</time>
      </trkpt>
      <trkpt lat="3.463141294196248" lon="-76.51683049276471">
        <ele>1050.4</ele>
        <time>2022-10-23T11:34:26.000Z</time>
      </trkpt>
      <trkpt lat="3.463621409609914" lon="-76.51617569848895">
        <ele>1050</ele>
        <time>2022-10-23T11:34:36.000Z</time>
      </trkpt>
      <trkpt lat="3.464088784530759" lon="-76.515520401299">
        <ele>1049.4</ele>
        <time>2022-10-23T11:34:47.000Z</time>
      </trkpt>
      <trkpt lat="3.464555572718382" lon="-76.51488413102925">
        <ele>1049</ele>
        <time>2022-10-23T11:35:04.000Z</time>
      </trkpt>
      <trkpt lat="3.465006435289979" lon="-76.5142494533211">
        <ele>1048.6</ele>
        <time>2022-10-23T11:35:19.000Z</time>
      </trkpt>
      <trkpt lat="3.4654883109033108" lon="-76.51366640813649">
        <ele>1048</ele>
        <time>2022-10-23T11:35:31.000Z</time>
      </trkpt>
      <trkpt lat="3.4658795781433582" lon="-76.51336566545069">
        <ele>1047.6</ele>
        <time>2022-10-23T11:35:38.000Z</time>
      </trkpt>
      <trkpt lat="3.466508137062192" lon="-76.51292846538126">
        <ele>1047</ele>
        <time>2022-10-23T11:35:48.000Z</time>
      </trkpt>
      <trkpt lat="3.4671440720558167" lon="-76.51247148402035">
        <ele>1046.4</ele>
        <time>2022-10-23T11:35:58.000Z</time>
      </trkpt>
      <trkpt lat="3.4677426237612963" lon="-76.51199539192021">
        <ele>1045.8</ele>
        <time>2022-10-23T11:36:08.000Z</time>
      </trkpt>
      <trkpt lat="3.468390293419361" lon="-76.51149339973927">
        <ele>1045.2</ele>
        <time>2022-10-23T11:36:21.000Z</time>
      </trkpt>
      <trkpt lat="3.469017595052719" lon="-76.51099543087184">
        <ele>1044.8</ele>
        <time>2022-10-23T11:36:34.000Z</time>
      </trkpt>
      <trkpt lat="3.4696200862526894" lon="-76.51051640510559">
        <ele>1044.2</ele>
        <time>2022-10-23T11:36:49.000Z</time>
      </trkpt>
      <trkpt lat="3.4697060845792294" lon="-76.51046100072563">
        <ele>1044</ele>
        <time>2022-10-23T11:36:57.000Z</time>
      </trkpt>
      <trkpt lat="3.4697364270687103" lon="-76.51045664213598">
        <ele>1044</ele>
        <time>2022-10-23T11:37:28.000Z</time>
      </trkpt>
      <trkpt lat="3.469744138419628" lon="-76.51045136153698">
        <ele>1044</ele>
        <time>2022-10-23T11:37:36.000Z</time>
      </trkpt>
      <trkpt lat="3.4703654050827026" lon="-76.50994836352766">
        <ele>1043.6</ele>
        <time>2022-10-23T11:37:57.000Z</time>
      </trkpt>
      <trkpt lat="3.4709865879267454" lon="-76.50944536551833">
        <ele>1043.2</ele>
        <time>2022-10-23T11:38:10.000Z</time>
      </trkpt>
      <trkpt lat="3.4715649392455816" lon="-76.50884396396577">
        <ele>1042.6</ele>
        <time>2022-10-23T11:38:22.000Z</time>
      </trkpt>
      <trkpt lat="3.4721147920936346" lon="-76.50826184079051">
        <ele>1042</ele>
        <time>2022-10-23T11:38:34.000Z</time>
      </trkpt>
      <trkpt lat="3.4726390801370144" lon="-76.50769497267902">
        <ele>1041.2</ele>
        <time>2022-10-23T11:38:47.000Z</time>
      </trkpt>
      <trkpt lat="3.4731806349009275" lon="-76.50713246315718">
        <ele>1041</ele>
        <time>2022-10-23T11:39:00.000Z</time>
      </trkpt>
      <trkpt lat="3.4737234469503164" lon="-76.50657439604402">
        <ele>1040.6</ele>
        <time>2022-10-23T11:39:12.000Z</time>
      </trkpt>
      <trkpt lat="3.4742655884474516" lon="-76.50602244772017">
        <ele>1040.2</ele>
        <time>2022-10-23T11:39:24.000Z</time>
      </trkpt>
      <trkpt lat="3.4748528245836496" lon="-76.50541719049215">
        <ele>1039.6</ele>
        <time>2022-10-23T11:39:36.000Z</time>
      </trkpt>
      <trkpt lat="3.475417345762253" lon="-76.50485568679869">
        <ele>1039.4</ele>
        <time>2022-10-23T11:39:49.000Z</time>
      </trkpt>
      <trkpt lat="3.475878434255719" lon="-76.50422444567084">
        <ele>1039</ele>
        <time>2022-10-23T11:40:05.000Z</time>
      </trkpt>
      <trkpt lat="3.476405655965209" lon="-76.50393342599273">
        <ele>1038.6</ele>
        <time>2022-10-23T11:40:15.000Z</time>
      </trkpt>
      <trkpt lat="3.4770198818296194" lon="-76.50339589454234">
        <ele>1038.2</ele>
        <time>2022-10-23T11:40:27.000Z</time>
      </trkpt>
      <trkpt lat="3.477570405229926" lon="-76.5029108338058">
        <ele>1038</ele>
        <time>2022-10-23T11:40:39.000Z</time>
      </trkpt>
      <trkpt lat="3.4780615847557783" lon="-76.50232066400349">
        <ele>1037.4</ele>
        <time>2022-10-23T11:40:51.000Z</time>
      </trkpt>
      <trkpt lat="3.4785633254796267" lon="-76.5016779396683">
        <ele>1036.8</ele>
        <time>2022-10-23T11:41:03.000Z</time>
      </trkpt>
      <trkpt lat="3.4790663234889507" lon="-76.501005878672">
        <ele>1036</ele>
        <time>2022-10-23T11:41:15.000Z</time>
      </trkpt>
      <trkpt lat="3.479545349255204" lon="-76.50033993646502">
        <ele>1035.4</ele>
        <time>2022-10-23T11:41:27.000Z</time>
      </trkpt>
      <trkpt lat="3.4800289012491703" lon="-76.49970232509077">
        <ele>1035</ele>
        <time>2022-10-23T11:41:39.000Z</time>
      </trkpt>
      <trkpt lat="3.4805259481072426" lon="-76.49904292076826">
        <ele>1034.8</ele>
        <time>2022-10-23T11:41:51.000Z</time>
      </trkpt>
      <trkpt lat="3.4808292891830206" lon="-76.49865936487913">
        <ele>1034.6</ele>
        <time>2022-10-23T11:42:30.000Z</time>
      </trkpt>
      <trkpt lat="3.4814088977873325" lon="-76.4981378428638">
        <ele>1034.4</ele>
        <time>2022-10-23T11:42:49.000Z</time>
      </trkpt>
      <trkpt lat="3.4820123109966516" lon="-76.4976264629513">
        <ele>1033.8</ele>
        <time>2022-10-23T11:43:02.000Z</time>
      </trkpt>
      <trkpt lat="3.48260885104537" lon="-76.49716462008655">
        <ele>1033.4</ele>
        <time>2022-10-23T11:43:14.000Z</time>
      </trkpt>
      <trkpt lat="3.4832496475428343" lon="-76.49674317799509">
        <ele>1033.2</ele>
        <time>2022-10-23T11:43:26.000Z</time>
      </trkpt>
      <trkpt lat="3.483956577256322" lon="-76.49633967317641">
        <ele>1033</ele>
        <time>2022-10-23T11:43:38.000Z</time>
      </trkpt>
      <trkpt lat="3.4846138022840023" lon="-76.49596089497209">
        <ele>1034.4</ele>
        <time>2022-10-23T11:43:49.000Z</time>
      </trkpt>
      <trkpt lat="3.48527479916811" lon="-76.49558982811868">
        <ele>1037.2</ele>
        <time>2022-10-23T11:44:03.000Z</time>
      </trkpt>
      <trkpt lat="3.485981309786439" lon="-76.49521968327463">
        <ele>1038.2</ele>
        <time>2022-10-23T11:44:17.000Z</time>
      </trkpt>
      <trkpt lat="3.486635433509946" lon="-76.49486646987498">
        <ele>1037.2</ele>
        <time>2022-10-23T11:44:29.000Z</time>
      </trkpt>
      <trkpt lat="3.487278325483203" lon="-76.4943918865174">
        <ele>1033.2</ele>
        <time>2022-10-23T11:44:40.000Z</time>
      </trkpt>
      <trkpt lat="3.4878636337816715" lon="-76.49383935146034">
        <ele>1029.8</ele>
        <time>2022-10-23T11:44:49.000Z</time>
      </trkpt>
      <trkpt lat="3.4885551407933235" lon="-76.49334062822163">
        <ele>1029</ele>
        <time>2022-10-23T11:44:59.000Z</time>
      </trkpt>
      <trkpt lat="3.4892148803919554" lon="-76.49284232407808">
        <ele>1028.4</ele>
        <time>2022-10-23T11:45:09.000Z</time>
      </trkpt>
      <trkpt lat="3.48978778347373" lon="-76.49222348816693">
        <ele>1028</ele>
        <time>2022-10-23T11:45:19.000Z</time>
      </trkpt>
      <trkpt lat="3.4903178550302982" lon="-76.49155519902706">
        <ele>1028.2</ele>
        <time>2022-10-23T11:45:29.000Z</time>
      </trkpt>
      <trkpt lat="3.4906703140586615" lon="-76.49080862291157">
        <ele>1028.4</ele>
        <time>2022-10-23T11:45:39.000Z</time>
      </trkpt>
      <trkpt lat="3.491091588512063" lon="-76.49018744006753">
        <ele>1030</ele>
        <time>2022-10-23T11:45:49.000Z</time>
      </trkpt>
      <trkpt lat="3.491449411958456" lon="-76.48949249647558">
        <ele>1033.6</ele>
        <time>2022-10-23T11:46:00.000Z</time>
      </trkpt>
      <trkpt lat="3.4914778266102076" lon="-76.48937582038343">
        <ele>1034.4</ele>
        <time>2022-10-23T11:46:02.000Z</time>
      </trkpt>
      <trkpt lat="3.4916136134415865" lon="-76.48857769556344">
        <ele>1034.6</ele>
        <time>2022-10-23T11:46:16.000Z</time>
      </trkpt>
      <trkpt lat="3.4917328879237175" lon="-76.48784687742591">
        <ele>1033.2</ele>
        <time>2022-10-23T11:46:27.000Z</time>
      </trkpt>
      <trkpt lat="3.4918618854135275" lon="-76.4870428852737">
        <ele>1031.8</ele>
        <time>2022-10-23T11:46:37.000Z</time>
      </trkpt>
      <trkpt lat="3.4919705986976624" lon="-76.48628767579794">
        <ele>1032</ele>
        <time>2022-10-23T11:46:47.000Z</time>
      </trkpt>
      <trkpt lat="3.4921746142208576" lon="-76.48552743718028">
        <ele>1033</ele>
        <time>2022-10-23T11:46:58.000Z</time>
      </trkpt>
      <trkpt lat="3.4924585931003094" lon="-76.48475965484977">
        <ele>1033</ele>
        <time>2022-10-23T11:47:10.000Z</time>
      </trkpt>
      <trkpt lat="3.492573844268918" lon="-76.48398692719638">
        <ele>1033.6</ele>
        <time>2022-10-23T11:47:21.000Z</time>
      </trkpt>
      <trkpt lat="3.492716420441866" lon="-76.48322367109358">
        <ele>1034.4</ele>
        <time>2022-10-23T11:47:32.000Z</time>
      </trkpt>
      <trkpt lat="3.492850949987769" lon="-76.48234943859279">
        <ele>1034.4</ele>
        <time>2022-10-23T11:47:42.000Z</time>
      </trkpt>
      <trkpt lat="3.492969134822488" lon="-76.48158417083323">
        <ele>1033</ele>
        <time>2022-10-23T11:47:50.000Z</time>
      </trkpt>
      <trkpt lat="3.4929809533059597" lon="-76.48080482147634">
        <ele>1032.8</ele>
        <time>2022-10-23T11:47:58.000Z</time>
      </trkpt>
      <trkpt lat="3.4930074401199818" lon="-76.48005187511444">
        <ele>1032.4</ele>
        <time>2022-10-23T11:48:06.000Z</time>
      </trkpt>
      <trkpt lat="3.4931003116071224" lon="-76.47922516800463">
        <ele>1031.2</ele>
        <time>2022-10-23T11:48:16.000Z</time>
      </trkpt>
      <trkpt lat="3.493099305778742" lon="-76.47905032150447">
        <ele>1030.8</ele>
        <time>2022-10-23T11:48:22.000Z</time>
      </trkpt>
      <trkpt lat="3.4931026585400105" lon="-76.4790316298604">
        <ele>1030.8</ele>
        <time>2022-10-23T11:48:24.000Z</time>
      </trkpt>
      <trkpt lat="3.4931109566241503" lon="-76.47899684496224">
        <ele>1030.8</ele>
        <time>2022-10-23T11:48:28.000Z</time>
      </trkpt>
      <trkpt lat="3.4931102860718966" lon="-76.47898066788912">
        <ele>1030.8</ele>
        <time>2022-10-23T11:48:43.000Z</time>
      </trkpt>
      <trkpt lat="3.4931121300905943" lon="-76.47896817885339">
        <ele>1030.6</ele>
        <time>2022-10-23T11:48:49.000Z</time>
      </trkpt>
      <trkpt lat="3.4931123815476894" lon="-76.47895242087543">
        <ele>1030.6</ele>
        <time>2022-10-23T11:49:42.000Z</time>
      </trkpt>
      <trkpt lat="3.493123110383749" lon="-76.47894068621099">
        <ele>1030.6</ele>
        <time>2022-10-23T11:50:29.000Z</time>
      </trkpt>
      <trkpt lat="3.493131324648857" lon="-76.47892098873854">
        <ele>1030.6</ele>
        <time>2022-10-23T11:50:32.000Z</time>
      </trkpt>
      <trkpt lat="3.4931252896785736" lon="-76.47890363819897">
        <ele>1030.6</ele>
        <time>2022-10-23T11:50:35.000Z</time>
      </trkpt>
      <trkpt lat="3.4931194223463535" lon="-76.47889391519129">
        <ele>1030.6</ele>
        <time>2022-10-23T11:50:39.000Z</time>
      </trkpt>
      <trkpt lat="3.4931200928986073" lon="-76.47887446917593">
        <ele>1030.6</ele>
        <time>2022-10-23T11:50:45.000Z</time>
      </trkpt>
      <trkpt lat="3.4932360984385014" lon="-76.47836962714791">
        <ele>1030.2</ele>
        <time>2022-10-23T11:51:13.000Z</time>
      </trkpt>
      <trkpt lat="3.493353109806776" lon="-76.47761366330087">
        <ele>1030.2</ele>
        <time>2022-10-23T11:51:40.000Z</time>
      </trkpt>
      <trkpt lat="3.493462409824133" lon="-76.47685711272061">
        <ele>1030.2</ele>
        <time>2022-10-23T11:52:00.000Z</time>
      </trkpt>
      <trkpt lat="3.4935193229466677" lon="-76.47611531428993">
        <ele>1030.2</ele>
        <time>2022-10-23T11:52:19.000Z</time>
      </trkpt>
      <trkpt lat="3.4935520961880684" lon="-76.4753601886332">
        <ele>1030.4</ele>
        <time>2022-10-23T11:52:37.000Z</time>
      </trkpt>
      <trkpt lat="3.4935841150581837" lon="-76.47458544932306">
        <ele>1030.4</ele>
        <time>2022-10-23T11:52:54.000Z</time>
      </trkpt>
      <trkpt lat="3.4936251025646925" lon="-76.47381565533578">
        <ele>1030.8</ele>
        <time>2022-10-23T11:53:09.000Z</time>
      </trkpt>
      <trkpt lat="3.493651421740651" lon="-76.47299196571112">
        <ele>1031.2</ele>
        <time>2022-10-23T11:53:24.000Z</time>
      </trkpt>
      <trkpt lat="3.4936862904578447" lon="-76.47221982479095">
        <ele>1030.6</ele>
        <time>2022-10-23T11:53:35.000Z</time>
      </trkpt>
      <trkpt lat="3.4937201533466578" lon="-76.47146293893456">
        <ele>1030.4</ele>
        <time>2022-10-23T11:53:45.000Z</time>
      </trkpt>
      <trkpt lat="3.493753094226122" lon="-76.47068467922509">
        <ele>1030</ele>
        <time>2022-10-23T11:53:55.000Z</time>
      </trkpt>
      <trkpt lat="3.4937789104878902" lon="-76.46989569067955">
        <ele>1029.6</ele>
        <time>2022-10-23T11:54:05.000Z</time>
      </trkpt>
      <trkpt lat="3.4938141144812107" lon="-76.46910293027759">
        <ele>1029.4</ele>
        <time>2022-10-23T11:54:15.000Z</time>
      </trkpt>
      <trkpt lat="3.4938903898000717" lon="-76.46832081489265">
        <ele>1029.4</ele>
        <time>2022-10-23T11:54:25.000Z</time>
      </trkpt>
      <trkpt lat="3.4940881188958883" lon="-76.46753685548902">
        <ele>1029.6</ele>
        <time>2022-10-23T11:54:35.000Z</time>
      </trkpt>
      <trkpt lat="3.494400093331933" lon="-76.46675616502762">
        <ele>1028.6</ele>
        <time>2022-10-23T11:54:45.000Z</time>
      </trkpt>
      <trkpt lat="3.4947486128658056" lon="-76.46595787256956">
        <ele>1027.8</ele>
        <time>2022-10-23T11:54:55.000Z</time>
      </trkpt>
      <trkpt lat="3.4950921032577753" lon="-76.4651791099459">
        <ele>1027.4</ele>
        <time>2022-10-23T11:55:05.000Z</time>
      </trkpt>
      <trkpt lat="3.4954178240150213" lon="-76.46442582830787">
        <ele>1027.6</ele>
        <time>2022-10-23T11:55:15.000Z</time>
      </trkpt>
      <trkpt lat="3.495738347992301" lon="-76.46367967128754">
        <ele>1027.8</ele>
        <time>2022-10-23T11:55:25.000Z</time>
      </trkpt>
      <trkpt lat="3.4960423596203327" lon="-76.46292613819242">
        <ele>1028</ele>
        <time>2022-10-23T11:55:35.000Z</time>
      </trkpt>
      <trkpt lat="3.496290883049369" lon="-76.46213195286691">
        <ele>1027.8</ele>
        <time>2022-10-23T11:55:45.000Z</time>
      </trkpt>
      <trkpt lat="3.49649959243834" lon="-76.4612983725965">
        <ele>1027.8</ele>
        <time>2022-10-23T11:55:55.000Z</time>
      </trkpt>
      <trkpt lat="3.4966909512877464" lon="-76.46045892499387">
        <ele>1027.6</ele>
        <time>2022-10-23T11:56:05.000Z</time>
      </trkpt>
      <trkpt lat="3.496878119185567" lon="-76.4596098382026">
        <ele>1027.2</ele>
        <time>2022-10-23T11:56:15.000Z</time>
      </trkpt>
      <trkpt lat="3.497074590995908" lon="-76.45875798538327">
        <ele>1027.2</ele>
        <time>2022-10-23T11:56:25.000Z</time>
      </trkpt>
      <trkpt lat="3.497266285121441" lon="-76.45792281255126">
        <ele>1027.4</ele>
        <time>2022-10-23T11:56:35.000Z</time>
      </trkpt>
      <trkpt lat="3.497447334229946" lon="-76.45713943988085">
        <ele>1029.2</ele>
        <time>2022-10-23T11:56:45.000Z</time>
      </trkpt>
      <trkpt lat="3.497630814090371" lon="-76.45633863285184">
        <ele>1031.4</ele>
        <time>2022-10-23T11:56:55.000Z</time>
      </trkpt>
      <trkpt lat="3.4978176467120647" lon="-76.45553480833769">
        <ele>1032.4</ele>
        <time>2022-10-23T11:57:05.000Z</time>
      </trkpt>
      <trkpt lat="3.4980083350092173" lon="-76.45469712093472">
        <ele>1032</ele>
        <time>2022-10-23T11:57:15.000Z</time>
      </trkpt>
      <trkpt lat="3.498203130438924" lon="-76.45385415293276">
        <ele>1030.4</ele>
        <time>2022-10-23T11:57:25.000Z</time>
      </trkpt>
      <trkpt lat="3.49840035662055" lon="-76.452995846048">
        <ele>1029.2</ele>
        <time>2022-10-23T11:57:35.000Z</time>
      </trkpt>
      <trkpt lat="3.498579142615199" lon="-76.45219545811415">
        <ele>1029.2</ele>
        <time>2022-10-23T11:57:45.000Z</time>
      </trkpt>
      <trkpt lat="3.498752312734723" lon="-76.45142063498497">
        <ele>1029.2</ele>
        <time>2022-10-23T11:57:55.000Z</time>
      </trkpt>
      <trkpt lat="3.4989316016435623" lon="-76.45065335556865">
        <ele>1029.4</ele>
        <time>2022-10-23T11:58:05.000Z</time>
      </trkpt>
      <trkpt lat="3.4991168417036533" lon="-76.44987911917269">
        <ele>1030</ele>
        <time>2022-10-23T11:58:15.000Z</time>
      </trkpt>
      <trkpt lat="3.4993094578385353" lon="-76.44914042204618">
        <ele>1030.8</ele>
        <time>2022-10-23T11:58:25.000Z</time>
      </trkpt>
      <trkpt lat="3.499498385936022" lon="-76.44843231886625">
        <ele>1032</ele>
        <time>2022-10-23T11:58:35.000Z</time>
      </trkpt>
      <trkpt lat="3.499677088111639" lon="-76.44770795479417">
        <ele>1032.4</ele>
        <time>2022-10-23T11:58:45.000Z</time>
      </trkpt>
      <trkpt lat="3.4998224303126335" lon="-76.44695090129972">
        <ele>1031.8</ele>
        <time>2022-10-23T11:58:55.000Z</time>
      </trkpt>
      <trkpt lat="3.49997129291296" lon="-76.44615914672613">
        <ele>1030.4</ele>
        <time>2022-10-23T11:59:05.000Z</time>
      </trkpt>
      <trkpt lat="3.500142954289913" lon="-76.44535792060196">
        <ele>1029.2</ele>
        <time>2022-10-23T11:59:15.000Z</time>
      </trkpt>
      <trkpt lat="3.50030061788857" lon="-76.44458997063339">
        <ele>1028.6</ele>
        <time>2022-10-23T11:59:25.000Z</time>
      </trkpt>
      <trkpt lat="3.5004244185984135" lon="-76.44383962266147">
        <ele>1027.8</ele>
        <time>2022-10-23T11:59:36.000Z</time>
      </trkpt>
      <trkpt lat="3.5005964152514935" lon="-76.44312280230224">
        <ele>1027.2</ele>
        <time>2022-10-23T11:59:50.000Z</time>
      </trkpt>
      <trkpt lat="3.5008414182811975" lon="-76.4424236677587">
        <ele>1027.2</ele>
        <time>2022-10-23T12:00:05.000Z</time>
      </trkpt>
      <trkpt lat="3.501053648069501" lon="-76.44170684739947">
        <ele>1027.4</ele>
        <time>2022-10-23T12:00:17.000Z</time>
      </trkpt>
      <trkpt lat="3.5012792889028788" lon="-76.44092062488198">
        <ele>1027.2</ele>
        <time>2022-10-23T12:00:29.000Z</time>
      </trkpt>
      <trkpt lat="3.5015096236020327" lon="-76.44012141041458">
        <ele>1027.2</ele>
        <time>2022-10-23T12:00:41.000Z</time>
      </trkpt>
      <trkpt lat="3.501735096797347" lon="-76.43932395614684">
        <ele>1027.4</ele>
        <time>2022-10-23T12:00:53.000Z</time>
      </trkpt>
      <trkpt lat="3.501952104270458" lon="-76.43851510249078">
        <ele>1027.6</ele>
        <time>2022-10-23T12:01:05.000Z</time>
      </trkpt>
      <trkpt lat="3.502155616879463" lon="-76.43771513365209">
        <ele>1027.8</ele>
        <time>2022-10-23T12:01:17.000Z</time>
      </trkpt>
      <trkpt lat="3.5023541003465652" lon="-76.436951123178">
        <ele>1028.2</ele>
        <time>2022-10-23T12:01:28.000Z</time>
      </trkpt>
      <trkpt lat="3.5025433637201786" lon="-76.4362264238298">
        <ele>1028.4</ele>
        <time>2022-10-23T12:01:38.000Z</time>
      </trkpt>
      <trkpt lat="3.5027319565415382" lon="-76.43547247163951">
        <ele>1028.4</ele>
        <time>2022-10-23T12:01:48.000Z</time>
      </trkpt>
      <trkpt lat="3.5029318649321795" lon="-76.43472597934306">
        <ele>1028.4</ele>
        <time>2022-10-23T12:01:58.000Z</time>
      </trkpt>
      <trkpt lat="3.503123391419649" lon="-76.43395610153675">
        <ele>1028.2</ele>
        <time>2022-10-23T12:02:08.000Z</time>
      </trkpt>
      <trkpt lat="3.503282144665718" lon="-76.43315537832677">
        <ele>1028.4</ele>
        <time>2022-10-23T12:02:18.000Z</time>
      </trkpt>
      <trkpt lat="3.503445591777563" lon="-76.43236144445837">
        <ele>1028.6</ele>
        <time>2022-10-23T12:02:28.000Z</time>
      </trkpt>
      <trkpt lat="3.503593448549509" lon="-76.43155544064939">
        <ele>1028.6</ele>
        <time>2022-10-23T12:02:38.000Z</time>
      </trkpt>
      <trkpt lat="3.5037399642169476" lon="-76.43074415624142">
        <ele>1028.6</ele>
        <time>2022-10-23T12:02:48.000Z</time>
      </trkpt>
      <trkpt lat="3.5039013996720314" lon="-76.42995240166783">
        <ele>1029</ele>
        <time>2022-10-23T12:02:58.000Z</time>
      </trkpt>
      <trkpt lat="3.504053447395563" lon="-76.42916860990226">
        <ele>1028.8</ele>
        <time>2022-10-23T12:03:08.000Z</time>
      </trkpt>
      <trkpt lat="3.504203399643302" lon="-76.42838263884187">
        <ele>1029</ele>
        <time>2022-10-23T12:03:18.000Z</time>
      </trkpt>
      <trkpt lat="3.5043558664619923" lon="-76.42758736386895">
        <ele>1029.2</ele>
        <time>2022-10-23T12:03:28.000Z</time>
      </trkpt>
      <trkpt lat="3.504514619708061" lon="-76.42678647302091">
        <ele>1029.2</ele>
        <time>2022-10-23T12:03:38.000Z</time>
      </trkpt>
      <trkpt lat="3.5046586208045483" lon="-76.42599731683731">
        <ele>1029.4</ele>
        <time>2022-10-23T12:03:48.000Z</time>
      </trkpt>
      <trkpt lat="3.5048128478229046" lon="-76.42521562054753">
        <ele>1029.6</ele>
        <time>2022-10-23T12:03:58.000Z</time>
      </trkpt>
      <trkpt lat="3.504968835040927" lon="-76.42441741190851">
        <ele>1029.6</ele>
        <time>2022-10-23T12:04:08.000Z</time>
      </trkpt>
      <trkpt lat="3.505118116736412" lon="-76.42362582497299">
        <ele>1029.6</ele>
        <time>2022-10-23T12:04:18.000Z</time>
      </trkpt>
      <trkpt lat="3.5052681528031826" lon="-76.42283390276134">
        <ele>1029.6</ele>
        <time>2022-10-23T12:04:27.000Z</time>
      </trkpt>
      <trkpt lat="3.5054378863424063" lon="-76.42204047180712">
        <ele>1029.6</ele>
        <time>2022-10-23T12:04:37.000Z</time>
      </trkpt>
      <trkpt lat="3.5056248027831316" lon="-76.42122591845691">
        <ele>1029.6</ele>
        <time>2022-10-23T12:04:47.000Z</time>
      </trkpt>
      <trkpt lat="3.505798140540719" lon="-76.4204203337431">
        <ele>1030.2</ele>
        <time>2022-10-23T12:04:57.000Z</time>
      </trkpt>
      <trkpt lat="3.505983129143715" lon="-76.41963059082627">
        <ele>1030.4</ele>
        <time>2022-10-23T12:05:07.000Z</time>
      </trkpt>
      <trkpt lat="3.506164848804474" lon="-76.4188348967582">
        <ele>1030.2</ele>
        <time>2022-10-23T12:05:17.000Z</time>
      </trkpt>
      <trkpt lat="3.5063543636351824" lon="-76.4180111233145">
        <ele>1030.2</ele>
        <time>2022-10-23T12:05:27.000Z</time>
      </trkpt>
      <trkpt lat="3.506554439663887" lon="-76.4171646349132">
        <ele>1030.6</ele>
        <time>2022-10-23T12:05:37.000Z</time>
      </trkpt>
      <trkpt lat="3.506747893989086" lon="-76.41631345264614">
        <ele>1030.4</ele>
        <time>2022-10-23T12:05:47.000Z</time>
      </trkpt>
      <trkpt lat="3.5069186333566904" lon="-76.41551365144551">
        <ele>1030.6</ele>
        <time>2022-10-23T12:05:57.000Z</time>
      </trkpt>
      <trkpt lat="3.5071186255663633" lon="-76.41471686773002">
        <ele>1030.6</ele>
        <time>2022-10-23T12:06:07.000Z</time>
      </trkpt>
      <trkpt lat="3.507277462631464" lon="-76.41393383033574">
        <ele>1030.4</ele>
        <time>2022-10-23T12:06:17.000Z</time>
      </trkpt>
      <trkpt lat="3.5074393171817064" lon="-76.41313838772476">
        <ele>1030.6</ele>
        <time>2022-10-23T12:06:27.000Z</time>
      </trkpt>
      <trkpt lat="3.507599327713251" lon="-76.41231989488006">
        <ele>1030.8</ele>
        <time>2022-10-23T12:06:37.000Z</time>
      </trkpt>
      <trkpt lat="3.5077564045786858" lon="-76.41149846836925">
        <ele>1031</ele>
        <time>2022-10-23T12:06:47.000Z</time>
      </trkpt>
      <trkpt lat="3.5079063568264246" lon="-76.4106909558177">
        <ele>1031</ele>
        <time>2022-10-23T12:06:57.000Z</time>
      </trkpt>
      <trkpt lat="3.5080578178167343" lon="-76.40994345769286">
        <ele>1031.2</ele>
        <time>2022-10-23T12:07:07.000Z</time>
      </trkpt>
      <trkpt lat="3.508210452273488" lon="-76.40922931954265">
        <ele>1031.4</ele>
        <time>2022-10-23T12:07:17.000Z</time>
      </trkpt>
      <trkpt lat="3.5083793476223946" lon="-76.40848483890295">
        <ele>1031.4</ele>
        <time>2022-10-23T12:07:27.000Z</time>
      </trkpt>
      <trkpt lat="3.508547404780984" lon="-76.40774589031935">
        <ele>1031.4</ele>
        <time>2022-10-23T12:07:37.000Z</time>
      </trkpt>
      <trkpt lat="3.508711103349924" lon="-76.40701691620052">
        <ele>1031.6</ele>
        <time>2022-10-23T12:07:47.000Z</time>
      </trkpt>
      <trkpt lat="3.50888192653656" lon="-76.40628316439688">
        <ele>1031.6</ele>
        <time>2022-10-23T12:07:57.000Z</time>
      </trkpt>
      <trkpt lat="3.509047133848071" lon="-76.40555712394416">
        <ele>1031.6</ele>
        <time>2022-10-23T12:08:07.000Z</time>
      </trkpt>
      <trkpt lat="3.509210664778948" lon="-76.40484063886106">
        <ele>1031.6</ele>
        <time>2022-10-23T12:08:17.000Z</time>
      </trkpt>
      <trkpt lat="3.5093931388109922" lon="-76.40409666113555">
        <ele>1032</ele>
        <time>2022-10-23T12:08:27.000Z</time>
      </trkpt>
      <trkpt lat="3.509585168212652" lon="-76.40334111638367">
        <ele>1032</ele>
        <time>2022-10-23T12:08:37.000Z</time>
      </trkpt>
      <trkpt lat="3.509809887036681" lon="-76.40261641703546">
        <ele>1032.2</ele>
        <time>2022-10-23T12:08:47.000Z</time>
      </trkpt>
      <trkpt lat="3.5100864060223103" lon="-76.40192415565252">
        <ele>1032.2</ele>
        <time>2022-10-23T12:08:57.000Z</time>
      </trkpt>
      <trkpt lat="3.5103438142687082" lon="-76.40123491175473">
        <ele>1032.2</ele>
        <time>2022-10-23T12:09:07.000Z</time>
      </trkpt>
      <trkpt lat="3.5106146335601807" lon="-76.40047886408865">
        <ele>1032.4</ele>
        <time>2022-10-23T12:09:18.000Z</time>
      </trkpt>
      <trkpt lat="3.510826611891389" lon="-76.39976765960455">
        <ele>1032.8</ele>
        <time>2022-10-23T12:09:28.000Z</time>
      </trkpt>
      <trkpt lat="3.510999446734786" lon="-76.39905410818756">
        <ele>1032.8</ele>
        <time>2022-10-23T12:09:38.000Z</time>
      </trkpt>
      <trkpt lat="3.511170856654644" lon="-76.3982849009335">
        <ele>1033</ele>
        <time>2022-10-23T12:09:49.000Z</time>
      </trkpt>
      <trkpt lat="3.511342601850629" lon="-76.39755743555725">
        <ele>1033.6</ele>
        <time>2022-10-23T12:09:59.000Z</time>
      </trkpt>
      <trkpt lat="3.511496325954795" lon="-76.39677314087749">
        <ele>1034</ele>
        <time>2022-10-23T12:10:10.000Z</time>
      </trkpt>
      <trkpt lat="3.51161434315145" lon="-76.39605288393795">
        <ele>1034.2</ele>
        <time>2022-10-23T12:10:21.000Z</time>
      </trkpt>
      <trkpt lat="3.511725151911378" lon="-76.3953042961657">
        <ele>1034</ele>
        <time>2022-10-23T12:10:31.000Z</time>
      </trkpt>
      <trkpt lat="3.5118366312235594" lon="-76.39455579221249">
        <ele>1034.2</ele>
        <time>2022-10-23T12:10:41.000Z</time>
      </trkpt>
      <trkpt lat="3.511951630935073" lon="-76.39381030574441">
        <ele>1034.6</ele>
        <time>2022-10-23T12:10:51.000Z</time>
      </trkpt>
      <trkpt lat="3.5120733361691236" lon="-76.39306113123894">
        <ele>1035</ele>
        <time>2022-10-23T12:11:01.000Z</time>
      </trkpt>
      <trkpt lat="3.5122040938585997" lon="-76.39230893924832">
        <ele>1035</ele>
        <time>2022-10-23T12:11:11.000Z</time>
      </trkpt>
      <trkpt lat="3.512356812134385" lon="-76.39156630262733">
        <ele>1035.4</ele>
        <time>2022-10-23T12:11:21.000Z</time>
      </trkpt>
      <trkpt lat="3.5125348437577486" lon="-76.39079382643104">
        <ele>1035.6</ele>
        <time>2022-10-23T12:11:31.000Z</time>
      </trkpt>
      <trkpt lat="3.5127143003046513" lon="-76.39000542461872">
        <ele>1035.8</ele>
        <time>2022-10-23T12:11:41.000Z</time>
      </trkpt>
      <trkpt lat="3.512897863984108" lon="-76.38920185156167">
        <ele>1035.8</ele>
        <time>2022-10-23T12:11:51.000Z</time>
      </trkpt>
      <trkpt lat="3.5130794160068035" lon="-76.38841160573065">
        <ele>1036.2</ele>
        <time>2022-10-23T12:12:01.000Z</time>
      </trkpt>
      <trkpt lat="3.5132587887346745" lon="-76.38762278482318">
        <ele>1036.8</ele>
        <time>2022-10-23T12:12:11.000Z</time>
      </trkpt>
      <trkpt lat="3.513432629406452" lon="-76.38681963086128">
        <ele>1037</ele>
        <time>2022-10-23T12:12:21.000Z</time>
      </trkpt>
      <trkpt lat="3.513584090396762" lon="-76.38600809499621">
        <ele>1037.2</ele>
        <time>2022-10-23T12:12:31.000Z</time>
      </trkpt>
      <trkpt lat="3.5136994253844023" lon="-76.38526495546103">
        <ele>1037.4</ele>
        <time>2022-10-23T12:12:41.000Z</time>
      </trkpt>
      <trkpt lat="3.5138331167399883" lon="-76.38452961109579">
        <ele>1038</ele>
        <time>2022-10-23T12:12:51.000Z</time>
      </trkpt>
      <trkpt lat="3.5139833204448223" lon="-76.38378412462771">
        <ele>1038.2</ele>
        <time>2022-10-23T12:13:01.000Z</time>
      </trkpt>
      <trkpt lat="3.5141564067453146" lon="-76.38304484076798">
        <ele>1038.4</ele>
        <time>2022-10-23T12:13:11.000Z</time>
      </trkpt>
      <trkpt lat="3.5143314208835363" lon="-76.3823046348989">
        <ele>1038.6</ele>
        <time>2022-10-23T12:13:21.000Z</time>
      </trkpt>
      <trkpt lat="3.5144948679953814" lon="-76.3815640937537">
        <ele>1039</ele>
        <time>2022-10-23T12:13:31.000Z</time>
      </trkpt>
      <trkpt lat="3.514666613191366" lon="-76.38084660284221">
        <ele>1039.4</ele>
        <time>2022-10-23T12:13:41.000Z</time>
      </trkpt>
      <trkpt lat="3.514873646199703" lon="-76.38012140057981">
        <ele>1039.4</ele>
        <time>2022-10-23T12:13:51.000Z</time>
      </trkpt>
      <trkpt lat="3.515088139101863" lon="-76.37937230989337">
        <ele>1039.4</ele>
        <time>2022-10-23T12:14:01.000Z</time>
      </trkpt>
      <trkpt lat="3.5152658354490995" lon="-76.37863461859524">
        <ele>1039.6</ele>
        <time>2022-10-23T12:14:11.000Z</time>
      </trkpt>
      <trkpt lat="3.5153949167579412" lon="-76.37788779102266">
        <ele>1039.8</ele>
        <time>2022-10-23T12:14:21.000Z</time>
      </trkpt>
      <trkpt lat="3.5155244171619415" lon="-76.37712579220533">
        <ele>1040</ele>
        <time>2022-10-23T12:14:31.000Z</time>
      </trkpt>
      <trkpt lat="3.515661461278796" lon="-76.3763764500618">
        <ele>1040.2</ele>
        <time>2022-10-23T12:14:41.000Z</time>
      </trkpt>
      <trkpt lat="3.5158254113048315" lon="-76.37562207877636">
        <ele>1040.2</ele>
        <time>2022-10-23T12:14:51.000Z</time>
      </trkpt>
      <trkpt lat="3.516003442928195" lon="-76.37483384460211">
        <ele>1040.2</ele>
        <time>2022-10-23T12:15:01.000Z</time>
      </trkpt>
      <trkpt lat="3.516188934445381" lon="-76.37402842752635">
        <ele>1040.2</ele>
        <time>2022-10-23T12:15:11.000Z</time>
      </trkpt>
      <trkpt lat="3.516381634399295" lon="-76.37319442816079">
        <ele>1040.2</ele>
        <time>2022-10-23T12:15:21.000Z</time>
      </trkpt>
      <trkpt lat="3.5165701434016228" lon="-76.3723339419812">
        <ele>1040.2</ele>
        <time>2022-10-23T12:15:31.000Z</time>
      </trkpt>
      <trkpt lat="3.5167596582323313" lon="-76.37148208916187">
        <ele>1040.8</ele>
        <time>2022-10-23T12:15:41.000Z</time>
      </trkpt>
      <trkpt lat="3.5169539507478476" lon="-76.37063258327544">
        <ele>1041.2</ele>
        <time>2022-10-23T12:15:51.000Z</time>
      </trkpt>
      <trkpt lat="3.5171491652727127" lon="-76.36977662332356">
        <ele>1041.6</ele>
        <time>2022-10-23T12:16:01.000Z</time>
      </trkpt>
      <trkpt lat="3.5173309687525034" lon="-76.36894513852894">
        <ele>1042.4</ele>
        <time>2022-10-23T12:16:11.000Z</time>
      </trkpt>
      <trkpt lat="3.5175343975424767" lon="-76.36810233816504">
        <ele>1042.4</ele>
        <time>2022-10-23T12:16:21.000Z</time>
      </trkpt>
      <trkpt lat="3.5177526623010635" lon="-76.36727537959814">
        <ele>1042.2</ele>
        <time>2022-10-23T12:16:31.000Z</time>
      </trkpt>
      <trkpt lat="3.51797285489738" lon="-76.36644079349935">
        <ele>1042.4</ele>
        <time>2022-10-23T12:16:41.000Z</time>
      </trkpt>
      <trkpt lat="3.5181779600679874" lon="-76.36560562066734">
        <ele>1042.8</ele>
        <time>2022-10-23T12:16:51.000Z</time>
      </trkpt>
      <trkpt lat="3.5183749347925186" lon="-76.36479483917356">
        <ele>1042.8</ele>
        <time>2022-10-23T12:17:01.000Z</time>
      </trkpt>
      <trkpt lat="3.518550619482994" lon="-76.3640102930367">
        <ele>1043</ele>
        <time>2022-10-23T12:17:11.000Z</time>
      </trkpt>
      <trkpt lat="3.51873560808599" lon="-76.36320789344609">
        <ele>1043.2</ele>
        <time>2022-10-23T12:17:21.000Z</time>
      </trkpt>
      <trkpt lat="3.518924117088318" lon="-76.36241043917835">
        <ele>1043.4</ele>
        <time>2022-10-23T12:17:31.000Z</time>
      </trkpt>
      <trkpt lat="3.5191061720252037" lon="-76.36161063797772">
        <ele>1043.6</ele>
        <time>2022-10-23T12:17:41.000Z</time>
      </trkpt>
      <trkpt lat="3.5192945972085" lon="-76.36083480902016">
        <ele>1044</ele>
        <time>2022-10-23T12:17:51.000Z</time>
      </trkpt>
      <trkpt lat="3.5195501614362" lon="-76.36007264256477">
        <ele>1044</ele>
        <time>2022-10-23T12:18:01.000Z</time>
      </trkpt>
      <trkpt lat="3.519871858879924" lon="-76.35930326767266">
        <ele>1043.8</ele>
        <time>2022-10-23T12:18:11.000Z</time>
      </trkpt>
      <trkpt lat="3.520159861072898" lon="-76.35854931548238">
        <ele>1044.2</ele>
        <time>2022-10-23T12:18:21.000Z</time>
      </trkpt>
      <trkpt lat="3.5203773714601994" lon="-76.3578040804714">
        <ele>1045</ele>
        <time>2022-10-23T12:18:31.000Z</time>
      </trkpt>
      <trkpt lat="3.5205478593707085" lon="-76.35705557651818">
        <ele>1045.4</ele>
        <time>2022-10-23T12:18:41.000Z</time>
      </trkpt>
      <trkpt lat="3.520631929859519" lon="-76.35626994073391">
        <ele>1045.4</ele>
        <time>2022-10-23T12:18:51.000Z</time>
      </trkpt>
      <trkpt lat="3.5206688940525055" lon="-76.35547013953328">
        <ele>1045.4</ele>
        <time>2022-10-23T12:19:01.000Z</time>
      </trkpt>
      <trkpt lat="3.5207213647663593" lon="-76.35468743741512">
        <ele>1045.8</ele>
        <time>2022-10-23T12:19:11.000Z</time>
      </trkpt>
      <trkpt lat="3.520859917625785" lon="-76.35392392985523">
        <ele>1046</ele>
        <time>2022-10-23T12:19:21.000Z</time>
      </trkpt>
      <trkpt lat="3.5210343450307846" lon="-76.35315790772438">
        <ele>1046.2</ele>
        <time>2022-10-23T12:19:31.000Z</time>
      </trkpt>
      <trkpt lat="3.521200306713581" lon="-76.35241493582726">
        <ele>1046.8</ele>
        <time>2022-10-23T12:19:41.000Z</time>
      </trkpt>
      <trkpt lat="3.521367944777012" lon="-76.35166810825467">
        <ele>1047.6</ele>
        <time>2022-10-23T12:19:51.000Z</time>
      </trkpt>
      <trkpt lat="3.521534325554967" lon="-76.35094190016389">
        <ele>1048.8</ele>
        <time>2022-10-23T12:20:01.000Z</time>
      </trkpt>
      <trkpt lat="3.5217278636991978" lon="-76.35013530962169">
        <ele>1050</ele>
        <time>2022-10-23T12:20:13.000Z</time>
      </trkpt>
      <trkpt lat="3.5218975972384214" lon="-76.34936937130988">
        <ele>1049.8</ele>
        <time>2022-10-23T12:20:24.000Z</time>
      </trkpt>
      <trkpt lat="3.5220699291676283" lon="-76.34860913269222">
        <ele>1048.6</ele>
        <time>2022-10-23T12:20:34.000Z</time>
      </trkpt>
      <trkpt lat="3.5222513135522604" lon="-76.34780111722648">
        <ele>1048.2</ele>
        <time>2022-10-23T12:20:44.000Z</time>
      </trkpt>
      <trkpt lat="3.522435463964939" lon="-76.34698840789497">
        <ele>1048.6</ele>
        <time>2022-10-23T12:20:54.000Z</time>
      </trkpt>
      <trkpt lat="3.5226149205118418" lon="-76.346200928092">
        <ele>1049</ele>
        <time>2022-10-23T12:21:04.000Z</time>
      </trkpt>
      <trkpt lat="3.522778870537877" lon="-76.34544437751174">
        <ele>1049.2</ele>
        <time>2022-10-23T12:21:14.000Z</time>
      </trkpt>
      <trkpt lat="3.5229176748543978" lon="-76.3446728233248">
        <ele>1049.6</ele>
        <time>2022-10-23T12:21:24.000Z</time>
      </trkpt>
      <trkpt lat="3.5230379551649094" lon="-76.343904286623">
        <ele>1050</ele>
        <time>2022-10-23T12:21:34.000Z</time>
      </trkpt>
      <trkpt lat="3.5231544636189938" lon="-76.34316642768681">
        <ele>1050.6</ele>
        <time>2022-10-23T12:21:44.000Z</time>
      </trkpt>
      <trkpt lat="3.5233153961598873" lon="-76.34242127649486">
        <ele>1050.6</ele>
        <time>2022-10-23T12:21:54.000Z</time>
      </trkpt>
      <trkpt lat="3.5234790947288275" lon="-76.34170311503112">
        <ele>1051.2</ele>
        <time>2022-10-23T12:22:04.000Z</time>
      </trkpt>
      <trkpt lat="3.523669447749853" lon="-76.34094279259443">
        <ele>1051.6</ele>
        <time>2022-10-23T12:22:15.000Z</time>
      </trkpt>
      <trkpt lat="3.523824429139495" lon="-76.3402154110372">
        <ele>1052</ele>
        <time>2022-10-23T12:22:25.000Z</time>
      </trkpt>
      <trkpt lat="3.5240091662853956" lon="-76.33941611275077">
        <ele>1052.2</ele>
        <time>2022-10-23T12:22:35.000Z</time>
      </trkpt>
      <trkpt lat="3.524186611175537" lon="-76.33868336677551">
        <ele>1052.6</ele>
        <time>2022-10-23T12:22:45.000Z</time>
      </trkpt>
      <trkpt lat="3.524354165419936" lon="-76.33794559165835">
        <ele>1053</ele>
        <time>2022-10-23T12:22:55.000Z</time>
      </trkpt>
      <trkpt lat="3.524520630016923" lon="-76.3372279331088">
        <ele>1053.4</ele>
        <time>2022-10-23T12:23:05.000Z</time>
      </trkpt>
      <trkpt lat="3.5246883518993855" lon="-76.33644883520901">
        <ele>1054.2</ele>
        <time>2022-10-23T12:23:16.000Z</time>
      </trkpt>
      <trkpt lat="3.5248396452516317" lon="-76.33573193103075">
        <ele>1054.8</ele>
        <time>2022-10-23T12:23:26.000Z</time>
      </trkpt>
      <trkpt lat="3.52500862441957" lon="-76.33497060276568">
        <ele>1055.2</ele>
        <time>2022-10-23T12:23:36.000Z</time>
      </trkpt>
      <trkpt lat="3.5251828003674746" lon="-76.33422092534602">
        <ele>1055.6</ele>
        <time>2022-10-23T12:23:46.000Z</time>
      </trkpt>
      <trkpt lat="3.5253524500876665" lon="-76.33348231203854">
        <ele>1056</ele>
        <time>2022-10-23T12:23:56.000Z</time>
      </trkpt>
      <trkpt lat="3.5255214292556047" lon="-76.3327157869935">
        <ele>1056.6</ele>
        <time>2022-10-23T12:24:08.000Z</time>
      </trkpt>
      <trkpt lat="3.525681607425213" lon="-76.33196988143027">
        <ele>1056.8</ele>
        <time>2022-10-23T12:24:26.000Z</time>
      </trkpt>
      <trkpt lat="3.525730138644576" lon="-76.33166125975549">
        <ele>1057</ele>
        <time>2022-10-23T12:24:49.000Z</time>
      </trkpt>
      <trkpt lat="3.525725109502673" lon="-76.33162362501025">
        <ele>1057.2</ele>
        <time>2022-10-23T12:26:32.000Z</time>
      </trkpt>
      <trkpt lat="3.525751093402505" lon="-76.33160158060491">
        <ele>1057.2</ele>
        <time>2022-10-23T12:28:24.000Z</time>
      </trkpt>
      <trkpt lat="3.525919821113348" lon="-76.33092231117189">
        <ele>1057.8</ele>
        <time>2022-10-23T12:30:53.000Z</time>
      </trkpt>
      <trkpt lat="3.526090309023857" lon="-76.33016643114388">
        <ele>1058.4</ele>
        <time>2022-10-23T12:31:08.000Z</time>
      </trkpt>
      <trkpt lat="3.526260629296303" lon="-76.3294005766511">
        <ele>1058.6</ele>
        <time>2022-10-23T12:31:21.000Z</time>
      </trkpt>
      <trkpt lat="3.5264279320836067" lon="-76.32866741158068">
        <ele>1059.2</ele>
        <time>2022-10-23T12:31:33.000Z</time>
      </trkpt>
      <trkpt lat="3.5266038682311773" lon="-76.32789242081344">
        <ele>1059.8</ele>
        <time>2022-10-23T12:31:45.000Z</time>
      </trkpt>
      <trkpt lat="3.5269101429730654" lon="-76.32712882943451">
        <ele>1060</ele>
        <time>2022-10-23T12:31:57.000Z</time>
      </trkpt>
      <trkpt lat="3.527356395497918" lon="-76.32648090831935">
        <ele>1060.4</ele>
        <time>2022-10-23T12:32:08.000Z</time>
      </trkpt>
      <trkpt lat="3.527917144820094" lon="-76.3259448017925">
        <ele>1060.4</ele>
        <time>2022-10-23T12:32:18.000Z</time>
      </trkpt>
      <trkpt lat="3.52859515696764" lon="-76.32545940577984">
        <ele>1060.6</ele>
        <time>2022-10-23T12:32:28.000Z</time>
      </trkpt>
      <trkpt lat="3.529275432229042" lon="-76.32498029619455">
        <ele>1061.4</ele>
        <time>2022-10-23T12:32:38.000Z</time>
      </trkpt>
      <trkpt lat="3.52995746769011" lon="-76.32451208308339">
        <ele>1062.2</ele>
        <time>2022-10-23T12:32:48.000Z</time>
      </trkpt>
      <trkpt lat="3.5306579433381557" lon="-76.32400128990412">
        <ele>1063</ele>
        <time>2022-10-23T12:32:58.000Z</time>
      </trkpt>
      <trkpt lat="3.5313824750483036" lon="-76.3235117867589">
        <ele>1064</ele>
        <time>2022-10-23T12:33:08.000Z</time>
      </trkpt>
      <trkpt lat="3.532054368406534" lon="-76.32304105907679">
        <ele>1064.6</ele>
        <time>2022-10-23T12:33:17.000Z</time>
      </trkpt>
      <trkpt lat="3.5327021218836308" lon="-76.32259639911354">
        <ele>1064.8</ele>
        <time>2022-10-23T12:33:25.000Z</time>
      </trkpt>
      <trkpt lat="3.533375607803464" lon="-76.32212332449853">
        <ele>1065</ele>
        <time>2022-10-23T12:33:33.000Z</time>
      </trkpt>
      <trkpt lat="3.5340598225593567" lon="-76.32163080386817">
        <ele>1065.4</ele>
        <time>2022-10-23T12:33:41.000Z</time>
      </trkpt>
      <trkpt lat="3.5347396787256002" lon="-76.32114809006453">
        <ele>1066.2</ele>
        <time>2022-10-23T12:33:49.000Z</time>
      </trkpt>
      <trkpt lat="3.5353946406394243" lon="-76.32067157886922">
        <ele>1066.6</ele>
        <time>2022-10-23T12:33:57.000Z</time>
      </trkpt>
      <trkpt lat="3.5360649414360523" lon="-76.32021090947092">
        <ele>1066.8</ele>
        <time>2022-10-23T12:34:05.000Z</time>
      </trkpt>
      <trkpt lat="3.5367416124790907" lon="-76.31973129697144">
        <ele>1067.2</ele>
        <time>2022-10-23T12:34:13.000Z</time>
      </trkpt>
      <trkpt lat="3.5374258272349834" lon="-76.31924657151103">
        <ele>1067.2</ele>
        <time>2022-10-23T12:34:21.000Z</time>
      </trkpt>
      <trkpt lat="3.5380961280316114" lon="-76.31873343139887">
        <ele>1067.4</ele>
        <time>2022-10-23T12:34:29.000Z</time>
      </trkpt>
      <trkpt lat="3.5385353397578" lon="-76.31803513504565">
        <ele>1067.4</ele>
        <time>2022-10-23T12:34:37.000Z</time>
      </trkpt>
      <trkpt lat="3.5386583022773266" lon="-76.31727263331413">
        <ele>1067.4</ele>
        <time>2022-10-23T12:34:45.000Z</time>
      </trkpt>
      <trkpt lat="3.5386786703020334" lon="-76.31646210327744">
        <ele>1068.2</ele>
        <time>2022-10-23T12:34:53.000Z</time>
      </trkpt>
      <trkpt lat="3.538686465471983" lon="-76.31565257906914">
        <ele>1068.4</ele>
        <time>2022-10-23T12:35:01.000Z</time>
      </trkpt>
      <trkpt lat="3.538695350289345" lon="-76.3148392830044">
        <ele>1069</ele>
        <time>2022-10-23T12:35:09.000Z</time>
      </trkpt>
      <trkpt lat="3.5387078393250704" lon="-76.31406085565686">
        <ele>1069.4</ele>
        <time>2022-10-23T12:35:17.000Z</time>
      </trkpt>
      <trkpt lat="3.53872443549335" lon="-76.31323741748929">
        <ele>1070</ele>
        <time>2022-10-23T12:35:27.000Z</time>
      </trkpt>
      <trkpt lat="3.5387433785945177" lon="-76.31247625686228">
        <ele>1070.4</ele>
        <time>2022-10-23T12:35:37.000Z</time>
      </trkpt>
      <trkpt lat="3.5387613996863365" lon="-76.31173160858452">
        <ele>1071</ele>
        <time>2022-10-23T12:35:47.000Z</time>
      </trkpt>
      <trkpt lat="3.538781935349107" lon="-76.31093356758356">
        <ele>1071.4</ele>
        <time>2022-10-23T12:35:59.000Z</time>
      </trkpt>
      <trkpt lat="3.5388038121163845" lon="-76.31016008555889">
        <ele>1071.8</ele>
        <time>2022-10-23T12:36:11.000Z</time>
      </trkpt>
      <trkpt lat="3.538828371092677" lon="-76.3093633018434">
        <ele>1072.2</ele>
        <time>2022-10-23T12:36:23.000Z</time>
      </trkpt>
      <trkpt lat="3.5388429556041956" lon="-76.30858059972525">
        <ele>1072.8</ele>
        <time>2022-10-23T12:36:35.000Z</time>
      </trkpt>
      <trkpt lat="3.5387909039855003" lon="-76.30779504776001">
        <ele>1073</ele>
        <time>2022-10-23T12:36:48.000Z</time>
      </trkpt>
      <trkpt lat="3.5387411154806614" lon="-76.30762539803982">
        <ele>1073</ele>
        <time>2022-10-23T12:36:53.000Z</time>
      </trkpt>
      <trkpt lat="3.538714963942766" lon="-76.30752632394433">
        <ele>1072.6</ele>
        <time>2022-10-23T12:36:59.000Z</time>
      </trkpt>
      <trkpt lat="3.538714963942766" lon="-76.30750109441578">
        <ele>1072.8</ele>
        <time>2022-10-23T12:37:09.000Z</time>
      </trkpt>
      <trkpt lat="3.538755364716053" lon="-76.30741836503148">
        <ele>1070.4</ele>
        <time>2022-10-23T01:14:07.000Z</time>
      </trkpt>
      <trkpt lat="3.5387596394866705" lon="-76.30738735198975">
        <ele>1070.6</ele>
        <time>2022-10-23T01:14:12.000Z</time>
      </trkpt>
      <trkpt lat="3.538748323917389" lon="-76.30735742859542">
        <ele>1070.6</ele>
        <time>2022-10-23T01:14:15.000Z</time>
      </trkpt>
      <trkpt lat="3.5386983677744865" lon="-76.30660632625222">
        <ele>1071</ele>
        <time>2022-10-23T01:14:38.000Z</time>
      </trkpt>
      <trkpt lat="3.538673808798194" lon="-76.30584290251136">
        <ele>1071.2</ele>
        <time>2022-10-23T01:14:58.000Z</time>
      </trkpt>
      <trkpt lat="3.538688812404871" lon="-76.30507587455213">
        <ele>1072.2</ele>
        <time>2022-10-23T01:15:15.000Z</time>
      </trkpt>
      <trkpt lat="3.5386669356375933" lon="-76.3043178152293">
        <ele>1072.8</ele>
        <time>2022-10-23T01:15:33.000Z</time>
      </trkpt>
      <trkpt lat="3.5386061668395996" lon="-76.30357425659895">
        <ele>1073.2</ele>
        <time>2022-10-23T01:15:50.000Z</time>
      </trkpt>
      <trkpt lat="3.5385479126125574" lon="-76.30280060693622">
        <ele>1073.8</ele>
        <time>2022-10-23T01:16:07.000Z</time>
      </trkpt>
      <trkpt lat="3.5384824499487877" lon="-76.30204489454627">
        <ele>1073.8</ele>
        <time>2022-10-23T01:16:23.000Z</time>
      </trkpt>
      <trkpt lat="3.538413802161813" lon="-76.30130477249622">
        <ele>1074</ele>
        <time>2022-10-23T01:16:41.000Z</time>
      </trkpt>
      <trkpt lat="3.5384091082960367" lon="-76.30127057433128">
        <ele>1074.2</ele>
        <time>2022-10-23T01:16:46.000Z</time>
      </trkpt>
      <trkpt lat="3.538303328678012" lon="-76.3004510756582">
        <ele>1074.8</ele>
        <time>2022-10-23T01:17:09.000Z</time>
      </trkpt>
      <trkpt lat="3.538187826052308" lon="-76.29967784509063">
        <ele>1075.4</ele>
        <time>2022-10-23T01:17:25.000Z</time>
      </trkpt>
      <trkpt lat="3.5380819626152515" lon="-76.29893738776445">
        <ele>1075.8</ele>
        <time>2022-10-23T01:17:40.000Z</time>
      </trkpt>
      <trkpt lat="3.5379488579928875" lon="-76.29819030873477">
        <ele>1076.2</ele>
        <time>2022-10-23T01:18:01.000Z</time>
      </trkpt>
      <trkpt lat="3.537845928221941" lon="-76.29747457802296">
        <ele>1076.6</ele>
        <time>2022-10-23T01:18:35.000Z</time>
      </trkpt>
      <trkpt lat="3.5378293320536613" lon="-76.29740081727505">
        <ele>1076.6</ele>
        <time>2022-10-23T01:18:40.000Z</time>
      </trkpt>
      <trkpt lat="3.5378308407962322" lon="-76.29710736684501">
        <ele>1076.8</ele>
        <time>2022-10-23T01:18:52.000Z</time>
      </trkpt>
      <trkpt lat="3.537860680371523" lon="-76.29705062136054">
        <ele>1076.8</ele>
        <time>2022-10-23T01:18:57.000Z</time>
      </trkpt>
      <trkpt lat="3.5378666315227747" lon="-76.29704425111413">
        <ele>1076.6</ele>
        <time>2022-10-23T01:19:02.000Z</time>
      </trkpt>
      <trkpt lat="3.537883898243308" lon="-76.29702807404101">
        <ele>1076.8</ele>
        <time>2022-10-23T01:19:27.000Z</time>
      </trkpt>
      <trkpt lat="3.537896638736129" lon="-76.29701038822532">
        <ele>1076.8</ele>
        <time>2022-10-23T01:19:29.000Z</time>
      </trkpt>
      <trkpt lat="3.53793335147202" lon="-76.2968766130507">
        <ele>1076.8</ele>
        <time>2022-10-23T01:19:35.000Z</time>
      </trkpt>
      <trkpt lat="3.5378053598105907" lon="-76.29611754789948">
        <ele>1077.4</ele>
        <time>2022-10-23T01:19:56.000Z</time>
      </trkpt>
      <trkpt lat="3.5376843251287937" lon="-76.29536736756563">
        <ele>1078.2</ele>
        <time>2022-10-23T01:20:12.000Z</time>
      </trkpt>
      <trkpt lat="3.537565302103758" lon="-76.29462607204914">
        <ele>1078.8</ele>
        <time>2022-10-23T01:20:35.000Z</time>
      </trkpt>
      <trkpt lat="3.5374573431909084" lon="-76.29387279041111">
        <ele>1079.4</ele>
        <time>2022-10-23T01:20:58.000Z</time>
      </trkpt>
      <trkpt lat="3.5373344644904137" lon="-76.2931047566235">
        <ele>1079.8</ele>
        <time>2022-10-23T01:21:17.000Z</time>
      </trkpt>
      <trkpt lat="3.5372204706072807" lon="-76.29235834814608">
        <ele>1080.2</ele>
        <time>2022-10-23T01:21:33.000Z</time>
      </trkpt>
      <trkpt lat="3.537106141448021" lon="-76.29160741344094">
        <ele>1081</ele>
        <time>2022-10-23T01:21:48.000Z</time>
      </trkpt>
      <trkpt lat="3.5370464622974396" lon="-76.29086636938155">
        <ele>1081.6</ele>
        <time>2022-10-23T01:22:09.000Z</time>
      </trkpt>
      <trkpt lat="3.5370768047869205" lon="-76.2907978054136">
        <ele>1081.8</ele>
        <time>2022-10-23T01:22:11.000Z</time>
      </trkpt>
      <trkpt lat="3.5371206421405077" lon="-76.2907584104687">
        <ele>1081.8</ele>
        <time>2022-10-23T01:22:13.000Z</time>
      </trkpt>
      <trkpt lat="3.5372479632496834" lon="-76.29063804633915">
        <ele>1082</ele>
        <time>2022-10-23T01:22:20.000Z</time>
      </trkpt>
      <trkpt lat="3.5372886154800653" lon="-76.29061524756253">
        <ele>1081.8</ele>
        <time>2022-10-23T01:22:23.000Z</time>
      </trkpt>
      <trkpt lat="3.5373138450086117" lon="-76.29061457701027">
        <ele>1081.6</ele>
        <time>2022-10-23T01:22:25.000Z</time>
      </trkpt>
      <trkpt lat="3.53770662099123" lon="-76.29062404856086">
        <ele>1081.8</ele>
        <time>2022-10-23T01:22:41.000Z</time>
      </trkpt>
      <trkpt lat="3.537761438637972" lon="-76.29063561558723">
        <ele>1081.8</ele>
        <time>2022-10-23T01:22:47.000Z</time>
      </trkpt>
      <trkpt lat="3.5378784500062466" lon="-76.2906373757869">
        <ele>1081.8</ele>
        <time>2022-10-23T01:23:15.000Z</time>
      </trkpt>
      <trkpt lat="3.537905104458332" lon="-76.29064491949975">
        <ele>1081.8</ele>
        <time>2022-10-23T01:23:19.000Z</time>
      </trkpt>
      <trkpt lat="3.5379336029291153" lon="-76.29065028391778">
        <ele>1082</ele>
        <time>2022-10-23T01:23:22.000Z</time>
      </trkpt>
      <trkpt lat="3.538016164675355" lon="-76.29064936190844">
        <ele>1082</ele>
        <time>2022-10-23T01:23:28.000Z</time>
      </trkpt>
      <trkpt lat="3.538317158818245" lon="-76.29064508713782">
        <ele>1082.4</ele>
        <time>2022-10-23T01:23:39.000Z</time>
      </trkpt>
      <trkpt lat="3.5383640974760056" lon="-76.29059286788106">
        <ele>1082.4</ele>
        <time>2022-10-23T01:23:41.000Z</time>
      </trkpt>
      <trkpt lat="3.5384326614439487" lon="-76.29050510935485">
        <ele>1082.4</ele>
        <time>2022-10-23T01:23:44.000Z</time>
      </trkpt>
      <trkpt lat="3.5385196655988693" lon="-76.29038985818624">
        <ele>1082.6</ele>
        <time>2022-10-23T01:23:48.000Z</time>
      </trkpt>
      <trkpt lat="3.538659308105707" lon="-76.28964428789914">
        <ele>1083.4</ele>
        <time>2022-10-23T01:24:06.000Z</time>
      </trkpt>
      <trkpt lat="3.538808338344097" lon="-76.28888078033924">
        <ele>1084</ele>
        <time>2022-10-23T01:24:24.000Z</time>
      </trkpt>
      <trkpt lat="3.538955943658948" lon="-76.2881383113563">
        <ele>1084.6</ele>
        <time>2022-10-23T01:24:42.000Z</time>
      </trkpt>
      <trkpt lat="3.539099944755435" lon="-76.28741436637938">
        <ele>1085.4</ele>
        <time>2022-10-23T01:25:00.000Z</time>
      </trkpt>
      <trkpt lat="3.5392409283667803" lon="-76.28666234202683">
        <ele>1086</ele>
        <time>2022-10-23T01:25:18.000Z</time>
      </trkpt>
      <trkpt lat="3.539400603622198" lon="-76.28591392189264">
        <ele>1086.6</ele>
        <time>2022-10-23T01:25:36.000Z</time>
      </trkpt>
      <trkpt lat="3.539547873660922" lon="-76.28516541793942">
        <ele>1087.4</ele>
        <time>2022-10-23T01:25:54.000Z</time>
      </trkpt>
      <trkpt lat="3.5396914556622505" lon="-76.28442990593612">
        <ele>1088.4</ele>
        <time>2022-10-23T01:26:13.000Z</time>
      </trkpt>
      <trkpt lat="3.5398293379694223" lon="-76.28368408419192">
        <ele>1089.6</ele>
        <time>2022-10-23T01:26:32.000Z</time>
      </trkpt>
      <trkpt lat="3.539972836151719" lon="-76.28293541260064">
        <ele>1090.2</ele>
        <time>2022-10-23T01:26:52.000Z</time>
      </trkpt>
      <trkpt lat="3.540116334334016" lon="-76.282191099599">
        <ele>1091</ele>
        <time>2022-10-23T01:27:11.000Z</time>
      </trkpt>
      <trkpt lat="3.5402678791433573" lon="-76.28147511743009">
        <ele>1091.8</ele>
        <time>2022-10-23T01:27:29.000Z</time>
      </trkpt>
      <trkpt lat="3.5404108744114637" lon="-76.28074086271226">
        <ele>1092.4</ele>
        <time>2022-10-23T01:27:47.000Z</time>
      </trkpt>
      <trkpt lat="3.54056510142982" lon="-76.27996461465955">
        <ele>1093</ele>
        <time>2022-10-23T01:28:05.000Z</time>
      </trkpt>
      <trkpt lat="3.5406928416341543" lon="-76.27924360334873">
        <ele>1093.6</ele>
        <time>2022-10-23T01:28:21.000Z</time>
      </trkpt>
      <trkpt lat="3.5407958552241325" lon="-76.27846408635378">
        <ele>1094.4</ele>
        <time>2022-10-23T01:28:39.000Z</time>
      </trkpt>
      <trkpt lat="3.540891408920288" lon="-76.27770108170807">
        <ele>1095.6</ele>
        <time>2022-10-23T01:28:57.000Z</time>
      </trkpt>
      <trkpt lat="3.5410851147025824" lon="-76.27692508511245">
        <ele>1096.4</ele>
        <time>2022-10-23T01:29:15.000Z</time>
      </trkpt>
      <trkpt lat="3.541303798556328" lon="-76.2762248609215">
        <ele>1097.2</ele>
        <time>2022-10-23T01:29:31.000Z</time>
      </trkpt>
      <trkpt lat="3.5415619611740112" lon="-76.27549286931753">
        <ele>1098.2</ele>
        <time>2022-10-23T01:29:47.000Z</time>
      </trkpt>
      <trkpt lat="3.5419138334691525" lon="-76.27477361820638">
        <ele>1099.4</ele>
        <time>2022-10-23T01:30:03.000Z</time>
      </trkpt>
      <trkpt lat="3.542240308597684" lon="-76.2741195783019">
        <ele>1100.2</ele>
        <time>2022-10-23T01:30:17.000Z</time>
      </trkpt>
      <trkpt lat="3.5425048414617777" lon="-76.27340803854167">
        <ele>1099.2</ele>
        <time>2022-10-23T01:30:30.000Z</time>
      </trkpt>
      <trkpt lat="3.5427458211779594" lon="-76.27269054763019">
        <ele>1099.2</ele>
        <time>2022-10-23T01:30:42.000Z</time>
      </trkpt>
      <trkpt lat="3.5430726315826178" lon="-76.27196433953941">
        <ele>1099.6</ele>
        <time>2022-10-23T01:30:56.000Z</time>
      </trkpt>
      <trkpt lat="3.543378319591284" lon="-76.27142856828868">
        <ele>1100.2</ele>
        <time>2022-10-23T01:31:07.000Z</time>
      </trkpt>
      <trkpt lat="3.5437989234924316" lon="-76.2707798089832">
        <ele>1101.2</ele>
        <time>2022-10-23T01:31:20.000Z</time>
      </trkpt>
      <trkpt lat="3.5440878476947546" lon="-76.27008427865803">
        <ele>1104.2</ele>
        <time>2022-10-23T01:31:34.000Z</time>
      </trkpt>
      <trkpt lat="3.5443299170583487" lon="-76.26935278996825">
        <ele>1106</ele>
        <time>2022-10-23T01:31:49.000Z</time>
      </trkpt>
      <trkpt lat="3.544452963396907" lon="-76.26861006952822">
        <ele>1107.2</ele>
        <time>2022-10-23T01:32:03.000Z</time>
      </trkpt>
      <trkpt lat="3.54451566003263" lon="-76.26783985644579">
        <ele>1108</ele>
        <time>2022-10-23T01:32:17.000Z</time>
      </trkpt>
      <trkpt lat="3.544520102441311" lon="-76.2670724093914">
        <ele>1109.2</ele>
        <time>2022-10-23T01:32:31.000Z</time>
      </trkpt>
      <trkpt lat="3.544830149039626" lon="-76.26634108833969">
        <ele>1110</ele>
        <time>2022-10-23T01:32:45.000Z</time>
      </trkpt>
      <trkpt lat="3.5452838614583015" lon="-76.26567531377077">
        <ele>1110.6</ele>
        <time>2022-10-23T01:33:00.000Z</time>
      </trkpt>
      <trkpt lat="3.5457111708819866" lon="-76.26501088030636">
        <ele>1111.4</ele>
        <time>2022-10-23T01:33:15.000Z</time>
      </trkpt>
      <trkpt lat="3.5461011808365583" lon="-76.2642955686897">
        <ele>1112.2</ele>
        <time>2022-10-23T01:33:29.000Z</time>
      </trkpt>
      <trkpt lat="3.546469146385789" lon="-76.26357791014016">
        <ele>1113.2</ele>
        <time>2022-10-23T01:33:43.000Z</time>
      </trkpt>
      <trkpt lat="3.546849936246872" lon="-76.26287726685405">
        <ele>1114.4</ele>
        <time>2022-10-23T01:33:57.000Z</time>
      </trkpt>
      <trkpt lat="3.547238102182746" lon="-76.26218785531819">
        <ele>1115.6</ele>
        <time>2022-10-23T01:34:11.000Z</time>
      </trkpt>
      <trkpt lat="3.5475504118949175" lon="-76.26146206632257">
        <ele>1116.6</ele>
        <time>2022-10-23T01:34:24.000Z</time>
      </trkpt>
      <trkpt lat="3.547772616147995" lon="-76.260757567361">
        <ele>1118</ele>
        <time>2022-10-23T01:34:36.000Z</time>
      </trkpt>
      <trkpt lat="3.547897171229124" lon="-76.25999674201012">
        <ele>1119.4</ele>
        <time>2022-10-23T01:34:49.000Z</time>
      </trkpt>
      <trkpt lat="3.5479294415563345" lon="-76.25924304127693">
        <ele>1120</ele>
        <time>2022-10-23T01:35:01.000Z</time>
      </trkpt>
      <trkpt lat="3.547886358574033" lon="-76.25850803218782">
        <ele>1121</ele>
        <time>2022-10-23T01:35:13.000Z</time>
      </trkpt>
      <trkpt lat="3.547725845128298" lon="-76.25776975415647">
        <ele>1121.8</ele>
        <time>2022-10-23T01:35:24.000Z</time>
      </trkpt>
      <trkpt lat="3.5475701093673706" lon="-76.25705025158823">
        <ele>1123</ele>
        <time>2022-10-23T01:35:36.000Z</time>
      </trkpt>
      <trkpt lat="3.547619814053178" lon="-76.25632689334452">
        <ele>1124.2</ele>
        <time>2022-10-23T01:35:48.000Z</time>
      </trkpt>
      <trkpt lat="3.5477049741894007" lon="-76.25555207021534">
        <ele>1125.6</ele>
        <time>2022-10-23T01:36:01.000Z</time>
      </trkpt>
      <trkpt lat="3.547786111012101" lon="-76.25482326373458">
        <ele>1126.8</ele>
        <time>2022-10-23T01:36:13.000Z</time>
      </trkpt>
      <trkpt lat="3.547865403816104" lon="-76.25408473424613">
        <ele>1128.2</ele>
        <time>2022-10-23T01:36:25.000Z</time>
      </trkpt>
      <trkpt lat="3.547952910885215" lon="-76.25335475429893">
        <ele>1129.2</ele>
        <time>2022-10-23T01:36:37.000Z</time>
      </trkpt>
      <trkpt lat="3.5481188725680113" lon="-76.2525840383023">
        <ele>1129.4</ele>
        <time>2022-10-23T01:36:49.000Z</time>
      </trkpt>
      <trkpt lat="3.5482728481292725" lon="-76.25176655128598">
        <ele>1129.8</ele>
        <time>2022-10-23T01:37:01.000Z</time>
      </trkpt>
      <trkpt lat="3.548432858660817" lon="-76.25098728574812">
        <ele>1130.8</ele>
        <time>2022-10-23T01:37:13.000Z</time>
      </trkpt>
      <trkpt lat="3.548593120649457" lon="-76.25025730580091">
        <ele>1132.4</ele>
        <time>2022-10-23T01:37:25.000Z</time>
      </trkpt>
      <trkpt lat="3.5487414803355932" lon="-76.24949874356389">
        <ele>1133.8</ele>
        <time>2022-10-23T01:37:37.000Z</time>
      </trkpt>
      <trkpt lat="3.548894114792347" lon="-76.24875225126743">
        <ele>1135.8</ele>
        <time>2022-10-23T01:37:49.000Z</time>
      </trkpt>
      <trkpt lat="3.549046413972974" lon="-76.24801103956997">
        <ele>1137.2</ele>
        <time>2022-10-23T01:38:01.000Z</time>
      </trkpt>
      <trkpt lat="3.5491799376904964" lon="-76.24728525057435">
        <ele>1138.6</ele>
        <time>2022-10-23T01:38:13.000Z</time>
      </trkpt>
      <trkpt lat="3.549326118081808" lon="-76.24648159369826">
        <ele>1139.8</ele>
        <time>2022-10-23T01:38:25.000Z</time>
      </trkpt>
      <trkpt lat="3.5496099293231964" lon="-76.24575722962618">
        <ele>1142</ele>
        <time>2022-10-23T01:38:38.000Z</time>
      </trkpt>
      <trkpt lat="3.5500543378293514" lon="-76.24506387859583">
        <ele>1144.6</ele>
        <time>2022-10-23T01:38:52.000Z</time>
      </trkpt>
      <trkpt lat="3.550518359988928" lon="-76.24444303102791">
        <ele>1146.2</ele>
        <time>2022-10-23T01:39:05.000Z</time>
      </trkpt>
      <trkpt lat="3.5511121340095997" lon="-76.243935842067">
        <ele>1146.2</ele>
        <time>2022-10-23T01:39:17.000Z</time>
      </trkpt>
      <trkpt lat="3.5517928283661604" lon="-76.24354482628405">
        <ele>1147.8</ele>
        <time>2022-10-23T01:39:30.000Z</time>
      </trkpt>
      <trkpt lat="3.5524881072342396" lon="-76.24318222515285">
        <ele>1150</ele>
        <time>2022-10-23T01:39:44.000Z</time>
      </trkpt>
      <trkpt lat="3.5531708132475615" lon="-76.24287502840161">
        <ele>1150.2</ele>
        <time>2022-10-23T01:39:56.000Z</time>
      </trkpt>
      <trkpt lat="3.553873635828495" lon="-76.24255157075822">
        <ele>1150.6</ele>
        <time>2022-10-23T01:40:08.000Z</time>
      </trkpt>
      <trkpt lat="3.5545696690678596" lon="-76.24224110506475">
        <ele>1151.6</ele>
        <time>2022-10-23T01:40:20.000Z</time>
      </trkpt>
      <trkpt lat="3.555282633751631" lon="-76.24190289527178">
        <ele>1153.4</ele>
        <time>2022-10-23T01:40:33.000Z</time>
      </trkpt>
      <trkpt lat="3.5555116273462772" lon="-76.24121088534594">
        <ele>1155</ele>
        <time>2022-10-23T01:40:46.000Z</time>
      </trkpt>
      <trkpt lat="3.5553976334631443" lon="-76.24046883545816">
        <ele>1156.4</ele>
        <time>2022-10-23T01:41:01.000Z</time>
      </trkpt>
      <trkpt lat="3.5553551372140646" lon="-76.23972904868424">
        <ele>1158.2</ele>
        <time>2022-10-23T01:41:15.000Z</time>
      </trkpt>
      <trkpt lat="3.5552986431866884" lon="-76.23897903598845">
        <ele>1159.8</ele>
        <time>2022-10-23T01:41:29.000Z</time>
      </trkpt>
      <trkpt lat="3.555228905752301" lon="-76.23822290450335">
        <ele>1162.4</ele>
        <time>2022-10-23T01:41:44.000Z</time>
      </trkpt>
      <trkpt lat="3.5554873198270798" lon="-76.23751454986632">
        <ele>1163.8</ele>
        <time>2022-10-23T01:41:59.000Z</time>
      </trkpt>
      <trkpt lat="3.5558391083031893" lon="-76.23685103841126">
        <ele>1165.2</ele>
        <time>2022-10-23T01:42:13.000Z</time>
      </trkpt>
      <trkpt lat="3.556120404973626" lon="-76.23608778230846">
        <ele>1166.8</ele>
        <time>2022-10-23T01:42:29.000Z</time>
      </trkpt>
      <trkpt lat="3.556255856528878" lon="-76.23533274047077">
        <ele>1168.4</ele>
        <time>2022-10-23T01:42:44.000Z</time>
      </trkpt>
      <trkpt lat="3.556370437145233" lon="-76.23474458232522">
        <ele>1170.4</ele>
        <time>2022-10-23T01:42:57.000Z</time>
      </trkpt>
      <trkpt lat="3.5567549150437117" lon="-76.23456277884543">
        <ele>1171</ele>
        <time>2022-10-23T01:43:06.000Z</time>
      </trkpt>
      <trkpt lat="3.5574903432279825" lon="-76.2343240622431">
        <ele>1172.4</ele>
        <time>2022-10-23T01:43:22.000Z</time>
      </trkpt>
      <trkpt lat="3.5582398530095816" lon="-76.23408786021173">
        <ele>1172.2</ele>
        <time>2022-10-23T01:43:36.000Z</time>
      </trkpt>
      <trkpt lat="3.558971844613552" lon="-76.23382676392794">
        <ele>1172.4</ele>
        <time>2022-10-23T01:43:50.000Z</time>
      </trkpt>
      <trkpt lat="3.559635439887643" lon="-76.23347723856568">
        <ele>1173.4</ele>
        <time>2022-10-23T01:44:04.000Z</time>
      </trkpt>
      <trkpt lat="3.5602938383817673" lon="-76.23309678398073">
        <ele>1173.6</ele>
        <time>2022-10-23T01:44:19.000Z</time>
      </trkpt>
      <trkpt lat="3.5609838366508484" lon="-76.23270325362682">
        <ele>1175</ele>
        <time>2022-10-23T01:44:35.000Z</time>
      </trkpt>
      <trkpt lat="3.5617229528725147" lon="-76.2323900219053">
        <ele>1177.2</ele>
        <time>2022-10-23T01:44:51.000Z</time>
      </trkpt>
      <trkpt lat="3.5624533519148827" lon="-76.23213227838278">
        <ele>1177</ele>
        <time>2022-10-23T01:45:05.000Z</time>
      </trkpt>
      <trkpt lat="3.5631578508764505" lon="-76.23190152458847">
        <ele>1175.8</ele>
        <time>2022-10-23T01:45:17.000Z</time>
      </trkpt>
      <trkpt lat="3.563871318474412" lon="-76.23161955736578">
        <ele>1177.4</ele>
        <time>2022-10-23T01:45:31.000Z</time>
      </trkpt>
      <trkpt lat="3.5645453073084354" lon="-76.23122678138316">
        <ele>1179.4</ele>
        <time>2022-10-23T01:45:46.000Z</time>
      </trkpt>
      <trkpt lat="3.564652679488063" lon="-76.23111387714744">
        <ele>1179.6</ele>
        <time>2022-10-23T01:45:49.000Z</time>
      </trkpt>
      <trkpt lat="3.564687632024288" lon="-76.23101807199419">
        <ele>1179.6</ele>
        <time>2022-10-23T01:45:51.000Z</time>
      </trkpt>
      <trkpt lat="3.5645774099975824" lon="-76.23025632463396">
        <ele>1182</ele>
        <time>2022-10-23T01:46:07.000Z</time>
      </trkpt>
      <trkpt lat="3.5646451357752085" lon="-76.22978475876153">
        <ele>1183.4</ele>
        <time>2022-10-23T01:46:17.000Z</time>
      </trkpt>
      <trkpt lat="3.5652406699955463" lon="-76.2293562758714">
        <ele>1184.2</ele>
        <time>2022-10-23T01:46:31.000Z</time>
      </trkpt>
      <trkpt lat="3.5659294109791517" lon="-76.22899057343602">
        <ele>1183.8</ele>
        <time>2022-10-23T01:46:45.000Z</time>
      </trkpt>
      <trkpt lat="3.5665891505777836" lon="-76.22862788848579">
        <ele>1182.8</ele>
        <time>2022-10-23T01:46:57.000Z</time>
      </trkpt>
      <trkpt lat="3.567122658714652" lon="-76.22802539728582">
        <ele>1184</ele>
        <time>2022-10-23T01:47:12.000Z</time>
      </trkpt>
      <trkpt lat="3.567584166303277" lon="-76.22738476842642">
        <ele>1185</ele>
        <time>2022-10-23T01:47:27.000Z</time>
      </trkpt>
      <trkpt lat="3.5680063627660275" lon="-76.22676978819072">
        <ele>1187</ele>
        <time>2022-10-23T01:47:41.000Z</time>
      </trkpt>
      <trkpt lat="3.568459488451481" lon="-76.22615589760244">
        <ele>1187.6</ele>
        <time>2022-10-23T01:47:55.000Z</time>
      </trkpt>
      <trkpt lat="3.5689543560147285" lon="-76.22553488239646">
        <ele>1186</ele>
        <time>2022-10-23T01:48:08.000Z</time>
      </trkpt>
      <trkpt lat="3.569487864151597" lon="-76.22501939535141">
        <ele>1186.8</ele>
        <time>2022-10-23T01:48:20.000Z</time>
      </trkpt>
      <trkpt lat="3.5702416487038136" lon="-76.22466685250401">
        <ele>1186</ele>
        <time>2022-10-23T01:48:32.000Z</time>
      </trkpt>
      <trkpt lat="3.5709741432219744" lon="-76.22434557415545">
        <ele>1186</ele>
        <time>2022-10-23T01:48:44.000Z</time>
      </trkpt>
      <trkpt lat="3.571228953078389" lon="-76.22415882535279">
        <ele>1186</ele>
        <time>2022-10-23T01:48:49.000Z</time>
      </trkpt>
      <trkpt lat="3.571244962513447" lon="-76.22403276152909">
        <ele>1186.2</ele>
        <time>2022-10-23T01:48:51.000Z</time>
      </trkpt>
      <trkpt lat="3.5710559505969286" lon="-76.2235985789448">
        <ele>1187.2</ele>
        <time>2022-10-23T01:48:59.000Z</time>
      </trkpt>
      <trkpt lat="3.570729475468397" lon="-76.22287874110043">
        <ele>1190</ele>
        <time>2022-10-23T01:49:15.000Z</time>
      </trkpt>
      <trkpt lat="3.5705679561942816" lon="-76.22227574698627">
        <ele>1191.6</ele>
        <time>2022-10-23T01:49:30.000Z</time>
      </trkpt>
      <trkpt lat="3.5705538745969534" lon="-76.22222788631916">
        <ele>1191.8</ele>
        <time>2022-10-23T01:49:33.000Z</time>
      </trkpt>
      <trkpt lat="3.5705656092613935" lon="-76.22220508754253">
        <ele>1191.8</ele>
        <time>2022-10-23T01:49:35.000Z</time>
      </trkpt>
      <trkpt lat="3.5706059262156487" lon="-76.22216175310314">
        <ele>1191.8</ele>
        <time>2022-10-23T01:49:39.000Z</time>
      </trkpt>
      <trkpt lat="3.5706123802810907" lon="-76.2221167422831">
        <ele>1192</ele>
        <time>2022-10-23T01:49:41.000Z</time>
      </trkpt>
      <trkpt lat="3.570727128535509" lon="-76.22138977982104">
        <ele>1193.4</ele>
        <time>2022-10-23T01:50:02.000Z</time>
      </trkpt>
      <trkpt lat="3.5708471573889256" lon="-76.22061906382442">
        <ele>1195</ele>
        <time>2022-10-23T01:50:20.000Z</time>
      </trkpt>
      <trkpt lat="3.5709556192159653" lon="-76.21987885795534">
        <ele>1196</ele>
        <time>2022-10-23T01:50:37.000Z</time>
      </trkpt>
      <trkpt lat="3.571077911183238" lon="-76.21912985108793">
        <ele>1196.8</ele>
        <time>2022-10-23T01:50:53.000Z</time>
      </trkpt>
      <trkpt lat="3.5712921526283026" lon="-76.21837782673538">
        <ele>1196</ele>
        <time>2022-10-23T01:51:08.000Z</time>
      </trkpt>
      <trkpt lat="3.571661878377199" lon="-76.21770107187331">
        <ele>1195.8</ele>
        <time>2022-10-23T01:51:23.000Z</time>
      </trkpt>
      <trkpt lat="3.5721209552139044" lon="-76.2170675676316">
        <ele>1194.4</ele>
        <time>2022-10-23T01:51:37.000Z</time>
      </trkpt>
      <trkpt lat="3.572593443095684" lon="-76.21639802120626">
        <ele>1192</ele>
        <time>2022-10-23T01:51:50.000Z</time>
      </trkpt>
      <trkpt lat="3.5730759892612696" lon="-76.21573534794152">
        <ele>1188.6</ele>
        <time>2022-10-23T01:52:01.000Z</time>
      </trkpt>
      <trkpt lat="3.57352995313704" lon="-76.21509874239564">
        <ele>1187.2</ele>
        <time>2022-10-23T01:52:11.000Z</time>
      </trkpt>
      <trkpt lat="3.5739683266729116" lon="-76.21448032557964">
        <ele>1186.4</ele>
        <time>2022-10-23T01:52:21.000Z</time>
      </trkpt>
      <trkpt lat="3.574411477893591" lon="-76.21386551298201">
        <ele>1185.2</ele>
        <time>2022-10-23T01:52:31.000Z</time>
      </trkpt>
      <trkpt lat="3.5749458242207766" lon="-76.21334583498538">
        <ele>1182.8</ele>
        <time>2022-10-23T01:52:42.000Z</time>
      </trkpt>
      <trkpt lat="3.5756428632885218" lon="-76.21304978616536">
        <ele>1180.8</ele>
        <time>2022-10-23T01:52:52.000Z</time>
      </trkpt>
      <trkpt lat="3.576403185725212" lon="-76.21276857331395">
        <ele>1178.6</ele>
        <time>2022-10-23T01:53:02.000Z</time>
      </trkpt>
      <trkpt lat="3.5771991312503815" lon="-76.21247621253133">
        <ele>1177</ele>
        <time>2022-10-23T01:53:12.000Z</time>
      </trkpt>
      <trkpt lat="3.5779793187975883" lon="-76.21218376792967">
        <ele>1175.6</ele>
        <time>2022-10-23T01:53:22.000Z</time>
      </trkpt>
      <trkpt lat="3.578760176897049" lon="-76.21189375407994">
        <ele>1174.2</ele>
        <time>2022-10-23T01:53:31.000Z</time>
      </trkpt>
      <trkpt lat="3.5788368713110685" lon="-76.2118645850569">
        <ele>1174</ele>
        <time>2022-10-23T01:53:33.000Z</time>
      </trkpt>
      <trkpt lat="3.579601887613535" lon="-76.21158001944423">
        <ele>1173</ele>
        <time>2022-10-23T01:53:42.000Z</time>
      </trkpt>
      <trkpt lat="3.5803633835166693" lon="-76.21129872277379">
        <ele>1172</ele>
        <time>2022-10-23T01:53:52.000Z</time>
      </trkpt>
      <trkpt lat="3.581076180562377" lon="-76.21103251352906">
        <ele>1171.6</ele>
        <time>2022-10-23T01:54:02.000Z</time>
      </trkpt>
      <trkpt lat="3.5817678552120924" lon="-76.21077259071171">
        <ele>1171</ele>
        <time>2022-10-23T01:54:12.000Z</time>
      </trkpt>
      <trkpt lat="3.582478892058134" lon="-76.2105058785528">
        <ele>1171</ele>
        <time>2022-10-23T01:54:22.000Z</time>
      </trkpt>
      <trkpt lat="3.58321993611753" lon="-76.2102363165468">
        <ele>1171.8</ele>
        <time>2022-10-23T01:54:34.000Z</time>
      </trkpt>
      <trkpt lat="3.583966176956892" lon="-76.2099733762443">
        <ele>1171.4</ele>
        <time>2022-10-23T01:54:45.000Z</time>
      </trkpt>
      <trkpt lat="3.5847624577581882" lon="-76.20968252420425">
        <ele>1170.8</ele>
        <time>2022-10-23T01:54:55.000Z</time>
      </trkpt>
      <trkpt lat="3.5855504404753447" lon="-76.2093797698617">
        <ele>1170.8</ele>
        <time>2022-10-23T01:55:05.000Z</time>
      </trkpt>
      <trkpt lat="3.586313361302018" lon="-76.20909771881998">
        <ele>1170.8</ele>
        <time>2022-10-23T01:55:15.000Z</time>
      </trkpt>
      <trkpt lat="3.587104193866253" lon="-76.20879454538226">
        <ele>1169.2</ele>
        <time>2022-10-23T01:55:25.000Z</time>
      </trkpt>
      <trkpt lat="3.5878573916852474" lon="-76.20853126980364">
        <ele>1169.2</ele>
        <time>2022-10-23T01:55:35.000Z</time>
      </trkpt>
      <trkpt lat="3.58860463835299" lon="-76.208257349208">
        <ele>1168.6</ele>
        <time>2022-10-23T01:55:45.000Z</time>
      </trkpt>
      <trkpt lat="3.589430842548609" lon="-76.20794855989516">
        <ele>1167.4</ele>
        <time>2022-10-23T01:55:55.000Z</time>
      </trkpt>
      <trkpt lat="3.5901896562427282" lon="-76.20767078362405">
        <ele>1167</ele>
        <time>2022-10-23T01:56:04.000Z</time>
      </trkpt>
      <trkpt lat="3.591021476313472" lon="-76.20736207813025">
        <ele>1166.4</ele>
        <time>2022-10-23T01:56:14.000Z</time>
      </trkpt>
      <trkpt lat="3.5918344371020794" lon="-76.20704432018101">
        <ele>1165.6</ele>
        <time>2022-10-23T01:56:24.000Z</time>
      </trkpt>
      <trkpt lat="3.5921129677444696" lon="-76.20684223249555">
        <ele>1165.2</ele>
        <time>2022-10-23T01:56:28.000Z</time>
      </trkpt>
      <trkpt lat="3.5923429671674967" lon="-76.20643227361143">
        <ele>1166.2</ele>
        <time>2022-10-23T01:56:34.000Z</time>
      </trkpt>
      <trkpt lat="3.5927199851721525" lon="-76.20574688538909">
        <ele>1168.8</ele>
        <time>2022-10-23T01:56:45.000Z</time>
      </trkpt>
      <trkpt lat="3.593089124187827" lon="-76.20505772531033">
        <ele>1172.2</ele>
        <time>2022-10-23T01:56:59.000Z</time>
      </trkpt>
      <trkpt lat="3.593440493568778" lon="-76.2044133245945">
        <ele>1175.6</ele>
        <time>2022-10-23T01:57:14.000Z</time>
      </trkpt>
      <trkpt lat="3.59380217269063" lon="-76.20373724028468">
        <ele>1180.2</ele>
        <time>2022-10-23T01:57:32.000Z</time>
      </trkpt>
      <trkpt lat="3.594010965898633" lon="-76.2033577915281">
        <ele>1183.8</ele>
        <time>2022-10-23T01:57:43.000Z</time>
      </trkpt>
      <trkpt lat="3.594385888427496" lon="-76.2026970461011">
        <ele>1189.2</ele>
        <time>2022-10-23T01:58:01.000Z</time>
      </trkpt>
      <trkpt lat="3.594912188127637" lon="-76.20224023237824">
        <ele>1192.6</ele>
        <time>2022-10-23T01:58:18.000Z</time>
      </trkpt>
      <trkpt lat="3.5953284334391356" lon="-76.20212959125638">
        <ele>1194</ele>
        <time>2022-10-23T01:58:27.000Z</time>
      </trkpt>
      <trkpt lat="3.5960799548774958" lon="-76.20191333815455">
        <ele>1195.4</ele>
        <time>2022-10-23T01:58:43.000Z</time>
      </trkpt>
      <trkpt lat="3.596786381676793" lon="-76.20171007700264">
        <ele>1196.8</ele>
        <time>2022-10-23T01:58:57.000Z</time>
      </trkpt>
      <trkpt lat="3.597547374665737" lon="-76.20149633847177">
        <ele>1198.4</ele>
        <time>2022-10-23T02:00:11.000Z</time>
      </trkpt>
      <trkpt lat="3.598324880003929" lon="-76.20127606205642">
        <ele>1199.2</ele>
        <time>2022-10-23T02:00:25.000Z</time>
      </trkpt>
      <trkpt lat="3.599075898528099" lon="-76.2010627426207">
        <ele>1198.6</ele>
        <time>2022-10-23T02:00:39.000Z</time>
      </trkpt>
      <trkpt lat="3.5998011846095324" lon="-76.20085872709751">
        <ele>1196.6</ele>
        <time>2022-10-23T02:00:53.000Z</time>
      </trkpt>
      <trkpt lat="3.600526973605156" lon="-76.200638031587">
        <ele>1196.2</ele>
        <time>2022-10-23T02:01:05.000Z</time>
      </trkpt>
      <trkpt lat="3.6012978572398424" lon="-76.20056125335395">
        <ele>1197.8</ele>
        <time>2022-10-23T02:01:18.000Z</time>
      </trkpt>
      <trkpt lat="3.602056670933962" lon="-76.20054071769118">
        <ele>1201</ele>
        <time>2022-10-23T02:01:33.000Z</time>
      </trkpt>
      <trkpt lat="3.602791428565979" lon="-76.20045823976398">
        <ele>1203.6</ele>
        <time>2022-10-23T02:01:47.000Z</time>
      </trkpt>
      <trkpt lat="3.6035133618861437" lon="-76.20036838576198">
        <ele>1205.2</ele>
        <time>2022-10-23T02:02:01.000Z</time>
      </trkpt>
      <trkpt lat="3.6042513884603977" lon="-76.20035883039236">
        <ele>1204.4</ele>
        <time>2022-10-23T02:02:14.000Z</time>
      </trkpt>
      <trkpt lat="3.605028474703431" lon="-76.20049880817533">
        <ele>1200.2</ele>
        <time>2022-10-23T02:02:24.000Z</time>
      </trkpt>
      <trkpt lat="3.6058178823441267" lon="-76.20064071379602">
        <ele>1197.8</ele>
        <time>2022-10-23T02:02:34.000Z</time>
      </trkpt>
      <trkpt lat="3.6065919511020184" lon="-76.20077759027481">
        <ele>1197</ele>
        <time>2022-10-23T02:02:44.000Z</time>
      </trkpt>
      <trkpt lat="3.6073284689337015" lon="-76.20096056722105">
        <ele>1195.8</ele>
        <time>2022-10-23T02:02:54.000Z</time>
      </trkpt>
      <trkpt lat="3.608044870197773" lon="-76.20126231573522">
        <ele>1196</ele>
        <time>2022-10-23T02:03:05.000Z</time>
      </trkpt>
      <trkpt lat="3.6087488662451506" lon="-76.20155685581267">
        <ele>1197.4</ele>
        <time>2022-10-23T02:03:18.000Z</time>
      </trkpt>
      <trkpt lat="3.609511451795697" lon="-76.20178425684571">
        <ele>1198</ele>
        <time>2022-10-23T02:03:31.000Z</time>
      </trkpt>
      <trkpt lat="3.610235648229718" lon="-76.20193622075021">
        <ele>1198.4</ele>
        <time>2022-10-23T02:03:43.000Z</time>
      </trkpt>
      <trkpt lat="3.6109774466603994" lon="-76.20210478082299">
        <ele>1198.8</ele>
        <time>2022-10-23T02:03:56.000Z</time>
      </trkpt>
      <trkpt lat="3.611717987805605" lon="-76.20225557126105">
        <ele>1199.2</ele>
        <time>2022-10-23T02:04:08.000Z</time>
      </trkpt>
      <trkpt lat="3.6124811600893736" lon="-76.20244030840695">
        <ele>1199.6</ele>
        <time>2022-10-23T02:04:20.000Z</time>
      </trkpt>
      <trkpt lat="3.6132696457207203" lon="-76.20262026786804">
        <ele>1200</ele>
        <time>2022-10-23T02:04:33.000Z</time>
      </trkpt>
      <trkpt lat="3.6140514258295298" lon="-76.20277323760092">
        <ele>1200.2</ele>
        <time>2022-10-23T02:04:46.000Z</time>
      </trkpt>
      <trkpt lat="3.6148513946682215" lon="-76.20293383486569">
        <ele>1200.8</ele>
        <time>2022-10-23T02:05:00.000Z</time>
      </trkpt>
      <trkpt lat="3.61553443595767" lon="-76.20258824899793">
        <ele>1203</ele>
        <time>2022-10-23T02:05:15.000Z</time>
      </trkpt>
      <trkpt lat="3.615988902747631" lon="-76.20192725211382">
        <ele>1204.8</ele>
        <time>2022-10-23T02:05:31.000Z</time>
      </trkpt>
      <trkpt lat="3.6164073273539543" lon="-76.20126776397228">
        <ele>1206.6</ele>
        <time>2022-10-23T02:05:50.000Z</time>
      </trkpt>
      <trkpt lat="3.616862129420042" lon="-76.20065420866013">
        <ele>1208.2</ele>
        <time>2022-10-23T02:06:09.000Z</time>
      </trkpt>
      <trkpt lat="3.6173300072550774" lon="-76.20003378018737">
        <ele>1209.2</ele>
        <time>2022-10-23T02:06:28.000Z</time>
      </trkpt>
      <trkpt lat="3.617574507370591" lon="-76.19933422654867">
        <ele>1209.8</ele>
        <time>2022-10-23T02:06:47.000Z</time>
      </trkpt>
      <trkpt lat="3.6176368687301874" lon="-76.19906231760979">
        <ele>1210</ele>
        <time>2022-10-23T02:06:55.000Z</time>
      </trkpt>
      <trkpt lat="3.6177674587816" lon="-76.1983083654195">
        <ele>1211.2</ele>
        <time>2022-10-23T02:07:16.000Z</time>
      </trkpt>
      <trkpt lat="3.617898467928171" lon="-76.19756137020886">
        <ele>1213.8</ele>
        <time>2022-10-23T02:07:33.000Z</time>
      </trkpt>
      <trkpt lat="3.618031907826662" lon="-76.19684404693544">
        <ele>1216.2</ele>
        <time>2022-10-23T02:07:49.000Z</time>
      </trkpt>
      <trkpt lat="3.6181274615228176" lon="-76.19637583382428">
        <ele>1216.2</ele>
        <time>2022-10-23T02:08:06.000Z</time>
      </trkpt>
      <trkpt lat="3.6181413754820824" lon="-76.19630433619022">
        <ele>1216</ele>
        <time>2022-10-23T02:08:13.000Z</time>
      </trkpt>
      <trkpt lat="3.6181554570794106" lon="-76.19629385881126">
        <ele>1216</ele>
        <time>2022-10-23T02:08:15.000Z</time>
      </trkpt>
      <trkpt lat="3.6181689519435167" lon="-76.19629201479256">
        <ele>1216</ele>
        <time>2022-10-23T02:08:18.000Z</time>
      </trkpt>
      <trkpt lat="3.6181263718754053" lon="-76.19628874585032">
        <ele>1215.8</ele>
        <time>2022-10-23T02:21:58.000Z</time>
      </trkpt>
      <trkpt lat="3.6181534454226494" lon="-76.19631632231176">
        <ele>1215.8</ele>
        <time>2022-10-23T02:22:00.000Z</time>
      </trkpt>
      <trkpt lat="3.6182011384516954" lon="-76.19633736088872">
        <ele>1215.6</ele>
        <time>2022-10-23T02:22:02.000Z</time>
      </trkpt>
      <trkpt lat="3.618949893862009" lon="-76.19641833007336">
        <ele>1205.2</ele>
        <time>2022-10-23T02:22:15.000Z</time>
      </trkpt>
      <trkpt lat="3.6196798738092184" lon="-76.19648672640324">
        <ele>1204.2</ele>
        <time>2022-10-23T02:22:29.000Z</time>
      </trkpt>
      <trkpt lat="3.6203272081911564" lon="-76.19677053764462">
        <ele>1203</ele>
        <time>2022-10-23T02:22:42.000Z</time>
      </trkpt>
      <trkpt lat="3.6204979475587606" lon="-76.19686885736883">
        <ele>1203.4</ele>
        <time>2022-10-23T02:22:46.000Z</time>
      </trkpt>
      <trkpt lat="3.6205924954265356" lon="-76.1968648340553">
        <ele>1203.6</ele>
        <time>2022-10-23T02:22:48.000Z</time>
      </trkpt>
      <trkpt lat="3.620982337743044" lon="-76.19665486738086">
        <ele>1204.2</ele>
        <time>2022-10-23T02:22:57.000Z</time>
      </trkpt>
      <trkpt lat="3.6216704919934273" lon="-76.19625756517053">
        <ele>1205.8</ele>
        <time>2022-10-23T02:23:13.000Z</time>
      </trkpt>
      <trkpt lat="3.621962182223797" lon="-76.19590527378023">
        <ele>1211.2</ele>
        <time>2022-10-23T02:23:32.000Z</time>
      </trkpt>
      <trkpt lat="3.6219623498618603" lon="-76.19586453773081">
        <ele>1211.8</ele>
        <time>2022-10-23T02:23:34.000Z</time>
      </trkpt>
      <trkpt lat="3.622141135856509" lon="-76.19513472542167">
        <ele>1218.4</ele>
        <time>2022-10-23T02:24:02.000Z</time>
      </trkpt>
      <trkpt lat="3.6222408805042505" lon="-76.1946910712868">
        <ele>1223.2</ele>
        <time>2022-10-23T02:24:25.000Z</time>
      </trkpt>
      <trkpt lat="3.622708674520254" lon="-76.19431455619633">
        <ele>1228.2</ele>
        <time>2022-10-23T02:24:58.000Z</time>
      </trkpt>
      <trkpt lat="3.623403450474143" lon="-76.19460138492286">
        <ele>1232.8</ele>
        <time>2022-10-23T02:25:29.000Z</time>
      </trkpt>
      <trkpt lat="3.624010467901826" lon="-76.19487522169948">
        <ele>1234.4</ele>
        <time>2022-10-23T02:25:51.000Z</time>
      </trkpt>
      <trkpt lat="3.62469132989645" lon="-76.19516221806407">
        <ele>1233.8</ele>
        <time>2022-10-23T02:26:10.000Z</time>
      </trkpt>
      <trkpt lat="3.6254156939685345" lon="-76.19547025300562">
        <ele>1232.4</ele>
        <time>2022-10-23T02:26:27.000Z</time>
      </trkpt>
      <trkpt lat="3.6261189356446266" lon="-76.19579806923866">
        <ele>1231.4</ele>
        <time>2022-10-23T02:26:41.000Z</time>
      </trkpt>
      <trkpt lat="3.6266931798309088" lon="-76.19605857878923">
        <ele>1234.4</ele>
        <time>2022-10-23T02:26:57.000Z</time>
      </trkpt>
      <trkpt lat="3.627052679657936" lon="-76.19620257988572">
        <ele>1237.6</ele>
        <time>2022-10-23T02:27:11.000Z</time>
      </trkpt>
      <trkpt lat="3.6274483893066645" lon="-76.1963193397969">
        <ele>1240.4</ele>
        <time>2022-10-23T02:27:26.000Z</time>
      </trkpt>
      <trkpt lat="3.628169484436512" lon="-76.19628405198455">
        <ele>1245.8</ele>
        <time>2022-10-23T02:27:55.000Z</time>
      </trkpt>
      <trkpt lat="3.6288478318601847" lon="-76.19628757238388">
        <ele>1251.2</ele>
        <time>2022-10-23T02:28:22.000Z</time>
      </trkpt>
      <trkpt lat="3.629507152363658" lon="-76.19664531201124">
        <ele>1256.4</ele>
        <time>2022-10-23T02:28:50.000Z</time>
      </trkpt>
      <trkpt lat="3.630162701010704" lon="-76.19702652096748">
        <ele>1261.8</ele>
        <time>2022-10-23T02:29:17.000Z</time>
      </trkpt>
      <trkpt lat="3.630840964615345" lon="-76.19736255146563">
        <ele>1267.8</ele>
        <time>2022-10-23T02:29:46.000Z</time>
      </trkpt>
      <trkpt lat="3.6310628335922956" lon="-76.1974938120693">
        <ele>1270</ele>
        <time>2022-10-23T02:29:57.000Z</time>
      </trkpt>
      <trkpt lat="3.6312696989625692" lon="-76.19766756892204">
        <ele>1272.4</ele>
        <time>2022-10-23T02:30:09.000Z</time>
      </trkpt>
      <trkpt lat="3.631613440811634" lon="-76.19795674458146">
        <ele>1276.6</ele>
        <time>2022-10-23T02:30:28.000Z</time>
      </trkpt>
      <trkpt lat="3.631898006424308" lon="-76.1980223748833">
        <ele>1280.4</ele>
        <time>2022-10-23T02:30:46.000Z</time>
      </trkpt>
      <trkpt lat="3.631995990872383" lon="-76.19800753891468">
        <ele>1281.6</ele>
        <time>2022-10-23T02:30:51.000Z</time>
      </trkpt>
      <trkpt lat="3.6321536544710398" lon="-76.1979563254863">
        <ele>1283.2</ele>
        <time>2022-10-23T02:30:58.000Z</time>
      </trkpt>
      <trkpt lat="3.632274940609932" lon="-76.19786127470434">
        <ele>1285.2</ele>
        <time>2022-10-23T02:31:06.000Z</time>
      </trkpt>
      <trkpt lat="3.6323286686092615" lon="-76.19748182594776">
        <ele>1289.8</ele>
        <time>2022-10-23T02:31:28.000Z</time>
      </trkpt>
      <trkpt lat="3.6328099574893713" lon="-76.19692627340555">
        <ele>1296.8</ele>
        <time>2022-10-23T02:32:03.000Z</time>
      </trkpt>
      <trkpt lat="3.6332466546446085" lon="-76.19641933590174">
        <ele>1303.8</ele>
        <time>2022-10-23T02:32:36.000Z</time>
      </trkpt>
      <trkpt lat="3.633419908583164" lon="-76.19626175612211">
        <ele>1306.2</ele>
        <time>2022-10-23T02:32:49.000Z</time>
      </trkpt>
      <trkpt lat="3.633980406448245" lon="-76.19618757627904">
        <ele>1310.8</ele>
        <time>2022-10-23T02:33:15.000Z</time>
      </trkpt>
      <trkpt lat="3.634346444159746" lon="-76.19631757959723">
        <ele>1313.6</ele>
        <time>2022-10-23T02:33:33.000Z</time>
      </trkpt>
      <trkpt lat="3.6350117158144712" lon="-76.19668252766132">
        <ele>1318</ele>
        <time>2022-10-23T02:34:06.000Z</time>
      </trkpt>
      <trkpt lat="3.635222939774394" lon="-76.19730387814343">
        <ele>1323.2</ele>
        <time>2022-10-23T02:34:36.000Z</time>
      </trkpt>
      <trkpt lat="3.6350861471146345" lon="-76.19778332300484">
        <ele>1326.8</ele>
        <time>2022-10-23T02:34:58.000Z</time>
      </trkpt>
      <trkpt lat="3.6357031390070915" lon="-76.19813486002386">
        <ele>1329.8</ele>
        <time>2022-10-23T02:35:24.000Z</time>
      </trkpt>
      <trkpt lat="3.636412499472499" lon="-76.19799186475575">
        <ele>1333.2</ele>
        <time>2022-10-23T02:35:48.000Z</time>
      </trkpt>
      <trkpt lat="3.637124877423048" lon="-76.19785255752504">
        <ele>1337.4</ele>
        <time>2022-10-23T02:36:14.000Z</time>
      </trkpt>
      <trkpt lat="3.6376433819532394" lon="-76.19772154837847">
        <ele>1340</ele>
        <time>2022-10-23T02:36:34.000Z</time>
      </trkpt>
      <trkpt lat="3.6382759641855955" lon="-76.19729708880186">
        <ele>1339.6</ele>
        <time>2022-10-23T02:36:54.000Z</time>
      </trkpt>
      <trkpt lat="3.6384718492627144" lon="-76.19722835719585">
        <ele>1339</ele>
        <time>2022-10-23T02:36:58.000Z</time>
      </trkpt>
      <trkpt lat="3.6392499413341284" lon="-76.19723875075579">
        <ele>1336.2</ele>
        <time>2022-10-23T02:37:11.000Z</time>
      </trkpt>
      <trkpt lat="3.6393646895885468" lon="-76.19730253703892">
        <ele>1335.2</ele>
        <time>2022-10-23T02:37:13.000Z</time>
      </trkpt>
      <trkpt lat="3.6394528672099113" lon="-76.19743078015745">
        <ele>1334.2</ele>
        <time>2022-10-23T02:37:15.000Z</time>
      </trkpt>
      <trkpt lat="3.6395838763564825" lon="-76.1979705747217">
        <ele>1334.2</ele>
        <time>2022-10-23T02:37:24.000Z</time>
      </trkpt>
      <trkpt lat="3.639749502763152" lon="-76.19809152558446">
        <ele>1335.8</ele>
        <time>2022-10-23T02:37:29.000Z</time>
      </trkpt>
      <trkpt lat="3.6400312185287476" lon="-76.19812605902553">
        <ele>1335.8</ele>
        <time>2022-10-23T02:37:36.000Z</time>
      </trkpt>
      <trkpt lat="3.64052290096879" lon="-76.19790988974273">
        <ele>1338.6</ele>
        <time>2022-10-23T02:37:53.000Z</time>
      </trkpt>
      <trkpt lat="3.6407681554555893" lon="-76.19776370935142">
        <ele>1341</ele>
        <time>2022-10-23T02:38:07.000Z</time>
      </trkpt>
      <trkpt lat="3.6408072151243687" lon="-76.19775222614408">
        <ele>1341</ele>
        <time>2022-10-23T02:38:50.000Z</time>
      </trkpt>
      <trkpt lat="3.6408135015517473" lon="-76.19774627499282">
        <ele>1341</ele>
        <time>2022-10-23T02:39:15.000Z</time>
      </trkpt>
      <trkpt lat="3.640818949788809" lon="-76.1977475322783">
        <ele>1341</ele>
        <time>2022-10-23T02:39:17.000Z</time>
      </trkpt>
      <trkpt lat="3.6408367194235325" lon="-76.19776027277112">
        <ele>1341</ele>
        <time>2022-10-23T02:40:29.000Z</time>
      </trkpt>
      <trkpt lat="3.6408343724906445" lon="-76.19775901548564">
        <ele>1341.4</ele>
        <time>2022-10-23T02:41:58.000Z</time>
      </trkpt>
      <trkpt lat="3.6408331990242004" lon="-76.19776924140751">
        <ele>1341.4</ele>
        <time>2022-10-23T02:42:04.000Z</time>
      </trkpt>
      <trkpt lat="3.6408411618322134" lon="-76.19778424501419">
        <ele>1341.4</ele>
        <time>2022-10-23T02:43:19.000Z</time>
      </trkpt>
      <trkpt lat="3.6408528964966536" lon="-76.19778332300484">
        <ele>1341.4</ele>
        <time>2022-10-23T02:43:41.000Z</time>
      </trkpt>
      <trkpt lat="3.640862200409174" lon="-76.19778650812805">
        <ele>1341.2</ele>
        <time>2022-10-23T02:43:43.000Z</time>
      </trkpt>
      <trkpt lat="3.640861865133047" lon="-76.19778675958514">
        <ele>1341.2</ele>
        <time>2022-10-23T02:44:15.000Z</time>
      </trkpt>
      <trkpt lat="3.640901679173112" lon="-76.19781802408397">
        <ele>1340.8</ele>
        <time>2022-10-23T02:49:15.000Z</time>
      </trkpt>
      <trkpt lat="3.640994969755411" lon="-76.19784576818347">
        <ele>1340</ele>
        <time>2022-10-23T02:49:19.000Z</time>
      </trkpt>
      <trkpt lat="3.641351955011487" lon="-76.19781953282654">
        <ele>1337.8</ele>
        <time>2022-10-23T02:49:36.000Z</time>
      </trkpt>
      <trkpt lat="3.6416569724678993" lon="-76.19781475514174">
        <ele>1337.2</ele>
        <time>2022-10-23T02:49:48.000Z</time>
      </trkpt>
      <trkpt lat="3.64168387837708" lon="-76.19778424501419">
        <ele>1337</ele>
        <time>2022-10-23T02:49:50.000Z</time>
      </trkpt>
      <trkpt lat="3.641710365191102" lon="-76.1977248173207">
        <ele>1337.2</ele>
        <time>2022-10-23T02:49:54.000Z</time>
      </trkpt>
      <trkpt lat="3.641704497858882" lon="-76.1976233124733">
        <ele>1337.4</ele>
        <time>2022-10-23T02:50:01.000Z</time>
      </trkpt>
      <trkpt lat="3.6416948586702347" lon="-76.19698176160455">
        <ele>1344.2</ele>
        <time>2022-10-23T02:50:40.000Z</time>
      </trkpt>
      <trkpt lat="3.6416474170982838" lon="-76.19654171168804">
        <ele>1349</ele>
        <time>2022-10-23T02:51:07.000Z</time>
      </trkpt>
      <trkpt lat="3.6416233610361814" lon="-76.19640424847603">
        <ele>1350.8</ele>
        <time>2022-10-23T02:51:16.000Z</time>
      </trkpt>
      <trkpt lat="3.641590168699622" lon="-76.19629486463964">
        <ele>1352.4</ele>
        <time>2022-10-23T02:51:24.000Z</time>
      </trkpt>
      <trkpt lat="3.6415729857981205" lon="-76.196248261258">
        <ele>1353.2</ele>
        <time>2022-10-23T02:51:28.000Z</time>
      </trkpt>
      <trkpt lat="3.641551360487938" lon="-76.19614055380225">
        <ele>1354.6</ele>
        <time>2022-10-23T02:51:35.000Z</time>
      </trkpt>
      <trkpt lat="3.6415721476078033" lon="-76.19602371007204">
        <ele>1356</ele>
        <time>2022-10-23T02:51:43.000Z</time>
      </trkpt>
      <trkpt lat="3.6416189186275005" lon="-76.19582187384367">
        <ele>1358.4</ele>
        <time>2022-10-23T02:51:54.000Z</time>
      </trkpt>
      <trkpt lat="3.6416552122682333" lon="-76.19572556577623">
        <ele>1359.6</ele>
        <time>2022-10-23T02:52:00.000Z</time>
      </trkpt>
      <trkpt lat="3.641713382676244" lon="-76.19564124383032">
        <ele>1361</ele>
        <time>2022-10-23T02:52:07.000Z</time>
      </trkpt>
      <trkpt lat="3.6419884767383337" lon="-76.19520605541766">
        <ele>1365.8</ele>
        <time>2022-10-23T02:52:33.000Z</time>
      </trkpt>
      <trkpt lat="3.6418775003403425" lon="-76.1949915625155">
        <ele>1368.2</ele>
        <time>2022-10-23T02:52:46.000Z</time>
      </trkpt>
      <trkpt lat="3.6417543701827526" lon="-76.19486038573086">
        <ele>1370.2</ele>
        <time>2022-10-23T02:52:57.000Z</time>
      </trkpt>
      <trkpt lat="3.6417311523109674" lon="-76.19475485756993">
        <ele>1371.2</ele>
        <time>2022-10-23T02:53:03.000Z</time>
      </trkpt>
      <trkpt lat="3.6417443957179785" lon="-76.19455687701702">
        <ele>1373.8</ele>
        <time>2022-10-23T02:53:15.000Z</time>
      </trkpt>
      <trkpt lat="3.641831651329994" lon="-76.19438806548715">
        <ele>1376.8</ele>
        <time>2022-10-23T02:53:27.000Z</time>
      </trkpt>
      <trkpt lat="3.64187884144485" lon="-76.19433986954391">
        <ele>1378</ele>
        <time>2022-10-23T02:53:32.000Z</time>
      </trkpt>
      <trkpt lat="3.6420246865600348" lon="-76.19417206384242">
        <ele>1381.6</ele>
        <time>2022-10-23T02:53:47.000Z</time>
      </trkpt>
      <trkpt lat="3.642167681828141" lon="-76.19398933835328">
        <ele>1385.2</ele>
        <time>2022-10-23T02:54:03.000Z</time>
      </trkpt>
      <trkpt lat="3.6421914026141167" lon="-76.19394935667515">
        <ele>1386</ele>
        <time>2022-10-23T02:54:06.000Z</time>
      </trkpt>
      <trkpt lat="3.642217218875885" lon="-76.19392882101238">
        <ele>1386.4</ele>
        <time>2022-10-23T02:54:08.000Z</time>
      </trkpt>
      <trkpt lat="3.6422411911189556" lon="-76.19391088373959">
        <ele>1387</ele>
        <time>2022-10-23T02:54:11.000Z</time>
      </trkpt>
      <trkpt lat="3.6423722002655268" lon="-76.1937880050391">
        <ele>1389.4</ele>
        <time>2022-10-23T02:54:23.000Z</time>
      </trkpt>
      <trkpt lat="3.6425472144037485" lon="-76.19321434758604">
        <ele>1396.4</ele>
        <time>2022-10-23T02:54:58.000Z</time>
      </trkpt>
      <trkpt lat="3.6425631400197744" lon="-76.19278552941978">
        <ele>1400.6</ele>
        <time>2022-10-23T02:55:21.000Z</time>
      </trkpt>
      <trkpt lat="3.642463479191065" lon="-76.19240675121546">
        <ele>1404</ele>
        <time>2022-10-23T02:55:40.000Z</time>
      </trkpt>
      <trkpt lat="3.642031643539667" lon="-76.1918278131634">
        <ele>1410.4</ele>
        <time>2022-10-23T02:56:18.000Z</time>
      </trkpt>
      <trkpt lat="3.641919493675232" lon="-76.19164223782718">
        <ele>1413</ele>
        <time>2022-10-23T02:56:31.000Z</time>
      </trkpt>
      <trkpt lat="3.6417935136705637" lon="-76.19133235886693">
        <ele>1416.4</ele>
        <time>2022-10-23T02:56:50.000Z</time>
      </trkpt>
      <trkpt lat="3.6415697168558836" lon="-76.19079734198749">
        <ele>1421.8</ele>
        <time>2022-10-23T02:57:21.000Z</time>
      </trkpt>
      <trkpt lat="3.641526885330677" lon="-76.19057304225862">
        <ele>1424.2</ele>
        <time>2022-10-23T02:57:34.000Z</time>
      </trkpt>
      <trkpt lat="3.6414522025734186" lon="-76.19005520828068">
        <ele>1428.6</ele>
        <time>2022-10-23T02:58:02.000Z</time>
      </trkpt>
      <trkpt lat="3.6414421442896128" lon="-76.1900198366493">
        <ele>1428.8</ele>
        <time>2022-10-23T02:58:04.000Z</time>
      </trkpt>
      <trkpt lat="3.641279200091958" lon="-76.18969772011042">
        <ele>1432.4</ele>
        <time>2022-10-23T02:58:24.000Z</time>
      </trkpt>
      <trkpt lat="3.6411981470882893" lon="-76.18953955359757">
        <ele>1434.6</ele>
        <time>2022-10-23T02:58:34.000Z</time>
      </trkpt>
      <trkpt lat="3.6411933694034815" lon="-76.18951180949807">
        <ele>1435.2</ele>
        <time>2022-10-23T02:58:36.000Z</time>
      </trkpt>
      <trkpt lat="3.6411798745393753" lon="-76.18940971791744">
        <ele>1436.6</ele>
        <time>2022-10-23T02:58:42.000Z</time>
      </trkpt>
      <trkpt lat="3.6412339378148317" lon="-76.1892272438854">
        <ele>1438.4</ele>
        <time>2022-10-23T02:58:53.000Z</time>
      </trkpt>
      <trkpt lat="3.6412740033119917" lon="-76.18909304961562">
        <ele>1439.6</ele>
        <time>2022-10-23T02:59:00.000Z</time>
      </trkpt>
      <trkpt lat="3.641281211748719" lon="-76.1889957357198">
        <ele>1440.4</ele>
        <time>2022-10-23T02:59:05.000Z</time>
      </trkpt>
      <trkpt lat="3.6412522103637457" lon="-76.18887771852314">
        <ele>1441.4</ele>
        <time>2022-10-23T02:59:11.000Z</time>
      </trkpt>
      <trkpt lat="3.641221448779106" lon="-76.18875106796622">
        <ele>1442.2</ele>
        <time>2022-10-23T02:59:17.000Z</time>
      </trkpt>
      <trkpt lat="3.641193453222513" lon="-76.1886762175709">
        <ele>1442.8</ele>
        <time>2022-10-23T02:59:21.000Z</time>
      </trkpt>
      <trkpt lat="3.6411839816719294" lon="-76.18863137438893">
        <ele>1443.2</ele>
        <time>2022-10-23T02:59:24.000Z</time>
      </trkpt>
      <trkpt lat="3.6411736719310284" lon="-76.18857152760029">
        <ele>1443.8</ele>
        <time>2022-10-23T02:59:27.000Z</time>
      </trkpt>
      <trkpt lat="3.6411357019096613" lon="-76.1884825117886">
        <ele>1445</ele>
        <time>2022-10-23T02:59:32.000Z</time>
      </trkpt>
      <trkpt lat="3.640997651964426" lon="-76.18811932392418">
        <ele>1449</ele>
        <time>2022-10-23T02:59:53.000Z</time>
      </trkpt>
      <trkpt lat="3.6409603524953127" lon="-76.1878490075469">
        <ele>1451.4</ele>
        <time>2022-10-23T03:00:08.000Z</time>
      </trkpt>
      <trkpt lat="3.640937637537718" lon="-76.18780550546944">
        <ele>1451.8</ele>
        <time>2022-10-23T03:00:11.000Z</time>
      </trkpt>
      <trkpt lat="3.6408806405961514" lon="-76.18764054961503">
        <ele>1453.2</ele>
        <time>2022-10-23T03:00:20.000Z</time>
      </trkpt>
      <trkpt lat="3.640762958675623" lon="-76.1873883381486">
        <ele>1455.4</ele>
        <time>2022-10-23T03:00:35.000Z</time>
      </trkpt>
      <trkpt lat="3.64074619486928" lon="-76.1873637791723">
        <ele>1455.8</ele>
        <time>2022-10-23T03:00:37.000Z</time>
      </trkpt>
      <trkpt lat="3.6407124157994986" lon="-76.18728733621538">
        <ele>1456.4</ele>
        <time>2022-10-23T03:00:42.000Z</time>
      </trkpt>
      <trkpt lat="3.640697496011853" lon="-76.18722656741738">
        <ele>1457.2</ele>
        <time>2022-10-23T03:00:46.000Z</time>
      </trkpt>
      <trkpt lat="3.6406691651791334" lon="-76.18714777752757">
        <ele>1458.2</ele>
        <time>2022-10-23T03:00:52.000Z</time>
      </trkpt>
      <trkpt lat="3.6406588554382324" lon="-76.18712573312223">
        <ele>1458.6</ele>
        <time>2022-10-23T03:00:54.000Z</time>
      </trkpt>
      <trkpt lat="3.640638990327716" lon="-76.18708977475762">
        <ele>1459</ele>
        <time>2022-10-23T03:00:57.000Z</time>
      </trkpt>
      <trkpt lat="3.6406031996011734" lon="-76.18698634207249">
        <ele>1460.4</ele>
        <time>2022-10-23T03:01:04.000Z</time>
      </trkpt>
      <trkpt lat="3.6405969969928265" lon="-76.18696002289653">
        <ele>1460.8</ele>
        <time>2022-10-23T03:01:06.000Z</time>
      </trkpt>
      <trkpt lat="3.640578892081976" lon="-76.1868597753346">
        <ele>1462.2</ele>
        <time>2022-10-23T03:01:13.000Z</time>
      </trkpt>
      <trkpt lat="3.6405720189213753" lon="-76.18680730462074">
        <ele>1463</ele>
        <time>2022-10-23T03:01:16.000Z</time>
      </trkpt>
      <trkpt lat="3.640618873760104" lon="-76.18642651475966">
        <ele>1468</ele>
        <time>2022-10-23T03:01:31.000Z</time>
      </trkpt>
      <trkpt lat="3.640756504610181" lon="-76.18595025502145">
        <ele>1473.2</ele>
        <time>2022-10-23T03:01:53.000Z</time>
      </trkpt>
      <trkpt lat="3.6407710053026676" lon="-76.18584682233632">
        <ele>1473.8</ele>
        <time>2022-10-23T03:01:58.000Z</time>
      </trkpt>
      <trkpt lat="3.6407751962542534" lon="-76.18567826226354">
        <ele>1473.6</ele>
        <time>2022-10-23T03:02:04.000Z</time>
      </trkpt>
      <trkpt lat="3.6407453566789627" lon="-76.18560425005853">
        <ele>1473.4</ele>
        <time>2022-10-23T03:02:06.000Z</time>
      </trkpt>
      <trkpt lat="3.640696657821536" lon="-76.18557281792164">
        <ele>1473</ele>
        <time>2022-10-23T03:02:08.000Z</time>
      </trkpt>
      <trkpt lat="3.640567660331726" lon="-76.1855402123183">
        <ele>1472.6</ele>
        <time>2022-10-23T03:02:12.000Z</time>
      </trkpt>
      <trkpt lat="3.6405118368566036" lon="-76.18554926477373">
        <ele>1472.6</ele>
        <time>2022-10-23T03:02:14.000Z</time>
      </trkpt>
      <trkpt lat="3.640416953712702" lon="-76.18560332804918">
        <ele>1472.8</ele>
        <time>2022-10-23T03:02:19.000Z</time>
      </trkpt>
      <trkpt lat="3.6402526684105396" lon="-76.18589920923114">
        <ele>1476.4</ele>
        <time>2022-10-23T03:02:38.000Z</time>
      </trkpt>
      <trkpt lat="3.639932395890355" lon="-76.18613608181477">
        <ele>1479.8</ele>
        <time>2022-10-23T03:03:00.000Z</time>
      </trkpt>
      <trkpt lat="3.639592844992876" lon="-76.18634051643312">
        <ele>1484.6</ele>
        <time>2022-10-23T03:03:23.000Z</time>
      </trkpt>
      <trkpt lat="3.639392936602235" lon="-76.1865230742842">
        <ele>1488.2</ele>
        <time>2022-10-23T03:03:39.000Z</time>
      </trkpt>
      <trkpt lat="3.6392016615718603" lon="-76.18696924299002">
        <ele>1493.2</ele>
        <time>2022-10-23T03:04:05.000Z</time>
      </trkpt>
      <trkpt lat="3.638901337981224" lon="-76.1872533056885">
        <ele>1495.2</ele>
        <time>2022-10-23T03:04:26.000Z</time>
      </trkpt>
      <trkpt lat="3.6388440057635307" lon="-76.18722631596029">
        <ele>1495.6</ele>
        <time>2022-10-23T03:04:30.000Z</time>
      </trkpt>
      <trkpt lat="3.6388134956359863" lon="-76.18719580583274">
        <ele>1495.8</ele>
        <time>2022-10-23T03:04:32.000Z</time>
      </trkpt>
      <trkpt lat="3.6387359630316496" lon="-76.1871240567416">
        <ele>1496.8</ele>
        <time>2022-10-23T03:04:38.000Z</time>
      </trkpt>
      <trkpt lat="3.638723138719797" lon="-76.18707502260804">
        <ele>1497.2</ele>
        <time>2022-10-23T03:04:41.000Z</time>
      </trkpt>
      <trkpt lat="3.638778207823634" lon="-76.18661921471357">
        <ele>1501.6</ele>
        <time>2022-10-23T03:05:09.000Z</time>
      </trkpt>
      <trkpt lat="3.6388894356787205" lon="-76.18609903380275">
        <ele>1505.2</ele>
        <time>2022-10-23T03:05:36.000Z</time>
      </trkpt>
      <trkpt lat="3.639048943296075" lon="-76.18539386428893">
        <ele>1510.2</ele>
        <time>2022-10-23T03:06:12.000Z</time>
      </trkpt>
      <trkpt lat="3.6390611808747053" lon="-76.18531825952232">
        <ele>1510.8</ele>
        <time>2022-10-23T03:06:17.000Z</time>
      </trkpt>
      <trkpt lat="3.6390334367752075" lon="-76.18459582328796">
        <ele>1519</ele>
        <time>2022-10-23T03:07:02.000Z</time>
      </trkpt>
      <trkpt lat="3.6390354484319687" lon="-76.18439675308764">
        <ele>1521.8</ele>
        <time>2022-10-23T03:07:17.000Z</time>
      </trkpt>
      <trkpt lat="3.6390348616987467" lon="-76.18437236174941">
        <ele>1522.2</ele>
        <time>2022-10-23T03:07:19.000Z</time>
      </trkpt>
      <trkpt lat="3.6390372086316347" lon="-76.18423422798514">
        <ele>1524</ele>
        <time>2022-10-23T03:07:29.000Z</time>
      </trkpt>
      <trkpt lat="3.639033939689398" lon="-76.18397480808198">
        <ele>1528.4</ele>
        <time>2022-10-23T03:07:47.000Z</time>
      </trkpt>
      <trkpt lat="3.6390160024166107" lon="-76.18370734155178">
        <ele>1533.4</ele>
        <time>2022-10-23T03:08:05.000Z</time>
      </trkpt>
      <trkpt lat="3.6390232108533382" lon="-76.18335186503828">
        <ele>1538.8</ele>
        <time>2022-10-23T03:08:30.000Z</time>
      </trkpt>
      <trkpt lat="3.6390631925314665" lon="-76.18323150090873">
        <ele>1540.4</ele>
        <time>2022-10-23T03:08:39.000Z</time>
      </trkpt>
      <trkpt lat="3.639122201129794" lon="-76.18309537880123">
        <ele>1542.2</ele>
        <time>2022-10-23T03:08:50.000Z</time>
      </trkpt>
      <trkpt lat="3.63914935849607" lon="-76.18304651230574">
        <ele>1542.8</ele>
        <time>2022-10-23T03:08:56.000Z</time>
      </trkpt>
      <trkpt lat="3.639168469235301" lon="-76.18298884481192">
        <ele>1543.4</ele>
        <time>2022-10-23T03:09:02.000Z</time>
      </trkpt>
      <trkpt lat="3.6392107140272856" lon="-76.18289303965867">
        <ele>1544.6</ele>
        <time>2022-10-23T03:09:10.000Z</time>
      </trkpt>
      <trkpt lat="3.6392566468566656" lon="-76.18279756978154">
        <ele>1545.8</ele>
        <time>2022-10-23T03:09:18.000Z</time>
      </trkpt>
      <trkpt lat="3.639290342107415" lon="-76.18272808380425">
        <ele>1546.6</ele>
        <time>2022-10-23T03:09:23.000Z</time>
      </trkpt>
      <trkpt lat="3.639322193339467" lon="-76.18266371078789">
        <ele>1547.4</ele>
        <time>2022-10-23T03:09:28.000Z</time>
      </trkpt>
      <trkpt lat="3.639313140884042" lon="-76.182642839849">
        <ele>1547.8</ele>
        <time>2022-10-23T03:09:30.000Z</time>
      </trkpt>
      <trkpt lat="3.639292437583208" lon="-76.1826272495091">
        <ele>1548.2</ele>
        <time>2022-10-23T03:09:32.000Z</time>
      </trkpt>
      <trkpt lat="3.6392667051404715" lon="-76.1826198734343">
        <ele>1548.8</ele>
        <time>2022-10-23T03:09:34.000Z</time>
      </trkpt>
      <trkpt lat="3.6392404697835445" lon="-76.18262557312846">
        <ele>1549.4</ele>
        <time>2022-10-23T03:09:36.000Z</time>
      </trkpt>
      <trkpt lat="3.639206187799573" lon="-76.18265457451344">
        <ele>1549.8</ele>
        <time>2022-10-23T03:09:39.000Z</time>
      </trkpt>
      <trkpt lat="3.63916645757854" lon="-76.18269237689674">
        <ele>1550.4</ele>
        <time>2022-10-23T03:09:42.000Z</time>
      </trkpt>
      <trkpt lat="3.6388881783932447" lon="-76.18304634466767">
        <ele>1553.2</ele>
        <time>2022-10-23T03:10:05.000Z</time>
      </trkpt>
      <trkpt lat="3.638816513121128" lon="-76.18311574682593">
        <ele>1554</ele>
        <time>2022-10-23T03:10:10.000Z</time>
      </trkpt>
      <trkpt lat="3.6387342028319836" lon="-76.1831415630877">
        <ele>1554.6</ele>
        <time>2022-10-23T03:10:15.000Z</time>
      </trkpt>
      <trkpt lat="3.638653988018632" lon="-76.18315086700022">
        <ele>1555</ele>
        <time>2022-10-23T03:10:19.000Z</time>
      </trkpt>
      <trkpt lat="3.6386229749768972" lon="-76.18315522558987">
        <ele>1555.4</ele>
        <time>2022-10-23T03:10:21.000Z</time>
      </trkpt>
      <trkpt lat="3.6385575123131275" lon="-76.183155560866">
        <ele>1556.2</ele>
        <time>2022-10-23T03:10:26.000Z</time>
      </trkpt>
      <trkpt lat="3.6385304387658834" lon="-76.18314801715314">
        <ele>1556.6</ele>
        <time>2022-10-23T03:10:28.000Z</time>
      </trkpt>
      <trkpt lat="3.638506969437003" lon="-76.18314508348703">
        <ele>1557</ele>
        <time>2022-10-23T03:10:30.000Z</time>
      </trkpt>
      <trkpt lat="3.638466401025653" lon="-76.1831518728286">
        <ele>1557.8</ele>
        <time>2022-10-23T03:10:33.000Z</time>
      </trkpt>
      <trkpt lat="3.638431867584586" lon="-76.18316855281591">
        <ele>1558.2</ele>
        <time>2022-10-23T03:10:35.000Z</time>
      </trkpt>
      <trkpt lat="3.6383835040032864" lon="-76.18318556807935">
        <ele>1558.8</ele>
        <time>2022-10-23T03:10:38.000Z</time>
      </trkpt>
      <trkpt lat="3.6383581906557083" lon="-76.18321306072176">
        <ele>1559.2</ele>
        <time>2022-10-23T03:10:40.000Z</time>
      </trkpt>
      <trkpt lat="3.6383467074483633" lon="-76.18324256502092">
        <ele>1559.2</ele>
        <time>2022-10-23T03:10:42.000Z</time>
      </trkpt>
      <trkpt lat="3.63835240714252" lon="-76.1834560520947">
        <ele>1560</ele>
        <time>2022-10-23T03:10:53.000Z</time>
      </trkpt>
      <trkpt lat="3.638252913951874" lon="-76.18363307788968">
        <ele>1560.6</ele>
        <time>2022-10-23T03:11:03.000Z</time>
      </trkpt>
      <trkpt lat="3.638183679431677" lon="-76.18368035182357">
        <ele>1561</ele>
        <time>2022-10-23T03:11:07.000Z</time>
      </trkpt>
      <trkpt lat="3.6381167080253363" lon="-76.18371555581689">
        <ele>1561.2</ele>
        <time>2022-10-23T03:11:11.000Z</time>
      </trkpt>
      <trkpt lat="3.637996343895793" lon="-76.1837613210082">
        <ele>1562.2</ele>
        <time>2022-10-23T03:11:19.000Z</time>
      </trkpt>
      <trkpt lat="3.637938005849719" lon="-76.1837893165648">
        <ele>1562.4</ele>
        <time>2022-10-23T03:11:22.000Z</time>
      </trkpt>
      <trkpt lat="3.637786880135536" lon="-76.18399224244058">
        <ele>1563</ele>
        <time>2022-10-23T03:11:31.000Z</time>
      </trkpt>
      <trkpt lat="3.6376218404620886" lon="-76.18411134928465">
        <ele>1563.6</ele>
        <time>2022-10-23T03:11:43.000Z</time>
      </trkpt>
      <trkpt lat="3.637596946209669" lon="-76.18412023410201">
        <ele>1563.8</ele>
        <time>2022-10-23T03:11:45.000Z</time>
      </trkpt>
      <trkpt lat="3.6375697050243616" lon="-76.18413381278515">
        <ele>1563.8</ele>
        <time>2022-10-23T03:11:47.000Z</time>
      </trkpt>
      <trkpt lat="3.637537183240056" lon="-76.18414236232638">
        <ele>1563.8</ele>
        <time>2022-10-23T03:11:49.000Z</time>
      </trkpt>
      <trkpt lat="3.637429643422365" lon="-76.18419080972672">
        <ele>1564.2</ele>
        <time>2022-10-23T03:11:55.000Z</time>
      </trkpt>
      <trkpt lat="3.637348171323538" lon="-76.18428653106093">
        <ele>1564.6</ele>
        <time>2022-10-23T03:12:01.000Z</time>
      </trkpt>
      <trkpt lat="3.6370631866157055" lon="-76.18449532426894">
        <ele>1566.2</ele>
        <time>2022-10-23T03:12:15.000Z</time>
      </trkpt>
      <trkpt lat="3.6369224544614553" lon="-76.18448300287127">
        <ele>1567.6</ele>
        <time>2022-10-23T03:12:25.000Z</time>
      </trkpt>
      <trkpt lat="3.636807706207037" lon="-76.18446758016944">
        <ele>1569</ele>
        <time>2022-10-23T03:12:32.000Z</time>
      </trkpt>
      <trkpt lat="3.636703435331583" lon="-76.1844315379858">
        <ele>1570.6</ele>
        <time>2022-10-23T03:12:39.000Z</time>
      </trkpt>
      <trkpt lat="3.636650713160634" lon="-76.18440454825759">
        <ele>1571.6</ele>
        <time>2022-10-23T03:12:43.000Z</time>
      </trkpt>
      <trkpt lat="3.6365996673703194" lon="-76.18437185883522">
        <ele>1572.4</ele>
        <time>2022-10-23T03:12:47.000Z</time>
      </trkpt>
      <trkpt lat="3.6365575063973665" lon="-76.18434587493539">
        <ele>1572.8</ele>
        <time>2022-10-23T03:12:50.000Z</time>
      </trkpt>
      <trkpt lat="3.6365033593028784" lon="-76.18430882692337">
        <ele>1573.6</ele>
        <time>2022-10-23T03:12:55.000Z</time>
      </trkpt>
      <trkpt lat="3.6364814825356007" lon="-76.18430002592504">
        <ele>1574</ele>
        <time>2022-10-23T03:12:57.000Z</time>
      </trkpt>
      <trkpt lat="3.636418702080846" lon="-76.18430086411536">
        <ele>1575.2</ele>
        <time>2022-10-23T03:13:03.000Z</time>
      </trkpt>
      <trkpt lat="3.6363966576755047" lon="-76.18431930430233">
        <ele>1575.6</ele>
        <time>2022-10-23T03:13:06.000Z</time>
      </trkpt>
      <trkpt lat="3.636356173083186" lon="-76.18444385938346">
        <ele>1576.8</ele>
        <time>2022-10-23T03:13:13.000Z</time>
      </trkpt>
      <trkpt lat="3.636326417326927" lon="-76.1845560092479">
        <ele>1577.8</ele>
        <time>2022-10-23T03:13:20.000Z</time>
      </trkpt>
      <trkpt lat="3.636316442862153" lon="-76.18462272919714">
        <ele>1578.6</ele>
        <time>2022-10-23T03:13:24.000Z</time>
      </trkpt>
      <trkpt lat="3.636281657963991" lon="-76.18482305668294">
        <ele>1580.6</ele>
        <time>2022-10-23T03:13:35.000Z</time>
      </trkpt>
      <trkpt lat="3.636280484497547" lon="-76.18506236001849">
        <ele>1582.8</ele>
        <time>2022-10-23T03:13:50.000Z</time>
      </trkpt>
      <trkpt lat="3.636217452585697" lon="-76.18514282628894">
        <ele>1583.8</ele>
        <time>2022-10-23T03:13:56.000Z</time>
      </trkpt>
      <trkpt lat="3.6361758783459663" lon="-76.18515472859144">
        <ele>1584</ele>
        <time>2022-10-23T03:13:59.000Z</time>
      </trkpt>
      <trkpt lat="3.636151487007737" lon="-76.18514575995505">
        <ele>1584.2</ele>
        <time>2022-10-23T03:14:01.000Z</time>
      </trkpt>
      <trkpt lat="3.6361033748835325" lon="-76.18509655818343">
        <ele>1584.6</ele>
        <time>2022-10-23T03:14:07.000Z</time>
      </trkpt>
      <trkpt lat="3.6360766366124153" lon="-76.1850515473634">
        <ele>1585.2</ele>
        <time>2022-10-23T03:14:12.000Z</time>
      </trkpt>
      <trkpt lat="3.636063477024436" lon="-76.18503956124187">
        <ele>1585.2</ele>
        <time>2022-10-23T03:14:14.000Z</time>
      </trkpt>
      <trkpt lat="3.6360621359199286" lon="-76.18502187542617">
        <ele>1585.4</ele>
        <time>2022-10-23T03:14:16.000Z</time>
      </trkpt>
      <trkpt lat="3.6360709369182587" lon="-76.18500125594437">
        <ele>1585.6</ele>
        <time>2022-10-23T03:14:18.000Z</time>
      </trkpt>
      <trkpt lat="3.636073200032115" lon="-76.18497971445322">
        <ele>1585.6</ele>
        <time>2022-10-23T03:14:20.000Z</time>
      </trkpt>
      <trkpt lat="3.636059369891882" lon="-76.18488726206124">
        <ele>1586.4</ele>
        <time>2022-10-23T03:14:28.000Z</time>
      </trkpt>
      <trkpt lat="3.636059705168009" lon="-76.18484635837376">
        <ele>1587</ele>
        <time>2022-10-23T03:14:32.000Z</time>
      </trkpt>
      <trkpt lat="3.636035146191716" lon="-76.18479774333537">
        <ele>1587.6</ele>
        <time>2022-10-23T03:14:37.000Z</time>
      </trkpt>
      <trkpt lat="3.636028692126274" lon="-76.18477477692068">
        <ele>1587.8</ele>
        <time>2022-10-23T03:14:39.000Z</time>
      </trkpt>
      <trkpt lat="3.6360159516334534" lon="-76.18474133312702">
        <ele>1588</ele>
        <time>2022-10-23T03:14:42.000Z</time>
      </trkpt>
      <trkpt lat="3.636000193655491" lon="-76.18467084132135">
        <ele>1588.8</ele>
        <time>2022-10-23T03:14:48.000Z</time>
      </trkpt>
      <trkpt lat="3.6359302047640085" lon="-76.18448057211936">
        <ele>1591</ele>
        <time>2022-10-23T03:15:03.000Z</time>
      </trkpt>
      <trkpt lat="3.635912351310253" lon="-76.18440521880984">
        <ele>1591.8</ele>
        <time>2022-10-23T03:15:09.000Z</time>
      </trkpt>
      <trkpt lat="3.635904975235462" lon="-76.1843075696379">
        <ele>1593</ele>
        <time>2022-10-23T03:15:17.000Z</time>
      </trkpt>
      <trkpt lat="3.6358898878097534" lon="-76.18424973450601">
        <ele>1593.8</ele>
        <time>2022-10-23T03:15:22.000Z</time>
      </trkpt>
      <trkpt lat="3.6358606349676847" lon="-76.18415476754308">
        <ele>1595.2</ele>
        <time>2022-10-23T03:15:31.000Z</time>
      </trkpt>
      <trkpt lat="3.6357614770531654" lon="-76.18397573009133">
        <ele>1598.6</ele>
        <time>2022-10-23T03:15:49.000Z</time>
      </trkpt>
      <trkpt lat="3.635713364928961" lon="-76.18392552249134">
        <ele>1599.4</ele>
        <time>2022-10-23T03:15:55.000Z</time>
      </trkpt>
      <trkpt lat="3.6355826910585165" lon="-76.18388403207064">
        <ele>1601</ele>
        <time>2022-10-23T03:16:04.000Z</time>
      </trkpt>
      <trkpt lat="3.6355423741042614" lon="-76.18387824855745">
        <ele>1601.6</ele>
        <time>2022-10-23T03:16:07.000Z</time>
      </trkpt>
      <trkpt lat="3.6353906616568565" lon="-76.18383457884192">
        <ele>1604.2</ele>
        <time>2022-10-23T03:16:22.000Z</time>
      </trkpt>
      <trkpt lat="3.6353764962404966" lon="-76.18381873704493">
        <ele>1604.4</ele>
        <time>2022-10-23T03:16:24.000Z</time>
      </trkpt>
      <trkpt lat="3.635350512340665" lon="-76.18379887193441">
        <ele>1604.8</ele>
        <time>2022-10-23T03:16:27.000Z</time>
      </trkpt>
      <trkpt lat="3.635306842625141" lon="-76.18377280421555">
        <ele>1605.6</ele>
        <time>2022-10-23T03:16:32.000Z</time>
      </trkpt>
      <trkpt lat="3.635287983343005" lon="-76.1837578844279">
        <ele>1606</ele>
        <time>2022-10-23T03:16:35.000Z</time>
      </trkpt>
      <trkpt lat="3.635177006945014" lon="-76.18359552696347">
        <ele>1608.8</ele>
        <time>2022-10-23T03:16:52.000Z</time>
      </trkpt>
      <trkpt lat="3.6351309902966022" lon="-76.18343853391707">
        <ele>1611.2</ele>
        <time>2022-10-23T03:17:07.000Z</time>
      </trkpt>
      <trkpt lat="3.635113639757037" lon="-76.18338530883193">
        <ele>1612</ele>
        <time>2022-10-23T03:17:12.000Z</time>
      </trkpt>
      <trkpt lat="3.63508983515203" lon="-76.18331875652075">
        <ele>1613</ele>
        <time>2022-10-23T03:17:20.000Z</time>
      </trkpt>
      <trkpt lat="3.6350796930491924" lon="-76.18326083756983">
        <ele>1614</ele>
        <time>2022-10-23T03:17:27.000Z</time>
      </trkpt>
      <trkpt lat="3.6350696347653866" lon="-76.18319755420089">
        <ele>1614.8</ele>
        <time>2022-10-23T03:17:34.000Z</time>
      </trkpt>
      <trkpt lat="3.6350708920508623" lon="-76.18316972628236">
        <ele>1615.2</ele>
        <time>2022-10-23T03:17:37.000Z</time>
      </trkpt>
      <trkpt lat="3.6350682098418474" lon="-76.18315204046667">
        <ele>1615.4</ele>
        <time>2022-10-23T03:17:39.000Z</time>
      </trkpt>
      <trkpt lat="3.6350716464221478" lon="-76.1831138189882">
        <ele>1615.8</ele>
        <time>2022-10-23T03:17:43.000Z</time>
      </trkpt>
      <trkpt lat="3.635068880394101" lon="-76.18307224474847">
        <ele>1616.4</ele>
        <time>2022-10-23T03:17:47.000Z</time>
      </trkpt>
      <trkpt lat="3.6350649408996105" lon="-76.18303276598454">
        <ele>1616.8</ele>
        <time>2022-10-23T03:17:51.000Z</time>
      </trkpt>
      <trkpt lat="3.6350563913583755" lon="-76.18299504742026">
        <ele>1617.4</ele>
        <time>2022-10-23T03:17:55.000Z</time>
      </trkpt>
      <trkpt lat="3.6350561399012804" lon="-76.18297476321459">
        <ele>1617.8</ele>
        <time>2022-10-23T03:17:57.000Z</time>
      </trkpt>
      <trkpt lat="3.6350514460355043" lon="-76.18292807601392">
        <ele>1618.4</ele>
        <time>2022-10-23T03:18:01.000Z</time>
      </trkpt>
      <trkpt lat="3.6350434832274914" lon="-76.18289337493479">
        <ele>1619.2</ele>
        <time>2022-10-23T03:18:05.000Z</time>
      </trkpt>
      <trkpt lat="3.635043650865555" lon="-76.18285356089473">
        <ele>1619.8</ele>
        <time>2022-10-23T03:18:09.000Z</time>
      </trkpt>
      <trkpt lat="3.6350384540855885" lon="-76.18283386342227">
        <ele>1620.2</ele>
        <time>2022-10-23T03:18:11.000Z</time>
      </trkpt>
      <trkpt lat="3.635024456307292" lon="-76.18273830972612">
        <ele>1621.6</ele>
        <time>2022-10-23T03:18:20.000Z</time>
      </trkpt>
      <trkpt lat="3.635020013898611" lon="-76.18270402774215">
        <ele>1622</ele>
        <time>2022-10-23T03:18:23.000Z</time>
      </trkpt>
      <trkpt lat="3.6350186727941036" lon="-76.1826705839485">
        <ele>1622.6</ele>
        <time>2022-10-23T03:18:26.000Z</time>
      </trkpt>
      <trkpt lat="3.6349818762391806" lon="-76.18256220594049">
        <ele>1624</ele>
        <time>2022-10-23T03:18:36.000Z</time>
      </trkpt>
      <trkpt lat="3.6349379550665617" lon="-76.18244376964867">
        <ele>1625.8</ele>
        <time>2022-10-23T03:18:47.000Z</time>
      </trkpt>
      <trkpt lat="3.6349256336688995" lon="-76.18241535499692">
        <ele>1626.2</ele>
        <time>2022-10-23T03:18:50.000Z</time>
      </trkpt>
      <trkpt lat="3.634885987266898" lon="-76.18234855122864">
        <ele>1627.4</ele>
        <time>2022-10-23T03:18:57.000Z</time>
      </trkpt>
      <trkpt lat="3.6348724085837603" lon="-76.18229834362864">
        <ele>1628</ele>
        <time>2022-10-23T03:19:01.000Z</time>
      </trkpt>
      <trkpt lat="3.6348532140254974" lon="-76.18223086930811">
        <ele>1629</ele>
        <time>2022-10-23T03:19:07.000Z</time>
      </trkpt>
      <trkpt lat="3.63483770750463" lon="-76.18220102973282">
        <ele>1629.4</ele>
        <time>2022-10-23T03:19:10.000Z</time>
      </trkpt>
      <trkpt lat="3.6348173394799232" lon="-76.1821317113936">
        <ele>1630.8</ele>
        <time>2022-10-23T03:19:17.000Z</time>
      </trkpt>
      <trkpt lat="3.634802671149373" lon="-76.18209474720061">
        <ele>1631.4</ele>
        <time>2022-10-23T03:19:21.000Z</time>
      </trkpt>
      <trkpt lat="3.6347919423133135" lon="-76.1820780672133">
        <ele>1631.8</ele>
        <time>2022-10-23T03:19:23.000Z</time>
      </trkpt>
      <trkpt lat="3.6347864102572203" lon="-76.18203984573483">
        <ele>1632.2</ele>
        <time>2022-10-23T03:19:26.000Z</time>
      </trkpt>
      <trkpt lat="3.634783895686269" lon="-76.18200371973217">
        <ele>1632.6</ele>
        <time>2022-10-23T03:19:29.000Z</time>
      </trkpt>
      <trkpt lat="3.634778195992112" lon="-76.18193926289678">
        <ele>1633.4</ele>
        <time>2022-10-23T03:19:34.000Z</time>
      </trkpt>
      <trkpt lat="3.634799988940358" lon="-76.18176684714854">
        <ele>1635.4</ele>
        <time>2022-10-23T03:19:47.000Z</time>
      </trkpt>
      <trkpt lat="3.6348299961537123" lon="-76.18162301369011">
        <ele>1637</ele>
        <time>2022-10-23T03:19:58.000Z</time>
      </trkpt>
      <trkpt lat="3.6348387133330107" lon="-76.18157054297626">
        <ele>1637.6</ele>
        <time>2022-10-23T03:20:02.000Z</time>
      </trkpt>
      <trkpt lat="3.6348669603466988" lon="-76.18145755492151">
        <ele>1639</ele>
        <time>2022-10-23T03:20:11.000Z</time>
      </trkpt>
      <trkpt lat="3.634902834892273" lon="-76.18130827322602">
        <ele>1640.8</ele>
        <time>2022-10-23T03:20:23.000Z</time>
      </trkpt>
      <trkpt lat="3.634934350848198" lon="-76.18119771592319">
        <ele>1642</ele>
        <time>2022-10-23T03:20:32.000Z</time>
      </trkpt>
      <trkpt lat="3.634966369718313" lon="-76.18114105425775">
        <ele>1642.6</ele>
        <time>2022-10-23T03:20:37.000Z</time>
      </trkpt>
      <trkpt lat="3.634987995028496" lon="-76.18110157549381">
        <ele>1643.2</ele>
        <time>2022-10-23T03:20:41.000Z</time>
      </trkpt>
      <trkpt lat="3.6350031662732363" lon="-76.181078273803">
        <ele>1643.6</ele>
        <time>2022-10-23T03:20:44.000Z</time>
      </trkpt>
      <trkpt lat="3.6350449919700623" lon="-76.18102907203138">
        <ele>1644.6</ele>
        <time>2022-10-23T03:20:50.000Z</time>
      </trkpt>
      <trkpt lat="3.6350734904408455" lon="-76.18099420331419">
        <ele>1645.2</ele>
        <time>2022-10-23T03:20:54.000Z</time>
      </trkpt>
      <trkpt lat="3.635101905092597" lon="-76.18096738122404">
        <ele>1646</ele>
        <time>2022-10-23T03:20:58.000Z</time>
      </trkpt>
      <trkpt lat="3.635135516524315" lon="-76.18090627714992">
        <ele>1646.8</ele>
        <time>2022-10-23T03:21:03.000Z</time>
      </trkpt>
      <trkpt lat="3.6351088620722294" lon="-76.18078356608748">
        <ele>1648</ele>
        <time>2022-10-23T03:21:13.000Z</time>
      </trkpt>
      <trkpt lat="3.6351029109209776" lon="-76.18074903264642">
        <ele>1648.2</ele>
        <time>2022-10-23T03:21:15.000Z</time>
      </trkpt>
      <trkpt lat="3.635070975869894" lon="-76.18070050142705">
        <ele>1648.6</ele>
        <time>2022-10-23T03:21:19.000Z</time>
      </trkpt>
      <trkpt lat="3.635025881230831" lon="-76.18063386529684">
        <ele>1649.2</ele>
        <time>2022-10-23T03:21:24.000Z</time>
      </trkpt>
      <trkpt lat="3.634966453537345" lon="-76.1805875133723">
        <ele>1649.8</ele>
        <time>2022-10-23T03:21:29.000Z</time>
      </trkpt>
      <trkpt lat="3.6349094565957785" lon="-76.18055306375027">
        <ele>1650.4</ele>
        <time>2022-10-23T03:21:34.000Z</time>
      </trkpt>
      <trkpt lat="3.6348358634859324" lon="-76.18049304932356">
        <ele>1651</ele>
        <time>2022-10-23T03:21:40.000Z</time>
      </trkpt>
      <trkpt lat="3.634707201272249" lon="-76.1804133374244">
        <ele>1652.4</ele>
        <time>2022-10-23T03:21:50.000Z</time>
      </trkpt>
      <trkpt lat="3.634606869891286" lon="-76.18034427054226">
        <ele>1653.6</ele>
        <time>2022-10-23T03:21:58.000Z</time>
      </trkpt>
      <trkpt lat="3.6344922054558992" lon="-76.18014855310321">
        <ele>1655.2</ele>
        <time>2022-10-23T03:22:12.000Z</time>
      </trkpt>
      <trkpt lat="3.6344694066792727" lon="-76.17998133413494">
        <ele>1656.4</ele>
        <time>2022-10-23T03:22:23.000Z</time>
      </trkpt>
      <trkpt lat="3.6344541516155005" lon="-76.17992433719337">
        <ele>1657.2</ele>
        <time>2022-10-23T03:22:28.000Z</time>
      </trkpt>
      <trkpt lat="3.6344438418745995" lon="-76.17988737300038">
        <ele>1657.6</ele>
        <time>2022-10-23T03:22:31.000Z</time>
      </trkpt>
      <trkpt lat="3.6343622021377087" lon="-76.17973775602877">
        <ele>1659.6</ele>
        <time>2022-10-23T03:22:45.000Z</time>
      </trkpt>
      <trkpt lat="3.6343502160161734" lon="-76.17972157895565">
        <ele>1660</ele>
        <time>2022-10-23T03:22:47.000Z</time>
      </trkpt>
      <trkpt lat="3.634307384490967" lon="-76.17968779988587">
        <ele>1660.8</ele>
        <time>2022-10-23T03:22:52.000Z</time>
      </trkpt>
      <trkpt lat="3.634291375055909" lon="-76.17967380210757">
        <ele>1661.2</ele>
        <time>2022-10-23T03:22:54.000Z</time>
      </trkpt>
      <trkpt lat="3.634279640391469" lon="-76.17966131307185">
        <ele>1661.4</ele>
        <time>2022-10-23T03:22:56.000Z</time>
      </trkpt>
      <trkpt lat="3.634270504117012" lon="-76.17963407188654">
        <ele>1661.8</ele>
        <time>2022-10-23T03:22:59.000Z</time>
      </trkpt>
      <trkpt lat="3.6342609487473965" lon="-76.17961579933763">
        <ele>1662.2</ele>
        <time>2022-10-23T03:23:01.000Z</time>
      </trkpt>
      <trkpt lat="3.6342464480549097" lon="-76.1795565392822">
        <ele>1662.8</ele>
        <time>2022-10-23T03:23:06.000Z</time>
      </trkpt>
      <trkpt lat="3.634225158020854" lon="-76.17953156121075">
        <ele>1663.4</ele>
        <time>2022-10-23T03:23:09.000Z</time>
      </trkpt>
      <trkpt lat="3.6341855116188526" lon="-76.17944329977036">
        <ele>1664.8</ele>
        <time>2022-10-23T03:23:18.000Z</time>
      </trkpt>
      <trkpt lat="3.6341723520308733" lon="-76.17940424010158">
        <ele>1665.4</ele>
        <time>2022-10-23T03:23:21.000Z</time>
      </trkpt>
      <trkpt lat="3.6341679096221924" lon="-76.17937632836401">
        <ele>1665.8</ele>
        <time>2022-10-23T03:23:23.000Z</time>
      </trkpt>
      <trkpt lat="3.634155336767435" lon="-76.17933383211493">
        <ele>1666.4</ele>
        <time>2022-10-23T03:23:26.000Z</time>
      </trkpt>
      <trkpt lat="3.634149469435215" lon="-76.17931136861444">
        <ele>1666.8</ele>
        <time>2022-10-23T03:23:28.000Z</time>
      </trkpt>
      <trkpt lat="3.634144691750407" lon="-76.17928287014365">
        <ele>1667</ele>
        <time>2022-10-23T03:23:30.000Z</time>
      </trkpt>
      <trkpt lat="3.6341254971921444" lon="-76.17920550517738">
        <ele>1668</ele>
        <time>2022-10-23T03:23:36.000Z</time>
      </trkpt>
      <trkpt lat="3.634121138602495" lon="-76.17917407304049">
        <ele>1668.4</ele>
        <time>2022-10-23T03:23:39.000Z</time>
      </trkpt>
      <trkpt lat="3.6341094877570868" lon="-76.1790937744081">
        <ele>1669.2</ele>
        <time>2022-10-23T03:23:45.000Z</time>
      </trkpt>
      <trkpt lat="3.6341034527868032" lon="-76.17906385101378">
        <ele>1669.6</ele>
        <time>2022-10-23T03:23:47.000Z</time>
      </trkpt>
      <trkpt lat="3.6340907122939825" lon="-76.17903753183782">
        <ele>1669.8</ele>
        <time>2022-10-23T03:23:49.000Z</time>
      </trkpt>
      <trkpt lat="3.63405735231936" lon="-76.17898204363883">
        <ele>1670.4</ele>
        <time>2022-10-23T03:23:54.000Z</time>
      </trkpt>
      <trkpt lat="3.6340457014739513" lon="-76.1789663694799">
        <ele>1670.6</ele>
        <time>2022-10-23T03:23:56.000Z</time>
      </trkpt>
      <trkpt lat="3.634015442803502" lon="-76.17891783826053">
        <ele>1671.4</ele>
        <time>2022-10-23T03:24:02.000Z</time>
      </trkpt>
      <trkpt lat="3.634001864120364" lon="-76.17889252491295">
        <ele>1672</ele>
        <time>2022-10-23T03:24:05.000Z</time>
      </trkpt>
      <trkpt lat="3.633975964039564" lon="-76.17881306447089">
        <ele>1673.2</ele>
        <time>2022-10-23T03:24:12.000Z</time>
      </trkpt>
      <trkpt lat="3.633965151384473" lon="-76.17877434007823">
        <ele>1673.8</ele>
        <time>2022-10-23T03:24:16.000Z</time>
      </trkpt>
      <trkpt lat="3.6339493934065104" lon="-76.17866286076605">
        <ele>1675.8</ele>
        <time>2022-10-23T03:24:26.000Z</time>
      </trkpt>
      <trkpt lat="3.6339133512228727" lon="-76.17862807586789">
        <ele>1676.4</ele>
        <time>2022-10-23T03:24:30.000Z</time>
      </trkpt>
      <trkpt lat="3.6338904686272144" lon="-76.17862220853567">
        <ele>1676.6</ele>
        <time>2022-10-23T03:24:32.000Z</time>
      </trkpt>
      <trkpt lat="3.6338683404028416" lon="-76.17862472310662">
        <ele>1677</ele>
        <time>2022-10-23T03:24:34.000Z</time>
      </trkpt>
      <trkpt lat="3.6338471341878176" lon="-76.17863176390529">
        <ele>1677.2</ele>
        <time>2022-10-23T03:24:36.000Z</time>
      </trkpt>
      <trkpt lat="3.633824670687318" lon="-76.17863670922816">
        <ele>1677.2</ele>
        <time>2022-10-23T03:24:38.000Z</time>
      </trkpt>
      <trkpt lat="3.6337631475180387" lon="-76.17867023684084">
        <ele>1676.8</ele>
        <time>2022-10-23T03:24:43.000Z</time>
      </trkpt>
      <trkpt lat="3.633678490296006" lon="-76.17870703339577">
        <ele>1676.8</ele>
        <time>2022-10-23T03:24:48.000Z</time>
      </trkpt>
      <trkpt lat="3.6336506623774767" lon="-76.17871155962348">
        <ele>1676.8</ele>
        <time>2022-10-23T03:24:50.000Z</time>
      </trkpt>
      <trkpt lat="3.633611686527729" lon="-76.17872823961079">
        <ele>1676.8</ele>
        <time>2022-10-23T03:24:53.000Z</time>
      </trkpt>
      <trkpt lat="3.633578661829233" lon="-76.17874584160745">
        <ele>1677</ele>
        <time>2022-10-23T03:24:56.000Z</time>
      </trkpt>
      <trkpt lat="3.6335088405758142" lon="-76.17877677083015">
        <ele>1677.4</ele>
        <time>2022-10-23T03:25:02.000Z</time>
      </trkpt>
      <trkpt lat="3.6333479080349207" lon="-76.17885455489159">
        <ele>1678.8</ele>
        <time>2022-10-23T03:25:15.000Z</time>
      </trkpt>
      <trkpt lat="3.6333220079541206" lon="-76.1788622662425">
        <ele>1679</ele>
        <time>2022-10-23T03:25:17.000Z</time>
      </trkpt>
      <trkpt lat="3.633235339075327" lon="-76.17886880412698">
        <ele>1679.6</ele>
        <time>2022-10-23T03:25:23.000Z</time>
      </trkpt>
      <trkpt lat="3.6332083493471146" lon="-76.17886821739376">
        <ele>1679.8</ele>
        <time>2022-10-23T03:25:25.000Z</time>
      </trkpt>
      <trkpt lat="3.6330904997885227" lon="-76.17888732813299">
        <ele>1680.8</ele>
        <time>2022-10-23T03:25:33.000Z</time>
      </trkpt>
      <trkpt lat="3.633005004376173" lon="-76.17893024347723">
        <ele>1682.2</ele>
        <time>2022-10-23T03:25:41.000Z</time>
      </trkpt>
      <trkpt lat="3.632971979677677" lon="-76.17894407361746">
        <ele>1682.4</ele>
        <time>2022-10-23T03:25:44.000Z</time>
      </trkpt>
      <trkpt lat="3.6328750010579824" lon="-76.17900777608156">
        <ele>1683.4</ele>
        <time>2022-10-23T03:25:53.000Z</time>
      </trkpt>
      <trkpt lat="3.632857399061322" lon="-76.17902026511729">
        <ele>1683.8</ele>
        <time>2022-10-23T03:25:55.000Z</time>
      </trkpt>
      <trkpt lat="3.632803335785866" lon="-76.17906083352864">
        <ele>1684.4</ele>
        <time>2022-10-23T03:26:00.000Z</time>
      </trkpt>
      <trkpt lat="3.6327743344008923" lon="-76.1790797766298">
        <ele>1684.8</ele>
        <time>2022-10-23T03:26:03.000Z</time>
      </trkpt>
      <trkpt lat="3.6327159125357866" lon="-76.17912051267922">
        <ele>1685.6</ele>
        <time>2022-10-23T03:26:09.000Z</time>
      </trkpt>
      <trkpt lat="3.632647516205907" lon="-76.17916678078473">
        <ele>1686.2</ele>
        <time>2022-10-23T03:26:15.000Z</time>
      </trkpt>
      <trkpt lat="3.632609210908413" lon="-76.17918253876269">
        <ele>1686.6</ele>
        <time>2022-10-23T03:26:18.000Z</time>
      </trkpt>
      <trkpt lat="3.632557662203908" lon="-76.17920600809157">
        <ele>1687.2</ele>
        <time>2022-10-23T03:26:22.000Z</time>
      </trkpt>
      <trkpt lat="3.6325124837458134" lon="-76.17922587320209">
        <ele>1687.8</ele>
        <time>2022-10-23T03:26:26.000Z</time>
      </trkpt>
      <trkpt lat="3.6324746813625097" lon="-76.17924188263714">
        <ele>1688.2</ele>
        <time>2022-10-23T03:26:29.000Z</time>
      </trkpt>
      <trkpt lat="3.632440147921443" lon="-76.1792512703687">
        <ele>1688.6</ele>
        <time>2022-10-23T03:26:32.000Z</time>
      </trkpt>
      <trkpt lat="3.6324155051261187" lon="-76.17924657650292">
        <ele>1688.6</ele>
        <time>2022-10-23T03:27:22.000Z</time>
      </trkpt>
      <trkpt lat="3.632403686642647" lon="-76.17924330756068">
        <ele>1688.6</ele>
        <time>2022-10-23T03:27:25.000Z</time>
      </trkpt>
      <trkpt lat="3.6323804687708616" lon="-76.17924104444683">
        <ele>1688.8</ele>
        <time>2022-10-23T03:27:27.000Z</time>
      </trkpt>
      <trkpt lat="3.6323189456015825" lon="-76.17924925871193">
        <ele>1689.4</ele>
        <time>2022-10-23T03:27:32.000Z</time>
      </trkpt>
      <trkpt lat="3.632256668061018" lon="-76.17923635058105">
        <ele>1690.2</ele>
        <time>2022-10-23T03:27:37.000Z</time>
      </trkpt>
      <trkpt lat="3.63221718929708" lon="-76.17922252044082">
        <ele>1690.6</ele>
        <time>2022-10-23T03:27:40.000Z</time>
      </trkpt>
      <trkpt lat="3.6321912053972483" lon="-76.17921782657504">
        <ele>1690.8</ele>
        <time>2022-10-23T03:27:42.000Z</time>
      </trkpt>
      <trkpt lat="3.632104704156518" lon="-76.17914088070393">
        <ele>1692</ele>
        <time>2022-10-23T03:27:51.000Z</time>
      </trkpt>
      <trkpt lat="3.6320503894239664" lon="-76.1790470033884">
        <ele>1693</ele>
        <time>2022-10-23T03:27:59.000Z</time>
      </trkpt>
      <trkpt lat="3.6320239026099443" lon="-76.17901481688023">
        <ele>1693.4</ele>
        <time>2022-10-23T03:28:02.000Z</time>
      </trkpt>
      <trkpt lat="3.631962463259697" lon="-76.17888732813299">
        <ele>1694.8</ele>
        <time>2022-10-23T03:28:12.000Z</time>
      </trkpt>
      <trkpt lat="3.6319379042834044" lon="-76.17879034951329">
        <ele>1696</ele>
        <time>2022-10-23T03:28:20.000Z</time>
      </trkpt>
      <trkpt lat="3.6319136805832386" lon="-76.17872287519276">
        <ele>1697</ele>
        <time>2022-10-23T03:28:26.000Z</time>
      </trkpt>
      <trkpt lat="3.631902700290084" lon="-76.17870535701513">
        <ele>1697.2</ele>
        <time>2022-10-23T03:28:28.000Z</time>
      </trkpt>
      <trkpt lat="3.631889959797263" lon="-76.17863520048559">
        <ele>1698.2</ele>
        <time>2022-10-23T03:28:34.000Z</time>
      </trkpt>
      <trkpt lat="3.631840506568551" lon="-76.1784708313644">
        <ele>1699.8</ele>
        <time>2022-10-23T03:28:47.000Z</time>
      </trkpt>
      <trkpt lat="3.631837908178568" lon="-76.17844820022583">
        <ele>1700</ele>
        <time>2022-10-23T03:28:49.000Z</time>
      </trkpt>
      <trkpt lat="3.6318273469805717" lon="-76.17842950858176">
        <ele>1700.4</ele>
        <time>2022-10-23T03:28:51.000Z</time>
      </trkpt>
      <trkpt lat="3.6317994352430105" lon="-76.17833973839879">
        <ele>1701.4</ele>
        <time>2022-10-23T03:28:59.000Z</time>
      </trkpt>
      <trkpt lat="3.6317830067127943" lon="-76.1783043667674">
        <ele>1702</ele>
        <time>2022-10-23T03:29:03.000Z</time>
      </trkpt>
      <trkpt lat="3.6317838449031115" lon="-76.1782803107053">
        <ele>1702.2</ele>
        <time>2022-10-23T03:29:05.000Z</time>
      </trkpt>
      <trkpt lat="3.6317776422947645" lon="-76.17825323715806">
        <ele>1702.4</ele>
        <time>2022-10-23T03:29:07.000Z</time>
      </trkpt>
      <trkpt lat="3.631760962307453" lon="-76.17819271981716">
        <ele>1703.2</ele>
        <time>2022-10-23T03:29:12.000Z</time>
      </trkpt>
      <trkpt lat="3.6317469645291567" lon="-76.17816623300314">
        <ele>1703.4</ele>
        <time>2022-10-23T03:29:14.000Z</time>
      </trkpt>
      <trkpt lat="3.6317384149879217" lon="-76.17813924327493">
        <ele>1703.8</ele>
        <time>2022-10-23T03:29:16.000Z</time>
      </trkpt>
      <trkpt lat="3.6317198909819126" lon="-76.17810236290097">
        <ele>1704.2</ele>
        <time>2022-10-23T03:29:19.000Z</time>
      </trkpt>
      <trkpt lat="3.631677897647023" lon="-76.17802675813437">
        <ele>1704.8</ele>
        <time>2022-10-23T03:29:25.000Z</time>
      </trkpt>
      <trkpt lat="3.631607908755541" lon="-76.17792282253504">
        <ele>1705.8</ele>
        <time>2022-10-23T03:29:34.000Z</time>
      </trkpt>
      <trkpt lat="3.6315794102847576" lon="-76.17789826355875">
        <ele>1706.2</ele>
        <time>2022-10-23T03:29:37.000Z</time>
      </trkpt>
      <trkpt lat="3.631556862965226" lon="-76.17788820527494">
        <ele>1706.6</ele>
        <time>2022-10-23T03:29:39.000Z</time>
      </trkpt>
      <trkpt lat="3.631512438878417" lon="-76.17787923663855">
        <ele>1706.8</ele>
        <time>2022-10-23T03:29:42.000Z</time>
      </trkpt>
      <trkpt lat="3.6314269434660673" lon="-76.17784671485424">
        <ele>1707.8</ele>
        <time>2022-10-23T03:29:49.000Z</time>
      </trkpt>
      <trkpt lat="3.6313789151608944" lon="-76.17784604430199">
        <ele>1708.4</ele>
        <time>2022-10-23T03:29:53.000Z</time>
      </trkpt>
      <trkpt lat="3.631356367841363" lon="-76.17784386500716">
        <ele>1708.6</ele>
        <time>2022-10-23T03:29:55.000Z</time>
      </trkpt>
      <trkpt lat="3.631219659000635" lon="-76.17779986001551">
        <ele>1709.8</ele>
        <time>2022-10-23T03:30:06.000Z</time>
      </trkpt>
      <trkpt lat="3.6311839520931244" lon="-76.17778007872403">
        <ele>1710.2</ele>
        <time>2022-10-23T03:30:09.000Z</time>
      </trkpt>
      <trkpt lat="3.631074484437704" lon="-76.17772283032537">
        <ele>1711</ele>
        <time>2022-10-23T03:30:18.000Z</time>
      </trkpt>
      <trkpt lat="3.6310181580483913" lon="-76.17770506069064">
        <ele>1711.4</ele>
        <time>2022-10-23T03:30:22.000Z</time>
      </trkpt>
      <trkpt lat="3.63093551248312" lon="-76.17766172625124">
        <ele>1712.2</ele>
        <time>2022-10-23T03:30:29.000Z</time>
      </trkpt>
      <trkpt lat="3.630838366225362" lon="-76.1776177212596">
        <ele>1713.2</ele>
        <time>2022-10-23T03:30:38.000Z</time>
      </trkpt>
      <trkpt lat="3.630782961845398" lon="-76.17761671543121">
        <ele>1714</ele>
        <time>2022-10-23T03:30:42.000Z</time>
      </trkpt>
      <trkpt lat="3.630656898021698" lon="-76.17762425914407">
        <ele>1715.8</ele>
        <time>2022-10-23T03:30:52.000Z</time>
      </trkpt>
      <trkpt lat="3.6306051816791296" lon="-76.17761135101318">
        <ele>1716.4</ele>
        <time>2022-10-23T03:30:56.000Z</time>
      </trkpt>
      <trkpt lat="3.630554638803005" lon="-76.17758486419916">
        <ele>1717</ele>
        <time>2022-10-23T03:31:01.000Z</time>
      </trkpt>
      <trkpt lat="3.6305266432464123" lon="-76.17756432853639">
        <ele>1717.4</ele>
        <time>2022-10-23T03:31:04.000Z</time>
      </trkpt>
      <trkpt lat="3.630453972145915" lon="-76.17751621641219">
        <ele>1718.2</ele>
        <time>2022-10-23T03:31:12.000Z</time>
      </trkpt>
      <trkpt lat="3.630364201962948" lon="-76.17744706571102">
        <ele>1719.2</ele>
        <time>2022-10-23T03:31:22.000Z</time>
      </trkpt>
      <trkpt lat="3.630317011848092" lon="-76.17741420865059">
        <ele>1719.8</ele>
        <time>2022-10-23T03:31:27.000Z</time>
      </trkpt>
      <trkpt lat="3.6302958894521" lon="-76.17739778012037">
        <ele>1720.2</ele>
        <time>2022-10-23T03:31:30.000Z</time>
      </trkpt>
      <trkpt lat="3.630268396809697" lon="-76.1773735564202">
        <ele>1720.6</ele>
        <time>2022-10-23T03:31:34.000Z</time>
      </trkpt>
      <trkpt lat="3.6302003357559443" lon="-76.17731077596545">
        <ele>1721.8</ele>
        <time>2022-10-23T03:31:44.000Z</time>
      </trkpt>
      <trkpt lat="3.630174184218049" lon="-76.17728470824659">
        <ele>1722.4</ele>
        <time>2022-10-23T03:31:48.000Z</time>
      </trkpt>
      <trkpt lat="3.630149457603693" lon="-76.17725570686162">
        <ele>1722.8</ele>
        <time>2022-10-23T03:31:52.000Z</time>
      </trkpt>
      <trkpt lat="3.630131185054779" lon="-76.17722352035344">
        <ele>1723.4</ele>
        <time>2022-10-23T03:31:56.000Z</time>
      </trkpt>
      <trkpt lat="3.630119366571307" lon="-76.17720935493708">
        <ele>1723.8</ele>
        <time>2022-10-23T03:31:58.000Z</time>
      </trkpt>
      <trkpt lat="3.630113834515214" lon="-76.17719351314008">
        <ele>1724</ele>
        <time>2022-10-23T03:32:00.000Z</time>
      </trkpt>
      <trkpt lat="3.6301016807556152" lon="-76.17715721949935">
        <ele>1724.8</ele>
        <time>2022-10-23T03:32:05.000Z</time>
      </trkpt>
      <trkpt lat="3.630096483975649" lon="-76.17711874656379">
        <ele>1725.4</ele>
        <time>2022-10-23T03:32:09.000Z</time>
      </trkpt>
      <trkpt lat="3.6300938855856657" lon="-76.17708136327565">
        <ele>1726</ele>
        <time>2022-10-23T03:32:14.000Z</time>
      </trkpt>
      <trkpt lat="3.630095897242427" lon="-76.1770455725491">
        <ele>1726.6</ele>
        <time>2022-10-23T03:32:18.000Z</time>
      </trkpt>
      <trkpt lat="3.630072008818388" lon="-76.17695680819452">
        <ele>1728.4</ele>
        <time>2022-10-23T03:32:31.000Z</time>
      </trkpt>
      <trkpt lat="3.6300806421786547" lon="-76.17687474936247">
        <ele>1729.4</ele>
        <time>2022-10-23T03:32:39.000Z</time>
      </trkpt>
      <trkpt lat="3.630096986889839" lon="-76.17682973854244">
        <ele>1729.8</ele>
        <time>2022-10-23T03:32:42.000Z</time>
      </trkpt>
      <trkpt lat="3.6301160138100386" lon="-76.17677181959152">
        <ele>1730.4</ele>
        <time>2022-10-23T03:32:46.000Z</time>
      </trkpt>
      <trkpt lat="3.630134705454111" lon="-76.17672873660922">
        <ele>1730.6</ele>
        <time>2022-10-23T03:32:49.000Z</time>
      </trkpt>
      <trkpt lat="3.630160689353943" lon="-76.17664324119687">
        <ele>1731.2</ele>
        <time>2022-10-23T03:32:55.000Z</time>
      </trkpt>
      <trkpt lat="3.6301637068390846" lon="-76.17660124786198">
        <ele>1731.6</ele>
        <time>2022-10-23T03:32:58.000Z</time>
      </trkpt>
      <trkpt lat="3.630192456766963" lon="-76.17652882821858">
        <ele>1732.4</ele>
        <time>2022-10-23T03:33:06.000Z</time>
      </trkpt>
      <trkpt lat="3.6301994137465954" lon="-76.17650225758553">
        <ele>1732.6</ele>
        <time>2022-10-23T03:33:08.000Z</time>
      </trkpt>
      <trkpt lat="3.6301816441118717" lon="-76.17638784460723">
        <ele>1733.4</ele>
        <time>2022-10-23T03:33:18.000Z</time>
      </trkpt>
      <trkpt lat="3.6301271617412567" lon="-76.17635121569037">
        <ele>1733.6</ele>
        <time>2022-10-23T03:33:21.000Z</time>
      </trkpt>
      <trkpt lat="3.630096400156617" lon="-76.17634073831141">
        <ele>1733.8</ele>
        <time>2022-10-23T03:33:23.000Z</time>
      </trkpt>
      <trkpt lat="3.630036972463131" lon="-76.17635305970907">
        <ele>1734.6</ele>
        <time>2022-10-23T03:33:30.000Z</time>
      </trkpt>
      <trkpt lat="3.6300181970000267" lon="-76.17636772803962">
        <ele>1734.8</ele>
        <time>2022-10-23T03:33:33.000Z</time>
      </trkpt>
      <trkpt lat="3.6299321986734867" lon="-76.17642019875348">
        <ele>1735.8</ele>
        <time>2022-10-23T03:33:40.000Z</time>
      </trkpt>
      <trkpt lat="3.629829855635762" lon="-76.17646135389805">
        <ele>1736.8</ele>
        <time>2022-10-23T03:33:49.000Z</time>
      </trkpt>
      <trkpt lat="3.629806637763977" lon="-76.1764572467655">
        <ele>1737</ele>
        <time>2022-10-23T03:33:51.000Z</time>
      </trkpt>
      <trkpt lat="3.6297826655209064" lon="-76.17645573802292">
        <ele>1737.2</ele>
        <time>2022-10-23T03:33:53.000Z</time>
      </trkpt>
      <trkpt lat="3.6297623813152313" lon="-76.17645707912743">
        <ele>1737.4</ele>
        <time>2022-10-23T03:33:55.000Z</time>
      </trkpt>
      <trkpt lat="3.629741007462144" lon="-76.17645456455648">
        <ele>1737.6</ele>
        <time>2022-10-23T03:33:57.000Z</time>
      </trkpt>
      <trkpt lat="3.6297172028571367" lon="-76.17645154707134">
        <ele>1737.8</ele>
        <time>2022-10-23T03:33:59.000Z</time>
      </trkpt>
      <trkpt lat="3.6296584457159042" lon="-76.17644433863461">
        <ele>1738.4</ele>
        <time>2022-10-23T03:34:03.000Z</time>
      </trkpt>
      <trkpt lat="3.629629947245121" lon="-76.17643486708403">
        <ele>1738.4</ele>
        <time>2022-10-23T03:34:05.000Z</time>
      </trkpt>
      <trkpt lat="3.629483347758651" lon="-76.17634375579655">
        <ele>1740</ele>
        <time>2022-10-23T03:34:18.000Z</time>
      </trkpt>
      <trkpt lat="3.629441438242793" lon="-76.17630201391876">
        <ele>1740.6</ele>
        <time>2022-10-23T03:34:23.000Z</time>
      </trkpt>
      <trkpt lat="3.6294318828731775" lon="-76.17627175524831">
        <ele>1740.8</ele>
        <time>2022-10-23T03:34:26.000Z</time>
      </trkpt>
      <trkpt lat="3.629403132945299" lon="-76.17609154433012">
        <ele>1742.4</ele>
        <time>2022-10-23T03:34:41.000Z</time>
      </trkpt>
      <trkpt lat="3.6293983552604914" lon="-76.17606832645833">
        <ele>1742.6</ele>
        <time>2022-10-23T03:34:43.000Z</time>
      </trkpt>
      <trkpt lat="3.6293961759656668" lon="-76.17599708028138">
        <ele>1743.2</ele>
        <time>2022-10-23T03:34:49.000Z</time>
      </trkpt>
      <trkpt lat="3.6294003669172525" lon="-76.17591426707804">
        <ele>1744</ele>
        <time>2022-10-23T03:34:56.000Z</time>
      </trkpt>
      <trkpt lat="3.6294009536504745" lon="-76.17586825042963">
        <ele>1744.4</ele>
        <time>2022-10-23T03:34:59.000Z</time>
      </trkpt>
      <trkpt lat="3.6293888837099075" lon="-76.17576071061194">
        <ele>1745.2</ele>
        <time>2022-10-23T03:35:06.000Z</time>
      </trkpt>
      <trkpt lat="3.629380166530609" lon="-76.17571829818189">
        <ele>1745.6</ele>
        <time>2022-10-23T03:35:09.000Z</time>
      </trkpt>
      <trkpt lat="3.6293794121593237" lon="-76.17550757713616">
        <ele>1747.6</ele>
        <time>2022-10-23T03:35:24.000Z</time>
      </trkpt>
      <trkpt lat="3.629431463778019" lon="-76.17522720247507">
        <ele>1749.6</ele>
        <time>2022-10-23T03:35:44.000Z</time>
      </trkpt>
      <trkpt lat="3.6294453777372837" lon="-76.17507984861732">
        <ele>1750.4</ele>
        <time>2022-10-23T03:35:54.000Z</time>
      </trkpt>
      <trkpt lat="3.629425512626767" lon="-76.175018241629">
        <ele>1751.2</ele>
        <time>2022-10-23T03:36:00.000Z</time>
      </trkpt>
      <trkpt lat="3.6294253449887037" lon="-76.17499276064336">
        <ele>1751.4</ele>
        <time>2022-10-23T03:36:02.000Z</time>
      </trkpt>
      <trkpt lat="3.6293914820998907" lon="-76.17492235265672">
        <ele>1752.2</ele>
        <time>2022-10-23T03:36:08.000Z</time>
      </trkpt>
      <trkpt lat="3.6293564457446337" lon="-76.17487331852317">
        <ele>1752.6</ele>
        <time>2022-10-23T03:36:13.000Z</time>
      </trkpt>
      <trkpt lat="3.6293381731957197" lon="-76.17485202848911">
        <ele>1752.8</ele>
        <time>2022-10-23T03:36:15.000Z</time>
      </trkpt>
      <trkpt lat="3.6293061543256044" lon="-76.1748300679028">
        <ele>1753.2</ele>
        <time>2022-10-23T03:36:18.000Z</time>
      </trkpt>
      <trkpt lat="3.6291226744651794" lon="-76.17473501712084">
        <ele>1754.8</ele>
        <time>2022-10-23T03:36:33.000Z</time>
      </trkpt>
      <trkpt lat="3.6290997080504894" lon="-76.17472521029413">
        <ele>1755</ele>
        <time>2022-10-23T03:36:35.000Z</time>
      </trkpt>
      <trkpt lat="3.629024438560009" lon="-76.17467449977994">
        <ele>1755.6</ele>
        <time>2022-10-23T03:36:42.000Z</time>
      </trkpt>
      <trkpt lat="3.6288823653012514" lon="-76.17462353780866">
        <ele>1757</ele>
        <time>2022-10-23T03:36:53.000Z</time>
      </trkpt>
      <trkpt lat="3.6288563814014196" lon="-76.17462881840765">
        <ele>1757.2</ele>
        <time>2022-10-23T03:36:55.000Z</time>
      </trkpt>
      <trkpt lat="3.6288205068558455" lon="-76.17463057860732">
        <ele>1757.6</ele>
        <time>2022-10-23T03:36:58.000Z</time>
      </trkpt>
      <trkpt lat="3.6286817025393248" lon="-76.17460677400231">
        <ele>1759</ele>
        <time>2022-10-23T03:37:09.000Z</time>
      </trkpt>
      <trkpt lat="3.628589166328311" lon="-76.17459780536592">
        <ele>1759.8</ele>
        <time>2022-10-23T03:37:16.000Z</time>
      </trkpt>
      <trkpt lat="3.6285353545099497" lon="-76.17459101602435">
        <ele>1760.2</ele>
        <time>2022-10-23T03:37:20.000Z</time>
      </trkpt>
      <trkpt lat="3.628447847440839" lon="-76.17457827553153">
        <ele>1760.8</ele>
        <time>2022-10-23T03:37:27.000Z</time>
      </trkpt>
      <trkpt lat="3.6281731724739075" lon="-76.17451935075223">
        <ele>1763</ele>
        <time>2022-10-23T03:37:47.000Z</time>
      </trkpt>
      <trkpt lat="3.628116175532341" lon="-76.17445975542068">
        <ele>1763.4</ele>
        <time>2022-10-23T03:37:52.000Z</time>
      </trkpt>
      <trkpt lat="3.628024645149708" lon="-76.17433520033956">
        <ele>1764.8</ele>
        <time>2022-10-23T03:38:04.000Z</time>
      </trkpt>
      <trkpt lat="3.6280114017426968" lon="-76.17429924197495">
        <ele>1765.2</ele>
        <time>2022-10-23T03:38:07.000Z</time>
      </trkpt>
      <trkpt lat="3.627995140850544" lon="-76.17426672019064">
        <ele>1765.6</ele>
        <time>2022-10-23T03:38:10.000Z</time>
      </trkpt>
      <trkpt lat="3.627972174435854" lon="-76.17421483621001">
        <ele>1766.2</ele>
        <time>2022-10-23T03:38:15.000Z</time>
      </trkpt>
      <trkpt lat="3.62795096822083" lon="-76.17413805797696">
        <ele>1767.6</ele>
        <time>2022-10-23T03:38:24.000Z</time>
      </trkpt>
      <trkpt lat="3.6279831547290087" lon="-76.17400755174458">
        <ele>1768.8</ele>
        <time>2022-10-23T03:38:33.000Z</time>
      </trkpt>
      <trkpt lat="3.628018442541361" lon="-76.17395005188882">
        <ele>1769.4</ele>
        <time>2022-10-23T03:38:39.000Z</time>
      </trkpt>
      <trkpt lat="3.6280435044318438" lon="-76.17392482236028">
        <ele>1770.2</ele>
        <time>2022-10-23T03:38:43.000Z</time>
      </trkpt>
      <trkpt lat="3.6280841566622257" lon="-76.1739045381546">
        <ele>1770.6</ele>
        <time>2022-10-23T03:38:47.000Z</time>
      </trkpt>
      <trkpt lat="3.628147691488266" lon="-76.17389221675694">
        <ele>1771.2</ele>
        <time>2022-10-23T03:38:52.000Z</time>
      </trkpt>
      <trkpt lat="3.6281761899590492" lon="-76.17389137856662">
        <ele>1771.4</ele>
        <time>2022-10-23T03:38:54.000Z</time>
      </trkpt>
      <trkpt lat="3.6282303370535374" lon="-76.17388257756829">
        <ele>1772</ele>
        <time>2022-10-23T03:38:58.000Z</time>
      </trkpt>
      <trkpt lat="3.6283098813146353" lon="-76.17387486621737">
        <ele>1772.6</ele>
        <time>2022-10-23T03:39:04.000Z</time>
      </trkpt>
      <trkpt lat="3.6283949576318264" lon="-76.17387277074158">
        <ele>1773.2</ele>
        <time>2022-10-23T03:39:10.000Z</time>
      </trkpt>
      <trkpt lat="3.6285506933927536" lon="-76.17385424673557">
        <ele>1774.8</ele>
        <time>2022-10-23T03:39:22.000Z</time>
      </trkpt>
      <trkpt lat="3.628582376986742" lon="-76.17385374382138">
        <ele>1775.2</ele>
        <time>2022-10-23T03:39:25.000Z</time>
      </trkpt>
      <trkpt lat="3.628642139956355" lon="-76.17385022342205">
        <ele>1775.8</ele>
        <time>2022-10-23T03:39:30.000Z</time>
      </trkpt>
      <trkpt lat="3.6286682076752186" lon="-76.17384737357497">
        <ele>1776</ele>
        <time>2022-10-23T03:39:32.000Z</time>
      </trkpt>
      <trkpt lat="3.628764683380723" lon="-76.17384276352823">
        <ele>1777.2</ele>
        <time>2022-10-23T03:39:40.000Z</time>
      </trkpt>
      <trkpt lat="3.628786141052842" lon="-76.17384536191821">
        <ele>1777.4</ele>
        <time>2022-10-23T03:39:42.000Z</time>
      </trkpt>
      <trkpt lat="3.628815393894911" lon="-76.17385206744075">
        <ele>1777.8</ele>
        <time>2022-10-23T03:39:44.000Z</time>
      </trkpt>
      <trkpt lat="3.6289971973747015" lon="-76.17387503385544">
        <ele>1779.8</ele>
        <time>2022-10-23T03:39:59.000Z</time>
      </trkpt>
      <trkpt lat="3.6290466506034136" lon="-76.17387922480702">
        <ele>1780.4</ele>
        <time>2022-10-23T03:40:03.000Z</time>
      </trkpt>
      <trkpt lat="3.62906944938004" lon="-76.17388324812055">
        <ele>1780.6</ele>
        <time>2022-10-23T03:40:05.000Z</time>
      </trkpt>
      <trkpt lat="3.629145137965679" lon="-76.17388081736863">
        <ele>1781.4</ele>
        <time>2022-10-23T03:40:12.000Z</time>
      </trkpt>
      <trkpt lat="3.6291839461773634" lon="-76.17388727143407">
        <ele>1782</ele>
        <time>2022-10-23T03:40:15.000Z</time>
      </trkpt>
      <trkpt lat="3.629248905926943" lon="-76.17388953454792">
        <ele>1782.4</ele>
        <time>2022-10-23T03:40:20.000Z</time>
      </trkpt>
      <trkpt lat="3.629324845969677" lon="-76.17389271967113">
        <ele>1783</ele>
        <time>2022-10-23T03:40:25.000Z</time>
      </trkpt>
      <trkpt lat="3.629348985850811" lon="-76.17389305494726">
        <ele>1783.2</ele>
        <time>2022-10-23T03:40:27.000Z</time>
      </trkpt>
      <trkpt lat="3.6293708626180887" lon="-76.1738958209753">
        <ele>1783.4</ele>
        <time>2022-10-23T03:40:29.000Z</time>
      </trkpt>
      <trkpt lat="3.6294418573379517" lon="-76.17391057312489">
        <ele>1784</ele>
        <time>2022-10-23T03:40:34.000Z</time>
      </trkpt>
      <trkpt lat="3.6294993571937084" lon="-76.17391887120903">
        <ele>1784.6</ele>
        <time>2022-10-23T03:40:38.000Z</time>
      </trkpt>
      <trkpt lat="3.629547469317913" lon="-76.17393085733056">
        <ele>1785</ele>
        <time>2022-10-23T03:40:41.000Z</time>
      </trkpt>
      <trkpt lat="3.629603711888194" lon="-76.17395206354558">
        <ele>1785.4</ele>
        <time>2022-10-23T03:40:45.000Z</time>
      </trkpt>
      <trkpt lat="3.629647884517908" lon="-76.17396631278098">
        <ele>1786</ele>
        <time>2022-10-23T03:40:49.000Z</time>
      </trkpt>
      <trkpt lat="3.629710413515568" lon="-76.17397980764508">
        <ele>1786.8</ele>
        <time>2022-10-23T03:40:55.000Z</time>
      </trkpt>
      <trkpt lat="3.6299443524330854" lon="-76.17404501885176">
        <ele>1788.6</ele>
        <time>2022-10-23T03:41:11.000Z</time>
      </trkpt>
      <trkpt lat="3.629973353818059" lon="-76.17404853925109">
        <ele>1789</ele>
        <time>2022-10-23T03:41:13.000Z</time>
      </trkpt>
      <trkpt lat="3.63000369630754" lon="-76.17404585704207">
        <ele>1789.2</ele>
        <time>2022-10-23T03:41:15.000Z</time>
      </trkpt>
      <trkpt lat="3.63007795996964" lon="-76.17403487674892">
        <ele>1789.8</ele>
        <time>2022-10-23T03:41:20.000Z</time>
      </trkpt>
      <trkpt lat="3.6301269941031933" lon="-76.17403303273022">
        <ele>1790.4</ele>
        <time>2022-10-23T03:41:24.000Z</time>
      </trkpt>
      <trkpt lat="3.6301493737846613" lon="-76.17402833886445">
        <ele>1790.6</ele>
        <time>2022-10-23T03:41:26.000Z</time>
      </trkpt>
      <trkpt lat="3.6302300076931715" lon="-76.17402481846511">
        <ele>1791.2</ele>
        <time>2022-10-23T03:41:32.000Z</time>
      </trkpt>
      <trkpt lat="3.630276694893837" lon="-76.17402037605643">
        <ele>1791.8</ele>
        <time>2022-10-23T03:41:36.000Z</time>
      </trkpt>
      <trkpt lat="3.630412397906184" lon="-76.1739925481379">
        <ele>1792.6</ele>
        <time>2022-10-23T03:41:45.000Z</time>
      </trkpt>
      <trkpt lat="3.6304647009819746" lon="-76.17399380542338">
        <ele>1793.2</ele>
        <time>2022-10-23T03:41:49.000Z</time>
      </trkpt>
      <trkpt lat="3.630530834197998" lon="-76.17400134913623">
        <ele>1793.8</ele>
        <time>2022-10-23T03:41:53.000Z</time>
      </trkpt>
      <trkpt lat="3.6306063551455736" lon="-76.17401953786612">
        <ele>1794.4</ele>
        <time>2022-10-23T03:41:58.000Z</time>
      </trkpt>
      <trkpt lat="3.6306646931916475" lon="-76.17403982207179">
        <ele>1795</ele>
        <time>2022-10-23T03:42:02.000Z</time>
      </trkpt>
      <trkpt lat="3.6307480093091726" lon="-76.17405558004975">
        <ele>1796</ele>
        <time>2022-10-23T03:42:09.000Z</time>
      </trkpt>
      <trkpt lat="3.630767958238721" lon="-76.17404920980334">
        <ele>1796.2</ele>
        <time>2022-10-23T03:42:11.000Z</time>
      </trkpt>
      <trkpt lat="3.630803497508168" lon="-76.17402607575059">
        <ele>1796.8</ele>
        <time>2022-10-23T03:42:15.000Z</time>
      </trkpt>
      <trkpt lat="3.6308216862380505" lon="-76.17400922812521">
        <ele>1797.2</ele>
        <time>2022-10-23T03:42:18.000Z</time>
      </trkpt>
      <trkpt lat="3.6308366898447275" lon="-76.1739912070334">
        <ele>1797.6</ele>
        <time>2022-10-23T03:42:21.000Z</time>
      </trkpt>
      <trkpt lat="3.6308393720537424" lon="-76.17397326976061">
        <ele>1798</ele>
        <time>2022-10-23T03:42:23.000Z</time>
      </trkpt>
      <trkpt lat="3.630837192758918" lon="-76.17395432665944">
        <ele>1798.2</ele>
        <time>2022-10-23T03:42:25.000Z</time>
      </trkpt>
      <trkpt lat="3.630802407860756" lon="-76.17391434498131">
        <ele>1799.4</ele>
        <time>2022-10-23T03:42:33.000Z</time>
      </trkpt>
      <trkpt lat="3.6307480093091726" lon="-76.17387687787414">
        <ele>1800.2</ele>
        <time>2022-10-23T03:42:40.000Z</time>
      </trkpt>
      <trkpt lat="3.630701657384634" lon="-76.17384737357497">
        <ele>1800.6</ele>
        <time>2022-10-23T03:42:45.000Z</time>
      </trkpt>
      <trkpt lat="3.630683133378625" lon="-76.17383086122572">
        <ele>1800.8</ele>
        <time>2022-10-23T03:42:47.000Z</time>
      </trkpt>
      <trkpt lat="3.6306263878941536" lon="-76.1738112475723">
        <ele>1801.4</ele>
        <time>2022-10-23T03:42:52.000Z</time>
      </trkpt>
      <trkpt lat="3.6305928602814674" lon="-76.17380387149751">
        <ele>1801.6</ele>
        <time>2022-10-23T03:42:55.000Z</time>
      </trkpt>
      <trkpt lat="3.6305471789091825" lon="-76.17380554787815">
        <ele>1802</ele>
        <time>2022-10-23T03:42:58.000Z</time>
      </trkpt>
      <trkpt lat="3.630524715408683" lon="-76.17379322648048">
        <ele>1802.4</ele>
        <time>2022-10-23T03:43:00.000Z</time>
      </trkpt>
      <trkpt lat="3.630480458959937" lon="-76.1737803183496">
        <ele>1803</ele>
        <time>2022-10-23T03:43:04.000Z</time>
      </trkpt>
      <trkpt lat="3.630451373755932" lon="-76.17375031113625">
        <ele>1803.4</ele>
        <time>2022-10-23T03:43:07.000Z</time>
      </trkpt>
      <trkpt lat="3.630417175590992" lon="-76.17374176159501">
        <ele>1803.6</ele>
        <time>2022-10-23T03:43:10.000Z</time>
      </trkpt>
      <trkpt lat="3.6303885094821453" lon="-76.17372524924576">
        <ele>1804</ele>
        <time>2022-10-23T03:43:13.000Z</time>
      </trkpt>
      <trkpt lat="3.6303654592484236" lon="-76.17372726090252">
        <ele>1804.2</ele>
        <time>2022-10-23T03:43:15.000Z</time>
      </trkpt>
      <trkpt lat="3.630340648815036" lon="-76.17371234111488">
        <ele>1804.6</ele>
        <time>2022-10-23T03:43:17.000Z</time>
      </trkpt>
      <trkpt lat="3.6303178500384092" lon="-76.1737042106688">
        <ele>1804.8</ele>
        <time>2022-10-23T03:43:19.000Z</time>
      </trkpt>
      <trkpt lat="3.630281975492835" lon="-76.17370354011655">
        <ele>1805</ele>
        <time>2022-10-23T03:43:22.000Z</time>
      </trkpt>
      <trkpt lat="3.63025289028883" lon="-76.1737010255456">
        <ele>1805.2</ele>
        <time>2022-10-23T03:43:24.000Z</time>
      </trkpt>
      <trkpt lat="3.630190948024392" lon="-76.17368275299668">
        <ele>1805.6</ele>
        <time>2022-10-23T03:43:29.000Z</time>
      </trkpt>
      <trkpt lat="3.6301451828330755" lon="-76.17364352568984">
        <ele>1806</ele>
        <time>2022-10-23T03:43:33.000Z</time>
      </trkpt>
      <trkpt lat="3.6300938855856657" lon="-76.17361083626747">
        <ele>1806.6</ele>
        <time>2022-10-23T03:43:38.000Z</time>
      </trkpt>
      <trkpt lat="3.6300586815923452" lon="-76.17359750904143">
        <ele>1807</ele>
        <time>2022-10-23T03:43:41.000Z</time>
      </trkpt>
      <trkpt lat="3.6300353799015284" lon="-76.17357621900737">
        <ele>1807.2</ele>
        <time>2022-10-23T03:43:43.000Z</time>
      </trkpt>
      <trkpt lat="3.6299425084143877" lon="-76.17353732697666">
        <ele>1808.2</ele>
        <time>2022-10-23T03:43:52.000Z</time>
      </trkpt>
      <trkpt lat="3.629911495372653" lon="-76.17352701723576">
        <ele>1808.4</ele>
        <time>2022-10-23T03:43:54.000Z</time>
      </trkpt>
      <trkpt lat="3.6298868525773287" lon="-76.1735075712204">
        <ele>1808.6</ele>
        <time>2022-10-23T03:43:56.000Z</time>
      </trkpt>
      <trkpt lat="3.629752993583679" lon="-76.17337002418935">
        <ele>1810</ele>
        <time>2022-10-23T03:44:12.000Z</time>
      </trkpt>
      <trkpt lat="3.6297116708010435" lon="-76.17333783768117">
        <ele>1810.4</ele>
        <time>2022-10-23T03:44:16.000Z</time>
      </trkpt>
      <trkpt lat="3.6296774726361036" lon="-76.1733035556972">
        <ele>1810.6</ele>
        <time>2022-10-23T03:44:19.000Z</time>
      </trkpt>
      <trkpt lat="3.629644699394703" lon="-76.17327732034028">
        <ele>1811</ele>
        <time>2022-10-23T03:44:22.000Z</time>
      </trkpt>
      <trkpt lat="3.6296173743903637" lon="-76.17324471473694">
        <ele>1811.2</ele>
        <time>2022-10-23T03:44:25.000Z</time>
      </trkpt>
      <trkpt lat="3.6295288614928722" lon="-76.1731692776084">
        <ele>1812.2</ele>
        <time>2022-10-23T03:44:33.000Z</time>
      </trkpt>
      <trkpt lat="3.629507403820753" lon="-76.17315134033561">
        <ele>1812.4</ele>
        <time>2022-10-23T03:44:35.000Z</time>
      </trkpt>
      <trkpt lat="3.6294831801205873" lon="-76.17313524708152">
        <ele>1812.6</ele>
        <time>2022-10-23T03:44:37.000Z</time>
      </trkpt>
      <trkpt lat="3.629452334716916" lon="-76.1731330677867">
        <ele>1812.8</ele>
        <time>2022-10-23T03:44:39.000Z</time>
      </trkpt>
      <trkpt lat="3.629357200115919" lon="-76.1731502506882">
        <ele>1813.6</ele>
        <time>2022-10-23T03:44:47.000Z</time>
      </trkpt>
      <trkpt lat="3.6293169669806957" lon="-76.17314882576466">
        <ele>1813.8</ele>
        <time>2022-10-23T03:44:50.000Z</time>
      </trkpt>
      <trkpt lat="3.6292386800050735" lon="-76.17312233895063">
        <ele>1814.6</ele>
        <time>2022-10-23T03:44:58.000Z</time>
      </trkpt>
      <trkpt lat="3.629199368879199" lon="-76.17310406640172">
        <ele>1814.8</ele>
        <time>2022-10-23T03:45:01.000Z</time>
      </trkpt>
      <trkpt lat="3.629139857366681" lon="-76.17307833395898">
        <ele>1815.2</ele>
        <time>2022-10-23T03:45:06.000Z</time>
      </trkpt>
      <trkpt lat="3.62911194562912" lon="-76.17307280190289">
        <ele>1815.4</ele>
        <time>2022-10-23T03:45:08.000Z</time>
      </trkpt>
      <trkpt lat="3.629076909273863" lon="-76.17306056432426">
        <ele>1815.8</ele>
        <time>2022-10-23T03:45:11.000Z</time>
      </trkpt>
      <trkpt lat="3.6290101893246174" lon="-76.17303499951959">
        <ele>1816.6</ele>
        <time>2022-10-23T03:45:17.000Z</time>
      </trkpt>
      <trkpt lat="3.628949336707592" lon="-76.17299937643111">
        <ele>1817.4</ele>
        <time>2022-10-23T03:45:23.000Z</time>
      </trkpt>
      <trkpt lat="3.6289288848638535" lon="-76.17298873141408">
        <ele>1817.6</ele>
        <time>2022-10-23T03:45:25.000Z</time>
      </trkpt>
      <trkpt lat="3.6288814432919025" lon="-76.17298051714897">
        <ele>1818</ele>
        <time>2022-10-23T03:45:29.000Z</time>
      </trkpt>
      <trkpt lat="3.6288184113800526" lon="-76.1729565449059">
        <ele>1818.6</ele>
        <time>2022-10-23T03:45:34.000Z</time>
      </trkpt>
      <trkpt lat="3.6288003902882338" lon="-76.17294087074697">
        <ele>1818.8</ele>
        <time>2022-10-23T03:45:36.000Z</time>
      </trkpt>
      <trkpt lat="3.6287519428879023" lon="-76.1729148030281">
        <ele>1819.4</ele>
        <time>2022-10-23T03:45:41.000Z</time>
      </trkpt>
      <trkpt lat="3.628717912361026" lon="-76.17289870977402">
        <ele>1819.8</ele>
        <time>2022-10-23T03:45:44.000Z</time>
      </trkpt>
      <trkpt lat="3.6286973766982555" lon="-76.17288454435766">
        <ele>1820</ele>
        <time>2022-10-23T03:45:46.000Z</time>
      </trkpt>
      <trkpt lat="3.6286117136478424" lon="-76.17281455546618">
        <ele>1821.2</ele>
        <time>2022-10-23T03:45:55.000Z</time>
      </trkpt>
      <trkpt lat="3.628575336188078" lon="-76.17278404533863">
        <ele>1821.6</ele>
        <time>2022-10-23T03:45:59.000Z</time>
      </trkpt>
      <trkpt lat="3.6285291519016027" lon="-76.17278035730124">
        <ele>1822</ele>
        <time>2022-10-23T03:46:02.000Z</time>
      </trkpt>
      <trkpt lat="3.6284933611750603" lon="-76.1727662757039">
        <ele>1822.4</ele>
        <time>2022-10-23T03:46:05.000Z</time>
      </trkpt>
      <trkpt lat="3.6284214444458485" lon="-76.17270927876234">
        <ele>1823.4</ele>
        <time>2022-10-23T03:46:13.000Z</time>
      </trkpt>
      <trkpt lat="3.6283798702061176" lon="-76.17267625406384">
        <ele>1823.8</ele>
        <time>2022-10-23T03:46:17.000Z</time>
      </trkpt>
      <trkpt lat="3.628333183005452" lon="-76.1726267170161">
        <ele>1824.4</ele>
        <time>2022-10-23T03:46:22.000Z</time>
      </trkpt>
      <trkpt lat="3.6283069476485252" lon="-76.17261724546552">
        <ele>1824.8</ele>
        <time>2022-10-23T03:46:24.000Z</time>
      </trkpt>
      <trkpt lat="3.628233354538679" lon="-76.17258371785283">
        <ele>1825.4</ele>
        <time>2022-10-23T03:46:29.000Z</time>
      </trkpt>
      <trkpt lat="3.6281947139650583" lon="-76.1725730728358">
        <ele>1826</ele>
        <time>2022-10-23T03:46:32.000Z</time>
      </trkpt>
      <trkpt lat="3.628147356212139" lon="-76.17255287244916">
        <ele>1826.4</ele>
        <time>2022-10-23T03:46:36.000Z</time>
      </trkpt>
      <trkpt lat="3.628123886883259" lon="-76.17253175005317">
        <ele>1826.6</ele>
        <time>2022-10-23T03:46:38.000Z</time>
      </trkpt>
      <trkpt lat="3.627990446984768" lon="-76.1724937800318">
        <ele>1827.4</ele>
        <time>2022-10-23T03:46:47.000Z</time>
      </trkpt>
      <trkpt lat="3.627949459478259" lon="-76.17248573340476">
        <ele>1827.6</ele>
        <time>2022-10-23T03:46:49.000Z</time>
      </trkpt>
      <trkpt lat="3.6279084719717503" lon="-76.1724745016545">
        <ele>1827.8</ele>
        <time>2022-10-23T03:46:51.000Z</time>
      </trkpt>
      <trkpt lat="3.6278436798602343" lon="-76.17245656438172">
        <ele>1828.4</ele>
        <time>2022-10-23T03:46:55.000Z</time>
      </trkpt>
      <trkpt lat="3.627802189439535" lon="-76.17244583554566">
        <ele>1829</ele>
        <time>2022-10-23T03:46:58.000Z</time>
      </trkpt>
      <trkpt lat="3.627780480310321" lon="-76.17243334650993">
        <ele>1829.2</ele>
        <time>2022-10-23T03:47:00.000Z</time>
      </trkpt>
      <trkpt lat="3.627764470875263" lon="-76.17241306230426">
        <ele>1829.6</ele>
        <time>2022-10-23T03:47:02.000Z</time>
      </trkpt>
      <trkpt lat="3.6277202144265175" lon="-76.1723420675844">
        <ele>1830</ele>
        <time>2022-10-23T03:47:07.000Z</time>
      </trkpt>
      <trkpt lat="3.6276919674128294" lon="-76.17228087969124">
        <ele>1830.2</ele>
        <time>2022-10-23T03:47:11.000Z</time>
      </trkpt>
      <trkpt lat="3.6276757065206766" lon="-76.17224651388824">
        <ele>1830.4</ele>
        <time>2022-10-23T03:47:13.000Z</time>
      </trkpt>
      <trkpt lat="3.6276539135724306" lon="-76.17220301181078">
        <ele>1830.8</ele>
        <time>2022-10-23T03:47:16.000Z</time>
      </trkpt>
      <trkpt lat="3.627631450071931" lon="-76.1721623595804">
        <ele>1831.2</ele>
        <time>2022-10-23T03:47:20.000Z</time>
      </trkpt>
      <trkpt lat="3.6276086512953043" lon="-76.17214584723115">
        <ele>1831.6</ele>
        <time>2022-10-23T03:47:22.000Z</time>
      </trkpt>
      <trkpt lat="3.6275898758322" lon="-76.17212656885386">
        <ele>1831.8</ele>
        <time>2022-10-23T03:47:24.000Z</time>
      </trkpt>
      <trkpt lat="3.627527179196477" lon="-76.17206370458007">
        <ele>1832.6</ele>
        <time>2022-10-23T03:47:31.000Z</time>
      </trkpt>
      <trkpt lat="3.6275120079517365" lon="-76.1720413248986">
        <ele>1832.8</ele>
        <time>2022-10-23T03:47:33.000Z</time>
      </trkpt>
      <trkpt lat="3.6274958308786154" lon="-76.17201332934201">
        <ele>1833.2</ele>
        <time>2022-10-23T03:47:36.000Z</time>
      </trkpt>
      <trkpt lat="3.6273723654448986" lon="-76.17192506790161">
        <ele>1834.2</ele>
        <time>2022-10-23T03:47:48.000Z</time>
      </trkpt>
      <trkpt lat="3.627332132309675" lon="-76.17190084420145">
        <ele>1834.6</ele>
        <time>2022-10-23T03:47:51.000Z</time>
      </trkpt>
      <trkpt lat="3.6272820085287094" lon="-76.17188307456672">
        <ele>1835</ele>
        <time>2022-10-23T03:47:55.000Z</time>
      </trkpt>
      <trkpt lat="3.627208163961768" lon="-76.1718235630542">
        <ele>1835.4</ele>
        <time>2022-10-23T03:48:01.000Z</time>
      </trkpt>
      <trkpt lat="3.627185197547078" lon="-76.17180780507624">
        <ele>1835.6</ele>
        <time>2022-10-23T03:48:03.000Z</time>
      </trkpt>
      <trkpt lat="3.627141695469618" lon="-76.17176723666489">
        <ele>1836</ele>
        <time>2022-10-23T03:48:08.000Z</time>
      </trkpt>
      <trkpt lat="3.6271261889487505" lon="-76.17174301296473">
        <ele>1836.2</ele>
        <time>2022-10-23T03:48:10.000Z</time>
      </trkpt>
      <trkpt lat="3.627102468162775" lon="-76.1717202141881">
        <ele>1836.6</ele>
        <time>2022-10-23T03:48:12.000Z</time>
      </trkpt>
      <trkpt lat="3.6270734667778015" lon="-76.17169322445989">
        <ele>1836.8</ele>
        <time>2022-10-23T03:48:15.000Z</time>
      </trkpt>
      <trkpt lat="3.6270534340292215" lon="-76.17166883312166">
        <ele>1837</ele>
        <time>2022-10-23T03:48:17.000Z</time>
      </trkpt>
      <trkpt lat="3.6270168889313936" lon="-76.17164100520313">
        <ele>1837.4</ele>
        <time>2022-10-23T03:48:20.000Z</time>
      </trkpt>
      <trkpt lat="3.626989647746086" lon="-76.17162600159645">
        <ele>1837.6</ele>
        <time>2022-10-23T03:48:22.000Z</time>
      </trkpt>
      <trkpt lat="3.626884203404188" lon="-76.17155534215271">
        <ele>1838.4</ele>
        <time>2022-10-23T03:48:31.000Z</time>
      </trkpt>
      <trkpt lat="3.626848664134741" lon="-76.17152382619679">
        <ele>1838.8</ele>
        <time>2022-10-23T03:48:34.000Z</time>
      </trkpt>
      <trkpt lat="3.626726372167468" lon="-76.17144277319312">
        <ele>1839.8</ele>
        <time>2022-10-23T03:48:46.000Z</time>
      </trkpt>
      <trkpt lat="3.6267041601240635" lon="-76.17143221199512">
        <ele>1840</ele>
        <time>2022-10-23T03:48:48.000Z</time>
      </trkpt>
      <trkpt lat="3.626680690795183" lon="-76.17140404880047">
        <ele>1840.2</ele>
        <time>2022-10-23T03:48:51.000Z</time>
      </trkpt>
      <trkpt lat="3.626663675531745" lon="-76.17139549925923">
        <ele>1840.4</ele>
        <time>2022-10-23T03:48:53.000Z</time>
      </trkpt>
      <trkpt lat="3.6266084387898445" lon="-76.1713470518589">
        <ele>1841.2</ele>
        <time>2022-10-23T03:49:01.000Z</time>
      </trkpt>
      <trkpt lat="3.6265718936920166" lon="-76.1713037174195">
        <ele>1841.6</ele>
        <time>2022-10-23T03:49:06.000Z</time>
      </trkpt>
      <trkpt lat="3.6265151482075453" lon="-76.17124705575407">
        <ele>1842.4</ele>
        <time>2022-10-23T03:49:13.000Z</time>
      </trkpt>
      <trkpt lat="3.626497210934758" lon="-76.17123305797577">
        <ele>1842.4</ele>
        <time>2022-10-23T03:49:15.000Z</time>
      </trkpt>
      <trkpt lat="3.62646846100688" lon="-76.17121076211333">
        <ele>1842.8</ele>
        <time>2022-10-23T03:49:18.000Z</time>
      </trkpt>
      <trkpt lat="3.6264431476593018" lon="-76.17118100635707">
        <ele>1843</ele>
        <time>2022-10-23T03:49:21.000Z</time>
      </trkpt>
      <trkpt lat="3.6264119669795036" lon="-76.17116650566459">
        <ele>1843.4</ele>
        <time>2022-10-23T03:49:24.000Z</time>
      </trkpt>
      <trkpt lat="3.626370644196868" lon="-76.17113607935607">
        <ele>1844</ele>
        <time>2022-10-23T03:49:28.000Z</time>
      </trkpt>
      <trkpt lat="3.6263389606028795" lon="-76.17112074047327">
        <ele>1844.2</ele>
        <time>2022-10-23T03:49:30.000Z</time>
      </trkpt>
      <trkpt lat="3.6263204365968704" lon="-76.17109986953437">
        <ele>1844.4</ele>
        <time>2022-10-23T03:49:32.000Z</time>
      </trkpt>
      <trkpt lat="3.6262761801481247" lon="-76.17106474936008">
        <ele>1845</ele>
        <time>2022-10-23T03:49:36.000Z</time>
      </trkpt>
      <trkpt lat="3.6262256372720003" lon="-76.17103532887995">
        <ele>1845.4</ele>
        <time>2022-10-23T03:49:40.000Z</time>
      </trkpt>
      <trkpt lat="3.6261878348886967" lon="-76.17100833915174">
        <ele>1845.8</ele>
        <time>2022-10-23T03:49:43.000Z</time>
      </trkpt>
      <trkpt lat="3.626146176829934" lon="-76.17100431583822">
        <ele>1846.2</ele>
        <time>2022-10-23T03:49:46.000Z</time>
      </trkpt>
      <trkpt lat="3.626111475750804" lon="-76.17097221314907">
        <ele>1846.6</ele>
        <time>2022-10-23T03:49:50.000Z</time>
      </trkpt>
      <trkpt lat="3.6260759364813566" lon="-76.1709397751838">
        <ele>1847</ele>
        <time>2022-10-23T03:49:53.000Z</time>
      </trkpt>
      <trkpt lat="3.626026902347803" lon="-76.17092669941485">
        <ele>1847.4</ele>
        <time>2022-10-23T03:49:57.000Z</time>
      </trkpt>
      <trkpt lat="3.6259834840893745" lon="-76.17091873660684">
        <ele>1847.8</ele>
        <time>2022-10-23T03:50:00.000Z</time>
      </trkpt>
      <trkpt lat="3.625927995890379" lon="-76.17089954204857">
        <ele>1848.2</ele>
        <time>2022-10-23T03:50:04.000Z</time>
      </trkpt>
      <trkpt lat="3.625869657844305" lon="-76.17088353261352">
        <ele>1848.6</ele>
        <time>2022-10-23T03:50:08.000Z</time>
      </trkpt>
      <trkpt lat="3.625797489657998" lon="-76.17084472440183">
        <ele>1849.4</ele>
        <time>2022-10-23T03:50:13.000Z</time>
      </trkpt>
      <trkpt lat="3.6257313564419746" lon="-76.17081781849265">
        <ele>1850</ele>
        <time>2022-10-23T03:50:18.000Z</time>
      </trkpt>
      <trkpt lat="3.6256192065775394" lon="-76.1707635037601">
        <ele>1851.2</ele>
        <time>2022-10-23T03:50:27.000Z</time>
      </trkpt>
      <trkpt lat="3.6255614552646875" lon="-76.17071237415075">
        <ele>1851.8</ele>
        <time>2022-10-23T03:50:32.000Z</time>
      </trkpt>
      <trkpt lat="3.6255219765007496" lon="-76.17069125175476">
        <ele>1852.2</ele>
        <time>2022-10-23T03:50:35.000Z</time>
      </trkpt>
      <trkpt lat="3.625474199652672" lon="-76.17065973579884">
        <ele>1852.8</ele>
        <time>2022-10-23T03:50:39.000Z</time>
      </trkpt>
      <trkpt lat="3.6254421807825565" lon="-76.17063777521253">
        <ele>1853</ele>
        <time>2022-10-23T03:50:42.000Z</time>
      </trkpt>
      <trkpt lat="3.6253918893635273" lon="-76.17060936056077">
        <ele>1853.6</ele>
        <time>2022-10-23T03:50:47.000Z</time>
      </trkpt>
      <trkpt lat="3.625343693420291" lon="-76.1706083547324">
        <ele>1854</ele>
        <time>2022-10-23T03:50:50.000Z</time>
      </trkpt>
      <trkpt lat="3.6253094114363194" lon="-76.17060751654208">
        <ele>1854.2</ele>
        <time>2022-10-23T03:50:52.000Z</time>
      </trkpt>
      <trkpt lat="3.625250654295087" lon="-76.1705840472132">
        <ele>1854.8</ele>
        <time>2022-10-23T03:50:56.000Z</time>
      </trkpt>
      <trkpt lat="3.62519315443933" lon="-76.17056627757847">
        <ele>1855.2</ele>
        <time>2022-10-23T03:51:00.000Z</time>
      </trkpt>
      <trkpt lat="3.6251453775912523" lon="-76.17055370472372">
        <ele>1855.6</ele>
        <time>2022-10-23T03:51:03.000Z</time>
      </trkpt>
      <trkpt lat="3.6250820104032755" lon="-76.17052202112973">
        <ele>1856.4</ele>
        <time>2022-10-23T03:51:09.000Z</time>
      </trkpt>
      <trkpt lat="3.625046471133828" lon="-76.17051757872105">
        <ele>1856.6</ele>
        <time>2022-10-23T03:51:12.000Z</time>
      </trkpt>
      <trkpt lat="3.6249826848506927" lon="-76.17051875218749">
        <ele>1857.2</ele>
        <time>2022-10-23T03:51:16.000Z</time>
      </trkpt>
      <trkpt lat="3.6249579582363367" lon="-76.1705013178289">
        <ele>1857.4</ele>
        <time>2022-10-23T03:51:18.000Z</time>
      </trkpt>
      <trkpt lat="3.6248461436480284" lon="-76.17040635086596">
        <ele>1858.8</ele>
        <time>2022-10-23T03:51:29.000Z</time>
      </trkpt>
      <trkpt lat="3.6247969418764114" lon="-76.1703752540052">
        <ele>1859.2</ele>
        <time>2022-10-23T03:51:33.000Z</time>
      </trkpt>
      <trkpt lat="3.6247444711625576" lon="-76.17035027593374">
        <ele>1859.6</ele>
        <time>2022-10-23T03:51:37.000Z</time>
      </trkpt>
      <trkpt lat="3.6247173976153135" lon="-76.17033175192773">
        <ele>1860</ele>
        <time>2022-10-23T03:51:40.000Z</time>
      </trkpt>
      <trkpt lat="3.62466249614954" lon="-76.17032974027097">
        <ele>1860.2</ele>
        <time>2022-10-23T03:51:44.000Z</time>
      </trkpt>
      <trkpt lat="3.6246338300406933" lon="-76.17032554931939">
        <ele>1860.4</ele>
        <time>2022-10-23T03:51:46.000Z</time>
      </trkpt>
      <trkpt lat="3.6246051639318466" lon="-76.17031557485461">
        <ele>1860.8</ele>
        <time>2022-10-23T03:51:48.000Z</time>
      </trkpt>
      <trkpt lat="3.624559147283435" lon="-76.17031071335077">
        <ele>1861.2</ele>
        <time>2022-10-23T03:51:52.000Z</time>
      </trkpt>
      <trkpt lat="3.6245076823979616" lon="-76.17029772140086">
        <ele>1861.8</ele>
        <time>2022-10-23T03:51:57.000Z</time>
      </trkpt>
      <trkpt lat="3.624406009912491" lon="-76.17028456181288">
        <ele>1863</ele>
        <time>2022-10-23T03:52:04.000Z</time>
      </trkpt>
      <trkpt lat="3.6243568919599056" lon="-76.17028799839318">
        <ele>1863.4</ele>
        <time>2022-10-23T03:52:07.000Z</time>
      </trkpt>
      <trkpt lat="3.624230409041047" lon="-76.1702542193234">
        <ele>1864.6</ele>
        <time>2022-10-23T03:52:15.000Z</time>
      </trkpt>
      <trkpt lat="3.624198976904154" lon="-76.17022823542356">
        <ele>1864.8</ele>
        <time>2022-10-23T03:52:18.000Z</time>
      </trkpt>
      <trkpt lat="3.624165952205658" lon="-76.17020183242857">
        <ele>1865.2</ele>
        <time>2022-10-23T03:52:22.000Z</time>
      </trkpt>
      <trkpt lat="3.624156480655074" lon="-76.17018749937415">
        <ele>1865.4</ele>
        <time>2022-10-23T03:52:24.000Z</time>
      </trkpt>
      <trkpt lat="3.624142985790968" lon="-76.17017056792974">
        <ele>1865.6</ele>
        <time>2022-10-23T03:52:27.000Z</time>
      </trkpt>
      <trkpt lat="3.624139130115509" lon="-76.17015372030437">
        <ele>1865.8</ele>
        <time>2022-10-23T03:52:29.000Z</time>
      </trkpt>
      <trkpt lat="3.6241354420781136" lon="-76.17012480273843">
        <ele>1866</ele>
        <time>2022-10-23T03:52:32.000Z</time>
      </trkpt>
      <trkpt lat="3.62413820810616" lon="-76.17007786408067">
        <ele>1866.6</ele>
        <time>2022-10-23T03:52:38.000Z</time>
      </trkpt>
      <trkpt lat="3.624142985790968" lon="-76.17004735395312">
        <ele>1867.2</ele>
        <time>2022-10-23T03:52:42.000Z</time>
      </trkpt>
      <trkpt lat="3.6241471767425537" lon="-76.16999723017216">
        <ele>1868</ele>
        <time>2022-10-23T03:52:48.000Z</time>
      </trkpt>
      <trkpt lat="3.6241463385522366" lon="-76.16992137394845">
        <ele>1869.4</ele>
        <time>2022-10-23T03:52:58.000Z</time>
      </trkpt>
      <trkpt lat="3.6241672094911337" lon="-76.16985733620822">
        <ele>1870.4</ele>
        <time>2022-10-23T03:53:06.000Z</time>
      </trkpt>
      <trkpt lat="3.6241751722991467" lon="-76.16982473060489">
        <ele>1870.8</ele>
        <time>2022-10-23T03:53:09.000Z</time>
      </trkpt>
      <trkpt lat="3.6241861525923014" lon="-76.16978500038385">
        <ele>1871.4</ele>
        <time>2022-10-23T03:53:13.000Z</time>
      </trkpt>
      <trkpt lat="3.6241866555064917" lon="-76.16976035758853">
        <ele>1871.4</ele>
        <time>2022-10-23T03:53:15.000Z</time>
      </trkpt>
      <trkpt lat="3.624195707961917" lon="-76.16972984746099">
        <ele>1871.8</ele>
        <time>2022-10-23T03:53:18.000Z</time>
      </trkpt>
      <trkpt lat="3.624198390170932" lon="-76.16970771923661">
        <ele>1872</ele>
        <time>2022-10-23T03:53:20.000Z</time>
      </trkpt>
      <trkpt lat="3.6241900082677603" lon="-76.16962901316583">
        <ele>1872.6</ele>
        <time>2022-10-23T03:53:26.000Z</time>
      </trkpt>
      <trkpt lat="3.624175004661083" lon="-76.1695927195251">
        <ele>1873.2</ele>
        <time>2022-10-23T03:53:29.000Z</time>
      </trkpt>
      <trkpt lat="3.6241548880934715" lon="-76.16957821883261">
        <ele>1873.4</ele>
        <time>2022-10-23T03:53:31.000Z</time>
      </trkpt>
      <trkpt lat="3.6241189297288656" lon="-76.16955131292343">
        <ele>1873.8</ele>
        <time>2022-10-23T03:53:34.000Z</time>
      </trkpt>
      <trkpt lat="3.6241069436073303" lon="-76.1695285141468">
        <ele>1874</ele>
        <time>2022-10-23T03:53:36.000Z</time>
      </trkpt>
      <trkpt lat="3.624083139002323" lon="-76.16951074451208">
        <ele>1874.2</ele>
        <time>2022-10-23T03:53:38.000Z</time>
      </trkpt>
      <trkpt lat="3.6240479350090027" lon="-76.16947403177619">
        <ele>1874.6</ele>
        <time>2022-10-23T03:53:42.000Z</time>
      </trkpt>
      <trkpt lat="3.6240232083946466" lon="-76.16943220607936">
        <ele>1875</ele>
        <time>2022-10-23T03:53:45.000Z</time>
      </trkpt>
      <trkpt lat="3.6240035109221935" lon="-76.16941099986434">
        <ele>1875.2</ele>
        <time>2022-10-23T03:53:47.000Z</time>
      </trkpt>
      <trkpt lat="3.623974174261093" lon="-76.1693717725575">
        <ele>1875.6</ele>
        <time>2022-10-23T03:53:50.000Z</time>
      </trkpt>
      <trkpt lat="3.6239389702677727" lon="-76.16930983029306">
        <ele>1876.2</ele>
        <time>2022-10-23T03:53:54.000Z</time>
      </trkpt>
      <trkpt lat="3.623908208683133" lon="-76.16928284056485">
        <ele>1876.4</ele>
        <time>2022-10-23T03:53:56.000Z</time>
      </trkpt>
      <trkpt lat="3.6238642036914825" lon="-76.16925274953246">
        <ele>1876.8</ele>
        <time>2022-10-23T03:53:59.000Z</time>
      </trkpt>
      <trkpt lat="3.623798405751586" lon="-76.16922131739557">
        <ele>1877.2</ele>
        <time>2022-10-23T03:54:03.000Z</time>
      </trkpt>
      <trkpt lat="3.623720873147249" lon="-76.1691957525909">
        <ele>1878</ele>
        <time>2022-10-23T03:54:08.000Z</time>
      </trkpt>
      <trkpt lat="3.6236963979899883" lon="-76.1691675055772">
        <ele>1878.2</ele>
        <time>2022-10-23T03:54:10.000Z</time>
      </trkpt>
      <trkpt lat="3.6236521415412426" lon="-76.16913582198322">
        <ele>1878.8</ele>
        <time>2022-10-23T03:54:14.000Z</time>
      </trkpt>
      <trkpt lat="3.623615512624383" lon="-76.16912031546235">
        <ele>1879</ele>
        <time>2022-10-23T03:54:17.000Z</time>
      </trkpt>
      <trkpt lat="3.62359288148582" lon="-76.1691077426076">
        <ele>1879.2</ele>
        <time>2022-10-23T03:54:19.000Z</time>
      </trkpt>
      <trkpt lat="3.623565975576639" lon="-76.16908930242062">
        <ele>1879.4</ele>
        <time>2022-10-23T03:54:21.000Z</time>
      </trkpt>
      <trkpt lat="3.623522389680147" lon="-76.16905124858022">
        <ele>1879.8</ele>
        <time>2022-10-23T03:54:25.000Z</time>
      </trkpt>
      <trkpt lat="3.6234555020928383" lon="-76.16900372318923">
        <ele>1880.2</ele>
        <time>2022-10-23T03:54:31.000Z</time>
      </trkpt>
      <trkpt lat="3.6234086472541094" lon="-76.16895351558924">
        <ele>1880.6</ele>
        <time>2022-10-23T03:54:36.000Z</time>
      </trkpt>
      <trkpt lat="3.6233850102871656" lon="-76.1689193174243">
        <ele>1880.8</ele>
        <time>2022-10-23T03:54:38.000Z</time>
      </trkpt>
      <trkpt lat="3.623326001688838" lon="-76.16879526525736">
        <ele>1881.6</ele>
        <time>2022-10-23T03:54:45.000Z</time>
      </trkpt>
      <trkpt lat="3.623252995312214" lon="-76.16866283118725">
        <ele>1883</ele>
        <time>2022-10-23T03:54:54.000Z</time>
      </trkpt>
      <trkpt lat="3.6232381593436003" lon="-76.16862435825169">
        <ele>1883.4</ele>
        <time>2022-10-23T03:54:57.000Z</time>
      </trkpt>
      <trkpt lat="3.6232348904013634" lon="-76.16859401576221">
        <ele>1883.6</ele>
        <time>2022-10-23T03:54:59.000Z</time>
      </trkpt>
      <trkpt lat="3.623222904279828" lon="-76.1685619968921">
        <ele>1883.8</ele>
        <time>2022-10-23T03:55:01.000Z</time>
      </trkpt>
      <trkpt lat="3.6232053861021996" lon="-76.168516818434">
        <ele>1884</ele>
        <time>2022-10-23T03:55:04.000Z</time>
      </trkpt>
      <trkpt lat="3.623186443001032" lon="-76.16843920201063">
        <ele>1884.6</ele>
        <time>2022-10-23T03:55:11.000Z</time>
      </trkpt>
      <trkpt lat="3.6231788992881775" lon="-76.1684047523886">
        <ele>1884.8</ele>
        <time>2022-10-23T03:55:13.000Z</time>
      </trkpt>
      <trkpt lat="3.6231603752821684" lon="-76.16832906380296">
        <ele>1885.2</ele>
        <time>2022-10-23T03:55:18.000Z</time>
      </trkpt>
      <trkpt lat="3.623122153803706" lon="-76.16823401302099">
        <ele>1886.2</ele>
        <time>2022-10-23T03:55:27.000Z</time>
      </trkpt>
      <trkpt lat="3.6230976786464453" lon="-76.16819134913385">
        <ele>1886.8</ele>
        <time>2022-10-23T03:55:30.000Z</time>
      </trkpt>
      <trkpt lat="3.623037999495864" lon="-76.16814273409545">
        <ele>1887.6</ele>
        <time>2022-10-23T03:55:34.000Z</time>
      </trkpt>
      <trkpt lat="3.6229934077709913" lon="-76.16811884567142">
        <ele>1888</ele>
        <time>2022-10-23T03:55:37.000Z</time>
      </trkpt>
      <trkpt lat="3.6229433678090572" lon="-76.16810124367476">
        <ele>1888.6</ele>
        <time>2022-10-23T03:55:40.000Z</time>
      </trkpt>
      <trkpt lat="3.62289366312325" lon="-76.1680852342397">
        <ele>1889</ele>
        <time>2022-10-23T03:55:43.000Z</time>
      </trkpt>
      <trkpt lat="3.6228464730083942" lon="-76.16807182319462">
        <ele>1889.4</ele>
        <time>2022-10-23T03:55:46.000Z</time>
      </trkpt>
      <trkpt lat="3.6228064075112343" lon="-76.1680540535599">
        <ele>1890</ele>
        <time>2022-10-23T03:55:49.000Z</time>
      </trkpt>
      <trkpt lat="3.622789392247796" lon="-76.16803754121065">
        <ele>1890.4</ele>
        <time>2022-10-23T03:55:51.000Z</time>
      </trkpt>
      <trkpt lat="3.6227277014404535" lon="-76.16803972050548">
        <ele>1890.8</ele>
        <time>2022-10-23T03:55:55.000Z</time>
      </trkpt>
      <trkpt lat="3.6225389409810305" lon="-76.16809906437993">
        <ele>1890.6</ele>
        <time>2022-10-23T03:56:05.000Z</time>
      </trkpt>
      <trkpt lat="3.6223651841282845" lon="-76.16816335357726">
        <ele>1890.6</ele>
        <time>2022-10-23T03:56:16.000Z</time>
      </trkpt>
      <trkpt lat="3.622060166671872" lon="-76.16822286508977">
        <ele>1892.4</ele>
        <time>2022-10-23T03:56:32.000Z</time>
      </trkpt>
      <trkpt lat="3.621824886649847" lon="-76.16830106824636">
        <ele>1893.6</ele>
        <time>2022-10-23T03:56:44.000Z</time>
      </trkpt>
      <trkpt lat="3.6213479563593864" lon="-76.1684787645936">
        <ele>1897.2</ele>
        <time>2022-10-23T03:57:07.000Z</time>
      </trkpt>
      <trkpt lat="3.6212776321917772" lon="-76.16851807571948">
        <ele>1897.4</ele>
        <time>2022-10-23T03:57:35.000Z</time>
      </trkpt>
      <trkpt lat="3.6212539952248335" lon="-76.16852520033717">
        <ele>1897.6</ele>
        <time>2022-10-23T03:57:44.000Z</time>
      </trkpt>
      <trkpt lat="3.6212463676929474" lon="-76.16853525862098">
        <ele>1897.6</ele>
        <time>2022-10-23T03:57:47.000Z</time>
      </trkpt>
      <trkpt lat="3.6212366446852684" lon="-76.16854573599994">
        <ele>1897.6</ele>
        <time>2022-10-23T03:57:51.000Z</time>
      </trkpt>
      <trkpt lat="3.6212266702204943" lon="-76.16854732856154">
        <ele>1897.6</ele>
        <time>2022-10-23T03:57:53.000Z</time>
      </trkpt>
      <trkpt lat="3.621208146214485" lon="-76.16855126805604">
        <ele>1897.6</ele>
        <time>2022-10-23T03:57:57.000Z</time>
      </trkpt>
      <trkpt lat="3.621146706864238" lon="-76.16858253255486">
        <ele>1897.4</ele>
        <time>2022-10-23T03:58:07.000Z</time>
      </trkpt>
      <trkpt lat="3.621136397123337" lon="-76.1685913335532">
        <ele>1897.4</ele>
        <time>2022-10-23T03:58:09.000Z</time>
      </trkpt>
      <trkpt lat="3.621097169816494" lon="-76.16861002519727">
        <ele>1897.4</ele>
        <time>2022-10-23T03:58:15.000Z</time>
      </trkpt>
      <trkpt lat="3.621082166209817" lon="-76.16862352006137">
        <ele>1897.4</ele>
        <time>2022-10-23T03:58:18.000Z</time>
      </trkpt>
      <trkpt lat="3.6210586968809366" lon="-76.16862670518458">
        <ele>1897.4</ele>
        <time>2022-10-23T03:58:23.000Z</time>
      </trkpt>
      <trkpt lat="3.6210439447313547" lon="-76.16862653754652">
        <ele>1897.4</ele>
        <time>2022-10-23T03:58:25.000Z</time>
      </trkpt>
      <trkpt lat="3.621019972488284" lon="-76.16863952949643">
        <ele>1897.4</ele>
        <time>2022-10-23T03:58:29.000Z</time>
      </trkpt>
      <trkpt lat="3.620994659140706" lon="-76.16864531300962">
        <ele>1897.6</ele>
        <time>2022-10-23T03:58:33.000Z</time>
      </trkpt>
      <trkpt lat="3.6209813319146633" lon="-76.16863433271646">
        <ele>1897.6</ele>
        <time>2022-10-23T03:58:35.000Z</time>
      </trkpt>
      <trkpt lat="3.6209158692508936" lon="-76.1685963626951">
        <ele>1897.4</ele>
        <time>2022-10-23T03:58:43.000Z</time>
      </trkpt>
      <trkpt lat="3.6209069006145" lon="-76.16859870962799">
        <ele>1897.4</ele>
        <time>2022-10-23T03:58:47.000Z</time>
      </trkpt>
      <trkpt lat="3.6208994407206774" lon="-76.16860382258892">
        <ele>1897.4</ele>
        <time>2022-10-23T03:58:49.000Z</time>
      </trkpt>
      <trkpt lat="3.620889885351062" lon="-76.16860600188375">
        <ele>1897.4</ele>
        <time>2022-10-23T03:59:12.000Z</time>
      </trkpt>
      <trkpt lat="3.6209309566766024" lon="-76.16863357834518">
        <ele>1897.8</ele>
        <time>2022-10-23T04:02:53.000Z</time>
      </trkpt>
      <trkpt lat="3.6209343932569027" lon="-76.16864724084735">
        <ele>1897.8</ele>
        <time>2022-10-23T04:02:55.000Z</time>
      </trkpt>
      <trkpt lat="3.62095819786191" lon="-76.16857272572815">
        <ele>1927.6</ele>
        <time>2022-10-23T07:21:15.000Z</time>
      </trkpt>
      <trkpt lat="3.620997341349721" lon="-76.16855420172215">
        <ele>1928</ele>
        <time>2022-10-23T07:21:18.000Z</time>
      </trkpt>
      <trkpt lat="3.621039502322674" lon="-76.16855721920729">
        <ele>1927.8</ele>
        <time>2022-10-23T07:21:20.000Z</time>
      </trkpt>
      <trkpt lat="3.6211491376161575" lon="-76.16858772933483">
        <ele>1928</ele>
        <time>2022-10-23T07:21:25.000Z</time>
      </trkpt>
      <trkpt lat="3.621191130951047" lon="-76.16857280954719">
        <ele>1928</ele>
        <time>2022-10-23T07:21:27.000Z</time>
      </trkpt>
      <trkpt lat="3.6213281750679016" lon="-76.1684975400567">
        <ele>1928</ele>
        <time>2022-10-23T07:21:39.000Z</time>
      </trkpt>
      <trkpt lat="3.6213479563593864" lon="-76.16849075071514">
        <ele>1927.8</ele>
        <time>2022-10-23T07:21:41.000Z</time>
      </trkpt>
      <trkpt lat="3.6217124853283167" lon="-76.16836636327207">
        <ele>1925.4</ele>
        <time>2022-10-23T07:21:54.000Z</time>
      </trkpt>
      <trkpt lat="3.62208497710526" lon="-76.16821850650012">
        <ele>1923.4</ele>
        <time>2022-10-23T07:22:04.000Z</time>
      </trkpt>
      <trkpt lat="3.6223978735506535" lon="-76.16810451261699">
        <ele>1921.4</ele>
        <time>2022-10-23T07:22:16.000Z</time>
      </trkpt>
      <trkpt lat="3.6228028871119022" lon="-76.16798473522067">
        <ele>1921.6</ele>
        <time>2022-10-23T07:22:33.000Z</time>
      </trkpt>
      <trkpt lat="3.6230898834764957" lon="-76.16806084290147">
        <ele>1918.4</ele>
        <time>2022-10-23T07:22:43.000Z</time>
      </trkpt>
      <trkpt lat="3.6231177113950253" lon="-76.16811004467309">
        <ele>1917.4</ele>
        <time>2022-10-23T07:22:45.000Z</time>
      </trkpt>
      <trkpt lat="3.623155178502202" lon="-76.16825521923602">
        <ele>1916.2</ele>
        <time>2022-10-23T07:22:49.000Z</time>
      </trkpt>
      <trkpt lat="3.623209912329912" lon="-76.16844180040061">
        <ele>1915.2</ele>
        <time>2022-10-23T07:22:55.000Z</time>
      </trkpt>
      <trkpt lat="3.623217958956957" lon="-76.16849125362933">
        <ele>1915</ele>
        <time>2022-10-23T07:22:57.000Z</time>
      </trkpt>
      <trkpt lat="3.6232933960855007" lon="-76.16869954392314">
        <ele>1912.8</ele>
        <time>2022-10-23T07:23:05.000Z</time>
      </trkpt>
      <trkpt lat="3.623569495975971" lon="-76.16893381811678">
        <ele>1910.2</ele>
        <time>2022-10-23T07:23:17.000Z</time>
      </trkpt>
      <trkpt lat="3.623644933104515" lon="-76.1689933296293">
        <ele>1909.6</ele>
        <time>2022-10-23T07:23:20.000Z</time>
      </trkpt>
      <trkpt lat="3.6238077096641064" lon="-76.16911830380559">
        <ele>1907.6</ele>
        <time>2022-10-23T07:23:27.000Z</time>
      </trkpt>
      <trkpt lat="3.6238538939505816" lon="-76.16915199905634">
        <ele>1907.4</ele>
        <time>2022-10-23T07:23:29.000Z</time>
      </trkpt>
      <trkpt lat="3.6239434964954853" lon="-76.16922006011009">
        <ele>1906.2</ele>
        <time>2022-10-23T07:23:33.000Z</time>
      </trkpt>
      <trkpt lat="3.623989848420024" lon="-76.1692612990737">
        <ele>1906.2</ele>
        <time>2022-10-23T07:23:35.000Z</time>
      </trkpt>
      <trkpt lat="3.624051958322525" lon="-76.16929105482996">
        <ele>1905.6</ele>
        <time>2022-10-23T07:23:37.000Z</time>
      </trkpt>
      <trkpt lat="3.6241074465215206" lon="-76.16934872232378">
        <ele>1905</ele>
        <time>2022-10-23T07:23:39.000Z</time>
      </trkpt>
      <trkpt lat="3.624142399057746" lon="-76.16944226436317">
        <ele>1904.2</ele>
        <time>2022-10-23T07:23:41.000Z</time>
      </trkpt>
      <trkpt lat="3.624142985790968" lon="-76.16952675394714">
        <ele>1903.8</ele>
        <time>2022-10-23T07:23:43.000Z</time>
      </trkpt>
      <trkpt lat="3.6241116374731064" lon="-76.16992170922458">
        <ele>1899.8</ele>
        <time>2022-10-23T07:23:53.000Z</time>
      </trkpt>
      <trkpt lat="3.624125886708498" lon="-76.17014701478183">
        <ele>1897.6</ele>
        <time>2022-10-23T07:23:59.000Z</time>
      </trkpt>
      <trkpt lat="3.6242014914751053" lon="-76.17023586295545">
        <ele>1896.4</ele>
        <time>2022-10-23T07:24:02.000Z</time>
      </trkpt>
      <trkpt lat="3.6242808680981398" lon="-76.17029277607799">
        <ele>1895.6</ele>
        <time>2022-10-23T07:24:05.000Z</time>
      </trkpt>
      <trkpt lat="3.6243274714797735" lon="-76.17032730951905">
        <ele>1894.6</ele>
        <time>2022-10-23T07:24:07.000Z</time>
      </trkpt>
      <trkpt lat="3.6243901681154966" lon="-76.17036150768399">
        <ele>1893.4</ele>
        <time>2022-10-23T07:24:10.000Z</time>
      </trkpt>
      <trkpt lat="3.6244314070791006" lon="-76.17038103751838">
        <ele>1892.8</ele>
        <time>2022-10-23T07:24:12.000Z</time>
      </trkpt>
      <trkpt lat="3.6245129629969597" lon="-76.17042076773942">
        <ele>1891.6</ele>
        <time>2022-10-23T07:24:16.000Z</time>
      </trkpt>
      <trkpt lat="3.6245474126189947" lon="-76.17045035585761">
        <ele>1891</ele>
        <time>2022-10-23T07:24:18.000Z</time>
      </trkpt>
      <trkpt lat="3.62459066323936" lon="-76.17046426981688">
        <ele>1890.6</ele>
        <time>2022-10-23T07:24:21.000Z</time>
      </trkpt>
      <trkpt lat="3.624621005728841" lon="-76.17047633975744">
        <ele>1890.2</ele>
        <time>2022-10-23T07:24:23.000Z</time>
      </trkpt>
      <trkpt lat="3.624814711511135" lon="-76.17052369751036">
        <ele>1888.6</ele>
        <time>2022-10-23T07:24:33.000Z</time>
      </trkpt>
      <trkpt lat="3.624845137819648" lon="-76.17053333669901">
        <ele>1888.2</ele>
        <time>2022-10-23T07:24:35.000Z</time>
      </trkpt>
      <trkpt lat="3.624885957688093" lon="-76.1705510225147">
        <ele>1888</ele>
        <time>2022-10-23T07:24:37.000Z</time>
      </trkpt>
      <trkpt lat="3.6249233409762383" lon="-76.17056082934141">
        <ele>1887.4</ele>
        <time>2022-10-23T07:24:39.000Z</time>
      </trkpt>
      <trkpt lat="3.6249618977308273" lon="-76.17057482711971">
        <ele>1887</ele>
        <time>2022-10-23T07:24:41.000Z</time>
      </trkpt>
      <trkpt lat="3.6250083334743977" lon="-76.17059385403991">
        <ele>1886.6</ele>
        <time>2022-10-23T07:24:43.000Z</time>
      </trkpt>
      <trkpt lat="3.625052170827985" lon="-76.17059980519116">
        <ele>1886</ele>
        <time>2022-10-23T07:24:45.000Z</time>
      </trkpt>
      <trkpt lat="3.625106904655695" lon="-76.17061623372138">
        <ele>1885</ele>
        <time>2022-10-23T07:24:47.000Z</time>
      </trkpt>
      <trkpt lat="3.625158201903105" lon="-76.17061120457947">
        <ele>1884.6</ele>
        <time>2022-10-23T07:24:49.000Z</time>
      </trkpt>
      <trkpt lat="3.625296838581562" lon="-76.17061732336879">
        <ele>1883</ele>
        <time>2022-10-23T07:24:53.000Z</time>
      </trkpt>
      <trkpt lat="3.625359870493412" lon="-76.17063132114708">
        <ele>1882.4</ele>
        <time>2022-10-23T07:24:55.000Z</time>
      </trkpt>
      <trkpt lat="3.6254666559398174" lon="-76.1706342548132">
        <ele>1881.2</ele>
        <time>2022-10-23T07:24:58.000Z</time>
      </trkpt>
      <trkpt lat="3.6255469545722008" lon="-76.1706633400172">
        <ele>1880.8</ele>
        <time>2022-10-23T07:25:00.000Z</time>
      </trkpt>
      <trkpt lat="3.6256831604987383" lon="-76.17070524953306">
        <ele>1879.4</ele>
        <time>2022-10-23T07:25:03.000Z</time>
      </trkpt>
      <trkpt lat="3.6258374713361263" lon="-76.17073634639382">
        <ele>1877.8</ele>
        <time>2022-10-23T07:25:07.000Z</time>
      </trkpt>
      <trkpt lat="3.6259236373007298" lon="-76.17076585069299">
        <ele>1877.4</ele>
        <time>2022-10-23T07:25:09.000Z</time>
      </trkpt>
      <trkpt lat="3.6260073725134134" lon="-76.17084086872637">
        <ele>1876.6</ele>
        <time>2022-10-23T07:25:11.000Z</time>
      </trkpt>
      <trkpt lat="3.6262129805982113" lon="-76.17101873271167">
        <ele>1874</ele>
        <time>2022-10-23T07:25:17.000Z</time>
      </trkpt>
      <trkpt lat="3.6264035012573004" lon="-76.17114177905023">
        <ele>1872.4</ele>
        <time>2022-10-23T07:25:22.000Z</time>
      </trkpt>
      <trkpt lat="3.626551190391183" lon="-76.17123984731734">
        <ele>1871.4</ele>
        <time>2022-10-23T07:25:26.000Z</time>
      </trkpt>
      <trkpt lat="3.62679535523057" lon="-76.17140832357109">
        <ele>1869</ele>
        <time>2022-10-23T07:25:33.000Z</time>
      </trkpt>
      <trkpt lat="3.626970872282982" lon="-76.17148904129863">
        <ele>1867.6</ele>
        <time>2022-10-23T07:25:38.000Z</time>
      </trkpt>
      <trkpt lat="3.6271108500659466" lon="-76.17157503962517">
        <ele>1866.4</ele>
        <time>2022-10-23T07:25:42.000Z</time>
      </trkpt>
      <trkpt lat="3.627291899174452" lon="-76.17178685031831">
        <ele>1865.2</ele>
        <time>2022-10-23T07:25:49.000Z</time>
      </trkpt>
      <trkpt lat="3.627442689612508" lon="-76.17203135043383">
        <ele>1862.8</ele>
        <time>2022-10-23T07:25:55.000Z</time>
      </trkpt>
      <trkpt lat="3.6274951603263617" lon="-76.17209731601179">
        <ele>1862.4</ele>
        <time>2022-10-23T07:25:57.000Z</time>
      </trkpt>
      <trkpt lat="3.6278560012578964" lon="-76.17239185608923">
        <ele>1859</ele>
        <time>2022-10-23T07:26:09.000Z</time>
      </trkpt>
      <trkpt lat="3.6279502138495445" lon="-76.1724348552525">
        <ele>1858</ele>
        <time>2022-10-23T07:26:12.000Z</time>
      </trkpt>
      <trkpt lat="3.6280203703790903" lon="-76.17249227128923">
        <ele>1857</ele>
        <time>2022-10-23T07:26:14.000Z</time>
      </trkpt>
      <trkpt lat="3.628138890489936" lon="-76.17256972007453">
        <ele>1855.6</ele>
        <time>2022-10-23T07:26:18.000Z</time>
      </trkpt>
      <trkpt lat="3.62820016220212" lon="-76.17262076586485">
        <ele>1855</ele>
        <time>2022-10-23T07:26:20.000Z</time>
      </trkpt>
      <trkpt lat="3.62852999009192" lon="-76.17282469756901">
        <ele>1850.8</ele>
        <time>2022-10-23T07:26:31.000Z</time>
      </trkpt>
      <trkpt lat="3.6287423875182867" lon="-76.17287674918771">
        <ele>1848.6</ele>
        <time>2022-10-23T07:26:38.000Z</time>
      </trkpt>
      <trkpt lat="3.6288631707429886" lon="-76.17291253991425">
        <ele>1847.2</ele>
        <time>2022-10-23T07:26:42.000Z</time>
      </trkpt>
      <trkpt lat="3.629077160730958" lon="-76.17295486852527">
        <ele>1844.8</ele>
        <time>2022-10-23T07:26:49.000Z</time>
      </trkpt>
      <trkpt lat="3.6291800066828728" lon="-76.1730115301907">
        <ele>1843.8</ele>
        <time>2022-10-23T07:26:52.000Z</time>
      </trkpt>
      <trkpt lat="3.6292739678174257" lon="-76.17310750298202">
        <ele>1843.4</ele>
        <time>2022-10-23T07:26:55.000Z</time>
      </trkpt>
      <trkpt lat="3.62961963750422" lon="-76.17341235280037">
        <ele>1840.4</ele>
        <time>2022-10-23T07:27:06.000Z</time>
      </trkpt>
      <trkpt lat="3.6297444440424442" lon="-76.17346733808517">
        <ele>1839.2</ele>
        <time>2022-10-23T07:27:10.000Z</time>
      </trkpt>
      <trkpt lat="3.6298686638474464" lon="-76.17349826730788">
        <ele>1838</ele>
        <time>2022-10-23T07:27:14.000Z</time>
      </trkpt>
      <trkpt lat="3.629922643303871" lon="-76.17352735251188">
        <ele>1837.2</ele>
        <time>2022-10-23T07:27:16.000Z</time>
      </trkpt>
      <trkpt lat="3.629992213100195" lon="-76.17357186041772">
        <ele>1836.6</ele>
        <time>2022-10-23T07:27:19.000Z</time>
      </trkpt>
      <trkpt lat="3.6300394870340824" lon="-76.17357881739736">
        <ele>1835.8</ele>
        <time>2022-10-23T07:27:21.000Z</time>
      </trkpt>
      <trkpt lat="3.6303087137639523" lon="-76.1736698448658">
        <ele>1833.2</ele>
        <time>2022-10-23T07:27:29.000Z</time>
      </trkpt>
      <trkpt lat="3.630408374592662" lon="-76.17373731918633">
        <ele>1832.2</ele>
        <time>2022-10-23T07:27:32.000Z</time>
      </trkpt>
      <trkpt lat="3.630436873063445" lon="-76.17380286566913">
        <ele>1831.4</ele>
        <time>2022-10-23T07:27:34.000Z</time>
      </trkpt>
      <trkpt lat="3.630440477281809" lon="-76.17386380210519">
        <ele>1830.6</ele>
        <time>2022-10-23T07:27:36.000Z</time>
      </trkpt>
      <trkpt lat="3.630407704040408" lon="-76.17389271967113">
        <ele>1829.6</ele>
        <time>2022-10-23T07:27:38.000Z</time>
      </trkpt>
      <trkpt lat="3.6303947120904922" lon="-76.17388274520636">
        <ele>1828.8</ele>
        <time>2022-10-23T07:27:40.000Z</time>
      </trkpt>
      <trkpt lat="3.63035649061203" lon="-76.1738770455122">
        <ele>1828</ele>
        <time>2022-10-23T07:27:42.000Z</time>
      </trkpt>
      <trkpt lat="3.6302718333899975" lon="-76.17389556951821">
        <ele>1827</ele>
        <time>2022-10-23T07:27:45.000Z</time>
      </trkpt>
      <trkpt lat="3.6301499605178833" lon="-76.17394586093724">
        <ele>1825.6</ele>
        <time>2022-10-23T07:27:49.000Z</time>
      </trkpt>
      <trkpt lat="3.629977460950613" lon="-76.17396379821002">
        <ele>1823</ele>
        <time>2022-10-23T07:27:56.000Z</time>
      </trkpt>
      <trkpt lat="3.6299136746674776" lon="-76.17394275963306">
        <ele>1822</ele>
        <time>2022-10-23T07:27:59.000Z</time>
      </trkpt>
      <trkpt lat="3.6296836752444506" lon="-76.1739095672965">
        <ele>1819.4</ele>
        <time>2022-10-23T07:28:07.000Z</time>
      </trkpt>
      <trkpt lat="3.6295691784471273" lon="-76.17391233332455">
        <ele>1818</ele>
        <time>2022-10-23T07:28:10.000Z</time>
      </trkpt>
      <trkpt lat="3.629377903416753" lon="-76.17392649874091">
        <ele>1815.4</ele>
        <time>2022-10-23T07:28:17.000Z</time>
      </trkpt>
      <trkpt lat="3.6292958445847034" lon="-76.17391769774258">
        <ele>1813.8</ele>
        <time>2022-10-23T07:28:21.000Z</time>
      </trkpt>
      <trkpt lat="3.629246475175023" lon="-76.17391107603908">
        <ele>1813.2</ele>
        <time>2022-10-23T07:28:23.000Z</time>
      </trkpt>
      <trkpt lat="3.6290808487683535" lon="-76.17389372549951">
        <ele>1811.2</ele>
        <time>2022-10-23T07:28:28.000Z</time>
      </trkpt>
      <trkpt lat="3.6290099378675222" lon="-76.17390152066946">
        <ele>1810.6</ele>
        <time>2022-10-23T07:28:30.000Z</time>
      </trkpt>
      <trkpt lat="3.628794690594077" lon="-76.17388953454792">
        <ele>1808.4</ele>
        <time>2022-10-23T07:28:38.000Z</time>
      </trkpt>
      <trkpt lat="3.628597464412451" lon="-76.17386572994292">
        <ele>1806.8</ele>
        <time>2022-10-23T07:28:46.000Z</time>
      </trkpt>
      <trkpt lat="3.6284906789660454" lon="-76.17386003024876">
        <ele>1806</ele>
        <time>2022-10-23T07:28:51.000Z</time>
      </trkpt>
      <trkpt lat="3.628387162461877" lon="-76.17386975325644">
        <ele>1805</ele>
        <time>2022-10-23T07:28:55.000Z</time>
      </trkpt>
      <trkpt lat="3.6283305007964373" lon="-76.17389674298465">
        <ele>1804.4</ele>
        <time>2022-10-23T07:28:58.000Z</time>
      </trkpt>
      <trkpt lat="3.6282880045473576" lon="-76.17393136024475">
        <ele>1803.8</ele>
        <time>2022-10-23T07:29:00.000Z</time>
      </trkpt>
      <trkpt lat="3.6281991563737392" lon="-76.17401299998164">
        <ele>1803</ele>
        <time>2022-10-23T07:29:04.000Z</time>
      </trkpt>
      <trkpt lat="3.6281459312886" lon="-76.1741270776838">
        <ele>1801.6</ele>
        <time>2022-10-23T07:29:09.000Z</time>
      </trkpt>
      <trkpt lat="3.628147691488266" lon="-76.17417954839766">
        <ele>1801</ele>
        <time>2022-10-23T07:29:12.000Z</time>
      </trkpt>
      <trkpt lat="3.62827249802649" lon="-76.17450124584138">
        <ele>1797.6</ele>
        <time>2022-10-23T07:29:29.000Z</time>
      </trkpt>
      <trkpt lat="3.6283180117607117" lon="-76.17452731356025">
        <ele>1797</ele>
        <time>2022-10-23T07:29:32.000Z</time>
      </trkpt>
      <trkpt lat="3.6285616736859083" lon="-76.17454424500465">
        <ele>1795.2</ele>
        <time>2022-10-23T07:29:44.000Z</time>
      </trkpt>
      <trkpt lat="3.628954952582717" lon="-76.1745898425579">
        <ele>1791.8</ele>
        <time>2022-10-23T07:29:58.000Z</time>
      </trkpt>
      <trkpt lat="3.6293049808591604" lon="-76.17476250976324">
        <ele>1788.4</ele>
        <time>2022-10-23T07:30:12.000Z</time>
      </trkpt>
      <trkpt lat="3.6294651590287685" lon="-76.17503106594086">
        <ele>1785.8</ele>
        <time>2022-10-23T07:30:22.000Z</time>
      </trkpt>
      <trkpt lat="3.629416963085532" lon="-76.17535737343132">
        <ele>1784</ele>
        <time>2022-10-23T07:30:31.000Z</time>
      </trkpt>
      <trkpt lat="3.6293976847082376" lon="-76.17546474561095">
        <ele>1783</ele>
        <time>2022-10-23T07:30:36.000Z</time>
      </trkpt>
      <trkpt lat="3.629397349432111" lon="-76.17550606839359">
        <ele>1782.6</ele>
        <time>2022-10-23T07:30:39.000Z</time>
      </trkpt>
      <trkpt lat="3.6294115148484707" lon="-76.17565736174583">
        <ele>1781</ele>
        <time>2022-10-23T07:30:48.000Z</time>
      </trkpt>
      <trkpt lat="3.629428194835782" lon="-76.17606581188738">
        <ele>1777.2</ele>
        <time>2022-10-23T07:31:04.000Z</time>
      </trkpt>
      <trkpt lat="3.6294893827289343" lon="-76.1762685701251">
        <ele>1775.6</ele>
        <time>2022-10-23T07:31:11.000Z</time>
      </trkpt>
      <trkpt lat="3.6295638978481293" lon="-76.1763288360089">
        <ele>1774.8</ele>
        <time>2022-10-23T07:31:14.000Z</time>
      </trkpt>
      <trkpt lat="3.6296503990888596" lon="-76.17635532282293">
        <ele>1774</ele>
        <time>2022-10-23T07:31:17.000Z</time>
      </trkpt>
      <trkpt lat="3.629709407687187" lon="-76.17635674774647">
        <ele>1773.4</ele>
        <time>2022-10-23T07:31:19.000Z</time>
      </trkpt>
      <trkpt lat="3.6298244912177324" lon="-76.17632472887635">
        <ele>1772.4</ele>
        <time>2022-10-23T07:31:23.000Z</time>
      </trkpt>
      <trkpt lat="3.6299231462180614" lon="-76.17626421153545">
        <ele>1771.2</ele>
        <time>2022-10-23T07:31:28.000Z</time>
      </trkpt>
      <trkpt lat="3.629967989400029" lon="-76.17623370140791">
        <ele>1770.4</ele>
        <time>2022-10-23T07:31:30.000Z</time>
      </trkpt>
      <trkpt lat="3.6300556641072035" lon="-76.1761895287782">
        <ele>1769.6</ele>
        <time>2022-10-23T07:31:34.000Z</time>
      </trkpt>
      <trkpt lat="3.6301145050674677" lon="-76.17621073499322">
        <ele>1769.2</ele>
        <time>2022-10-23T07:31:36.000Z</time>
      </trkpt>
      <trkpt lat="3.6301507148891687" lon="-76.17626127786934">
        <ele>1768.8</ele>
        <time>2022-10-23T07:31:38.000Z</time>
      </trkpt>
      <trkpt lat="3.630160940811038" lon="-76.17633026093245">
        <ele>1768.6</ele>
        <time>2022-10-23T07:31:40.000Z</time>
      </trkpt>
      <trkpt lat="3.630121210590005" lon="-76.1766282375902">
        <ele>1766.4</ele>
        <time>2022-10-23T07:31:49.000Z</time>
      </trkpt>
      <trkpt lat="3.6300273332744837" lon="-76.176942223683">
        <ele>1762.6</ele>
        <time>2022-10-23T07:32:00.000Z</time>
      </trkpt>
      <trkpt lat="3.630043175071478" lon="-76.17697751149535">
        <ele>1761.8</ele>
        <time>2022-10-23T07:32:02.000Z</time>
      </trkpt>
      <trkpt lat="3.6300694942474365" lon="-76.17703903466463">
        <ele>1761</ele>
        <time>2022-10-23T07:32:04.000Z</time>
      </trkpt>
      <trkpt lat="3.6301643773913383" lon="-76.17719376459718">
        <ele>1758.6</ele>
        <time>2022-10-23T07:32:09.000Z</time>
      </trkpt>
      <trkpt lat="3.6305194348096848" lon="-76.17749836295843">
        <ele>1753.6</ele>
        <time>2022-10-23T07:32:23.000Z</time>
      </trkpt>
      <trkpt lat="3.6306311655789614" lon="-76.17756022140384">
        <ele>1752.2</ele>
        <time>2022-10-23T07:32:27.000Z</time>
      </trkpt>
      <trkpt lat="3.6308254580944777" lon="-76.17754152975976">
        <ele>1750</ele>
        <time>2022-10-23T07:32:33.000Z</time>
      </trkpt>
      <trkpt lat="3.630896871909499" lon="-76.17755980230868">
        <ele>1749</ele>
        <time>2022-10-23T07:32:35.000Z</time>
      </trkpt>
      <trkpt lat="3.6309559643268585" lon="-76.17760137654841">
        <ele>1748.6</ele>
        <time>2022-10-23T07:32:37.000Z</time>
      </trkpt>
      <trkpt lat="3.6313696950674057" lon="-76.17778083309531">
        <ele>1745</ele>
        <time>2022-10-23T07:32:49.000Z</time>
      </trkpt>
      <trkpt lat="3.631457956507802" lon="-76.17782156914473">
        <ele>1743.6</ele>
        <time>2022-10-23T07:32:52.000Z</time>
      </trkpt>
      <trkpt lat="3.6315481457859278" lon="-76.17787680588663">
        <ele>1742.8</ele>
        <time>2022-10-23T07:32:55.000Z</time>
      </trkpt>
      <trkpt lat="3.6316918954253197" lon="-76.17809180170298">
        <ele>1740.6</ele>
        <time>2022-10-23T07:33:01.000Z</time>
      </trkpt>
      <trkpt lat="3.6317709367722273" lon="-76.17836035788059">
        <ele>1737.8</ele>
        <time>2022-10-23T07:33:10.000Z</time>
      </trkpt>
      <trkpt lat="3.631912339478731" lon="-76.17880032397807">
        <ele>1732.8</ele>
        <time>2022-10-23T07:33:22.000Z</time>
      </trkpt>
      <trkpt lat="3.632238144055009" lon="-76.1792288068682">
        <ele>1727.4</ele>
        <time>2022-10-23T07:33:35.000Z</time>
      </trkpt>
      <trkpt lat="3.6324991565197706" lon="-76.17921003140509">
        <ele>1724.6</ele>
        <time>2022-10-23T07:33:42.000Z</time>
      </trkpt>
      <trkpt lat="3.6329203471541405" lon="-76.17892722599208">
        <ele>1719.8</ele>
        <time>2022-10-23T07:33:56.000Z</time>
      </trkpt>
      <trkpt lat="3.6335924081504345" lon="-76.17870435118675">
        <ele>1713.8</ele>
        <time>2022-10-23T07:34:12.000Z</time>
      </trkpt>
      <trkpt lat="3.633763901889324" lon="-76.1786397267133">
        <ele>1713.4</ele>
        <time>2022-10-23T07:34:17.000Z</time>
      </trkpt>
      <trkpt lat="3.633876135572791" lon="-76.17859203368425">
        <ele>1713.8</ele>
        <time>2022-10-23T07:34:22.000Z</time>
      </trkpt>
      <trkpt lat="3.633947465568781" lon="-76.17859438061714">
        <ele>1713.2</ele>
        <time>2022-10-23T07:34:25.000Z</time>
      </trkpt>
      <trkpt lat="3.6339693423360586" lon="-76.17864224128425">
        <ele>1712.2</ele>
        <time>2022-10-23T07:34:27.000Z</time>
      </trkpt>
      <trkpt lat="3.6340223997831345" lon="-76.17880954407156">
        <ele>1709</ele>
        <time>2022-10-23T07:34:33.000Z</time>
      </trkpt>
      <trkpt lat="3.6340541671961546" lon="-76.17888104170561">
        <ele>1707.8</ele>
        <time>2022-10-23T07:34:35.000Z</time>
      </trkpt>
      <trkpt lat="3.6341028660535812" lon="-76.17891557514668">
        <ele>1706.8</ele>
        <time>2022-10-23T07:34:37.000Z</time>
      </trkpt>
      <trkpt lat="3.6341322027146816" lon="-76.179035352543">
        <ele>1705.6</ele>
        <time>2022-10-23T07:34:40.000Z</time>
      </trkpt>
      <trkpt lat="3.6341586895287037" lon="-76.1792423017323">
        <ele>1703.2</ele>
        <time>2022-10-23T07:34:45.000Z</time>
      </trkpt>
      <trkpt lat="3.6341799795627594" lon="-76.17932477965951">
        <ele>1702.2</ele>
        <time>2022-10-23T07:34:47.000Z</time>
      </trkpt>
      <trkpt lat="3.6344140022993088" lon="-76.17983406409621">
        <ele>1695.4</ele>
        <time>2022-10-23T07:35:00.000Z</time>
      </trkpt>
      <trkpt lat="3.6345251463353634" lon="-76.18022633716464">
        <ele>1692</ele>
        <time>2022-10-23T07:35:08.000Z</time>
      </trkpt>
      <trkpt lat="3.634640648961067" lon="-76.18033932521939">
        <ele>1690.8</ele>
        <time>2022-10-23T07:35:11.000Z</time>
      </trkpt>
      <trkpt lat="3.6350060161203146" lon="-76.18060880340636">
        <ele>1686.8</ele>
        <time>2022-10-23T07:35:20.000Z</time>
      </trkpt>
      <trkpt lat="3.635136941447854" lon="-76.18084232322872">
        <ele>1684.6</ele>
        <time>2022-10-23T07:35:26.000Z</time>
      </trkpt>
      <trkpt lat="3.635125206783414" lon="-76.18090652860701">
        <ele>1684</ele>
        <time>2022-10-23T07:35:28.000Z</time>
      </trkpt>
      <trkpt lat="3.635082207620144" lon="-76.18097400292754">
        <ele>1683</ele>
        <time>2022-10-23T07:35:30.000Z</time>
      </trkpt>
      <trkpt lat="3.6348434071987867" lon="-76.18153651244938">
        <ele>1676.2</ele>
        <time>2022-10-23T07:35:44.000Z</time>
      </trkpt>
      <trkpt lat="3.6348237097263336" lon="-76.18203381076455">
        <ele>1670.6</ele>
        <time>2022-10-23T07:35:57.000Z</time>
      </trkpt>
      <trkpt lat="3.6350514460355043" lon="-76.18259757757187">
        <ele>1661.8</ele>
        <time>2022-10-23T07:36:16.000Z</time>
      </trkpt>
      <trkpt lat="3.6350464168936014" lon="-76.18266580626369">
        <ele>1660.6</ele>
        <time>2022-10-23T07:36:20.000Z</time>
      </trkpt>
      <trkpt lat="3.635058905929327" lon="-76.18272271938622">
        <ele>1660.8</ele>
        <time>2022-10-23T07:39:18.000Z</time>
      </trkpt>
      <trkpt lat="3.6350761726498604" lon="-76.18277032859623">
        <ele>1660.4</ele>
        <time>2022-10-23T07:39:21.000Z</time>
      </trkpt>
      <trkpt lat="3.6351112090051174" lon="-76.1831658706069">
        <ele>1654.8</ele>
        <time>2022-10-23T07:39:32.000Z</time>
      </trkpt>
      <trkpt lat="3.635305166244507" lon="-76.18368035182357">
        <ele>1646.6</ele>
        <time>2022-10-23T07:39:47.000Z</time>
      </trkpt>
      <trkpt lat="3.6354283802211285" lon="-76.18379124440253">
        <ele>1644.8</ele>
        <time>2022-10-23T07:39:51.000Z</time>
      </trkpt>
      <trkpt lat="3.6354858800768852" lon="-76.18381932377815">
        <ele>1643.8</ele>
        <time>2022-10-23T07:39:53.000Z</time>
      </trkpt>
      <trkpt lat="3.635684195905924" lon="-76.18387883529067">
        <ele>1641</ele>
        <time>2022-10-23T07:39:59.000Z</time>
      </trkpt>
      <trkpt lat="3.6357888858765364" lon="-76.18395703844726">
        <ele>1639.4</ele>
        <time>2022-10-23T07:40:02.000Z</time>
      </trkpt>
      <trkpt lat="3.635828197002411" lon="-76.18402736261487">
        <ele>1638.4</ele>
        <time>2022-10-23T07:40:04.000Z</time>
      </trkpt>
      <trkpt lat="3.6359949968755245" lon="-76.18455701507628">
        <ele>1630.8</ele>
        <time>2022-10-23T07:40:18.000Z</time>
      </trkpt>
      <trkpt lat="3.63609884865582" lon="-76.18505481630564">
        <ele>1625.2</ele>
        <time>2022-10-23T07:40:37.000Z</time>
      </trkpt>
      <trkpt lat="3.636126173660159" lon="-76.18513871915638">
        <ele>1624.8</ele>
        <time>2022-10-23T07:41:49.000Z</time>
      </trkpt>
      <trkpt lat="3.636126844212413" lon="-76.18512958288193">
        <ele>1624.8</ele>
        <time>2022-10-23T07:42:05.000Z</time>
      </trkpt>
      <trkpt lat="3.6361374892294407" lon="-76.18512455374002">
        <ele>1624.8</ele>
        <time>2022-10-23T07:42:11.000Z</time>
      </trkpt>
      <trkpt lat="3.636163640767336" lon="-76.18512933142483">
        <ele>1624.8</ele>
        <time>2022-10-23T07:42:13.000Z</time>
      </trkpt>
      <trkpt lat="3.6362052150070667" lon="-76.18513570167124">
        <ele>1624.4</ele>
        <time>2022-10-23T07:42:16.000Z</time>
      </trkpt>
      <trkpt lat="3.636248968541622" lon="-76.18512036278844">
        <ele>1624</ele>
        <time>2022-10-23T07:42:19.000Z</time>
      </trkpt>
      <trkpt lat="3.636273443698883" lon="-76.18509680964053">
        <ele>1623.8</ele>
        <time>2022-10-23T07:42:21.000Z</time>
      </trkpt>
      <trkpt lat="3.6362741980701685" lon="-76.18469472974539">
        <ele>1620.4</ele>
        <time>2022-10-23T07:42:34.000Z</time>
      </trkpt>
      <trkpt lat="3.6362888664007187" lon="-76.18446154519916">
        <ele>1617</ele>
        <time>2022-10-23T07:42:42.000Z</time>
      </trkpt>
      <trkpt lat="3.6363059654831886" lon="-76.1844180431217">
        <ele>1616.6</ele>
        <time>2022-10-23T07:42:44.000Z</time>
      </trkpt>
      <trkpt lat="3.6363348830491304" lon="-76.18438786827028">
        <ele>1616.2</ele>
        <time>2022-10-23T07:42:46.000Z</time>
      </trkpt>
      <trkpt lat="3.636373858898878" lon="-76.18437931872904">
        <ele>1615.8</ele>
        <time>2022-10-23T07:42:48.000Z</time>
      </trkpt>
      <trkpt lat="3.636415684595704" lon="-76.18438535369933">
        <ele>1615</ele>
        <time>2022-10-23T07:42:50.000Z</time>
      </trkpt>
      <trkpt lat="3.636543843895197" lon="-76.18442382663488">
        <ele>1613.6</ele>
        <time>2022-10-23T07:42:54.000Z</time>
      </trkpt>
      <trkpt lat="3.637086907401681" lon="-76.18450152687728">
        <ele>1607.2</ele>
        <time>2022-10-23T07:43:06.000Z</time>
      </trkpt>
      <trkpt lat="3.6371568962931633" lon="-76.18445073254406">
        <ele>1606.4</ele>
        <time>2022-10-23T07:43:08.000Z</time>
      </trkpt>
      <trkpt lat="3.6373331677168608" lon="-76.18424378335476">
        <ele>1605.6</ele>
        <time>2022-10-23T07:43:14.000Z</time>
      </trkpt>
      <trkpt lat="3.6375909950584173" lon="-76.18408201262355">
        <ele>1604.6</ele>
        <time>2022-10-23T07:43:20.000Z</time>
      </trkpt>
      <trkpt lat="3.6378737166523933" lon="-76.18378453887999">
        <ele>1603.6</ele>
        <time>2022-10-23T07:43:30.000Z</time>
      </trkpt>
      <trkpt lat="3.638159455731511" lon="-76.18358622305095">
        <ele>1602</ele>
        <time>2022-10-23T07:43:38.000Z</time>
      </trkpt>
      <trkpt lat="3.6382074002176523" lon="-76.18350927717984">
        <ele>1601.6</ele>
        <time>2022-10-23T07:43:40.000Z</time>
      </trkpt>
      <trkpt lat="3.6382293608039618" lon="-76.18342436850071">
        <ele>1601.2</ele>
        <time>2022-10-23T07:43:42.000Z</time>
      </trkpt>
      <trkpt lat="3.6382206436246634" lon="-76.18334306403995">
        <ele>1601.2</ele>
        <time>2022-10-23T07:43:44.000Z</time>
      </trkpt>
      <trkpt lat="3.638214860111475" lon="-76.18323284201324">
        <ele>1601</ele>
        <time>2022-10-23T07:43:49.000Z</time>
      </trkpt>
      <trkpt lat="3.6382583621889353" lon="-76.18317852728069">
        <ele>1600.6</ele>
        <time>2022-10-23T07:43:51.000Z</time>
      </trkpt>
      <trkpt lat="3.638314940035343" lon="-76.18315120227635">
        <ele>1600.2</ele>
        <time>2022-10-23T07:43:53.000Z</time>
      </trkpt>
      <trkpt lat="3.6384894512593746" lon="-76.18319981731474">
        <ele>1597.8</ele>
        <time>2022-10-23T07:43:58.000Z</time>
      </trkpt>
      <trkpt lat="3.638571174815297" lon="-76.18317785672843">
        <ele>1597</ele>
        <time>2022-10-23T07:44:00.000Z</time>
      </trkpt>
      <trkpt lat="3.6386998370289803" lon="-76.18311373516917">
        <ele>1595.8</ele>
        <time>2022-10-23T07:44:03.000Z</time>
      </trkpt>
      <trkpt lat="3.639014158397913" lon="-76.1827567499131">
        <ele>1593</ele>
        <time>2022-10-23T07:44:12.000Z</time>
      </trkpt>
      <trkpt lat="3.6391783598810434" lon="-76.1825992539525">
        <ele>1591.8</ele>
        <time>2022-10-23T07:44:17.000Z</time>
      </trkpt>
      <trkpt lat="3.6392646934837103" lon="-76.18259430862963">
        <ele>1591.2</ele>
        <time>2022-10-23T07:44:19.000Z</time>
      </trkpt>
      <trkpt lat="3.639323450624943" lon="-76.18264803662896">
        <ele>1590.6</ele>
        <time>2022-10-23T07:44:21.000Z</time>
      </trkpt>
      <trkpt lat="3.6393146496266127" lon="-76.18272422812879">
        <ele>1589.4</ele>
        <time>2022-10-23T07:44:23.000Z</time>
      </trkpt>
      <trkpt lat="3.63904089666903" lon="-76.18342185392976">
        <ele>1581.6</ele>
        <time>2022-10-23T07:44:36.000Z</time>
      </trkpt>
      <trkpt lat="3.6390517093241215" lon="-76.18391026742756">
        <ele>1574.8</ele>
        <time>2022-10-23T07:44:42.000Z</time>
      </trkpt>
      <trkpt lat="3.63907216116786" lon="-76.18471157737076">
        <ele>1562.6</ele>
        <time>2022-10-23T07:44:50.000Z</time>
      </trkpt>
      <trkpt lat="3.639072999358177" lon="-76.1854783538729">
        <ele>1553.2</ele>
        <time>2022-10-23T07:45:00.000Z</time>
      </trkpt>
      <trkpt lat="3.6388989072293043" lon="-76.18623255752027">
        <ele>1548</ele>
        <time>2022-10-23T07:45:13.000Z</time>
      </trkpt>
      <trkpt lat="3.638749960809946" lon="-76.18694627657533">
        <ele>1543</ele>
        <time>2022-10-23T07:45:24.000Z</time>
      </trkpt>
      <trkpt lat="3.6388008389621973" lon="-76.18719656020403">
        <ele>1540.2</ele>
        <time>2022-10-23T07:45:28.000Z</time>
      </trkpt>
      <trkpt lat="3.6389108933508396" lon="-76.18722220882773">
        <ele>1539</ele>
        <time>2022-10-23T07:45:30.000Z</time>
      </trkpt>
      <trkpt lat="3.639019690454006" lon="-76.18719672784209">
        <ele>1538.4</ele>
        <time>2022-10-23T07:45:32.000Z</time>
      </trkpt>
      <trkpt lat="3.6391164176166058" lon="-76.18712875060737">
        <ele>1537.8</ele>
        <time>2022-10-23T07:45:34.000Z</time>
      </trkpt>
      <trkpt lat="3.6391719058156013" lon="-76.18701886385679">
        <ele>1537.4</ele>
        <time>2022-10-23T07:45:36.000Z</time>
      </trkpt>
      <trkpt lat="3.6393094528466463" lon="-76.18659306317568">
        <ele>1534.2</ele>
        <time>2022-10-23T07:45:42.000Z</time>
      </trkpt>
      <trkpt lat="3.6396619956940413" lon="-76.18624420836568">
        <ele>1528.8</ele>
        <time>2022-10-23T07:45:48.000Z</time>
      </trkpt>
      <trkpt lat="3.6401749681681395" lon="-76.18594472296536">
        <ele>1522.4</ele>
        <time>2022-10-23T07:45:55.000Z</time>
      </trkpt>
      <trkpt lat="3.6402703542262316" lon="-76.18581254035234">
        <ele>1521</ele>
        <time>2022-10-23T07:45:57.000Z</time>
      </trkpt>
      <trkpt lat="3.6404726933687925" lon="-76.18552026338875">
        <ele>1516.4</ele>
        <time>2022-10-23T07:46:04.000Z</time>
      </trkpt>
      <trkpt lat="3.6405908782035112" lon="-76.18549721315503">
        <ele>1516.2</ele>
        <time>2022-10-23T07:46:08.000Z</time>
      </trkpt>
      <trkpt lat="3.640642175450921" lon="-76.1855108756572">
        <ele>1516.6</ele>
        <time>2022-10-23T07:46:10.000Z</time>
      </trkpt>
      <trkpt lat="3.6407477036118507" lon="-76.18556971661747">
        <ele>1516.8</ele>
        <time>2022-10-23T07:46:14.000Z</time>
      </trkpt>
      <trkpt lat="3.640799168497324" lon="-76.18577281013131">
        <ele>1517.6</ele>
        <time>2022-10-23T07:46:21.000Z</time>
      </trkpt>
      <trkpt lat="3.6406991723924875" lon="-76.18628234602511">
        <ele>1515.2</ele>
        <time>2022-10-23T07:46:31.000Z</time>
      </trkpt>
      <trkpt lat="3.6406376492232084" lon="-76.18686807341874">
        <ele>1507.6</ele>
        <time>2022-10-23T07:46:38.000Z</time>
      </trkpt>
      <trkpt lat="3.6409074626863003" lon="-76.18767977692187">
        <ele>1498.6</ele>
        <time>2022-10-23T07:46:46.000Z</time>
      </trkpt>
      <trkpt lat="3.641005363315344" lon="-76.18821437470615">
        <ele>1493.4</ele>
        <time>2022-10-23T07:46:52.000Z</time>
      </trkpt>
      <trkpt lat="3.641163194552064" lon="-76.18854026310146">
        <ele>1490</ele>
        <time>2022-10-23T07:46:56.000Z</time>
      </trkpt>
      <trkpt lat="3.641282469034195" lon="-76.18907427415252">
        <ele>1485.4</ele>
        <time>2022-10-23T07:47:02.000Z</time>
      </trkpt>
      <trkpt lat="3.6412308365106583" lon="-76.18922003544867">
        <ele>1484.4</ele>
        <time>2022-10-23T07:47:04.000Z</time>
      </trkpt>
      <trkpt lat="3.641209462657571" lon="-76.18945171125233">
        <ele>1481.6</ele>
        <time>2022-10-23T07:47:07.000Z</time>
      </trkpt>
      <trkpt lat="3.641301915049553" lon="-76.18961272761226">
        <ele>1479.6</ele>
        <time>2022-10-23T07:47:09.000Z</time>
      </trkpt>
      <trkpt lat="3.6414864007383585" lon="-76.18997373618186">
        <ele>1475.6</ele>
        <time>2022-10-23T07:47:13.000Z</time>
      </trkpt>
      <trkpt lat="3.6416614148765802" lon="-76.1908658221364">
        <ele>1468.2</ele>
        <time>2022-10-23T07:47:21.000Z</time>
      </trkpt>
      <trkpt lat="3.6420303862541914" lon="-76.19170434772968">
        <ele>1459.2</ele>
        <time>2022-10-23T07:47:29.000Z</time>
      </trkpt>
      <trkpt lat="3.6424644012004137" lon="-76.19231874123216">
        <ele>1452.8</ele>
        <time>2022-10-23T07:47:35.000Z</time>
      </trkpt>
      <trkpt lat="3.6425964161753654" lon="-76.19262828491628">
        <ele>1450</ele>
        <time>2022-10-23T07:47:38.000Z</time>
      </trkpt>
      <trkpt lat="3.642551153898239" lon="-76.19351073168218">
        <ele>1441.2</ele>
        <time>2022-10-23T07:47:46.000Z</time>
      </trkpt>
      <trkpt lat="3.6424048896878958" lon="-76.19373922236264">
        <ele>1438</ele>
        <time>2022-10-23T07:47:49.000Z</time>
      </trkpt>
      <trkpt lat="3.641944471746683" lon="-76.19427935220301">
        <ele>1427.8</ele>
        <time>2022-10-23T07:47:56.000Z</time>
      </trkpt>
      <trkpt lat="3.6417827010154724" lon="-76.19448831304908">
        <ele>1423.2</ele>
        <time>2022-10-23T07:47:59.000Z</time>
      </trkpt>
      <trkpt lat="3.6417619977146387" lon="-76.1946358345449">
        <ele>1420.6</ele>
        <time>2022-10-23T07:48:01.000Z</time>
      </trkpt>
      <trkpt lat="3.6418225150555372" lon="-76.19479207322001">
        <ele>1418.4</ele>
        <time>2022-10-23T07:48:03.000Z</time>
      </trkpt>
      <trkpt lat="3.641988141462207" lon="-76.1949968431145">
        <ele>1415.8</ele>
        <time>2022-10-23T07:48:06.000Z</time>
      </trkpt>
      <trkpt lat="3.6420354153960943" lon="-76.19515425525606">
        <ele>1414.4</ele>
        <time>2022-10-23T07:48:08.000Z</time>
      </trkpt>
      <trkpt lat="3.6419961880892515" lon="-76.19530336931348">
        <ele>1413</ele>
        <time>2022-10-23T07:48:10.000Z</time>
      </trkpt>
      <trkpt lat="3.641875656321645" lon="-76.19541585445404">
        <ele>1411.4</ele>
        <time>2022-10-23T07:48:12.000Z</time>
      </trkpt>
      <trkpt lat="3.641609698534012" lon="-76.19572673924267">
        <ele>1405.6</ele>
        <time>2022-10-23T07:48:18.000Z</time>
      </trkpt>
      <trkpt lat="3.641619672998786" lon="-76.19610970839858">
        <ele>1400.2</ele>
        <time>2022-10-23T07:48:23.000Z</time>
      </trkpt>
      <trkpt lat="3.641694188117981" lon="-76.19676232337952">
        <ele>1393</ele>
        <time>2022-10-23T07:48:29.000Z</time>
      </trkpt>
      <trkpt lat="3.641708856448531" lon="-76.1975992564112">
        <ele>1385</ele>
        <time>2022-10-23T07:48:38.000Z</time>
      </trkpt>
      <trkpt lat="3.641613470390439" lon="-76.19767687283456">
        <ele>1384.8</ele>
        <time>2022-10-23T07:48:40.000Z</time>
      </trkpt>
      <trkpt lat="3.641375843435526" lon="-76.19773026555777">
        <ele>1384.8</ele>
        <time>2022-10-23T07:48:47.000Z</time>
      </trkpt>
      <trkpt lat="3.6413594987243414" lon="-76.1977562494576">
        <ele>1384.8</ele>
        <time>2022-10-23T07:48:50.000Z</time>
      </trkpt>
      <trkpt lat="3.6413444112986326" lon="-76.19776806794107">
        <ele>1385</ele>
        <time>2022-10-23T07:48:52.000Z</time>
      </trkpt>
      <trkpt lat="3.641325468197465" lon="-76.19776588864625">
        <ele>1385</ele>
        <time>2022-10-23T07:48:54.000Z</time>
      </trkpt>
      <trkpt lat="3.641222706064582" lon="-76.19776756502688">
        <ele>1385.2</ele>
        <time>2022-10-23T07:49:02.000Z</time>
      </trkpt>
      <trkpt lat="3.640951970592141" lon="-76.19788524694741">
        <ele>1386.4</ele>
        <time>2022-10-23T07:49:18.000Z</time>
      </trkpt>
      <trkpt lat="3.6409064568579197" lon="-76.19792472571135">
        <ele>1386.6</ele>
        <time>2022-10-23T07:50:34.000Z</time>
      </trkpt>
      <trkpt lat="3.6408958956599236" lon="-76.1979343649">
        <ele>1386.6</ele>
        <time>2022-10-23T07:50:36.000Z</time>
      </trkpt>
      <trkpt lat="3.6408870108425617" lon="-76.19794735684991">
        <ele>1386.6</ele>
        <time>2022-10-23T07:50:38.000Z</time>
      </trkpt>
      <trkpt lat="3.6408709175884724" lon="-76.19799504987895">
        <ele>1386</ele>
        <time>2022-10-23T07:50:45.000Z</time>
      </trkpt>
      <trkpt lat="3.640872510150075" lon="-76.19801005348563">
        <ele>1386</ele>
        <time>2022-10-23T07:50:47.000Z</time>
      </trkpt>
      <trkpt lat="3.6408281698822975" lon="-76.19804131798446">
        <ele>1386.8</ele>
        <time>2022-10-23T07:55:47.000Z</time>
      </trkpt>
      <trkpt lat="3.6407979112118483" lon="-76.19808875955641">
        <ele>1386.4</ele>
        <time>2022-10-23T07:55:50.000Z</time>
      </trkpt>
      <trkpt lat="3.6406202148646116" lon="-76.19842177256942">
        <ele>1382</ele>
        <time>2022-10-23T07:56:03.000Z</time>
      </trkpt>
      <trkpt lat="3.64059716463089" lon="-76.19839620776474">
        <ele>1382</ele>
        <time>2022-10-23T07:56:05.000Z</time>
      </trkpt>
      <trkpt lat="3.6405674926936626" lon="-76.1982293240726">
        <ele>1383.4</ele>
        <time>2022-10-23T07:56:13.000Z</time>
      </trkpt>
      <trkpt lat="3.6405401676893234" lon="-76.1979843210429">
        <ele>1386</ele>
        <time>2022-10-23T07:56:23.000Z</time>
      </trkpt>
      <trkpt lat="3.640494989231229" lon="-76.1979785375297">
        <ele>1386.6</ele>
        <time>2022-10-23T07:56:25.000Z</time>
      </trkpt>
      <trkpt lat="3.6404453683644533" lon="-76.1980012524873">
        <ele>1386.4</ele>
        <time>2022-10-23T07:56:27.000Z</time>
      </trkpt>
      <trkpt lat="3.640084946528077" lon="-76.19817333295941">
        <ele>1385</ele>
        <time>2022-10-23T07:56:38.000Z</time>
      </trkpt>
      <trkpt lat="3.6396321561187506" lon="-76.19802128523588">
        <ele>1384.2</ele>
        <time>2022-10-23T07:56:51.000Z</time>
      </trkpt>
      <trkpt lat="3.63957398571074" lon="-76.19788625277579">
        <ele>1383.2</ele>
        <time>2022-10-23T07:56:54.000Z</time>
      </trkpt>
      <trkpt lat="3.6395736504346132" lon="-76.19755156338215">
        <ele>1381.8</ele>
        <time>2022-10-23T07:57:00.000Z</time>
      </trkpt>
      <trkpt lat="3.6395459063351154" lon="-76.19746623560786">
        <ele>1382.2</ele>
        <time>2022-10-23T07:57:02.000Z</time>
      </trkpt>
      <trkpt lat="3.6394934356212616" lon="-76.19739758782089">
        <ele>1382.6</ele>
        <time>2022-10-23T07:57:04.000Z</time>
      </trkpt>
      <trkpt lat="3.6393558885902166" lon="-76.19731075130403">
        <ele>1384</ele>
        <time>2022-10-23T07:57:09.000Z</time>
      </trkpt>
      <trkpt lat="3.6388908606022596" lon="-76.19728401303291">
        <ele>1386.4</ele>
        <time>2022-10-23T07:57:23.000Z</time>
      </trkpt>
      <trkpt lat="3.6384733580052853" lon="-76.19727387093008">
        <ele>1387.8</ele>
        <time>2022-10-23T07:57:35.000Z</time>
      </trkpt>
      <trkpt lat="3.6384078953415155" lon="-76.19730387814343">
        <ele>1388.2</ele>
        <time>2022-10-23T07:57:37.000Z</time>
      </trkpt>
      <trkpt lat="3.638014951720834" lon="-76.19761585257947">
        <ele>1389.6</ele>
        <time>2022-10-23T07:57:49.000Z</time>
      </trkpt>
      <trkpt lat="3.637258652597666" lon="-76.19783755391836">
        <ele>1387.6</ele>
        <time>2022-10-23T07:58:02.000Z</time>
      </trkpt>
      <trkpt lat="3.636489948257804" lon="-76.19799504987895">
        <ele>1383.2</ele>
        <time>2022-10-23T07:58:11.000Z</time>
      </trkpt>
      <trkpt lat="3.635696182027459" lon="-76.19814433157444">
        <ele>1379.6</ele>
        <time>2022-10-23T07:58:20.000Z</time>
      </trkpt>
      <trkpt lat="3.6355508398264647" lon="-76.19810870848596">
        <ele>1379.2</ele>
        <time>2022-10-23T07:58:22.000Z</time>
      </trkpt>
      <trkpt lat="3.6351739894598722" lon="-76.19783034548163">
        <ele>1377.4</ele>
        <time>2022-10-23T07:58:28.000Z</time>
      </trkpt>
      <trkpt lat="3.6351014859974384" lon="-76.19771584868431">
        <ele>1376.8</ele>
        <time>2022-10-23T07:58:30.000Z</time>
      </trkpt>
      <trkpt lat="3.6350823752582073" lon="-76.19758936576545">
        <ele>1376</ele>
        <time>2022-10-23T07:58:32.000Z</time>
      </trkpt>
      <trkpt lat="3.635117160156369" lon="-76.19747101329267">
        <ele>1375.4</ele>
        <time>2022-10-23T07:58:34.000Z</time>
      </trkpt>
      <trkpt lat="3.6352852173149586" lon="-76.19725031778216">
        <ele>1373.6</ele>
        <time>2022-10-23T07:58:38.000Z</time>
      </trkpt>
      <trkpt lat="3.635295694693923" lon="-76.19710807688534">
        <ele>1372.6</ele>
        <time>2022-10-23T07:58:40.000Z</time>
      </trkpt>
      <trkpt lat="3.6352393683046103" lon="-76.19696424342692">
        <ele>1371.8</ele>
        <time>2022-10-23T07:58:42.000Z</time>
      </trkpt>
      <trkpt lat="3.634612988680601" lon="-76.19645554572344">
        <ele>1366</ele>
        <time>2022-10-23T07:58:51.000Z</time>
      </trkpt>
      <trkpt lat="3.6340411752462387" lon="-76.19622034952044">
        <ele>1362.8</ele>
        <time>2022-10-23T07:58:57.000Z</time>
      </trkpt>
      <trkpt lat="3.633518982678652" lon="-76.19626871310174">
        <ele>1358.6</ele>
        <time>2022-10-23T07:59:02.000Z</time>
      </trkpt>
      <trkpt lat="3.6333526857197285" lon="-76.19638320989907">
        <ele>1356.6</ele>
        <time>2022-10-23T07:59:04.000Z</time>
      </trkpt>
      <trkpt lat="3.6329898331314325" lon="-76.1968048196286">
        <ele>1351.6</ele>
        <time>2022-10-23T07:59:09.000Z</time>
      </trkpt>
      <trkpt lat="3.6324384715408087" lon="-76.19736506603658">
        <ele>1343.6</ele>
        <time>2022-10-23T07:59:16.000Z</time>
      </trkpt>
      <trkpt lat="3.6323789600282907" lon="-76.19754502549767">
        <ele>1341.4</ele>
        <time>2022-10-23T07:59:18.000Z</time>
      </trkpt>
      <trkpt lat="3.6323369666934013" lon="-76.19787627831101">
        <ele>1337.8</ele>
        <time>2022-10-23T07:59:22.000Z</time>
      </trkpt>
      <trkpt lat="3.63220545463264" lon="-76.19796881452203">
        <ele>1336.4</ele>
        <time>2022-10-23T07:59:24.000Z</time>
      </trkpt>
      <trkpt lat="3.6318444460630417" lon="-76.19803184643388">
        <ele>1331.8</ele>
        <time>2022-10-23T07:59:28.000Z</time>
      </trkpt>
      <trkpt lat="3.6315623950213194" lon="-76.19790871627629">
        <ele>1328.6</ele>
        <time>2022-10-23T07:59:31.000Z</time>
      </trkpt>
      <trkpt lat="3.6308528669178486" lon="-76.19735182262957">
        <ele>1320.4</ele>
        <time>2022-10-23T07:59:39.000Z</time>
      </trkpt>
      <trkpt lat="3.6300249863415956" lon="-76.19697103276849">
        <ele>1313.6</ele>
        <time>2022-10-23T07:59:47.000Z</time>
      </trkpt>
      <trkpt lat="3.629223173484206" lon="-76.19648236781359">
        <ele>1307.4</ele>
        <time>2022-10-23T07:59:55.000Z</time>
      </trkpt>
      <trkpt lat="3.6287221871316433" lon="-76.19627558626235">
        <ele>1302.8</ele>
        <time>2022-10-23T08:00:00.000Z</time>
      </trkpt>
      <trkpt lat="3.62815716303885" lon="-76.19630425237119">
        <ele>1298.8</ele>
        <time>2022-10-23T08:00:05.000Z</time>
      </trkpt>
      <trkpt lat="3.6274354811757803" lon="-76.19633107446134">
        <ele>1293.8</ele>
        <time>2022-10-23T08:00:11.000Z</time>
      </trkpt>
      <trkpt lat="3.626877497881651" lon="-76.1961343511939">
        <ele>1289.4</ele>
        <time>2022-10-23T08:00:16.000Z</time>
      </trkpt>
      <trkpt lat="3.626035200431943" lon="-76.1957410722971">
        <ele>1284.2</ele>
        <time>2022-10-23T08:00:24.000Z</time>
      </trkpt>
      <trkpt lat="3.625292144715786" lon="-76.19542331434786">
        <ele>1284</ele>
        <time>2022-10-23T08:00:32.000Z</time>
      </trkpt>
      <trkpt lat="3.624504329636693" lon="-76.195082757622">
        <ele>1285.8</ele>
        <time>2022-10-23T08:00:41.000Z</time>
      </trkpt>
      <trkpt lat="3.623785162344575" lon="-76.19475427083671">
        <ele>1286</ele>
        <time>2022-10-23T08:00:50.000Z</time>
      </trkpt>
      <trkpt lat="3.623266154900193" lon="-76.1945203319192">
        <ele>1284.2</ele>
        <time>2022-10-23T08:01:01.000Z</time>
      </trkpt>
      <trkpt lat="3.6226744763553143" lon="-76.19430877268314">
        <ele>1280.2</ele>
        <time>2022-10-23T08:01:10.000Z</time>
      </trkpt>
      <trkpt lat="3.6225259490311146" lon="-76.19434481486678">
        <ele>1279.2</ele>
        <time>2022-10-23T08:01:12.000Z</time>
      </trkpt>
      <trkpt lat="3.6224013939499855" lon="-76.19442922063172">
        <ele>1278</ele>
        <time>2022-10-23T08:01:14.000Z</time>
      </trkpt>
      <trkpt lat="3.6223138868808746" lon="-76.1945578828454">
        <ele>1276.8</ele>
        <time>2022-10-23T08:01:16.000Z</time>
      </trkpt>
      <trkpt lat="3.6222114600241184" lon="-76.19501871988177">
        <ele>1273.2</ele>
        <time>2022-10-23T08:01:21.000Z</time>
      </trkpt>
      <trkpt lat="3.6220018286257982" lon="-76.19584157131612">
        <ele>1265.2</ele>
        <time>2022-10-23T08:01:30.000Z</time>
      </trkpt>
      <trkpt lat="3.6214604414999485" lon="-76.1964142229408">
        <ele>1257.6</ele>
        <time>2022-10-23T08:01:41.000Z</time>
      </trkpt>
      <trkpt lat="3.620802629739046" lon="-76.19679383933544">
        <ele>1256.8</ele>
        <time>2022-10-23T08:01:50.000Z</time>
      </trkpt>
      <trkpt lat="3.6205109395086765" lon="-76.19684128090739">
        <ele>1256.2</ele>
        <time>2022-10-23T08:01:54.000Z</time>
      </trkpt>
      <trkpt lat="3.620128473266959" lon="-76.19659803807735">
        <ele>1255.4</ele>
        <time>2022-10-23T08:02:59.000Z</time>
      </trkpt>
      <trkpt lat="3.6195398960262537" lon="-76.19647457264364">
        <ele>1256.6</ele>
        <time>2022-10-23T08:03:07.000Z</time>
      </trkpt>
      <trkpt lat="3.6188022047281265" lon="-76.19643107056618">
        <ele>1257.8</ele>
        <time>2022-10-23T08:03:23.000Z</time>
      </trkpt>
      <trkpt lat="3.6181901581585407" lon="-76.19641556404531">
        <ele>1267.4</ele>
        <time>2022-10-23T08:03:40.000Z</time>
      </trkpt>
      <trkpt lat="3.618167946115136" lon="-76.19645831175148">
        <ele>1268.2</ele>
        <time>2022-10-23T08:03:42.000Z</time>
      </trkpt>
      <trkpt lat="3.618083456531167" lon="-76.1969205737114">
        <ele>1268</ele>
        <time>2022-10-23T08:04:03.000Z</time>
      </trkpt>
      <trkpt lat="3.6180426366627216" lon="-76.19693373329937">
        <ele>1268</ele>
        <time>2022-10-23T08:05:23.000Z</time>
      </trkpt>
      <trkpt lat="3.618039870634675" lon="-76.19694882072508">
        <ele>1268</ele>
        <time>2022-10-23T08:05:25.000Z</time>
      </trkpt>
      <trkpt lat="3.618017490953207" lon="-76.1969982739538">
        <ele>1268</ele>
        <time>2022-10-23T08:05:28.000Z</time>
      </trkpt>
      <trkpt lat="3.617897629737854" lon="-76.19772037491202">
        <ele>1265.8</ele>
        <time>2022-10-23T08:05:44.000Z</time>
      </trkpt>
      <trkpt lat="3.6177629325538874" lon="-76.19847105816007">
        <ele>1263.6</ele>
        <time>2022-10-23T08:05:58.000Z</time>
      </trkpt>
      <trkpt lat="3.617679700255394" lon="-76.19890607893467">
        <ele>1262.6</ele>
        <time>2022-10-23T08:06:07.000Z</time>
      </trkpt>
      <trkpt lat="3.617648435756564" lon="-76.19911235757172">
        <ele>1262.2</ele>
        <time>2022-10-23T08:06:12.000Z</time>
      </trkpt>
      <trkpt lat="3.6174657102674246" lon="-76.19985138997436">
        <ele>1261.8</ele>
        <time>2022-10-23T08:06:30.000Z</time>
      </trkpt>
      <trkpt lat="3.6170351319015026" lon="-76.20045455172658">
        <ele>1260.6</ele>
        <time>2022-10-23T08:06:56.000Z</time>
      </trkpt>
      <trkpt lat="3.6165589559823275" lon="-76.20108587667346">
        <ele>1259.4</ele>
        <time>2022-10-23T08:07:16.000Z</time>
      </trkpt>
      <trkpt lat="3.616260141134262" lon="-76.20157429017127">
        <ele>1258.2</ele>
        <time>2022-10-23T08:07:28.000Z</time>
      </trkpt>
      <trkpt lat="3.61583199352026" lon="-76.2022253125906">
        <ele>1256.4</ele>
        <time>2022-10-23T08:07:43.000Z</time>
      </trkpt>
      <trkpt lat="3.615396386012435" lon="-76.20281187817454">
        <ele>1255</ele>
        <time>2022-10-23T08:07:55.000Z</time>
      </trkpt>
      <trkpt lat="3.6146481335163116" lon="-76.20292972773314">
        <ele>1253</ele>
        <time>2022-10-23T08:08:06.000Z</time>
      </trkpt>
      <trkpt lat="3.613915638998151" lon="-76.20278203859925">
        <ele>1252.2</ele>
        <time>2022-10-23T08:08:16.000Z</time>
      </trkpt>
      <trkpt lat="3.613162860274315" lon="-76.20262378826737">
        <ele>1252.2</ele>
        <time>2022-10-23T08:08:26.000Z</time>
      </trkpt>
      <trkpt lat="3.612372949719429" lon="-76.20244131423533">
        <ele>1252</ele>
        <time>2022-10-23T08:08:36.000Z</time>
      </trkpt>
      <trkpt lat="3.6115856375545263" lon="-76.20225900784135">
        <ele>1251.6</ele>
        <time>2022-10-23T08:08:46.000Z</time>
      </trkpt>
      <trkpt lat="3.610789943486452" lon="-76.20208156295121">
        <ele>1251</ele>
        <time>2022-10-23T08:08:57.000Z</time>
      </trkpt>
      <trkpt lat="3.6100603826344013" lon="-76.20191887021065">
        <ele>1250.6</ele>
        <time>2022-10-23T08:09:07.000Z</time>
      </trkpt>
      <trkpt lat="3.6092354357242584" lon="-76.20173287577927">
        <ele>1250.2</ele>
        <time>2022-10-23T08:09:19.000Z</time>
      </trkpt>
      <trkpt lat="3.6084738560020924" lon="-76.2014583684504">
        <ele>1249.2</ele>
        <time>2022-10-23T08:09:31.000Z</time>
      </trkpt>
      <trkpt lat="3.6077581252902746" lon="-76.20113122276962">
        <ele>1247.8</ele>
        <time>2022-10-23T08:09:42.000Z</time>
      </trkpt>
      <trkpt lat="3.60702789388597" lon="-76.20088471099734">
        <ele>1248.2</ele>
        <time>2022-10-23T08:09:53.000Z</time>
      </trkpt>
      <trkpt lat="3.606286346912384" lon="-76.20073383674026">
        <ele>1249.2</ele>
        <time>2022-10-23T08:10:05.000Z</time>
      </trkpt>
      <trkpt lat="3.6055304668843746" lon="-76.20060978457332">
        <ele>1250.2</ele>
        <time>2022-10-23T08:10:17.000Z</time>
      </trkpt>
      <trkpt lat="3.604789339005947" lon="-76.20048338547349">
        <ele>1252.4</ele>
        <time>2022-10-23T08:10:30.000Z</time>
      </trkpt>
      <trkpt lat="3.6040014401078224" lon="-76.20036251842976">
        <ele>1256.6</ele>
        <time>2022-10-23T08:10:47.000Z</time>
      </trkpt>
      <trkpt lat="3.6032489966601133" lon="-76.20041658170521">
        <ele>1257.2</ele>
        <time>2022-10-23T08:11:04.000Z</time>
      </trkpt>
      <trkpt lat="3.602495128288865" lon="-76.20051758363843">
        <ele>1255</ele>
        <time>2022-10-23T08:11:19.000Z</time>
      </trkpt>
      <trkpt lat="3.6017339676618576" lon="-76.20057323947549">
        <ele>1252.8</ele>
        <time>2022-10-23T08:11:30.000Z</time>
      </trkpt>
      <trkpt lat="3.600972890853882" lon="-76.20059452950954">
        <ele>1249.8</ele>
        <time>2022-10-23T08:11:40.000Z</time>
      </trkpt>
      <trkpt lat="3.6002001632004976" lon="-76.20074934326112">
        <ele>1248.4</ele>
        <time>2022-10-23T08:11:50.000Z</time>
      </trkpt>
      <trkpt lat="3.599471189081669" lon="-76.20096987113357">
        <ele>1249.2</ele>
        <time>2022-10-23T08:12:03.000Z</time>
      </trkpt>
      <trkpt lat="3.5987361799925566" lon="-76.2012012116611">
        <ele>1251.4</ele>
        <time>2022-10-23T08:12:14.000Z</time>
      </trkpt>
      <trkpt lat="3.597989184781909" lon="-76.20141838677227">
        <ele>1251.4</ele>
        <time>2022-10-23T08:12:26.000Z</time>
      </trkpt>
      <trkpt lat="3.597193155437708" lon="-76.20163606479764">
        <ele>1250.4</ele>
        <time>2022-10-23T08:12:38.000Z</time>
      </trkpt>
      <trkpt lat="3.596488991752267" lon="-76.20183035731316">
        <ele>1248.8</ele>
        <time>2022-10-23T08:12:48.000Z</time>
      </trkpt>
      <trkpt lat="3.5957619454711676" lon="-76.2020368874073">
        <ele>1247.4</ele>
        <time>2022-10-23T08:12:58.000Z</time>
      </trkpt>
      <trkpt lat="3.5950403474271297" lon="-76.20223838835955">
        <ele>1245.8</ele>
        <time>2022-10-23T08:13:08.000Z</time>
      </trkpt>
      <trkpt lat="3.5946033988147974" lon="-76.20243628509343">
        <ele>1244.2</ele>
        <time>2022-10-23T08:13:14.000Z</time>
      </trkpt>
      <trkpt lat="3.5943566355854273" lon="-76.20280927978456">
        <ele>1241.8</ele>
        <time>2022-10-23T08:13:19.000Z</time>
      </trkpt>
      <trkpt lat="3.5939304996281862" lon="-76.2035340629518">
        <ele>1236.2</ele>
        <time>2022-10-23T08:13:27.000Z</time>
      </trkpt>
      <trkpt lat="3.593574184924364" lon="-76.20418583974242">
        <ele>1231.4</ele>
        <time>2022-10-23T08:13:33.000Z</time>
      </trkpt>
      <trkpt lat="3.5932291857898235" lon="-76.20486888103187">
        <ele>1227.4</ele>
        <time>2022-10-23T08:13:39.000Z</time>
      </trkpt>
      <trkpt lat="3.5928768943995237" lon="-76.20553272776306">
        <ele>1224.2</ele>
        <time>2022-10-23T08:13:45.000Z</time>
      </trkpt>
      <trkpt lat="3.5925274528563023" lon="-76.20617335662246">
        <ele>1221.2</ele>
        <time>2022-10-23T08:13:51.000Z</time>
      </trkpt>
      <trkpt lat="3.5920729860663414" lon="-76.20692873373628">
        <ele>1219</ele>
        <time>2022-10-23T08:13:59.000Z</time>
      </trkpt>
      <trkpt lat="3.5916393902152777" lon="-76.20714901015162">
        <ele>1218.8</ele>
        <time>2022-10-23T08:14:04.000Z</time>
      </trkpt>
      <trkpt lat="3.5908401757478714" lon="-76.20745805092156">
        <ele>1219.4</ele>
        <time>2022-10-23T08:14:14.000Z</time>
      </trkpt>
      <trkpt lat="3.5900768358260393" lon="-76.2077388446778">
        <ele>1219.8</ele>
        <time>2022-10-23T08:14:24.000Z</time>
      </trkpt>
      <trkpt lat="3.5893813893198967" lon="-76.20798527263105">
        <ele>1220.6</ele>
        <time>2022-10-23T08:14:34.000Z</time>
      </trkpt>
      <trkpt lat="3.5886639822274446" lon="-76.20823874138296">
        <ele>1221.6</ele>
        <time>2022-10-23T08:14:44.000Z</time>
      </trkpt>
      <trkpt lat="3.587891422212124" lon="-76.20852573774755">
        <ele>1222.8</ele>
        <time>2022-10-23T08:14:56.000Z</time>
      </trkpt>
      <trkpt lat="3.587190695106983" lon="-76.20878239162266">
        <ele>1222.2</ele>
        <time>2022-10-23T08:15:06.000Z</time>
      </trkpt>
      <trkpt lat="3.5864729527384043" lon="-76.20906754396856">
        <ele>1223.8</ele>
        <time>2022-10-23T08:15:17.000Z</time>
      </trkpt>
      <trkpt lat="3.5857533663511276" lon="-76.20934079401195">
        <ele>1224.2</ele>
        <time>2022-10-23T08:15:29.000Z</time>
      </trkpt>
      <trkpt lat="3.5849943850189447" lon="-76.20961404405534">
        <ele>1224.2</ele>
        <time>2022-10-23T08:15:41.000Z</time>
      </trkpt>
      <trkpt lat="3.584210341796279" lon="-76.20990556664765">
        <ele>1224.4</ele>
        <time>2022-10-23T08:15:53.000Z</time>
      </trkpt>
      <trkpt lat="3.583477344363928" lon="-76.2101773917675">
        <ele>1225</ele>
        <time>2022-10-23T08:16:05.000Z</time>
      </trkpt>
      <trkpt lat="3.5827449336647987" lon="-76.21044653467834">
        <ele>1224.8</ele>
        <time>2022-10-23T08:16:17.000Z</time>
      </trkpt>
      <trkpt lat="3.581982683390379" lon="-76.21072959154844">
        <ele>1224.4</ele>
        <time>2022-10-23T08:16:29.000Z</time>
      </trkpt>
      <trkpt lat="3.581226132810116" lon="-76.21101524680853">
        <ele>1224.8</ele>
        <time>2022-10-23T08:16:41.000Z</time>
      </trkpt>
      <trkpt lat="3.5804866813123226" lon="-76.21127977967262">
        <ele>1225.4</ele>
        <time>2022-10-23T08:16:53.000Z</time>
      </trkpt>
      <trkpt lat="3.5798066575080156" lon="-76.21153308078647">
        <ele>1225.8</ele>
        <time>2022-10-23T08:17:04.000Z</time>
      </trkpt>
      <trkpt lat="3.5793896578252316" lon="-76.21169233694673">
        <ele>1226.4</ele>
        <time>2022-10-23T08:17:10.000Z</time>
      </trkpt>
      <trkpt lat="3.578697480261326" lon="-76.21195175684988">
        <ele>1227.6</ele>
        <time>2022-10-23T08:17:22.000Z</time>
      </trkpt>
      <trkpt lat="3.577943444252014" lon="-76.2122292816639">
        <ele>1228.8</ele>
        <time>2022-10-23T08:17:36.000Z</time>
      </trkpt>
      <trkpt lat="3.577198125422001" lon="-76.21250454336405">
        <ele>1230</ele>
        <time>2022-10-23T08:17:50.000Z</time>
      </trkpt>
      <trkpt lat="3.576458925381303" lon="-76.21278433129191">
        <ele>1231.4</ele>
        <time>2022-10-23T08:18:04.000Z</time>
      </trkpt>
      <trkpt lat="3.5757409315556288" lon="-76.21305054053664">
        <ele>1233</ele>
        <time>2022-10-23T08:18:18.000Z</time>
      </trkpt>
      <trkpt lat="3.5750551242381334" lon="-76.21331725269556">
        <ele>1235.2</ele>
        <time>2022-10-23T08:18:32.000Z</time>
      </trkpt>
      <trkpt lat="3.574482975527644" lon="-76.2138472404331">
        <ele>1237.8</ele>
        <time>2022-10-23T08:18:48.000Z</time>
      </trkpt>
      <trkpt lat="3.574061617255211" lon="-76.21445124037564">
        <ele>1239</ele>
        <time>2022-10-23T08:19:07.000Z</time>
      </trkpt>
      <trkpt lat="3.5736196395009756" lon="-76.21508105657995">
        <ele>1240</ele>
        <time>2022-10-23T08:19:26.000Z</time>
      </trkpt>
      <trkpt lat="3.5732583794742823" lon="-76.21561523526907">
        <ele>1240.8</ele>
        <time>2022-10-23T08:19:41.000Z</time>
      </trkpt>
      <trkpt lat="3.5729906614869833" lon="-76.21597481891513">
        <ele>1242</ele>
        <time>2022-10-23T08:19:50.000Z</time>
      </trkpt>
      <trkpt lat="3.5725414752960205" lon="-76.21658426709473">
        <ele>1244.8</ele>
        <time>2022-10-23T08:20:06.000Z</time>
      </trkpt>
      <trkpt lat="3.572075692936778" lon="-76.21723805554211">
        <ele>1247.4</ele>
        <time>2022-10-23T08:20:22.000Z</time>
      </trkpt>
      <trkpt lat="3.5716403368860483" lon="-76.21784205548465">
        <ele>1248.6</ele>
        <time>2022-10-23T08:20:36.000Z</time>
      </trkpt>
      <trkpt lat="3.5713084135204554" lon="-76.21849274262786">
        <ele>1249</ele>
        <time>2022-10-23T08:20:52.000Z</time>
      </trkpt>
      <trkpt lat="3.571130884811282" lon="-76.21924426406622">
        <ele>1249.6</ele>
        <time>2022-10-23T08:21:09.000Z</time>
      </trkpt>
      <trkpt lat="3.571005491539836" lon="-76.22001389041543">
        <ele>1249.2</ele>
        <time>2022-10-23T08:21:24.000Z</time>
      </trkpt>
      <trkpt lat="3.5708751529455185" lon="-76.22078678570688">
        <ele>1248.2</ele>
        <time>2022-10-23T08:21:39.000Z</time>
      </trkpt>
      <trkpt lat="3.5707646794617176" lon="-76.22154601849616">
        <ele>1246.6</ele>
        <time>2022-10-23T08:21:52.000Z</time>
      </trkpt>
      <trkpt lat="3.5706363525241613" lon="-76.22230432927608">
        <ele>1245.2</ele>
        <time>2022-10-23T08:22:09.000Z</time>
      </trkpt>
      <trkpt lat="3.5708819422870874" lon="-76.22306783683598">
        <ele>1243</ele>
        <time>2022-10-23T08:22:21.000Z</time>
      </trkpt>
      <trkpt lat="3.5711741354316473" lon="-76.22373084537685">
        <ele>1241.2</ele>
        <time>2022-10-23T08:22:31.000Z</time>
      </trkpt>
      <trkpt lat="3.5713063180446625" lon="-76.22412638738751">
        <ele>1240</ele>
        <time>2022-10-23T08:22:37.000Z</time>
      </trkpt>
      <trkpt lat="3.5712426155805588" lon="-76.22423778288066">
        <ele>1240</ele>
        <time>2022-10-23T08:22:39.000Z</time>
      </trkpt>
      <trkpt lat="3.5708383563905954" lon="-76.22445705346763">
        <ele>1239.4</ele>
        <time>2022-10-23T08:22:46.000Z</time>
      </trkpt>
      <trkpt lat="3.57014081440866" lon="-76.22477573342621">
        <ele>1239.4</ele>
        <time>2022-10-23T08:22:58.000Z</time>
      </trkpt>
      <trkpt lat="3.5694626346230507" lon="-76.22509055770934">
        <ele>1239.8</ele>
        <time>2022-10-23T08:23:10.000Z</time>
      </trkpt>
      <trkpt lat="3.5689099319279194" lon="-76.22566128149629">
        <ele>1239.6</ele>
        <time>2022-10-23T08:23:22.000Z</time>
      </trkpt>
      <trkpt lat="3.5684384498745203" lon="-76.22628673911095">
        <ele>1241</ele>
        <time>2022-10-23T08:23:34.000Z</time>
      </trkpt>
      <trkpt lat="3.567951126024127" lon="-76.22694639489055">
        <ele>1240.4</ele>
        <time>2022-10-23T08:23:46.000Z</time>
      </trkpt>
      <trkpt lat="3.5675203800201416" lon="-76.22755936346948">
        <ele>1238.6</ele>
        <time>2022-10-23T08:23:56.000Z</time>
      </trkpt>
      <trkpt lat="3.567057866603136" lon="-76.22821055352688">
        <ele>1237.8</ele>
        <time>2022-10-23T08:24:06.000Z</time>
      </trkpt>
      <trkpt lat="3.5664454847574234" lon="-76.22876602225006">
        <ele>1236.8</ele>
        <time>2022-10-23T08:24:16.000Z</time>
      </trkpt>
      <trkpt lat="3.565777949988842" lon="-76.22912703081965">
        <ele>1237.6</ele>
        <time>2022-10-23T08:24:26.000Z</time>
      </trkpt>
      <trkpt lat="3.56502634473145" lon="-76.22952609322965">
        <ele>1238.2</ele>
        <time>2022-10-23T08:24:38.000Z</time>
      </trkpt>
      <trkpt lat="3.5646168887615204" lon="-76.23008935712278">
        <ele>1236.8</ele>
        <time>2022-10-23T08:24:48.000Z</time>
      </trkpt>
      <trkpt lat="3.564685620367527" lon="-76.23054524883628">
        <ele>1235.6</ele>
        <time>2022-10-23T08:24:54.000Z</time>
      </trkpt>
      <trkpt lat="3.5647431202232838" lon="-76.23098353855312">
        <ele>1234.6</ele>
        <time>2022-10-23T08:25:00.000Z</time>
      </trkpt>
      <trkpt lat="3.5646954271942377" lon="-76.23112125322223">
        <ele>1234.2</ele>
        <time>2022-10-23T08:25:02.000Z</time>
      </trkpt>
      <trkpt lat="3.5645956825464964" lon="-76.23122627846897">
        <ele>1233.8</ele>
        <time>2022-10-23T08:25:04.000Z</time>
      </trkpt>
      <trkpt lat="3.563947342336178" lon="-76.23162089847028">
        <ele>1232.2</ele>
        <time>2022-10-23T08:25:14.000Z</time>
      </trkpt>
      <trkpt lat="3.5631861817091703" lon="-76.23191208578646">
        <ele>1230</ele>
        <time>2022-10-23T08:25:24.000Z</time>
      </trkpt>
      <trkpt lat="3.5624904837459326" lon="-76.2321587651968">
        <ele>1230.4</ele>
        <time>2022-10-23T08:25:34.000Z</time>
      </trkpt>
      <trkpt lat="3.5617476794868708" lon="-76.23242422007024">
        <ele>1231.4</ele>
        <time>2022-10-23T08:25:44.000Z</time>
      </trkpt>
      <trkpt lat="3.5609694197773933" lon="-76.23276083730161">
        <ele>1229.6</ele>
        <time>2022-10-23T08:25:54.000Z</time>
      </trkpt>
      <trkpt lat="3.5602593887597322" lon="-76.23316526412964">
        <ele>1228</ele>
        <time>2022-10-23T08:26:03.000Z</time>
      </trkpt>
      <trkpt lat="3.55957567691803" lon="-76.2335557769984">
        <ele>1227.6</ele>
        <time>2022-10-23T08:26:12.000Z</time>
      </trkpt>
      <trkpt lat="3.5588224790990353" lon="-76.2339323759079">
        <ele>1226.6</ele>
        <time>2022-10-23T08:26:22.000Z</time>
      </trkpt>
      <trkpt lat="3.5580251086503267" lon="-76.23419875279069">
        <ele>1226.4</ele>
        <time>2022-10-23T08:26:32.000Z</time>
      </trkpt>
      <trkpt lat="3.557271910831332" lon="-76.23445523902774">
        <ele>1226.6</ele>
        <time>2022-10-23T08:26:42.000Z</time>
      </trkpt>
      <trkpt lat="3.556518629193306" lon="-76.23470636084676">
        <ele>1224.6</ele>
        <time>2022-10-23T08:26:52.000Z</time>
      </trkpt>
      <trkpt lat="3.5564018692821264" lon="-76.23481373302639">
        <ele>1224.6</ele>
        <time>2022-10-23T08:26:54.000Z</time>
      </trkpt>
      <trkpt lat="3.5563509073108435" lon="-76.23496259562671">
        <ele>1224.2</ele>
        <time>2022-10-23T08:26:56.000Z</time>
      </trkpt>
      <trkpt lat="3.55626767501235" lon="-76.2357818428427">
        <ele>1222.4</ele>
        <time>2022-10-23T08:27:06.000Z</time>
      </trkpt>
      <trkpt lat="3.5560043156147003" lon="-76.23661475256085">
        <ele>1220.6</ele>
        <time>2022-10-23T08:27:16.000Z</time>
      </trkpt>
      <trkpt lat="3.555607348680496" lon="-76.23739829286933">
        <ele>1218.8</ele>
        <time>2022-10-23T08:27:26.000Z</time>
      </trkpt>
      <trkpt lat="3.5552929434925318" lon="-76.23822608962655">
        <ele>1217.4</ele>
        <time>2022-10-23T08:27:36.000Z</time>
      </trkpt>
      <trkpt lat="3.5553551372140646" lon="-76.23899856582284">
        <ele>1214.8</ele>
        <time>2022-10-23T08:27:44.000Z</time>
      </trkpt>
      <trkpt lat="3.5554043389856815" lon="-76.23974782414734">
        <ele>1213.2</ele>
        <time>2022-10-23T08:27:52.000Z</time>
      </trkpt>
      <trkpt lat="3.5554528702050447" lon="-76.24048777855933">
        <ele>1211.4</ele>
        <time>2022-10-23T08:28:00.000Z</time>
      </trkpt>
      <trkpt lat="3.555577425286174" lon="-76.2412020843476">
        <ele>1210</ele>
        <time>2022-10-23T08:28:08.000Z</time>
      </trkpt>
      <trkpt lat="3.555541383102536" lon="-76.24171229079366">
        <ele>1209.6</ele>
        <time>2022-10-23T08:28:14.000Z</time>
      </trkpt>
      <trkpt lat="3.5554376151412725" lon="-76.24185428023338">
        <ele>1209.2</ele>
        <time>2022-10-23T08:28:16.000Z</time>
      </trkpt>
      <trkpt lat="3.5550314281135798" lon="-76.24208184890449">
        <ele>1208</ele>
        <time>2022-10-23T08:28:21.000Z</time>
      </trkpt>
      <trkpt lat="3.5543276835232973" lon="-76.24240078032017">
        <ele>1205.8</ele>
        <time>2022-10-23T08:28:29.000Z</time>
      </trkpt>
      <trkpt lat="3.553663417696953" lon="-76.24269959516823">
        <ele>1205.4</ele>
        <time>2022-10-23T08:28:37.000Z</time>
      </trkpt>
      <trkpt lat="3.5528638679534197" lon="-76.24304953962564">
        <ele>1204.6</ele>
        <time>2022-10-23T08:28:47.000Z</time>
      </trkpt>
      <trkpt lat="3.552103880792856" lon="-76.24342530034482">
        <ele>1204</ele>
        <time>2022-10-23T08:28:57.000Z</time>
      </trkpt>
      <trkpt lat="3.5513936821371317" lon="-76.24382109381258">
        <ele>1201.6</ele>
        <time>2022-10-23T08:29:06.000Z</time>
      </trkpt>
      <trkpt lat="3.550690608099103" lon="-76.24433523975313">
        <ele>1200.8</ele>
        <time>2022-10-23T08:29:16.000Z</time>
      </trkpt>
      <trkpt lat="3.550156680867076" lon="-76.24503185972571">
        <ele>1199.8</ele>
        <time>2022-10-23T08:29:26.000Z</time>
      </trkpt>
      <trkpt lat="3.5497076623141766" lon="-76.24571188353002">
        <ele>1197.4</ele>
        <time>2022-10-23T08:29:35.000Z</time>
      </trkpt>
      <trkpt lat="3.5494108591228724" lon="-76.24638738110662">
        <ele>1195.4</ele>
        <time>2022-10-23T08:29:43.000Z</time>
      </trkpt>
      <trkpt lat="3.5492803528904915" lon="-76.24710059724748">
        <ele>1194</ele>
        <time>2022-10-23T08:29:51.000Z</time>
      </trkpt>
      <trkpt lat="3.5491428058594465" lon="-76.24786905013025">
        <ele>1192.6</ele>
        <time>2022-10-23T08:30:00.000Z</time>
      </trkpt>
      <trkpt lat="3.5489823762327433" lon="-76.24864990822971">
        <ele>1191</ele>
        <time>2022-10-23T08:30:09.000Z</time>
      </trkpt>
      <trkpt lat="3.5488194320350885" lon="-76.24944476410747">
        <ele>1189.2</ele>
        <time>2022-10-23T08:30:18.000Z</time>
      </trkpt>
      <trkpt lat="3.548664366826415" lon="-76.25019854865968">
        <ele>1187.6</ele>
        <time>2022-10-23T08:30:26.000Z</time>
      </trkpt>
      <trkpt lat="3.5485031828284264" lon="-76.25096876174212">
        <ele>1186</ele>
        <time>2022-10-23T08:30:34.000Z</time>
      </trkpt>
      <trkpt lat="3.5483543202281" lon="-76.25169790349901">
        <ele>1184.8</ele>
        <time>2022-10-23T08:30:42.000Z</time>
      </trkpt>
      <trkpt lat="3.5482021048665047" lon="-76.2524820305407">
        <ele>1183.8</ele>
        <time>2022-10-23T08:30:51.000Z</time>
      </trkpt>
      <trkpt lat="3.548022983595729" lon="-76.25329557806253">
        <ele>1183.6</ele>
        <time>2022-10-23T08:31:01.000Z</time>
      </trkpt>
      <trkpt lat="3.5479224007576704" lon="-76.25407610088587">
        <ele>1183.4</ele>
        <time>2022-10-23T08:31:10.000Z</time>
      </trkpt>
      <trkpt lat="3.5478328820317984" lon="-76.25484237447381">
        <ele>1182.2</ele>
        <time>2022-10-23T08:31:18.000Z</time>
      </trkpt>
      <trkpt lat="3.5477479733526707" lon="-76.25573278404772">
        <ele>1180.4</ele>
        <time>2022-10-23T08:31:28.000Z</time>
      </trkpt>
      <trkpt lat="3.547665411606431" lon="-76.25653333961964">
        <ele>1179</ele>
        <time>2022-10-23T08:31:37.000Z</time>
      </trkpt>
      <trkpt lat="3.5476906411349773" lon="-76.2572653312236">
        <ele>1177.6</ele>
        <time>2022-10-23T08:31:45.000Z</time>
      </trkpt>
      <trkpt lat="3.5478879511356354" lon="-76.25802389346063">
        <ele>1176.8</ele>
        <time>2022-10-23T08:31:54.000Z</time>
      </trkpt>
      <trkpt lat="3.548000603914261" lon="-76.25887038186193">
        <ele>1175.8</ele>
        <time>2022-10-23T08:32:04.000Z</time>
      </trkpt>
      <trkpt lat="3.547991467639804" lon="-76.25960354693234">
        <ele>1174.8</ele>
        <time>2022-10-23T08:32:12.000Z</time>
      </trkpt>
      <trkpt lat="3.547904882580042" lon="-76.26044207252562">
        <ele>1174</ele>
        <time>2022-10-23T08:32:22.000Z</time>
      </trkpt>
      <trkpt lat="3.5477383341640234" lon="-76.2611542828381">
        <ele>1172.4</ele>
        <time>2022-10-23T08:32:30.000Z</time>
      </trkpt>
      <trkpt lat="3.547446643933654" lon="-76.26189909875393">
        <ele>1171.2</ele>
        <time>2022-10-23T08:32:39.000Z</time>
      </trkpt>
      <trkpt lat="3.547033667564392" lon="-76.26267040148377">
        <ele>1170</ele>
        <time>2022-10-23T08:32:49.000Z</time>
      </trkpt>
      <trkpt lat="3.546610800549388" lon="-76.26342879608274">
        <ele>1168.8</ele>
        <time>2022-10-23T08:32:59.000Z</time>
      </trkpt>
      <trkpt lat="3.5462228022515774" lon="-76.26416489481926">
        <ele>1167.6</ele>
        <time>2022-10-23T08:33:09.000Z</time>
      </trkpt>
      <trkpt lat="3.545855423435569" lon="-76.2648740876466">
        <ele>1167.2</ele>
        <time>2022-10-23T08:33:19.000Z</time>
      </trkpt>
      <trkpt lat="3.545402130112052" lon="-76.26559434458613">
        <ele>1166.4</ele>
        <time>2022-10-23T08:33:29.000Z</time>
      </trkpt>
      <trkpt lat="3.5449366830289364" lon="-76.26628761179745">
        <ele>1165.6</ele>
        <time>2022-10-23T08:33:39.000Z</time>
      </trkpt>
      <trkpt lat="3.5445944499224424" lon="-76.26705924980342">
        <ele>1164.6</ele>
        <time>2022-10-23T08:33:49.000Z</time>
      </trkpt>
      <trkpt lat="3.544583134353161" lon="-76.26792158000171">
        <ele>1164</ele>
        <time>2022-10-23T08:33:59.000Z</time>
      </trkpt>
      <trkpt lat="3.5444986447691917" lon="-76.26869581639767">
        <ele>1162.8</ele>
        <time>2022-10-23T08:34:09.000Z</time>
      </trkpt>
      <trkpt lat="3.5443533025681973" lon="-76.26947709359229">
        <ele>1161.6</ele>
        <time>2022-10-23T08:34:19.000Z</time>
      </trkpt>
      <trkpt lat="3.544116849079728" lon="-76.27018603496253">
        <ele>1160</ele>
        <time>2022-10-23T08:34:30.000Z</time>
      </trkpt>
      <trkpt lat="3.5437841713428497" lon="-76.27099723555148">
        <ele>1157</ele>
        <time>2022-10-23T08:34:41.000Z</time>
      </trkpt>
      <trkpt lat="3.5433686804026365" lon="-76.27159888856113">
        <ele>1156.2</ele>
        <time>2022-10-23T08:34:49.000Z</time>
      </trkpt>
      <trkpt lat="3.542912621051073" lon="-76.27233691513538">
        <ele>1155.4</ele>
        <time>2022-10-23T08:34:59.000Z</time>
      </trkpt>
      <trkpt lat="3.5426893271505833" lon="-76.27307837828994">
        <ele>1155</ele>
        <time>2022-10-23T08:35:07.000Z</time>
      </trkpt>
      <trkpt lat="3.542441977187991" lon="-76.273786816746">
        <ele>1155.8</ele>
        <time>2022-10-23T08:35:14.000Z</time>
      </trkpt>
      <trkpt lat="3.5423779394477606" lon="-76.27394674345851">
        <ele>1156.2</ele>
        <time>2022-10-23T08:35:16.000Z</time>
      </trkpt>
      <trkpt lat="3.5422749258577824" lon="-76.27417925745249">
        <ele>1156.4</ele>
        <time>2022-10-23T08:35:19.000Z</time>
      </trkpt>
      <trkpt lat="3.541901931166649" lon="-76.27492289990187">
        <ele>1155.4</ele>
        <time>2022-10-23T08:35:29.000Z</time>
      </trkpt>
      <trkpt lat="3.5415604524314404" lon="-76.27567877992988">
        <ele>1154.2</ele>
        <time>2022-10-23T08:35:39.000Z</time>
      </trkpt>
      <trkpt lat="3.541303463280201" lon="-76.27642937935889">
        <ele>1153</ele>
        <time>2022-10-23T08:35:49.000Z</time>
      </trkpt>
      <trkpt lat="3.541066339239478" lon="-76.2771902885288">
        <ele>1152.8</ele>
        <time>2022-10-23T08:35:59.000Z</time>
      </trkpt>
      <trkpt lat="3.5409158002585173" lon="-76.27795924432576">
        <ele>1151.8</ele>
        <time>2022-10-23T08:36:09.000Z</time>
      </trkpt>
      <trkpt lat="3.5408226773142815" lon="-76.27870875410736">
        <ele>1150.8</ele>
        <time>2022-10-23T08:36:19.000Z</time>
      </trkpt>
      <trkpt lat="3.540712371468544" lon="-76.27946874126792">
        <ele>1150.2</ele>
        <time>2022-10-23T08:36:29.000Z</time>
      </trkpt>
      <trkpt lat="3.540568370372057" lon="-76.28025689162314">
        <ele>1149.4</ele>
        <time>2022-10-23T08:36:39.000Z</time>
      </trkpt>
      <trkpt lat="3.5404174122959375" lon="-76.28098326735198">
        <ele>1148.8</ele>
        <time>2022-10-23T08:36:49.000Z</time>
      </trkpt>
      <trkpt lat="3.5403291508555412" lon="-76.2815301027149">
        <ele>1148.4</ele>
        <time>2022-10-23T08:36:56.000Z</time>
      </trkpt>
      <trkpt lat="3.5401773545891047" lon="-76.282320600003">
        <ele>1147.8</ele>
        <time>2022-10-23T08:37:06.000Z</time>
      </trkpt>
      <trkpt lat="3.540037125349045" lon="-76.28305074758828">
        <ele>1146.8</ele>
        <time>2022-10-23T08:37:16.000Z</time>
      </trkpt>
      <trkpt lat="3.539895974099636" lon="-76.283805873245">
        <ele>1146.2</ele>
        <time>2022-10-23T08:37:26.000Z</time>
      </trkpt>
      <trkpt lat="3.5397409088909626" lon="-76.28458237275481">
        <ele>1145</ele>
        <time>2022-10-23T08:37:36.000Z</time>
      </trkpt>
      <trkpt lat="3.539602104574442" lon="-76.28531687892973">
        <ele>1144</ele>
        <time>2022-10-23T08:37:46.000Z</time>
      </trkpt>
      <trkpt lat="3.5394426807761192" lon="-76.28611081279814">
        <ele>1143.4</ele>
        <time>2022-10-23T08:37:56.000Z</time>
      </trkpt>
      <trkpt lat="3.5392798203974962" lon="-76.28689334727824">
        <ele>1142.6</ele>
        <time>2022-10-23T08:38:06.000Z</time>
      </trkpt>
      <trkpt lat="3.539119139313698" lon="-76.28769658505917">
        <ele>1141.8</ele>
        <time>2022-10-23T08:38:16.000Z</time>
      </trkpt>
      <trkpt lat="3.538965415209532" lon="-76.28846185281873">
        <ele>1141</ele>
        <time>2022-10-23T08:38:26.000Z</time>
      </trkpt>
      <trkpt lat="3.5388161335140467" lon="-76.28918889909983">
        <ele>1140.8</ele>
        <time>2022-10-23T08:38:36.000Z</time>
      </trkpt>
      <trkpt lat="3.5386621579527855" lon="-76.28995559178293">
        <ele>1140</ele>
        <time>2022-10-23T08:38:48.000Z</time>
      </trkpt>
      <trkpt lat="3.5385216772556305" lon="-76.29062589257956">
        <ele>1139.6</ele>
        <time>2022-10-23T08:39:46.000Z</time>
      </trkpt>
      <trkpt lat="3.5384701285511255" lon="-76.29077140241861">
        <ele>1139.8</ele>
        <time>2022-10-23T08:39:55.000Z</time>
      </trkpt>
      <trkpt lat="3.538421429693699" lon="-76.29080409184098">
        <ele>1139.8</ele>
        <time>2022-10-23T08:39:57.000Z</time>
      </trkpt>
      <trkpt lat="3.5383608285337687" lon="-76.29080560058355">
        <ele>1139.8</ele>
        <time>2022-10-23T08:39:59.000Z</time>
      </trkpt>
      <trkpt lat="3.537620957940817" lon="-76.29074734635651">
        <ele>1139</ele>
        <time>2022-10-23T08:40:17.000Z</time>
      </trkpt>
      <trkpt lat="3.5373796429485083" lon="-76.29075606353581">
        <ele>1138.8</ele>
        <time>2022-10-23T08:40:27.000Z</time>
      </trkpt>
      <trkpt lat="3.5373786371201277" lon="-76.29076008684933">
        <ele>1138.8</ele>
        <time>2022-10-23T08:40:34.000Z</time>
      </trkpt>
      <trkpt lat="3.5373518150299788" lon="-76.29075489006937">
        <ele>1138.8</ele>
        <time>2022-10-23T08:41:52.000Z</time>
      </trkpt>
      <trkpt lat="3.5373363085091114" lon="-76.2907475978136">
        <ele>1138.8</ele>
        <time>2022-10-23T08:41:54.000Z</time>
      </trkpt>
      <trkpt lat="3.537301439791918" lon="-76.29073988646269">
        <ele>1138.8</ele>
        <time>2022-10-23T08:41:57.000Z</time>
      </trkpt>
      <trkpt lat="3.5372311156243086" lon="-76.29069956950843">
        <ele>1138.8</ele>
        <time>2022-10-23T08:42:01.000Z</time>
      </trkpt>
      <trkpt lat="3.537193313241005" lon="-76.29061005078256">
        <ele>1138.8</ele>
        <time>2022-10-23T08:42:05.000Z</time>
      </trkpt>
      <trkpt lat="3.537152325734496" lon="-76.29058406688273">
        <ele>1138.8</ele>
        <time>2022-10-23T08:42:07.000Z</time>
      </trkpt>
      <trkpt lat="3.537015113979578" lon="-76.29054584540427">
        <ele>1138.8</ele>
        <time>2022-10-23T08:42:15.000Z</time>
      </trkpt>
      <trkpt lat="3.5369991045445204" lon="-76.29053805023432">
        <ele>1139</ele>
        <time>2022-10-23T08:42:33.000Z</time>
      </trkpt>
      <trkpt lat="3.537051659077406" lon="-76.2905683927238">
        <ele>1138.4</ele>
        <time>2022-10-23T08:46:57.000Z</time>
      </trkpt>
      <trkpt lat="3.537054341286421" lon="-76.29057861864567">
        <ele>1137.8</ele>
        <time>2022-10-23T08:47:00.000Z</time>
      </trkpt>
      <trkpt lat="3.537058951333165" lon="-76.29058155231178">
        <ele>1138</ele>
        <time>2022-10-23T08:47:02.000Z</time>
      </trkpt>
      <trkpt lat="3.537087868899107" lon="-76.29058079794049">
        <ele>1138</ele>
        <time>2022-10-23T08:47:05.000Z</time>
      </trkpt>
      <trkpt lat="3.5372494719922543" lon="-76.29058792255819">
        <ele>1138</ele>
        <time>2022-10-23T08:47:20.000Z</time>
      </trkpt>
      <trkpt lat="3.537393808364868" lon="-76.29073611460626">
        <ele>1050.6</ele>
        <time>2022-10-23T08:46:16.000Z</time>
      </trkpt>
      <trkpt lat="3.5373768769204617" lon="-76.29072739742696">
        <ele>1042.8</ele>
        <time>2022-10-23T08:46:33.000Z</time>
      </trkpt>
      <trkpt lat="3.5373863484710455" lon="-76.29075489006937">
        <ele>1042.6</ele>
        <time>2022-10-23T08:47:33.000Z</time>
      </trkpt>
      <trkpt lat="3.537354161962867" lon="-76.290751285851">
        <ele>1042</ele>
        <time>2022-10-23T08:48:52.000Z</time>
      </trkpt>
      <trkpt lat="3.537326166406274" lon="-76.29076285287738">
        <ele>1042.2</ele>
        <time>2022-10-23T08:48:55.000Z</time>
      </trkpt>
      <trkpt lat="3.5372388269752264" lon="-76.2908324226737">
        <ele>1042.2</ele>
        <time>2022-10-23T08:49:00.000Z</time>
      </trkpt>
      <trkpt lat="3.5371666587889194" lon="-76.29107960499823">
        <ele>1041.6</ele>
        <time>2022-10-23T08:49:08.000Z</time>
      </trkpt>
      <trkpt lat="3.5372753720730543" lon="-76.29189332015812">
        <ele>1041.2</ele>
        <time>2022-10-23T08:49:23.000Z</time>
      </trkpt>
      <trkpt lat="3.5373964067548513" lon="-76.29266009666026">
        <ele>1040.6</ele>
        <time>2022-10-23T08:49:35.000Z</time>
      </trkpt>
      <trkpt lat="3.5375189501792192" lon="-76.29343441687524">
        <ele>1040</ele>
        <time>2022-10-23T08:49:47.000Z</time>
      </trkpt>
      <trkpt lat="3.5376413259655237" lon="-76.29421778954566">
        <ele>1039.4</ele>
        <time>2022-10-23T08:49:59.000Z</time>
      </trkpt>
      <trkpt lat="3.537756409496069" lon="-76.29501909948885">
        <ele>1039.2</ele>
        <time>2022-10-23T08:50:11.000Z</time>
      </trkpt>
      <trkpt lat="3.5378881730139256" lon="-76.29585159011185">
        <ele>1038.4</ele>
        <time>2022-10-23T08:50:23.000Z</time>
      </trkpt>
      <trkpt lat="3.53801591321826" lon="-76.29665826447308">
        <ele>1037.4</ele>
        <time>2022-10-23T08:50:37.000Z</time>
      </trkpt>
      <trkpt lat="3.538229651749134" lon="-76.29719831049442">
        <ele>1036.8</ele>
        <time>2022-10-23T08:50:48.000Z</time>
      </trkpt>
      <trkpt lat="3.5382216051220894" lon="-76.29727559164166">
        <ele>1036.8</ele>
        <time>2022-10-23T08:50:50.000Z</time>
      </trkpt>
      <trkpt lat="3.5380216129124165" lon="-76.2976327445358">
        <ele>1036.8</ele>
        <time>2022-10-23T08:50:58.000Z</time>
      </trkpt>
      <trkpt lat="3.53808187879622" lon="-76.29805007949471">
        <ele>1036.4</ele>
        <time>2022-10-23T08:51:05.000Z</time>
      </trkpt>
      <trkpt lat="3.5382059309631586" lon="-76.29881735891104">
        <ele>1036</ele>
        <time>2022-10-23T08:51:16.000Z</time>
      </trkpt>
      <trkpt lat="3.5383343417197466" lon="-76.29963677376509">
        <ele>1035.6</ele>
        <time>2022-10-23T08:51:28.000Z</time>
      </trkpt>
      <trkpt lat="3.5384474135935307" lon="-76.30039709620178">
        <ele>1034.6</ele>
        <time>2022-10-23T08:51:40.000Z</time>
      </trkpt>
      <trkpt lat="3.5385146364569664" lon="-76.30082884803414">
        <ele>1034.2</ele>
        <time>2022-10-23T08:51:53.000Z</time>
      </trkpt>
      <trkpt lat="3.538530310615897" lon="-76.30085005424917">
        <ele>1034.2</ele>
        <time>2022-10-23T08:51:56.000Z</time>
      </trkpt>
      <trkpt lat="3.538563922047615" lon="-76.3012558221817">
        <ele>1034.6</ele>
        <time>2022-10-23T08:52:08.000Z</time>
      </trkpt>
      <trkpt lat="3.538630474358797" lon="-76.30200038664043">
        <ele>1033.4</ele>
        <time>2022-10-23T08:52:21.000Z</time>
      </trkpt>
      <trkpt lat="3.5386873036623" lon="-76.30277981981635">
        <ele>1033.2</ele>
        <time>2022-10-23T08:52:33.000Z</time>
      </trkpt>
      <trkpt lat="3.5387499164789915" lon="-76.3035545591265">
        <ele>1032.6</ele>
        <time>2022-10-23T08:52:44.000Z</time>
      </trkpt>
      <trkpt lat="3.5388134513050318" lon="-76.30429778248072">
        <ele>1032.4</ele>
        <time>2022-10-23T08:52:54.000Z</time>
      </trkpt>
      <trkpt lat="3.5388939175754786" lon="-76.30508576519787">
        <ele>1031.4</ele>
        <time>2022-10-23T08:53:05.000Z</time>
      </trkpt>
      <trkpt lat="3.5389726236462593" lon="-76.30585128441453">
        <ele>1030.4</ele>
        <time>2022-10-23T08:53:19.000Z</time>
      </trkpt>
      <trkpt lat="3.5390161257237196" lon="-76.30659031681716">
        <ele>1029.8</ele>
        <time>2022-10-23T08:53:34.000Z</time>
      </trkpt>
      <trkpt lat="3.539052167907357" lon="-76.30732641555369">
        <ele>1029.6</ele>
        <time>2022-10-23T08:53:47.000Z</time>
      </trkpt>
      <trkpt lat="3.539070440456271" lon="-76.3080595806241">
        <ele>1029.2</ele>
        <time>2022-10-23T08:54:03.000Z</time>
      </trkpt>
      <trkpt lat="3.539035404101014" lon="-76.30882040597498">
        <ele>1029.2</ele>
        <time>2022-10-23T08:54:21.000Z</time>
      </trkpt>
      <trkpt lat="3.5390121024101973" lon="-76.30959925241768">
        <ele>1028.2</ele>
        <time>2022-10-23T08:54:37.000Z</time>
      </trkpt>
      <trkpt lat="3.538978323340416" lon="-76.31035479716957">
        <ele>1027.6</ele>
        <time>2022-10-23T08:54:52.000Z</time>
      </trkpt>
      <trkpt lat="3.5389781557023525" lon="-76.31108435802162">
        <ele>1027</ele>
        <time>2022-10-23T08:55:07.000Z</time>
      </trkpt>
      <trkpt lat="3.538955608382821" lon="-76.31188533268869">
        <ele>1026.6</ele>
        <time>2022-10-23T08:55:21.000Z</time>
      </trkpt>
      <trkpt lat="3.5389228351414204" lon="-76.31270541809499">
        <ele>1026</ele>
        <time>2022-10-23T08:55:35.000Z</time>
      </trkpt>
      <trkpt lat="3.538909340277314" lon="-76.3135027885437">
        <ele>1025.2</ele>
        <time>2022-10-23T08:55:47.000Z</time>
      </trkpt>
      <trkpt lat="3.538895845413208" lon="-76.31433980539441">
        <ele>1025</ele>
        <time>2022-10-23T08:55:59.000Z</time>
      </trkpt>
      <trkpt lat="3.5388851165771484" lon="-76.3150774128735">
        <ele>1024.4</ele>
        <time>2022-10-23T08:56:09.000Z</time>
      </trkpt>
      <trkpt lat="3.5388759803026915" lon="-76.31582826375961">
        <ele>1023.6</ele>
        <time>2022-10-23T08:56:19.000Z</time>
      </trkpt>
      <trkpt lat="3.538863407447934" lon="-76.31659931503236">
        <ele>1023.4</ele>
        <time>2022-10-23T08:56:29.000Z</time>
      </trkpt>
      <trkpt lat="3.5388511698693037" lon="-76.31738285534084">
        <ele>1023.2</ele>
        <time>2022-10-23T08:56:39.000Z</time>
      </trkpt>
      <trkpt lat="3.538712952286005" lon="-76.31814762018621">
        <ele>1023</ele>
        <time>2022-10-23T08:56:49.000Z</time>
      </trkpt>
      <trkpt lat="3.538332413882017" lon="-76.31880559958518">
        <ele>1022.2</ele>
        <time>2022-10-23T08:56:59.000Z</time>
      </trkpt>
      <trkpt lat="3.537759678438306" lon="-76.31932276301086">
        <ele>1022</ele>
        <time>2022-10-23T08:57:09.000Z</time>
      </trkpt>
      <trkpt lat="3.5371283534914255" lon="-76.31980480626225">
        <ele>1021.2</ele>
        <time>2022-10-23T08:57:19.000Z</time>
      </trkpt>
      <trkpt lat="3.5364948492497206" lon="-76.32028827443719">
        <ele>1021</ele>
        <time>2022-10-23T08:57:29.000Z</time>
      </trkpt>
      <trkpt lat="3.5358561482280493" lon="-76.32072128355503">
        <ele>1020.8</ele>
        <time>2022-10-23T08:57:39.000Z</time>
      </trkpt>
      <trkpt lat="3.5351654794067144" lon="-76.32110877893865">
        <ele>1020.4</ele>
        <time>2022-10-23T08:57:49.000Z</time>
      </trkpt>
      <trkpt lat="3.5345086734741926" lon="-76.321527287364">
        <ele>1020.2</ele>
        <time>2022-10-23T08:57:59.000Z</time>
      </trkpt>
      <trkpt lat="3.533886820077896" lon="-76.32196633145213">
        <ele>1020.2</ele>
        <time>2022-10-23T08:58:09.000Z</time>
      </trkpt>
      <trkpt lat="3.5332738514989614" lon="-76.32240805774927">
        <ele>1019.4</ele>
        <time>2022-10-23T08:58:18.000Z</time>
      </trkpt>
      <trkpt lat="3.532609334215522" lon="-76.32286629639566">
        <ele>1019</ele>
        <time>2022-10-23T08:58:28.000Z</time>
      </trkpt>
      <trkpt lat="3.531948169693351" lon="-76.3233320787549">
        <ele>1019</ele>
        <time>2022-10-23T08:58:38.000Z</time>
      </trkpt>
      <trkpt lat="3.531280467286706" lon="-76.32380163297057">
        <ele>1018.4</ele>
        <time>2022-10-23T08:58:48.000Z</time>
      </trkpt>
      <trkpt lat="3.530600108206272" lon="-76.32427806034684">
        <ele>1017.4</ele>
        <time>2022-10-23T08:58:58.000Z</time>
      </trkpt>
      <trkpt lat="3.5299128759652376" lon="-76.32476630620658">
        <ele>1016.4</ele>
        <time>2022-10-23T08:59:08.000Z</time>
      </trkpt>
      <trkpt lat="3.5292069520801306" lon="-76.32526243105531">
        <ele>1015.8</ele>
        <time>2022-10-23T08:59:18.000Z</time>
      </trkpt>
      <trkpt lat="3.5285184625536203" lon="-76.32574682123959">
        <ele>1015</ele>
        <time>2022-10-23T08:59:28.000Z</time>
      </trkpt>
      <trkpt lat="3.5278543643653393" lon="-76.32624906487763">
        <ele>1014.6</ele>
        <time>2022-10-23T08:59:38.000Z</time>
      </trkpt>
      <trkpt lat="3.527309624478221" lon="-76.32686756551266">
        <ele>1014.6</ele>
        <time>2022-10-23T08:59:48.000Z</time>
      </trkpt>
      <trkpt lat="3.5269551537930965" lon="-76.3276354316622">
        <ele>1014.2</ele>
        <time>2022-10-23T08:59:58.000Z</time>
      </trkpt>
      <trkpt lat="3.526750635355711" lon="-76.3284544274211">
        <ele>1013.8</ele>
        <time>2022-10-23T09:00:08.000Z</time>
      </trkpt>
      <trkpt lat="3.5265891160815954" lon="-76.32928390055895">
        <ele>1013.2</ele>
        <time>2022-10-23T09:00:18.000Z</time>
      </trkpt>
      <trkpt lat="3.5263926442712545" lon="-76.33012812584639">
        <ele>1012.8</ele>
        <time>2022-10-23T09:00:28.000Z</time>
      </trkpt>
      <trkpt lat="3.5262088291347027" lon="-76.33095391094685">
        <ele>1012.2</ele>
        <time>2022-10-23T09:00:38.000Z</time>
      </trkpt>
      <trkpt lat="3.5260186437517405" lon="-76.33174130693078">
        <ele>1012</ele>
        <time>2022-10-23T09:00:48.000Z</time>
      </trkpt>
      <trkpt lat="3.5258419532328844" lon="-76.33252459578216">
        <ele>1011.2</ele>
        <time>2022-10-23T09:00:57.000Z</time>
      </trkpt>
      <trkpt lat="3.525660317391157" lon="-76.33332783356309">
        <ele>1010.4</ele>
        <time>2022-10-23T09:01:06.000Z</time>
      </trkpt>
      <trkpt lat="3.525503408163786" lon="-76.33403962478042">
        <ele>1010.2</ele>
        <time>2022-10-23T09:01:14.000Z</time>
      </trkpt>
      <trkpt lat="3.525344654917717" lon="-76.33475879207253">
        <ele>1010.6</ele>
        <time>2022-10-23T09:01:22.000Z</time>
      </trkpt>
      <trkpt lat="3.525157319381833" lon="-76.33559413254261">
        <ele>1010</ele>
        <time>2022-10-23T09:01:32.000Z</time>
      </trkpt>
      <trkpt lat="3.5249693132936954" lon="-76.33643827401102">
        <ele>1009.2</ele>
        <time>2022-10-23T09:01:42.000Z</time>
      </trkpt>
      <trkpt lat="3.524773344397545" lon="-76.33729993365705">
        <ele>1008.6</ele>
        <time>2022-10-23T09:01:52.000Z</time>
      </trkpt>
      <trkpt lat="3.524616099894047" lon="-76.33801432326436">
        <ele>1008</ele>
        <time>2022-10-23T09:02:00.000Z</time>
      </trkpt>
      <trkpt lat="3.524433793500066" lon="-76.33879710920155">
        <ele>1007.2</ele>
        <time>2022-10-23T09:02:10.000Z</time>
      </trkpt>
      <trkpt lat="3.524259366095066" lon="-76.33958358317614">
        <ele>1006.2</ele>
        <time>2022-10-23T09:02:19.000Z</time>
      </trkpt>
      <trkpt lat="3.5241004452109337" lon="-76.34037910960615">
        <ele>1005.8</ele>
        <time>2022-10-23T09:02:28.000Z</time>
      </trkpt>
      <trkpt lat="3.5239579528570175" lon="-76.34109090082347">
        <ele>1005.4</ele>
        <time>2022-10-23T09:02:36.000Z</time>
      </trkpt>
      <trkpt lat="3.523822333663702" lon="-76.3418753631413">
        <ele>1005.2</ele>
        <time>2022-10-23T09:02:45.000Z</time>
      </trkpt>
      <trkpt lat="3.52372694760561" lon="-76.34270927868783">
        <ele>1004.6</ele>
        <time>2022-10-23T09:02:55.000Z</time>
      </trkpt>
      <trkpt lat="3.5235934238880873" lon="-76.34345761500299">
        <ele>1004.4</ele>
        <time>2022-10-23T09:03:07.000Z</time>
      </trkpt>
      <trkpt lat="3.52338295429945" lon="-76.34425884112716">
        <ele>1004</ele>
        <time>2022-10-23T09:03:19.000Z</time>
      </trkpt>
      <trkpt lat="3.523204419761896" lon="-76.34506576694548">
        <ele>1003.6</ele>
        <time>2022-10-23T09:03:31.000Z</time>
      </trkpt>
      <trkpt lat="3.523042816668749" lon="-76.34577361866832">
        <ele>1003.6</ele>
        <time>2022-10-23T09:03:41.000Z</time>
      </trkpt>
      <trkpt lat="3.5228766035288572" lon="-76.34648381732404">
        <ele>1003.8</ele>
        <time>2022-10-23T09:03:51.000Z</time>
      </trkpt>
      <trkpt lat="3.5227071214467287" lon="-76.34721832349896">
        <ele>1004</ele>
        <time>2022-10-23T09:04:01.000Z</time>
      </trkpt>
      <trkpt lat="3.5225366335362196" lon="-76.34797562845051">
        <ele>1004.2</ele>
        <time>2022-10-23T09:04:11.000Z</time>
      </trkpt>
      <trkpt lat="3.5223608650267124" lon="-76.3487393874675">
        <ele>1004</ele>
        <time>2022-10-23T09:04:21.000Z</time>
      </trkpt>
      <trkpt lat="3.522188449278474" lon="-76.34949878789485">
        <ele>1005</ele>
        <time>2022-10-23T09:04:31.000Z</time>
      </trkpt>
      <trkpt lat="3.52200991474092" lon="-76.35026942007244">
        <ele>1005.2</ele>
        <time>2022-10-23T09:04:41.000Z</time>
      </trkpt>
      <trkpt lat="3.5218351520597935" lon="-76.35105958208442">
        <ele>1004</ele>
        <time>2022-10-23T09:04:51.000Z</time>
      </trkpt>
      <trkpt lat="3.52164882235229" lon="-76.3518891390413">
        <ele>1003.2</ele>
        <time>2022-10-23T09:05:01.000Z</time>
      </trkpt>
      <trkpt lat="3.5214634146541357" lon="-76.35272682644427">
        <ele>1002.4</ele>
        <time>2022-10-23T09:05:11.000Z</time>
      </trkpt>
      <trkpt lat="3.521318659186363" lon="-76.35357490740716">
        <ele>1001.8</ele>
        <time>2022-10-23T09:05:21.000Z</time>
      </trkpt>
      <trkpt lat="3.521186141297221" lon="-76.35440530255437">
        <ele>1001.4</ele>
        <time>2022-10-23T09:05:31.000Z</time>
      </trkpt>
      <trkpt lat="3.521058317273855" lon="-76.35524231940508">
        <ele>1001</ele>
        <time>2022-10-23T09:05:41.000Z</time>
      </trkpt>
      <trkpt lat="3.520923452451825" lon="-76.35607179254293">
        <ele>1000.8</ele>
        <time>2022-10-23T09:05:51.000Z</time>
      </trkpt>
      <trkpt lat="3.5208008252084255" lon="-76.35690160095692">
        <ele>1000.8</ele>
        <time>2022-10-23T09:06:01.000Z</time>
      </trkpt>
      <trkpt lat="3.5206379648298025" lon="-76.35774582624435">
        <ele>1000.6</ele>
        <time>2022-10-23T09:06:11.000Z</time>
      </trkpt>
      <trkpt lat="3.520452808588743" lon="-76.3585911411792">
        <ele>1000.2</ele>
        <time>2022-10-23T09:06:21.000Z</time>
      </trkpt>
      <trkpt lat="3.5202644672244787" lon="-76.3594289124012">
        <ele>999.6</ele>
        <time>2022-10-23T09:06:31.000Z</time>
      </trkpt>
      <trkpt lat="3.5200772993266582" lon="-76.36026442050934">
        <ele>999.4</ele>
        <time>2022-10-23T09:06:41.000Z</time>
      </trkpt>
      <trkpt lat="3.5198881197720766" lon="-76.36109909042716">
        <ele>998.8</ele>
        <time>2022-10-23T09:06:51.000Z</time>
      </trkpt>
      <trkpt lat="3.5196908935904503" lon="-76.36192940175533">
        <ele>999</ele>
        <time>2022-10-23T09:07:01.000Z</time>
      </trkpt>
      <trkpt lat="3.5194706171751022" lon="-76.36276490986347">
        <ele>998.6</ele>
        <time>2022-10-23T09:07:11.000Z</time>
      </trkpt>
      <trkpt lat="3.5192558728158474" lon="-76.36361081153154">
        <ele>997.8</ele>
        <time>2022-10-23T09:07:21.000Z</time>
      </trkpt>
      <trkpt lat="3.5190426371991634" lon="-76.36441388167441">
        <ele>998</ele>
        <time>2022-10-23T09:07:31.000Z</time>
      </trkpt>
      <trkpt lat="3.518829820677638" lon="-76.36522877030075">
        <ele>997.8</ele>
        <time>2022-10-23T09:07:41.000Z</time>
      </trkpt>
      <trkpt lat="3.51861541159451" lon="-76.36603695340455">
        <ele>997.8</ele>
        <time>2022-10-23T09:07:51.000Z</time>
      </trkpt>
      <trkpt lat="3.518397146835923" lon="-76.36685787700117">
        <ele>997.2</ele>
        <time>2022-10-23T09:08:01.000Z</time>
      </trkpt>
      <trkpt lat="3.518184330314398" lon="-76.36769807897508">
        <ele>997.2</ele>
        <time>2022-10-23T09:08:11.000Z</time>
      </trkpt>
      <trkpt lat="3.517966317012906" lon="-76.36853283271194">
        <ele>997</ele>
        <time>2022-10-23T09:08:21.000Z</time>
      </trkpt>
      <trkpt lat="3.5177405923604965" lon="-76.36938485316932">
        <ele>997</ele>
        <time>2022-10-23T09:08:31.000Z</time>
      </trkpt>
      <trkpt lat="3.517518136650324" lon="-76.37023611925542">
        <ele>996.8</ele>
        <time>2022-10-23T09:08:41.000Z</time>
      </trkpt>
      <trkpt lat="3.517311941832304" lon="-76.37109559960663">
        <ele>995.8</ele>
        <time>2022-10-23T09:08:51.000Z</time>
      </trkpt>
      <trkpt lat="3.5171298030763865" lon="-76.37189590372145">
        <ele>995.4</ele>
        <time>2022-10-23T09:09:01.000Z</time>
      </trkpt>
      <trkpt lat="3.516952358186245" lon="-76.37266678735614">
        <ele>995.4</ele>
        <time>2022-10-23T09:09:11.000Z</time>
      </trkpt>
      <trkpt lat="3.516781870275736" lon="-76.3734059035778">
        <ele>995.2</ele>
        <time>2022-10-23T09:09:21.000Z</time>
      </trkpt>
      <trkpt lat="3.5166296549141407" lon="-76.37411979027092">
        <ele>995.2</ele>
        <time>2022-10-23T09:09:31.000Z</time>
      </trkpt>
      <trkpt lat="3.5164603404700756" lon="-76.37487642467022">
        <ele>995.4</ele>
        <time>2022-10-23T09:09:43.000Z</time>
      </trkpt>
      <trkpt lat="3.516281805932522" lon="-76.37567513622344">
        <ele>995.2</ele>
        <time>2022-10-23T09:09:55.000Z</time>
      </trkpt>
      <trkpt lat="3.516117436811328" lon="-76.37641089968383">
        <ele>994.8</ele>
        <time>2022-10-23T09:10:05.000Z</time>
      </trkpt>
      <trkpt lat="3.5159428417682648" lon="-76.37719695456326">
        <ele>994.6</ele>
        <time>2022-10-23T09:10:15.000Z</time>
      </trkpt>
      <trkpt lat="3.515770845115185" lon="-76.37799591757357">
        <ele>994.2</ele>
        <time>2022-10-23T09:10:25.000Z</time>
      </trkpt>
      <trkpt lat="3.5155848506838083" lon="-76.37879479676485">
        <ele>994.2</ele>
        <time>2022-10-23T09:10:35.000Z</time>
      </trkpt>
      <trkpt lat="3.5153623949736357" lon="-76.37960490770638">
        <ele>993.8</ele>
        <time>2022-10-23T09:10:45.000Z</time>
      </trkpt>
      <trkpt lat="3.5151204094290733" lon="-76.38043144717813">
        <ele>993.2</ele>
        <time>2022-10-23T09:10:55.000Z</time>
      </trkpt>
      <trkpt lat="3.514890158548951" lon="-76.38126385398209">
        <ele>992.8</ele>
        <time>2022-10-23T09:11:05.000Z</time>
      </trkpt>
      <trkpt lat="3.5146851371973753" lon="-76.38210891745985">
        <ele>992.2</ele>
        <time>2022-10-23T09:11:15.000Z</time>
      </trkpt>
      <trkpt lat="3.514491431415081" lon="-76.38296311721206">
        <ele>991.6</ele>
        <time>2022-10-23T09:11:25.000Z</time>
      </trkpt>
      <trkpt lat="3.5142963007092476" lon="-76.3838274590671">
        <ele>991.2</ele>
        <time>2022-10-23T09:11:35.000Z</time>
      </trkpt>
      <trkpt lat="3.51412246003747" lon="-76.38470043428242">
        <ele>991</ele>
        <time>2022-10-23T09:11:45.000Z</time>
      </trkpt>
      <trkpt lat="3.5139953903853893" lon="-76.38549814000726">
        <ele>991</ele>
        <time>2022-10-23T09:11:54.000Z</time>
      </trkpt>
      <trkpt lat="3.513874104246497" lon="-76.3862139545381">
        <ele>991.2</ele>
        <time>2022-10-23T09:12:02.000Z</time>
      </trkpt>
      <trkpt lat="3.513726918026805" lon="-76.38700562529266">
        <ele>991.2</ele>
        <time>2022-10-23T09:12:11.000Z</time>
      </trkpt>
      <trkpt lat="3.513531368225813" lon="-76.38787935487926">
        <ele>991.2</ele>
        <time>2022-10-23T09:12:21.000Z</time>
      </trkpt>
      <trkpt lat="3.5133359022438526" lon="-76.38873011805117">
        <ele>990.6</ele>
        <time>2022-10-23T09:12:31.000Z</time>
      </trkpt>
      <trkpt lat="3.513152925297618" lon="-76.38950712047517">
        <ele>990.2</ele>
        <time>2022-10-23T09:12:41.000Z</time>
      </trkpt>
      <trkpt lat="3.512972127646208" lon="-76.39031991362572">
        <ele>989.8</ele>
        <time>2022-10-23T09:12:53.000Z</time>
      </trkpt>
      <trkpt lat="3.5127834510058165" lon="-76.39115232042968">
        <ele>989.6</ele>
        <time>2022-10-23T09:13:05.000Z</time>
      </trkpt>
      <trkpt lat="3.5126267932355404" lon="-76.39185790903866">
        <ele>989.2</ele>
        <time>2022-10-23T09:13:15.000Z</time>
      </trkpt>
      <trkpt lat="3.5124677885323763" lon="-76.39263985678554">
        <ele>988.8</ele>
        <time>2022-10-23T09:13:26.000Z</time>
      </trkpt>
      <trkpt lat="3.5123411379754543" lon="-76.39335290528834">
        <ele>988.8</ele>
        <time>2022-10-23T09:13:36.000Z</time>
      </trkpt>
      <trkpt lat="3.5122118052095175" lon="-76.39408238232136">
        <ele>988.4</ele>
        <time>2022-10-23T09:13:46.000Z</time>
      </trkpt>
      <trkpt lat="3.5121016670018435" lon="-76.39481294900179">
        <ele>987.8</ele>
        <time>2022-10-23T09:13:56.000Z</time>
      </trkpt>
      <trkpt lat="3.5119839012622833" lon="-76.3955408334732">
        <ele>987.6</ele>
        <time>2022-10-23T09:14:06.000Z</time>
      </trkpt>
      <trkpt lat="3.5118904430419207" lon="-76.39628011733294">
        <ele>988</ele>
        <time>2022-10-23T09:14:16.000Z</time>
      </trkpt>
      <trkpt lat="3.511784914880991" lon="-76.3970126118511">
        <ele>987.8</ele>
        <time>2022-10-23T09:14:26.000Z</time>
      </trkpt>
      <trkpt lat="3.511609649285674" lon="-76.39778190292418">
        <ele>987.2</ele>
        <time>2022-10-23T09:14:36.000Z</time>
      </trkpt>
      <trkpt lat="3.5114336293190718" lon="-76.398547841236">
        <ele>986.8</ele>
        <time>2022-10-23T09:14:46.000Z</time>
      </trkpt>
      <trkpt lat="3.5112602915614843" lon="-76.39932660385966">
        <ele>986.6</ele>
        <time>2022-10-23T09:14:56.000Z</time>
      </trkpt>
      <trkpt lat="3.5110646579414606" lon="-76.40013344585896">
        <ele>986.6</ele>
        <time>2022-10-23T09:15:06.000Z</time>
      </trkpt>
      <trkpt lat="3.510788641870022" lon="-76.40097641386092">
        <ele>986.2</ele>
        <time>2022-10-23T09:15:16.000Z</time>
      </trkpt>
      <trkpt lat="3.510504411533475" lon="-76.4017338026315">
        <ele>985.8</ele>
        <time>2022-10-23T09:15:25.000Z</time>
      </trkpt>
      <trkpt lat="3.510188665241003" lon="-76.40257115475833">
        <ele>985.6</ele>
        <time>2022-10-23T09:15:35.000Z</time>
      </trkpt>
      <trkpt lat="3.509951289743185" lon="-76.40325084328651">
        <ele>985.4</ele>
        <time>2022-10-23T09:15:43.000Z</time>
      </trkpt>
      <trkpt lat="3.5097229667007923" lon="-76.4040941465646">
        <ele>985.2</ele>
        <time>2022-10-23T09:15:53.000Z</time>
      </trkpt>
      <trkpt lat="3.5095264110714197" lon="-76.4049353543669">
        <ele>985</ele>
        <time>2022-10-23T09:16:03.000Z</time>
      </trkpt>
      <trkpt lat="3.509336393326521" lon="-76.40577589161694">
        <ele>984.4</ele>
        <time>2022-10-23T09:16:13.000Z</time>
      </trkpt>
      <trkpt lat="3.509141430258751" lon="-76.40662212856114">
        <ele>984.2</ele>
        <time>2022-10-23T09:16:23.000Z</time>
      </trkpt>
      <trkpt lat="3.5089613031595945" lon="-76.40742109157145">
        <ele>983.8</ele>
        <time>2022-10-23T09:16:31.000Z</time>
      </trkpt>
      <trkpt lat="3.5087848640978336" lon="-76.40820396132767">
        <ele>983.6</ele>
        <time>2022-10-23T09:16:40.000Z</time>
      </trkpt>
      <trkpt lat="3.5085893142968416" lon="-76.40907132066786">
        <ele>983.4</ele>
        <time>2022-10-23T09:16:50.000Z</time>
      </trkpt>
      <trkpt lat="3.5084134619683027" lon="-76.40986139886081">
        <ele>983.6</ele>
        <time>2022-10-23T09:16:59.000Z</time>
      </trkpt>
      <trkpt lat="3.5082630906254053" lon="-76.41057914122939">
        <ele>983.6</ele>
        <time>2022-10-23T09:17:07.000Z</time>
      </trkpt>
      <trkpt lat="3.508119424805045" lon="-76.41131683252752">
        <ele>983.4</ele>
        <time>2022-10-23T09:17:15.000Z</time>
      </trkpt>
      <trkpt lat="3.507973663508892" lon="-76.41203214414418">
        <ele>983.6</ele>
        <time>2022-10-23T09:17:23.000Z</time>
      </trkpt>
      <trkpt lat="3.5078468453139067" lon="-76.4127648063004">
        <ele>983.8</ele>
        <time>2022-10-23T09:17:31.000Z</time>
      </trkpt>
      <trkpt lat="3.507702089846134" lon="-76.41348590143025">
        <ele>983.4</ele>
        <time>2022-10-23T09:17:39.000Z</time>
      </trkpt>
      <trkpt lat="3.5075590945780277" lon="-76.41420691274107">
        <ele>983.2</ele>
        <time>2022-10-23T09:17:47.000Z</time>
      </trkpt>
      <trkpt lat="3.507379638031125" lon="-76.41499439254403">
        <ele>983</ele>
        <time>2022-10-23T09:17:56.000Z</time>
      </trkpt>
      <trkpt lat="3.5072168614715338" lon="-76.41570090316236">
        <ele>982.8</ele>
        <time>2022-10-23T09:18:04.000Z</time>
      </trkpt>
      <trkpt lat="3.5070528276264668" lon="-76.41641210764647">
        <ele>983.2</ele>
        <time>2022-10-23T09:18:12.000Z</time>
      </trkpt>
      <trkpt lat="3.5068856086581945" lon="-76.41715046949685">
        <ele>983.2</ele>
        <time>2022-10-23T09:18:20.000Z</time>
      </trkpt>
      <trkpt lat="3.5067167971283197" lon="-76.41789612360299">
        <ele>983</ele>
        <time>2022-10-23T09:18:28.000Z</time>
      </trkpt>
      <trkpt lat="3.506545890122652" lon="-76.41865183599293">
        <ele>983</ele>
        <time>2022-10-23T09:18:36.000Z</time>
      </trkpt>
      <trkpt lat="3.506365343928337" lon="-76.41944191418588">
        <ele>983.2</ele>
        <time>2022-10-23T09:18:45.000Z</time>
      </trkpt>
      <trkpt lat="3.506181947886944" lon="-76.42023844644427">
        <ele>983.2</ele>
        <time>2022-10-23T09:18:54.000Z</time>
      </trkpt>
      <trkpt lat="3.506006095558405" lon="-76.4210194721818">
        <ele>983</ele>
        <time>2022-10-23T09:19:03.000Z</time>
      </trkpt>
      <trkpt lat="3.505838792771101" lon="-76.4217341132462">
        <ele>982.8</ele>
        <time>2022-10-23T09:19:11.000Z</time>
      </trkpt>
      <trkpt lat="3.505675345659256" lon="-76.42245763912797">
        <ele>982.6</ele>
        <time>2022-10-23T09:19:19.000Z</time>
      </trkpt>
      <trkpt lat="3.5055229626595974" lon="-76.42316842451692">
        <ele>983</ele>
        <time>2022-10-23T09:19:27.000Z</time>
      </trkpt>
      <trkpt lat="3.505382314324379" lon="-76.42389882355928">
        <ele>982.6</ele>
        <time>2022-10-23T09:19:35.000Z</time>
      </trkpt>
      <trkpt lat="3.5052266623824835" lon="-76.42469535581768">
        <ele>982.4</ele>
        <time>2022-10-23T09:19:44.000Z</time>
      </trkpt>
      <trkpt lat="3.5050909593701363" lon="-76.42541913315654">
        <ele>982.4</ele>
        <time>2022-10-23T09:19:52.000Z</time>
      </trkpt>
      <trkpt lat="3.504949389025569" lon="-76.42615514807403">
        <ele>982.2</ele>
        <time>2022-10-23T09:20:00.000Z</time>
      </trkpt>
      <trkpt lat="3.5048061423003674" lon="-76.42690029926598">
        <ele>982</ele>
        <time>2022-10-23T09:20:08.000Z</time>
      </trkpt>
      <trkpt lat="3.5046574473381042" lon="-76.42766732722521">
        <ele>982</ele>
        <time>2022-10-23T09:20:17.000Z</time>
      </trkpt>
      <trkpt lat="3.5045033041387796" lon="-76.4284654520452">
        <ele>981.8</ele>
        <time>2022-10-23T09:20:26.000Z</time>
      </trkpt>
      <trkpt lat="3.5043631587177515" lon="-76.42919635400176">
        <ele>981.6</ele>
        <time>2022-10-23T09:20:34.000Z</time>
      </trkpt>
      <trkpt lat="3.5042099375277758" lon="-76.42992096953094">
        <ele>981.4</ele>
        <time>2022-10-23T09:20:42.000Z</time>
      </trkpt>
      <trkpt lat="3.504059398546815" lon="-76.43068514764309">
        <ele>981.4</ele>
        <time>2022-10-23T09:20:50.000Z</time>
      </trkpt>
      <trkpt lat="3.503915648907423" lon="-76.43145586363971">
        <ele>981.2</ele>
        <time>2022-10-23T09:20:58.000Z</time>
      </trkpt>
      <trkpt lat="3.5037703067064285" lon="-76.43222129903734">
        <ele>981.4</ele>
        <time>2022-10-23T09:21:06.000Z</time>
      </trkpt>
      <trkpt lat="3.5036097932606936" lon="-76.43295630812645">
        <ele>981.2</ele>
        <time>2022-10-23T09:21:14.000Z</time>
      </trkpt>
      <trkpt lat="3.5034369584172964" lon="-76.43371763639152">
        <ele>980.8</ele>
        <time>2022-10-23T09:21:22.000Z</time>
      </trkpt>
      <trkpt lat="3.5032649617642164" lon="-76.43447586335242">
        <ele>981</ele>
        <time>2022-10-23T09:21:30.000Z</time>
      </trkpt>
      <trkpt lat="3.503083325922489" lon="-76.43525244668126">
        <ele>980.4</ele>
        <time>2022-10-23T09:21:38.000Z</time>
      </trkpt>
      <trkpt lat="3.5029197949916124" lon="-76.4359756372869">
        <ele>980.8</ele>
        <time>2022-10-23T09:21:46.000Z</time>
      </trkpt>
      <trkpt lat="3.5027384106069803" lon="-76.43669983372092">
        <ele>980.8</ele>
        <time>2022-10-23T09:21:54.000Z</time>
      </trkpt>
      <trkpt lat="3.5025419387966394" lon="-76.43744766712189">
        <ele>980.6</ele>
        <time>2022-10-23T09:22:02.000Z</time>
      </trkpt>
      <trkpt lat="3.5023558605462313" lon="-76.43815912306309">
        <ele>980.2</ele>
        <time>2022-10-23T09:22:10.000Z</time>
      </trkpt>
      <trkpt lat="3.5021298844367266" lon="-76.43901290372014">
        <ele>980.2</ele>
        <time>2022-10-23T09:22:20.000Z</time>
      </trkpt>
      <trkpt lat="3.501915307715535" lon="-76.43984866328537">
        <ele>980.2</ele>
        <time>2022-10-23T09:22:30.000Z</time>
      </trkpt>
      <trkpt lat="3.5017044190317392" lon="-76.44065634347498">
        <ele>980.4</ele>
        <time>2022-10-23T09:22:40.000Z</time>
      </trkpt>
      <trkpt lat="3.501492440700531" lon="-76.44145882688463">
        <ele>980.2</ele>
        <time>2022-10-23T09:22:50.000Z</time>
      </trkpt>
      <trkpt lat="3.5012859106063843" lon="-76.4422238431871">
        <ele>980.4</ele>
        <time>2022-10-23T09:23:00.000Z</time>
      </trkpt>
      <trkpt lat="3.5010699089616537" lon="-76.4430526457727">
        <ele>980.2</ele>
        <time>2022-10-23T09:23:10.000Z</time>
      </trkpt>
      <trkpt lat="3.5008511412888765" lon="-76.4438706357032">
        <ele>979.4</ele>
        <time>2022-10-23T09:23:20.000Z</time>
      </trkpt>
      <trkpt lat="3.5006270930171013" lon="-76.44471796229482">
        <ele>979.6</ele>
        <time>2022-10-23T09:23:30.000Z</time>
      </trkpt>
      <trkpt lat="3.500419305637479" lon="-76.4455583319068">
        <ele>979.8</ele>
        <time>2022-10-23T09:23:40.000Z</time>
      </trkpt>
      <trkpt lat="3.500234317034483" lon="-76.4463921636343">
        <ele>980.4</ele>
        <time>2022-10-23T09:23:50.000Z</time>
      </trkpt>
      <trkpt lat="3.5000468976795673" lon="-76.4472283422947">
        <ele>982</ele>
        <time>2022-10-23T09:24:00.000Z</time>
      </trkpt>
      <trkpt lat="3.4998824447393417" lon="-76.44793845713139">
        <ele>982.8</ele>
        <time>2022-10-23T09:24:08.000Z</time>
      </trkpt>
      <trkpt lat="3.4996934328228235" lon="-76.4487564470619">
        <ele>982.8</ele>
        <time>2022-10-23T09:24:18.000Z</time>
      </trkpt>
      <trkpt lat="3.499502409249544" lon="-76.449541663751">
        <ele>981.8</ele>
        <time>2022-10-23T09:24:27.000Z</time>
      </trkpt>
      <trkpt lat="3.4993144031614065" lon="-76.45031631924212">
        <ele>980.6</ele>
        <time>2022-10-23T09:24:35.000Z</time>
      </trkpt>
      <trkpt lat="3.499143160879612" lon="-76.45111897028983">
        <ele>980.2</ele>
        <time>2022-10-23T09:24:43.000Z</time>
      </trkpt>
      <trkpt lat="3.4989632852375507" lon="-76.451914915815">
        <ele>980.4</ele>
        <time>2022-10-23T09:24:51.000Z</time>
      </trkpt>
      <trkpt lat="3.4987911209464073" lon="-76.45269317552447">
        <ele>980</ele>
        <time>2022-10-23T09:24:59.000Z</time>
      </trkpt>
      <trkpt lat="3.4986334573477507" lon="-76.45343346521258">
        <ele>980.2</ele>
        <time>2022-10-23T09:25:07.000Z</time>
      </trkpt>
      <trkpt lat="3.4984436072409153" lon="-76.4542823843658">
        <ele>981.2</ele>
        <time>2022-10-23T09:25:17.000Z</time>
      </trkpt>
      <trkpt lat="3.498259959742427" lon="-76.45515435375273">
        <ele>982.8</ele>
        <time>2022-10-23T09:25:27.000Z</time>
      </trkpt>
      <trkpt lat="3.4980592969805" lon="-76.45596982911229">
        <ele>983</ele>
        <time>2022-10-23T09:25:37.000Z</time>
      </trkpt>
      <trkpt lat="3.4978709556162357" lon="-76.45677298307419">
        <ele>981.6</ele>
        <time>2022-10-23T09:25:47.000Z</time>
      </trkpt>
      <trkpt lat="3.497672136873007" lon="-76.45763011649251">
        <ele>980</ele>
        <time>2022-10-23T09:25:57.000Z</time>
      </trkpt>
      <trkpt lat="3.4974814485758543" lon="-76.45846797153354">
        <ele>979.8</ele>
        <time>2022-10-23T09:26:07.000Z</time>
      </trkpt>
      <trkpt lat="3.4972929395735264" lon="-76.45930314436555">
        <ele>979.8</ele>
        <time>2022-10-23T09:26:17.000Z</time>
      </trkpt>
      <trkpt lat="3.4970973059535027" lon="-76.46016891114414">
        <ele>979.8</ele>
        <time>2022-10-23T09:26:27.000Z</time>
      </trkpt>
      <trkpt lat="3.4969029296189547" lon="-76.4609928522259">
        <ele>979.8</ele>
        <time>2022-10-23T09:26:37.000Z</time>
      </trkpt>
      <trkpt lat="3.4967148397117853" lon="-76.46178217604756">
        <ele>980.2</ele>
        <time>2022-10-23T09:26:47.000Z</time>
      </trkpt>
      <trkpt lat="3.496483163908124" lon="-76.46259597502649">
        <ele>979.8</ele>
        <time>2022-10-23T09:26:57.000Z</time>
      </trkpt>
      <trkpt lat="3.496198430657387" lon="-76.46338588558137">
        <ele>979.6</ele>
        <time>2022-10-23T09:27:07.000Z</time>
      </trkpt>
      <trkpt lat="3.4958751406520605" lon="-76.46415861323476">
        <ele>979.4</ele>
        <time>2022-10-23T09:27:17.000Z</time>
      </trkpt>
      <trkpt lat="3.495529806241393" lon="-76.46495891734958">
        <ele>979.4</ele>
        <time>2022-10-23T09:27:27.000Z</time>
      </trkpt>
      <trkpt lat="3.49518908187747" lon="-76.46574798971415">
        <ele>979.4</ele>
        <time>2022-10-23T09:27:37.000Z</time>
      </trkpt>
      <trkpt lat="3.4948511235415936" lon="-76.4665174484253">
        <ele>979.6</ele>
        <time>2022-10-23T09:27:47.000Z</time>
      </trkpt>
      <trkpt lat="3.4945209603756666" lon="-76.46727986633778">
        <ele>979.6</ele>
        <time>2022-10-23T09:27:57.000Z</time>
      </trkpt>
      <trkpt lat="3.4942614566534758" lon="-76.4681058190763">
        <ele>979.2</ele>
        <time>2022-10-23T09:28:07.000Z</time>
      </trkpt>
      <trkpt lat="3.4941461216658354" lon="-76.46898348815739">
        <ele>978.8</ele>
        <time>2022-10-23T09:28:17.000Z</time>
      </trkpt>
      <trkpt lat="3.4940980933606625" lon="-76.4698376879096">
        <ele>979</ele>
        <time>2022-10-23T09:28:27.000Z</time>
      </trkpt>
      <trkpt lat="3.494074624031782" lon="-76.47064285352826">
        <ele>979.2</ele>
        <time>2022-10-23T09:28:36.000Z</time>
      </trkpt>
      <trkpt lat="3.49407060071826" lon="-76.47116085514426">
        <ele>979</ele>
        <time>2022-10-23T09:28:42.000Z</time>
      </trkpt>
      <trkpt lat="3.4940297808498144" lon="-76.47204196080565">
        <ele>979.8</ele>
        <time>2022-10-23T09:28:52.000Z</time>
      </trkpt>
      <trkpt lat="3.49399633705616" lon="-76.47284494712949">
        <ele>980.6</ele>
        <time>2022-10-23T09:29:01.000Z</time>
      </trkpt>
      <trkpt lat="3.4939741250127554" lon="-76.47368095815182">
        <ele>980</ele>
        <time>2022-10-23T09:29:10.000Z</time>
      </trkpt>
      <trkpt lat="3.4939307905733585" lon="-76.47448897361755">
        <ele>980.4</ele>
        <time>2022-10-23T09:29:18.000Z</time>
      </trkpt>
      <trkpt lat="3.4938993584364653" lon="-76.47531794384122">
        <ele>980</ele>
        <time>2022-10-23T09:29:26.000Z</time>
      </trkpt>
      <trkpt lat="3.4938633162528276" lon="-76.4761374425143">
        <ele>980.2</ele>
        <time>2022-10-23T09:29:34.000Z</time>
      </trkpt>
      <trkpt lat="3.493799613788724" lon="-76.47693933919072">
        <ele>980.2</ele>
        <time>2022-10-23T09:29:42.000Z</time>
      </trkpt>
      <trkpt lat="3.493677321821451" lon="-76.47769136354327">
        <ele>979.6</ele>
        <time>2022-10-23T09:29:50.000Z</time>
      </trkpt>
      <trkpt lat="3.493551593273878" lon="-76.47849032655358">
        <ele>979.2</ele>
        <time>2022-10-23T09:30:01.000Z</time>
      </trkpt>
      <trkpt lat="3.4934266190975904" lon="-76.47923463955522">
        <ele>979.4</ele>
        <time>2022-10-23T09:30:13.000Z</time>
      </trkpt>
      <trkpt lat="3.493300136178732" lon="-76.4799748454243">
        <ele>980.2</ele>
        <time>2022-10-23T09:30:25.000Z</time>
      </trkpt>
      <trkpt lat="3.4932537842541933" lon="-76.48080046288669">
        <ele>981.6</ele>
        <time>2022-10-23T09:30:39.000Z</time>
      </trkpt>
      <trkpt lat="3.493218831717968" lon="-76.48157738149166">
        <ele>982.6</ele>
        <time>2022-10-23T09:30:51.000Z</time>
      </trkpt>
      <trkpt lat="3.4931128844618797" lon="-76.4823521208018">
        <ele>983.4</ele>
        <time>2022-10-23T09:31:03.000Z</time>
      </trkpt>
      <trkpt lat="3.4929848928004503" lon="-76.48314932361245">
        <ele>984.2</ele>
        <time>2022-10-23T09:31:17.000Z</time>
      </trkpt>
      <trkpt lat="3.492879616096616" lon="-76.48389346897602">
        <ele>983.8</ele>
        <time>2022-10-23T09:31:29.000Z</time>
      </trkpt>
      <trkpt lat="3.4927647840231657" lon="-76.48464993573725">
        <ele>983</ele>
        <time>2022-10-23T09:31:45.000Z</time>
      </trkpt>
      <trkpt lat="3.4927146602422" lon="-76.48481044918299">
        <ele>984</ele>
        <time>2022-10-23T09:45:36.000Z</time>
      </trkpt>
      <trkpt lat="3.492623381316662" lon="-76.48518118076026">
        <ele>984</ele>
        <time>2022-10-23T09:45:48.000Z</time>
      </trkpt>
      <trkpt lat="3.492373349145055" lon="-76.48591945879161">
        <ele>982.6</ele>
        <time>2022-10-23T09:46:02.000Z</time>
      </trkpt>
      <trkpt lat="3.4921243228018284" lon="-76.48665463551879">
        <ele>982.2</ele>
        <time>2022-10-23T09:46:14.000Z</time>
      </trkpt>
      <trkpt lat="3.4920405875891447" lon="-76.48746114224195">
        <ele>982.4</ele>
        <time>2022-10-23T09:46:28.000Z</time>
      </trkpt>
      <trkpt lat="3.4919454529881477" lon="-76.48822565563023">
        <ele>979.8</ele>
        <time>2022-10-23T09:46:41.000Z</time>
      </trkpt>
      <trkpt lat="3.491901447996497" lon="-76.48851592093706">
        <ele>978.6</ele>
        <time>2022-10-23T09:46:46.000Z</time>
      </trkpt>
      <trkpt lat="3.491970347240567" lon="-76.48887047544122">
        <ele>978.8</ele>
        <time>2022-10-23T09:46:52.000Z</time>
      </trkpt>
      <trkpt lat="3.491930114105344" lon="-76.4889869838953">
        <ele>979.2</ele>
        <time>2022-10-23T09:46:54.000Z</time>
      </trkpt>
      <trkpt lat="3.4918478038161993" lon="-76.48908362723887">
        <ele>978.8</ele>
        <time>2022-10-23T09:46:56.000Z</time>
      </trkpt>
      <trkpt lat="3.491729451343417" lon="-76.48914087563753">
        <ele>978.6</ele>
        <time>2022-10-23T09:46:58.000Z</time>
      </trkpt>
      <trkpt lat="3.491592910140753" lon="-76.48913718760014">
        <ele>978.6</ele>
        <time>2022-10-23T09:47:00.000Z</time>
      </trkpt>
      <trkpt lat="3.4914716240018606" lon="-76.48907348513603">
        <ele>978.6</ele>
        <time>2022-10-23T09:47:02.000Z</time>
      </trkpt>
      <trkpt lat="3.490817416459322" lon="-76.48869663476944">
        <ele>978.4</ele>
        <time>2022-10-23T09:47:20.000Z</time>
      </trkpt>
      <trkpt lat="3.4902028553187847" lon="-76.48823135532439">
        <ele>978</ele>
        <time>2022-10-23T09:47:33.000Z</time>
      </trkpt>
      <trkpt lat="3.489551078528166" lon="-76.48779365234077">
        <ele>977.6</ele>
        <time>2022-10-23T09:47:44.000Z</time>
      </trkpt>
      <trkpt lat="3.488807436078787" lon="-76.48751813918352">
        <ele>978</ele>
        <time>2022-10-23T09:47:55.000Z</time>
      </trkpt>
      <trkpt lat="3.4880909509956837" lon="-76.48728461936116">
        <ele>977.8</ele>
        <time>2022-10-23T09:48:05.000Z</time>
      </trkpt>
      <trkpt lat="3.4873235877603292" lon="-76.4870616607368">
        <ele>977.6</ele>
        <time>2022-10-23T09:48:17.000Z</time>
      </trkpt>
      <trkpt lat="3.486584136262536" lon="-76.48682017810643">
        <ele>977.8</ele>
        <time>2022-10-23T09:48:29.000Z</time>
      </trkpt>
      <trkpt lat="3.4858391527086496" lon="-76.48658565245569">
        <ele>977.8</ele>
        <time>2022-10-23T09:48:41.000Z</time>
      </trkpt>
      <trkpt lat="3.4850898943841457" lon="-76.48634433746338">
        <ele>978</ele>
        <time>2022-10-23T09:48:54.000Z</time>
      </trkpt>
      <trkpt lat="3.4849816001951694" lon="-76.48631642572582">
        <ele>978</ele>
        <time>2022-10-23T09:49:00.000Z</time>
      </trkpt>
      <trkpt lat="3.4849341586232185" lon="-76.4862896874547">
        <ele>978</ele>
        <time>2022-10-23T09:49:04.000Z</time>
      </trkpt>
      <trkpt lat="3.484866851940751" lon="-76.48625087924302">
        <ele>978.2</ele>
        <time>2022-10-23T09:49:07.000Z</time>
      </trkpt>
      <trkpt lat="3.4846229385584593" lon="-76.48620637133718">
        <ele>978.2</ele>
        <time>2022-10-23T09:49:14.000Z</time>
      </trkpt>
      <trkpt lat="3.4839101415127516" lon="-76.48607544600964">
        <ele>978</ele>
        <time>2022-10-23T09:49:29.000Z</time>
      </trkpt>
      <trkpt lat="3.483151076361537" lon="-76.4859791379422">
        <ele>978</ele>
        <time>2022-10-23T09:49:41.000Z</time>
      </trkpt>
      <trkpt lat="3.482362339273095" lon="-76.48574989289045">
        <ele>977.8</ele>
        <time>2022-10-23T09:49:53.000Z</time>
      </trkpt>
      <trkpt lat="3.4818086307495832" lon="-76.48558099754155">
        <ele>977.4</ele>
        <time>2022-10-23T09:50:06.000Z</time>
      </trkpt>
      <trkpt lat="3.481778120622039" lon="-76.48558896034956">
        <ele>977.4</ele>
        <time>2022-10-23T09:50:25.000Z</time>
      </trkpt>
      <trkpt lat="3.481767140328884" lon="-76.48559717461467">
        <ele>977.2</ele>
        <time>2022-10-23T09:50:40.000Z</time>
      </trkpt>
      <trkpt lat="3.4816953912377357" lon="-76.48557119071484">
        <ele>976.4</ele>
        <time>2022-10-23T09:53:47.000Z</time>
      </trkpt>
      <trkpt lat="3.4812053851783276" lon="-76.48539567366242">
        <ele>976.6</ele>
        <time>2022-10-23T09:54:04.000Z</time>
      </trkpt>
      <trkpt lat="3.4804653469473124" lon="-76.4851376786828">
        <ele>976.8</ele>
        <time>2022-10-23T09:54:23.000Z</time>
      </trkpt>
      <trkpt lat="3.4797013364732265" lon="-76.48490197956562">
        <ele>977.4</ele>
        <time>2022-10-23T09:54:39.000Z</time>
      </trkpt>
      <trkpt lat="3.4789235796779394" lon="-76.4846611674875">
        <ele>977.2</ele>
        <time>2022-10-23T09:54:54.000Z</time>
      </trkpt>
      <trkpt lat="3.478192090988159" lon="-76.48444189690053">
        <ele>977.4</ele>
        <time>2022-10-23T09:55:08.000Z</time>
      </trkpt>
      <trkpt lat="3.4780003130435944" lon="-76.48439462296665">
        <ele>977.2</ele>
        <time>2022-10-23T09:55:14.000Z</time>
      </trkpt>
      <trkpt lat="3.4779030829668045" lon="-76.48433947004378">
        <ele>977.2</ele>
        <time>2022-10-23T09:55:22.000Z</time>
      </trkpt>
      <trkpt lat="3.4778913483023643" lon="-76.48433284834027">
        <ele>977.2</ele>
        <time>2022-10-23T09:55:24.000Z</time>
      </trkpt>
      <trkpt lat="3.4778701420873404" lon="-76.48430937901139">
        <ele>977.2</ele>
        <time>2022-10-23T09:55:27.000Z</time>
      </trkpt>
      <trkpt lat="3.477851115167141" lon="-76.48429244756699">
        <ele>977.2</ele>
        <time>2022-10-23T09:55:29.000Z</time>
      </trkpt>
      <trkpt lat="3.4778323397040367" lon="-76.48428683169186">
        <ele>977.2</ele>
        <time>2022-10-23T09:55:33.000Z</time>
      </trkpt>
      <trkpt lat="3.4774300921708345" lon="-76.48418189026415">
        <ele>976.8</ele>
        <time>2022-10-23T09:55:48.000Z</time>
      </trkpt>
      <trkpt lat="3.4766732901334763" lon="-76.4839549921453">
        <ele>976.4</ele>
        <time>2022-10-23T09:56:02.000Z</time>
      </trkpt>
      <trkpt lat="3.475892599672079" lon="-76.483708396554">
        <ele>976</ele>
        <time>2022-10-23T09:56:16.000Z</time>
      </trkpt>
      <trkpt lat="3.4751759469509125" lon="-76.48347194306552">
        <ele>976</ele>
        <time>2022-10-23T09:56:29.000Z</time>
      </trkpt>
      <trkpt lat="3.474847124889493" lon="-76.48333137854934">
        <ele>976</ele>
        <time>2022-10-23T09:56:35.000Z</time>
      </trkpt>
      <trkpt lat="3.4741296339780092" lon="-76.48310389369726">
        <ele>976.2</ele>
        <time>2022-10-23T09:56:50.000Z</time>
      </trkpt>
      <trkpt lat="3.473395798355341" lon="-76.48287238553166">
        <ele>976</ele>
        <time>2022-10-23T09:57:03.000Z</time>
      </trkpt>
      <trkpt lat="3.4726398345083" lon="-76.48262796923518">
        <ele>975.8</ele>
        <time>2022-10-23T09:57:15.000Z</time>
      </trkpt>
      <trkpt lat="3.471965929493308" lon="-76.4822989795357">
        <ele>976.6</ele>
        <time>2022-10-23T09:57:27.000Z</time>
      </trkpt>
      <trkpt lat="3.4713711496442556" lon="-76.48172339424491">
        <ele>977.6</ele>
        <time>2022-10-23T09:57:41.000Z</time>
      </trkpt>
      <trkpt lat="3.470764886587858" lon="-76.48122416809201">
        <ele>977.6</ele>
        <time>2022-10-23T09:57:53.000Z</time>
      </trkpt>
      <trkpt lat="3.470031637698412" lon="-76.48094412870705">
        <ele>977.8</ele>
        <time>2022-10-23T09:58:05.000Z</time>
      </trkpt>
      <trkpt lat="3.469294784590602" lon="-76.48070264607668">
        <ele>978.2</ele>
        <time>2022-10-23T09:58:17.000Z</time>
      </trkpt>
      <trkpt lat="3.46854611299932" lon="-76.48045445792377">
        <ele>978.6</ele>
        <time>2022-10-23T09:58:29.000Z</time>
      </trkpt>
      <trkpt lat="3.467792412266135" lon="-76.48021289147437">
        <ele>978.6</ele>
        <time>2022-10-23T09:58:42.000Z</time>
      </trkpt>
      <trkpt lat="3.467062432318926" lon="-76.47994768805802">
        <ele>979.4</ele>
        <time>2022-10-23T09:58:56.000Z</time>
      </trkpt>
      <trkpt lat="3.4663148503750563" lon="-76.47978398948908">
        <ele>979</ele>
        <time>2022-10-23T09:59:10.000Z</time>
      </trkpt>
      <trkpt lat="3.4655638318508863" lon="-76.4798556547612">
        <ele>978.6</ele>
        <time>2022-10-23T09:59:22.000Z</time>
      </trkpt>
      <trkpt lat="3.4647924453020096" lon="-76.48001692257822">
        <ele>978.2</ele>
        <time>2022-10-23T09:59:35.000Z</time>
      </trkpt>
      <trkpt lat="3.464496899396181" lon="-76.48011691868305">
        <ele>977.8</ele>
        <time>2022-10-23T09:59:43.000Z</time>
      </trkpt>
      <trkpt lat="3.464456917718053" lon="-76.48017944768071">
        <ele>977.6</ele>
        <time>2022-10-23T09:59:45.000Z</time>
      </trkpt>
      <trkpt lat="3.4642114117741585" lon="-76.48086986504495">
        <ele>976.6</ele>
        <time>2022-10-23T09:59:59.000Z</time>
      </trkpt>
      <trkpt lat="3.4639549255371094" lon="-76.4816374797374">
        <ele>977</ele>
        <time>2022-10-23T10:00:15.000Z</time>
      </trkpt>
      <trkpt lat="3.463710593059659" lon="-76.48241414688528">
        <ele>977</ele>
        <time>2022-10-23T10:00:30.000Z</time>
      </trkpt>
      <trkpt lat="3.4634914062917233" lon="-76.48312442936003">
        <ele>977.2</ele>
        <time>2022-10-23T10:00:47.000Z</time>
      </trkpt>
      <trkpt lat="3.4634515922516584" lon="-76.48320598527789">
        <ele>977.2</ele>
        <time>2022-10-23T10:00:52.000Z</time>
      </trkpt>
      <trkpt lat="3.4634218364953995" lon="-76.48325443267822">
        <ele>977.2</ele>
        <time>2022-10-23T10:00:56.000Z</time>
      </trkpt>
      <trkpt lat="3.4632878098636866" lon="-76.48370713926852">
        <ele>977</ele>
        <time>2022-10-23T10:01:16.000Z</time>
      </trkpt>
      <trkpt lat="3.463190831243992" lon="-76.48386597633362">
        <ele>977.2</ele>
        <time>2022-10-23T10:01:23.000Z</time>
      </trkpt>
      <trkpt lat="3.4630133863538504" lon="-76.4839446824044">
        <ele>977.4</ele>
        <time>2022-10-23T10:01:31.000Z</time>
      </trkpt>
      <trkpt lat="3.4629968740046024" lon="-76.48396588861942">
        <ele>977.2</ele>
        <time>2022-10-23T10:01:35.000Z</time>
      </trkpt>
      <trkpt lat="3.462976086884737" lon="-76.48396915756166">
        <ele>977.2</ele>
        <time>2022-10-23T10:01:37.000Z</time>
      </trkpt>
      <trkpt lat="3.462933339178562" lon="-76.48395717144012">
        <ele>977.2</ele>
        <time>2022-10-23T10:01:39.000Z</time>
      </trkpt>
      <trkpt lat="3.4621713403612375" lon="-76.48378198966384">
        <ele>977.6</ele>
        <time>2022-10-23T10:01:51.000Z</time>
      </trkpt>
      <trkpt lat="3.461421076208353" lon="-76.48355911485851">
        <ele>977.8</ele>
        <time>2022-10-23T10:02:03.000Z</time>
      </trkpt>
      <trkpt lat="3.4606956224888563" lon="-76.4834406785667">
        <ele>977.6</ele>
        <time>2022-10-23T10:02:15.000Z</time>
      </trkpt>
      <trkpt lat="3.459892636165023" lon="-76.48343095555902">
        <ele>977.6</ele>
        <time>2022-10-23T10:02:28.000Z</time>
      </trkpt>
      <trkpt lat="3.459160141646862" lon="-76.4835559297353">
        <ele>977.8</ele>
        <time>2022-10-23T10:02:40.000Z</time>
      </trkpt>
      <trkpt lat="3.4584030881524086" lon="-76.48380587808788">
        <ele>977.8</ele>
        <time>2022-10-23T10:02:52.000Z</time>
      </trkpt>
      <trkpt lat="3.4577048756182194" lon="-76.48414232768118">
        <ele>978.2</ele>
        <time>2022-10-23T10:03:05.000Z</time>
      </trkpt>
      <trkpt lat="3.4569679386913776" lon="-76.4845009893179">
        <ele>978.6</ele>
        <time>2022-10-23T10:03:19.000Z</time>
      </trkpt>
      <trkpt lat="3.4562634397298098" lon="-76.48481589742005">
        <ele>978.4</ele>
        <time>2022-10-23T10:03:31.000Z</time>
      </trkpt>
      <trkpt lat="3.4555413387715816" lon="-76.48509585298598">
        <ele>978.6</ele>
        <time>2022-10-23T10:03:43.000Z</time>
      </trkpt>
      <trkpt lat="3.4548266138881445" lon="-76.48537689819932">
        <ele>978.6</ele>
        <time>2022-10-23T10:03:55.000Z</time>
      </trkpt>
      <trkpt lat="3.4541693050414324" lon="-76.48572533391416">
        <ele>979.4</ele>
        <time>2022-10-23T10:04:07.000Z</time>
      </trkpt>
      <trkpt lat="3.4535119123756886" lon="-76.48606731556356">
        <ele>980.8</ele>
        <time>2022-10-23T10:04:20.000Z</time>
      </trkpt>
      <trkpt lat="3.4528412763029337" lon="-76.48641868494451">
        <ele>984.2</ele>
        <time>2022-10-23T10:04:36.000Z</time>
      </trkpt>
      <trkpt lat="3.4521423932164907" lon="-76.48676737211645">
        <ele>985.2</ele>
        <time>2022-10-23T10:04:52.000Z</time>
      </trkpt>
      <trkpt lat="3.4514528978616" lon="-76.4871166460216">
        <ele>983.8</ele>
        <time>2022-10-23T10:05:05.000Z</time>
      </trkpt>
      <trkpt lat="3.4507768973708153" lon="-76.48748385719955">
        <ele>980.4</ele>
        <time>2022-10-23T10:05:15.000Z</time>
      </trkpt>
      <trkpt lat="3.450051946565509" lon="-76.48787386715412">
        <ele>979</ele>
        <time>2022-10-23T10:05:25.000Z</time>
      </trkpt>
      <trkpt lat="3.4493858367204666" lon="-76.4882464427501">
        <ele>978.6</ele>
        <time>2022-10-23T10:05:36.000Z</time>
      </trkpt>
      <trkpt lat="3.448758367449045" lon="-76.48866511881351">
        <ele>979.6</ele>
        <time>2022-10-23T10:05:48.000Z</time>
      </trkpt>
      <trkpt lat="3.448084881529212" lon="-76.48902998305857">
        <ele>979.2</ele>
        <time>2022-10-23T10:06:00.000Z</time>
      </trkpt>
      <trkpt lat="3.447454310953617" lon="-76.4894639980048">
        <ele>979.2</ele>
        <time>2022-10-23T10:06:12.000Z</time>
      </trkpt>
      <trkpt lat="3.446875875815749" lon="-76.48994863964617">
        <ele>979.4</ele>
        <time>2022-10-23T10:06:24.000Z</time>
      </trkpt>
      <trkpt lat="3.4461910743266344" lon="-76.49032037705183">
        <ele>979.4</ele>
        <time>2022-10-23T10:06:36.000Z</time>
      </trkpt>
      <trkpt lat="3.44544961117208" lon="-76.49065339006484">
        <ele>979.4</ele>
        <time>2022-10-23T10:06:48.000Z</time>
      </trkpt>
      <trkpt lat="3.4446758776903152" lon="-76.49083837866783">
        <ele>982</ele>
        <time>2022-10-23T10:07:01.000Z</time>
      </trkpt>
      <trkpt lat="3.4439593087881804" lon="-76.49113291874528">
        <ele>985.8</ele>
        <time>2022-10-23T10:07:17.000Z</time>
      </trkpt>
      <trkpt lat="3.443259922787547" lon="-76.49148847907782">
        <ele>983.2</ele>
        <time>2022-10-23T10:07:32.000Z</time>
      </trkpt>
      <trkpt lat="3.4425172861665487" lon="-76.49185937829316">
        <ele>979.6</ele>
        <time>2022-10-23T10:07:43.000Z</time>
      </trkpt>
      <trkpt lat="3.4417764097452164" lon="-76.49223639629781">
        <ele>978</ele>
        <time>2022-10-23T10:07:53.000Z</time>
      </trkpt>
      <trkpt lat="3.4410233795642853" lon="-76.49261467158794">
        <ele>978.2</ele>
        <time>2022-10-23T10:08:05.000Z</time>
      </trkpt>
      <trkpt lat="3.4403716027736664" lon="-76.49294198490679">
        <ele>977.8</ele>
        <time>2022-10-23T10:08:15.000Z</time>
      </trkpt>
      <trkpt lat="3.439702894538641" lon="-76.49326846003532">
        <ele>977.8</ele>
        <time>2022-10-23T10:08:25.000Z</time>
      </trkpt>
      <trkpt lat="3.4390133153647184" lon="-76.49360432289541">
        <ele>977.6</ele>
        <time>2022-10-23T10:08:36.000Z</time>
      </trkpt>
      <trkpt lat="3.438294818624854" lon="-76.49394144304097">
        <ele>977.4</ele>
        <time>2022-10-23T10:08:50.000Z</time>
      </trkpt>
      <trkpt lat="3.437625439837575" lon="-76.49430496618152">
        <ele>977.2</ele>
        <time>2022-10-23T10:09:03.000Z</time>
      </trkpt>
      <trkpt lat="3.436921611428261" lon="-76.49471894837916">
        <ele>977</ele>
        <time>2022-10-23T10:09:15.000Z</time>
      </trkpt>
      <trkpt lat="3.4362528193742037" lon="-76.4951223693788">
        <ele>976.8</ele>
        <time>2022-10-23T10:09:27.000Z</time>
      </trkpt>
      <trkpt lat="3.435573298484087" lon="-76.49548882618546">
        <ele>977</ele>
        <time>2022-10-23T10:09:39.000Z</time>
      </trkpt>
      <trkpt lat="3.4348865691572428" lon="-76.4958459790796">
        <ele>977</ele>
        <time>2022-10-23T10:09:51.000Z</time>
      </trkpt>
      <trkpt lat="3.4341850876808167" lon="-76.49621520191431">
        <ele>977.4</ele>
        <time>2022-10-23T10:10:03.000Z</time>
      </trkpt>
      <trkpt lat="3.433460807427764" lon="-76.49658082053065">
        <ele>977.4</ele>
        <time>2022-10-23T10:10:15.000Z</time>
      </trkpt>
      <trkpt lat="3.4327294025570154" lon="-76.4969430025667">
        <ele>977.2</ele>
        <time>2022-10-23T10:10:27.000Z</time>
      </trkpt>
      <trkpt lat="3.4320410806685686" lon="-76.49729965254664">
        <ele>977.2</ele>
        <time>2022-10-23T10:10:39.000Z</time>
      </trkpt>
      <trkpt lat="3.4313960932195187" lon="-76.49764037691057">
        <ele>977</ele>
        <time>2022-10-23T10:10:51.000Z</time>
      </trkpt>
      <trkpt lat="3.4309510979801416" lon="-76.49787398055196">
        <ele>977.4</ele>
        <time>2022-10-23T10:10:59.000Z</time>
      </trkpt>
      <trkpt lat="3.4304822981357574" lon="-76.49812267161906">
        <ele>977</ele>
        <time>2022-10-23T10:11:06.000Z</time>
      </trkpt>
      <trkpt lat="3.4297719318419695" lon="-76.4984914753586">
        <ele>976.6</ele>
        <time>2022-10-23T10:11:18.000Z</time>
      </trkpt>
      <trkpt lat="3.4291276149451733" lon="-76.49890319444239">
        <ele>977</ele>
        <time>2022-10-23T10:11:32.000Z</time>
      </trkpt>
      <trkpt lat="3.428503582254052" lon="-76.49934785440564">
        <ele>977.4</ele>
        <time>2022-10-23T10:11:46.000Z</time>
      </trkpt>
      <trkpt lat="3.428009804338217" lon="-76.49966334924102">
        <ele>977.2</ele>
        <time>2022-10-23T10:11:57.000Z</time>
      </trkpt>
      <trkpt lat="3.427517367526889" lon="-76.50023616850376">
        <ele>977.2</ele>
        <time>2022-10-23T10:12:09.000Z</time>
      </trkpt>
      <trkpt lat="3.427049405872822" lon="-76.50084586814046">
        <ele>977.4</ele>
        <time>2022-10-23T10:12:21.000Z</time>
      </trkpt>
      <trkpt lat="3.426558058708906" lon="-76.50145137682557">
        <ele>977.2</ele>
        <time>2022-10-23T10:12:34.000Z</time>
      </trkpt>
      <trkpt lat="3.425862779840827" lon="-76.50182797573507">
        <ele>977.8</ele>
        <time>2022-10-23T10:12:47.000Z</time>
      </trkpt>
      <trkpt lat="3.4253213088959455" lon="-76.50225235149264">
        <ele>977.6</ele>
        <time>2022-10-23T10:13:02.000Z</time>
      </trkpt>
      <trkpt lat="3.4253001026809216" lon="-76.50227716192603">
        <ele>977.8</ele>
        <time>2022-10-23T10:13:05.000Z</time>
      </trkpt>
      <trkpt lat="3.4252738673239946" lon="-76.50230750441551">
        <ele>977.6</ele>
        <time>2022-10-23T10:13:09.000Z</time>
      </trkpt>
      <trkpt lat="3.4247446339577436" lon="-76.50286297313869">
        <ele>977.8</ele>
        <time>2022-10-23T10:13:28.000Z</time>
      </trkpt>
      <trkpt lat="3.4242077730596066" lon="-76.50345842354">
        <ele>977.6</ele>
        <time>2022-10-23T10:13:42.000Z</time>
      </trkpt>
      <trkpt lat="3.4236528910696507" lon="-76.50403182953596">
        <ele>977.6</ele>
        <time>2022-10-23T10:13:57.000Z</time>
      </trkpt>
      <trkpt lat="3.4231463726609945" lon="-76.50458419695497">
        <ele>977.4</ele>
        <time>2022-10-23T10:14:11.000Z</time>
      </trkpt>
      <trkpt lat="3.422784274443984" lon="-76.50496649555862">
        <ele>977.4</ele>
        <time>2022-10-23T10:14:26.000Z</time>
      </trkpt>
      <trkpt lat="3.422775389626622" lon="-76.50497864931822">
        <ele>977.4</ele>
        <time>2022-10-23T10:14:28.000Z</time>
      </trkpt>
      <trkpt lat="3.4226239286363125" lon="-76.50511435233057">
        <ele>977.4</ele>
        <time>2022-10-23T10:14:36.000Z</time>
      </trkpt>
      <trkpt lat="3.4221008140593767" lon="-76.50567015632987">
        <ele>977.4</ele>
        <time>2022-10-23T10:14:55.000Z</time>
      </trkpt>
      <trkpt lat="3.4215673059225082" lon="-76.50623568333685">
        <ele>977.2</ele>
        <time>2022-10-23T10:15:11.000Z</time>
      </trkpt>
      <trkpt lat="3.4210535790771246" lon="-76.50678436271846">
        <ele>977</ele>
        <time>2022-10-23T10:15:25.000Z</time>
      </trkpt>
      <trkpt lat="3.4204846154898405" lon="-76.50736698880792">
        <ele>977.2</ele>
        <time>2022-10-23T10:15:39.000Z</time>
      </trkpt>
      <trkpt lat="3.4200054220855236" lon="-76.50783369317651">
        <ele>976.8</ele>
        <time>2022-10-23T10:15:54.000Z</time>
      </trkpt>
      <trkpt lat="3.419984634965658" lon="-76.50789144448936">
        <ele>976.8</ele>
        <time>2022-10-23T10:15:57.000Z</time>
      </trkpt>
      <trkpt lat="3.4197066072374582" lon="-76.50816896930337">
        <ele>976.6</ele>
        <time>2022-10-23T10:16:10.000Z</time>
      </trkpt>
      <trkpt lat="3.419160358607769" lon="-76.50872619822621">
        <ele>976.8</ele>
        <time>2022-10-23T10:16:26.000Z</time>
      </trkpt>
      <trkpt lat="3.4186468832194805" lon="-76.50927764363587">
        <ele>977</ele>
        <time>2022-10-23T10:16:40.000Z</time>
      </trkpt>
      <trkpt lat="3.41805562376976" lon="-76.5097978245467">
        <ele>977</ele>
        <time>2022-10-23T10:16:54.000Z</time>
      </trkpt>
      <trkpt lat="3.41753913089633" lon="-76.51032940484583">
        <ele>977</ele>
        <time>2022-10-23T10:17:06.000Z</time>
      </trkpt>
      <trkpt lat="3.4170193690806627" lon="-76.51086995378137">
        <ele>977</ele>
        <time>2022-10-23T10:17:18.000Z</time>
      </trkpt>
      <trkpt lat="3.416495332494378" lon="-76.51142290793359">
        <ele>976.6</ele>
        <time>2022-10-23T10:17:30.000Z</time>
      </trkpt>
      <trkpt lat="3.4159716311842203" lon="-76.5119649656117">
        <ele>976.4</ele>
        <time>2022-10-23T10:17:42.000Z</time>
      </trkpt>
      <trkpt lat="3.4154767636209726" lon="-76.51256837882102">
        <ele>976.2</ele>
        <time>2022-10-23T10:17:55.000Z</time>
      </trkpt>
      <trkpt lat="3.414966892451048" lon="-76.51308990083635">
        <ele>976.4</ele>
        <time>2022-10-23T10:18:07.000Z</time>
      </trkpt>
      <trkpt lat="3.414424918591976" lon="-76.51365333236754">
        <ele>976.6</ele>
        <time>2022-10-23T10:18:20.000Z</time>
      </trkpt>
      <trkpt lat="3.4139252733439207" lon="-76.51417963206768">
        <ele>976.8</ele>
        <time>2022-10-23T10:18:32.000Z</time>
      </trkpt>
      <trkpt lat="3.4133528731763363" lon="-76.51478664949536">
        <ele>977</ele>
        <time>2022-10-23T10:18:46.000Z</time>
      </trkpt>
      <trkpt lat="3.4128036070615053" lon="-76.5153599716723">
        <ele>976.8</ele>
        <time>2022-10-23T10:19:00.000Z</time>
      </trkpt>
      <trkpt lat="3.4122260939329863" lon="-76.51596120558679">
        <ele>977.2</ele>
        <time>2022-10-23T10:19:14.000Z</time>
      </trkpt>
      <trkpt lat="3.411654867231846" lon="-76.51654785498977">
        <ele>977.4</ele>
        <time>2022-10-23T10:19:28.000Z</time>
      </trkpt>
      <trkpt lat="3.4111265558749437" lon="-76.51710818521678">
        <ele>977.2</ele>
        <time>2022-10-23T10:19:41.000Z</time>
      </trkpt>
      <trkpt lat="3.4106115717440844" lon="-76.5176534280181">
        <ele>977.2</ele>
        <time>2022-10-23T10:19:57.000Z</time>
      </trkpt>
      <trkpt lat="3.410573350265622" lon="-76.51766843162477">
        <ele>977.2</ele>
        <time>2022-10-23T10:19:59.000Z</time>
      </trkpt>
      <trkpt lat="3.410539822652936" lon="-76.51769240386784">
        <ele>977.2</ele>
        <time>2022-10-23T10:20:01.000Z</time>
      </trkpt>
      <trkpt lat="3.4105010982602835" lon="-76.5177633985877">
        <ele>977.4</ele>
        <time>2022-10-23T10:20:04.000Z</time>
      </trkpt>
      <trkpt lat="3.410467067733407" lon="-76.51780899614096">
        <ele>977.2</ele>
        <time>2022-10-23T10:20:06.000Z</time>
      </trkpt>
      <trkpt lat="3.4099293686449528" lon="-76.51834920980036">
        <ele>977.6</ele>
        <time>2022-10-23T10:20:22.000Z</time>
      </trkpt>
      <trkpt lat="3.4093831200152636" lon="-76.51890920475125">
        <ele>977.8</ele>
        <time>2022-10-23T10:20:36.000Z</time>
      </trkpt>
      <trkpt lat="3.4088678006082773" lon="-76.5194629970938">
        <ele>978</ele>
        <time>2022-10-23T10:20:49.000Z</time>
      </trkpt>
      <trkpt lat="3.4083267487585545" lon="-76.52002265676856">
        <ele>978.2</ele>
        <time>2022-10-23T10:21:02.000Z</time>
      </trkpt>
      <trkpt lat="3.4077503252774477" lon="-76.52061433531344">
        <ele>978.6</ele>
        <time>2022-10-23T10:21:16.000Z</time>
      </trkpt>
      <trkpt lat="3.4072155598551035" lon="-76.52120936661959">
        <ele>979</ele>
        <time>2022-10-23T10:21:30.000Z</time>
      </trkpt>
      <trkpt lat="3.4066801238805056" lon="-76.52176793664694">
        <ele>980.2</ele>
        <time>2022-10-23T10:21:45.000Z</time>
      </trkpt>
      <trkpt lat="3.4062984120100737" lon="-76.52200413867831">
        <ele>980.4</ele>
        <time>2022-10-23T10:21:53.000Z</time>
      </trkpt>
      <trkpt lat="3.405474806204438" lon="-76.52196491137147">
        <ele>980.8</ele>
        <time>2022-10-23T10:22:07.000Z</time>
      </trkpt>
      <trkpt lat="3.404664359986782" lon="-76.52198536321521">
        <ele>981.6</ele>
        <time>2022-10-23T10:22:21.000Z</time>
      </trkpt>
      <trkpt lat="3.4038911294192076" lon="-76.52213137596846">
        <ele>982.4</ele>
        <time>2022-10-23T10:22:35.000Z</time>
      </trkpt>
      <trkpt lat="3.4031303878873587" lon="-76.52237495407462">
        <ele>982.2</ele>
        <time>2022-10-23T10:22:49.000Z</time>
      </trkpt>
      <trkpt lat="3.402570392936468" lon="-76.52287250384688">
        <ele>981.6</ele>
        <time>2022-10-23T10:23:01.000Z</time>
      </trkpt>
      <trkpt lat="3.4019388165324926" lon="-76.5232483483851">
        <ele>981</ele>
        <time>2022-10-23T10:23:13.000Z</time>
      </trkpt>
      <trkpt lat="3.4011384285986423" lon="-76.5233411360532">
        <ele>980.6</ele>
        <time>2022-10-23T10:23:27.000Z</time>
      </trkpt>
      <trkpt lat="3.4003614261746407" lon="-76.52345219627023">
        <ele>981.2</ele>
        <time>2022-10-23T10:23:41.000Z</time>
      </trkpt>
      <trkpt lat="3.3995598647743464" lon="-76.52364070527256">
        <ele>981.8</ele>
        <time>2022-10-23T10:23:55.000Z</time>
      </trkpt>
      <trkpt lat="3.3987728878855705" lon="-76.52385813184083">
        <ele>982</ele>
        <time>2022-10-23T10:24:09.000Z</time>
      </trkpt>
      <trkpt lat="3.3979898504912853" lon="-76.52399333193898">
        <ele>981.6</ele>
        <time>2022-10-23T10:24:21.000Z</time>
      </trkpt>
      <trkpt lat="3.3972125966101885" lon="-76.52408888563514">
        <ele>981.2</ele>
        <time>2022-10-23T10:24:32.000Z</time>
      </trkpt>
      <trkpt lat="3.3963821176439524" lon="-76.5241371653974">
        <ele>981.6</ele>
        <time>2022-10-23T10:24:44.000Z</time>
      </trkpt>
      <trkpt lat="3.3955695759505033" lon="-76.52405317872763">
        <ele>982.2</ele>
        <time>2022-10-23T10:24:57.000Z</time>
      </trkpt>
      <trkpt lat="3.394816881045699" lon="-76.5240266919136">
        <ele>983.4</ele>
        <time>2022-10-23T10:25:13.000Z</time>
      </trkpt>
      <trkpt lat="3.3947841078042984" lon="-76.52399986982346">
        <ele>983.6</ele>
        <time>2022-10-23T10:25:15.000Z</time>
      </trkpt>
      <trkpt lat="3.394780419766903" lon="-76.52395670302212">
        <ele>983.6</ele>
        <time>2022-10-23T10:25:17.000Z</time>
      </trkpt>
      <trkpt lat="3.3947923220694065" lon="-76.52384715154767">
        <ele>983.4</ele>
        <time>2022-10-23T10:25:21.000Z</time>
      </trkpt>
      <trkpt lat="3.3948377519845963" lon="-76.52375469915569">
        <ele>982.4</ele>
        <time>2022-10-23T10:25:25.000Z</time>
      </trkpt>
      <trkpt lat="3.3948367461562157" lon="-76.52370868250728">
        <ele>982.2</ele>
        <time>2022-10-23T10:25:27.000Z</time>
      </trkpt>
      <trkpt lat="3.3948288671672344" lon="-76.5236228518188">
        <ele>981.2</ele>
        <time>2022-10-23T10:26:15.000Z</time>
      </trkpt>
      <trkpt lat="3.3947390969842672" lon="-76.52289337478578">
        <ele>981</ele>
        <time>2022-10-23T10:26:38.000Z</time>
      </trkpt>
      <trkpt lat="3.3947010431438684" lon="-76.52248349972069">
        <ele>980.6</ele>
        <time>2022-10-23T10:26:47.000Z</time>
      </trkpt>
      <trkpt lat="3.394628120586276" lon="-76.52167037129402">
        <ele>980.4</ele>
        <time>2022-10-23T10:27:02.000Z</time>
      </trkpt>
      <trkpt lat="3.3945380989462137" lon="-76.52090770192444">
        <ele>980.2</ele>
        <time>2022-10-23T10:27:16.000Z</time>
      </trkpt>
      <trkpt lat="3.394447322934866" lon="-76.52012516744435">
        <ele>980.6</ele>
        <time>2022-10-23T10:27:30.000Z</time>
      </trkpt>
      <trkpt lat="3.3943603187799454" lon="-76.51939233765006">
        <ele>980.2</ele>
        <time>2022-10-23T10:27:42.000Z</time>
      </trkpt>
      <trkpt lat="3.3943078480660915" lon="-76.51921799406409">
        <ele>980.2</ele>
        <time>2022-10-23T10:27:45.000Z</time>
      </trkpt>
      <trkpt lat="3.3938710670918226" lon="-76.51859790086746">
        <ele>979.8</ele>
        <time>2022-10-23T10:27:57.000Z</time>
      </trkpt>
      <trkpt lat="3.39340528473258" lon="-76.51793170720339">
        <ele>979.2</ele>
        <time>2022-10-23T10:28:09.000Z</time>
      </trkpt>
      <trkpt lat="3.392927600070834" lon="-76.51725118048489">
        <ele>978.8</ele>
        <time>2022-10-23T10:28:21.000Z</time>
      </trkpt>
      <trkpt lat="3.3928053081035614" lon="-76.51708748191595">
        <ele>978.8</ele>
        <time>2022-10-23T10:28:24.000Z</time>
      </trkpt>
      <trkpt lat="3.3923243544995785" lon="-76.51641994714737">
        <ele>978.4</ele>
        <time>2022-10-23T10:28:36.000Z</time>
      </trkpt>
      <trkpt lat="3.391878269612789" lon="-76.51578485034406">
        <ele>978</ele>
        <time>2022-10-23T10:28:48.000Z</time>
      </trkpt>
      <trkpt lat="3.3917600847780704" lon="-76.51571134105325">
        <ele>978</ele>
        <time>2022-10-23T10:28:51.000Z</time>
      </trkpt>
      <trkpt lat="3.391680372878909" lon="-76.51571343652904">
        <ele>978.4</ele>
        <time>2022-10-23T10:28:53.000Z</time>
      </trkpt>
      <trkpt lat="3.3916211128234863" lon="-76.51574620977044">
        <ele>978.6</ele>
        <time>2022-10-23T10:28:55.000Z</time>
      </trkpt>
      <trkpt lat="3.391019543632865" lon="-76.51610964909196">
        <ele>979.6</ele>
        <time>2022-10-23T10:29:13.000Z</time>
      </trkpt>
      <trkpt lat="3.390631377696991" lon="-76.51626295410097">
        <ele>981</ele>
        <time>2022-10-23T10:29:24.000Z</time>
      </trkpt>
      <trkpt lat="3.3898743242025375" lon="-76.51639035902917">
        <ele>985</ele>
        <time>2022-10-23T10:29:45.000Z</time>
      </trkpt>
      <trkpt lat="3.389155911281705" lon="-76.51646738871932">
        <ele>985.2</ele>
        <time>2022-10-23T10:30:05.000Z</time>
      </trkpt>
      <trkpt lat="3.3885840978473425" lon="-76.51658498682082">
        <ele>980.4</ele>
        <time>2022-10-23T10:30:27.000Z</time>
      </trkpt>
      <trkpt lat="3.3885525818914175" lon="-76.51658683083951">
        <ele>979.8</ele>
        <time>2022-10-23T10:30:41.000Z</time>
      </trkpt>
      <trkpt lat="3.3877897448837757" lon="-76.51661566458642">
        <ele>979.4</ele>
        <time>2022-10-23T10:31:02.000Z</time>
      </trkpt>
      <trkpt lat="3.3870225492864847" lon="-76.51663469150662">
        <ele>979.2</ele>
        <time>2022-10-23T10:31:18.000Z</time>
      </trkpt>
      <trkpt lat="3.386859353631735" lon="-76.5166478510946">
        <ele>979.6</ele>
        <time>2022-10-23T10:31:22.000Z</time>
      </trkpt>
      <trkpt lat="3.38609735481441" lon="-76.51664315722883">
        <ele>979</ele>
        <time>2022-10-23T10:31:37.000Z</time>
      </trkpt>
      <trkpt lat="3.385342061519623" lon="-76.5166533831507">
        <ele>978.6</ele>
        <time>2022-10-23T10:31:54.000Z</time>
      </trkpt>
      <trkpt lat="3.385273078456521" lon="-76.51662899181247">
        <ele>978.6</ele>
        <time>2022-10-23T10:32:08.000Z</time>
      </trkpt>
      <trkpt lat="3.3848125766962767" lon="-76.51659898459911">
        <ele>978.8</ele>
        <time>2022-10-23T10:32:18.000Z</time>
      </trkpt>
      <trkpt lat="3.384037585929036" lon="-76.5166253875941">
        <ele>979</ele>
        <time>2022-10-23T10:32:30.000Z</time>
      </trkpt>
      <trkpt lat="3.3832408860325813" lon="-76.51660443283617">
        <ele>979.2</ele>
        <time>2022-10-23T10:32:44.000Z</time>
      </trkpt>
      <trkpt lat="3.383007114753127" lon="-76.51658750139177">
        <ele>979</ele>
        <time>2022-10-23T10:32:51.000Z</time>
      </trkpt>
      <trkpt lat="3.3830058574676514" lon="-76.51656017638743">
        <ele>979.2</ele>
        <time>2022-10-23T10:32:53.000Z</time>
      </trkpt>
      <trkpt lat="3.383011892437935" lon="-76.51653100736439">
        <ele>979.4</ele>
        <time>2022-10-23T10:32:55.000Z</time>
      </trkpt>
      <trkpt lat="3.3830098807811737" lon="-76.51648465543985">
        <ele>979.2</ele>
        <time>2022-10-23T10:32:57.000Z</time>
      </trkpt>
      <trkpt lat="3.3830175921320915" lon="-76.51631936430931">
        <ele>979.2</ele>
        <time>2022-10-23T10:33:11.000Z</time>
      </trkpt>
      <trkpt lat="3.3830292429775" lon="-76.51631047949195">
        <ele>979.2</ele>
        <time>2022-10-23T10:33:13.000Z</time>
      </trkpt>
      <trkpt lat="3.3830357808619738" lon="-76.51626236736774">
        <ele>979</ele>
        <time>2022-10-23T10:33:50.000Z</time>
      </trkpt>
      <trkpt lat="3.3830515388399363" lon="-76.516252476722">
        <ele>979</ele>
        <time>2022-10-23T10:33:53.000Z</time>
      </trkpt>
      <trkpt lat="3.383231917396188" lon="-76.51623747311532">
        <ele>979</ele>
        <time>2022-10-23T10:33:59.000Z</time>
      </trkpt>
      <trkpt lat="3.3834263775497675" lon="-76.51623487472534">
        <ele>979.4</ele>
        <time>2022-10-23T10:34:03.000Z</time>
      </trkpt>
      <trkpt lat="3.38358286768198" lon="-76.51621744036674">
        <ele>979.4</ele>
        <time>2022-10-23T10:34:06.000Z</time>
      </trkpt>
      <trkpt lat="3.3836334105581045" lon="-76.51613965630531">
        <ele>979.2</ele>
        <time>2022-10-23T10:34:08.000Z</time>
      </trkpt>
      <trkpt lat="3.383667105808854" lon="-76.51571343652904">
        <ele>979</ele>
        <time>2022-10-23T10:34:17.000Z</time>
      </trkpt>
      <trkpt lat="3.383686887100339" lon="-76.51497038081288">
        <ele>979</ele>
        <time>2022-10-23T10:34:29.000Z</time>
      </trkpt>
      <trkpt lat="3.383685043081641" lon="-76.51441399008036">
        <ele>979.2</ele>
        <time>2022-10-23T10:34:39.000Z</time>
      </trkpt>
      <trkpt lat="3.383736088871956" lon="-76.51411919854581">
        <ele>979</ele>
        <time>2022-10-23T10:34:49.000Z</time>
      </trkpt>
      <trkpt lat="3.384193740785122" lon="-76.51349935680628">
        <ele>977.6</ele>
        <time>2022-10-23T10:35:05.000Z</time>
      </trkpt>
      <trkpt lat="3.38453178294003" lon="-76.51276594027877">
        <ele>977.2</ele>
        <time>2022-10-23T10:35:19.000Z</time>
      </trkpt>
      <trkpt lat="3.384722387418151" lon="-76.51201785542071">
        <ele>977.2</ele>
        <time>2022-10-23T10:35:32.000Z</time>
      </trkpt>
      <trkpt lat="3.3846762869507074" lon="-76.5116348862648">
        <ele>977.6</ele>
        <time>2022-10-23T10:35:40.000Z</time>
      </trkpt>
      <trkpt lat="3.384592803195119" lon="-76.5116346348077">
        <ele>977.8</ele>
        <time>2022-10-23T10:35:42.000Z</time>
      </trkpt>
      <trkpt lat="3.3838465623557568" lon="-76.51166648603976">
        <ele>977.8</ele>
        <time>2022-10-23T10:35:57.000Z</time>
      </trkpt>
      <trkpt lat="3.383073080331087" lon="-76.51169816963375">
        <ele>978</ele>
        <time>2022-10-23T10:36:10.000Z</time>
      </trkpt>
      <trkpt lat="3.3822850976139307" lon="-76.51173119433224">
        <ele>978</ele>
        <time>2022-10-23T10:36:23.000Z</time>
      </trkpt>
      <trkpt lat="3.3815087657421827" lon="-76.51176790706813">
        <ele>978.6</ele>
        <time>2022-10-23T10:36:36.000Z</time>
      </trkpt>
      <trkpt lat="3.3807357866317034" lon="-76.51178098283708">
        <ele>978.4</ele>
        <time>2022-10-23T10:36:49.000Z</time>
      </trkpt>
      <trkpt lat="3.3806577511131763" lon="-76.51170269586146">
        <ele>978.6</ele>
        <time>2022-10-23T10:36:51.000Z</time>
      </trkpt>
      <trkpt lat="3.3806108124554157" lon="-76.51126784272492">
        <ele>978.8</ele>
        <time>2022-10-23T10:36:59.000Z</time>
      </trkpt>
      <trkpt lat="3.3805873431265354" lon="-76.51077163405716">
        <ele>978.2</ele>
        <time>2022-10-23T10:37:09.000Z</time>
      </trkpt>
      <trkpt lat="3.380522383376956" lon="-76.51073433458805">
        <ele>978</ele>
        <time>2022-10-23T10:37:11.000Z</time>
      </trkpt>
      <trkpt lat="3.380075879395008" lon="-76.51076249778271">
        <ele>977.8</ele>
        <time>2022-10-23T10:37:20.000Z</time>
      </trkpt>
      <trkpt lat="3.3793005533516407" lon="-76.51077389717102">
        <ele>977.8</ele>
        <time>2022-10-23T10:37:34.000Z</time>
      </trkpt>
      <trkpt lat="3.379237772896886" lon="-76.51071916334331">
        <ele>977.8</ele>
        <time>2022-10-23T10:37:36.000Z</time>
      </trkpt>
      <trkpt lat="3.379203574731946" lon="-76.51061187498271">
        <ele>977.8</ele>
        <time>2022-10-23T10:37:39.000Z</time>
      </trkpt>
      <trkpt lat="3.379146410152316" lon="-76.5099511295557">
        <ele>977.2</ele>
        <time>2022-10-23T10:37:55.000Z</time>
      </trkpt>
      <trkpt lat="3.3791050873696804" lon="-76.50993838906288">
        <ele>977.4</ele>
        <time>2022-10-23T10:37:57.000Z</time>
      </trkpt>
      <trkpt lat="3.3790555503219366" lon="-76.50993838906288">
        <ele>977.4</ele>
        <time>2022-10-23T10:37:59.000Z</time>
      </trkpt>
      <trkpt lat="3.378940299153328" lon="-76.50991919450462">
        <ele>977.4</ele>
        <time>2022-10-23T10:38:05.000Z</time>
      </trkpt>
      <trkpt lat="3.378922864794731" lon="-76.50971040129662">
        <ele>977.8</ele>
        <time>2022-10-23T10:38:18.000Z</time>
      </trkpt>
      <trkpt lat="3.3789434004575014" lon="-76.50969137437642">
        <ele>977.8</ele>
        <time>2022-10-23T10:38:21.000Z</time>
      </trkpt>
    </trkseg>
  </trk>
</gpx>
